<?xml version="1.0" encoding="UTF-8"?>
<gpx version="1.1" creator="https://www.youtrack.es" xsi:schemaLocation="http://www.topografix.com/GPX/1/1 http://www.topografix.com/GPX/1/1/gpx.xsd http://www.garmin.com/xmlschemas/GpxExtensions/v3 http://www.garmin.com/xmlschemas/GpxExtensionsv3.xsd http://www.garmin.com/xmlschemas/TrackPointExtension/v1 http://www.garmin.com/xmlschemas/TrackPointExtensionv1.xsd" xmlns:gpxtpx="http://www.garmin.com/xmlschemas/TrackPointExtension/v1" xmlns:gpxx="http://www.garmin.com/xmlschemas/GpxExtensions/v3" xmlns:xsi="http://www.w3.org/2001/XMLSchema-instance">
  <metadata>
    <link href="https://www.youtrack.es">
      <text>YouTrack.es</text>
    </link>
    <time>2026-05-08T21:04:42Z</time>
  </metadata>
  <trk>
    <src>https://www.youtrack.es</src>
    <link href="https://www.youtrack.es/ruta/30721-bergaretxe-zegama-aizkorri">
      <text>YouTrack.es</text>
    </link>
    <trkseg>
      <trkpt lat="43.023782" lon="-2.333533">
        <ele>470.10</ele>
        <time>2022-03-23T08:55:07Z</time>
      </trkpt>
      <trkpt lat="43.023715" lon="-2.333566">
        <ele>471.00</ele>
        <time>2022-03-23T08:55:12Z</time>
      </trkpt>
      <trkpt lat="43.023662" lon="-2.333583">
        <ele>471.50</ele>
        <time>2022-03-23T08:55:17Z</time>
      </trkpt>
      <trkpt lat="43.023622" lon="-2.333613">
        <ele>471.70</ele>
        <time>2022-03-23T08:55:20Z</time>
      </trkpt>
      <trkpt lat="43.023569" lon="-2.333634">
        <ele>472.40</ele>
        <time>2022-03-23T08:55:25Z</time>
      </trkpt>
      <trkpt lat="43.023525" lon="-2.333661">
        <ele>472.40</ele>
        <time>2022-03-23T08:55:29Z</time>
      </trkpt>
      <trkpt lat="43.023484" lon="-2.333691">
        <ele>472.50</ele>
        <time>2022-03-23T08:55:32Z</time>
      </trkpt>
      <trkpt lat="43.023444" lon="-2.333733">
        <ele>472.30</ele>
        <time>2022-03-23T08:55:36Z</time>
      </trkpt>
      <trkpt lat="43.023435" lon="-2.333767">
        <ele>471.50</ele>
        <time>2022-03-23T08:55:39Z</time>
      </trkpt>
      <trkpt lat="43.023426" lon="-2.333790">
        <ele>471.30</ele>
        <time>2022-03-23T08:55:40Z</time>
      </trkpt>
      <trkpt lat="43.023420" lon="-2.333819">
        <ele>470.50</ele>
        <time>2022-03-23T08:55:42Z</time>
      </trkpt>
      <trkpt lat="43.023416" lon="-2.333866">
        <ele>476.40</ele>
        <time>2022-03-23T08:55:45Z</time>
      </trkpt>
      <trkpt lat="43.023395" lon="-2.333884">
        <ele>476.00</ele>
        <time>2022-03-23T08:55:47Z</time>
      </trkpt>
      <trkpt lat="43.023379" lon="-2.333903">
        <ele>475.50</ele>
        <time>2022-03-23T08:55:48Z</time>
      </trkpt>
      <trkpt lat="43.023359" lon="-2.333916">
        <ele>475.00</ele>
        <time>2022-03-23T08:55:50Z</time>
      </trkpt>
      <trkpt lat="43.023330" lon="-2.333936">
        <ele>474.70</ele>
        <time>2022-03-23T08:55:53Z</time>
      </trkpt>
      <trkpt lat="43.023302" lon="-2.333935">
        <ele>475.40</ele>
        <time>2022-03-23T08:55:55Z</time>
      </trkpt>
      <trkpt lat="43.023283" lon="-2.333918">
        <ele>476.40</ele>
        <time>2022-03-23T08:55:57Z</time>
      </trkpt>
      <trkpt lat="43.023263" lon="-2.333907">
        <ele>477.20</ele>
        <time>2022-03-23T08:55:58Z</time>
      </trkpt>
      <trkpt lat="43.023239" lon="-2.333908">
        <ele>477.80</ele>
        <time>2022-03-23T08:56:00Z</time>
      </trkpt>
      <trkpt lat="43.023222" lon="-2.333929">
        <ele>477.40</ele>
        <time>2022-03-23T08:56:02Z</time>
      </trkpt>
      <trkpt lat="43.023207" lon="-2.333948">
        <ele>477.10</ele>
        <time>2022-03-23T08:56:04Z</time>
      </trkpt>
      <trkpt lat="43.023191" lon="-2.333969">
        <ele>476.80</ele>
        <time>2022-03-23T08:56:06Z</time>
      </trkpt>
      <trkpt lat="43.023174" lon="-2.333981">
        <ele>476.70</ele>
        <time>2022-03-23T08:56:07Z</time>
      </trkpt>
      <trkpt lat="43.023151" lon="-2.333984">
        <ele>477.20</ele>
        <time>2022-03-23T08:56:09Z</time>
      </trkpt>
      <trkpt lat="43.023128" lon="-2.333990">
        <ele>477.50</ele>
        <time>2022-03-23T08:56:11Z</time>
      </trkpt>
      <trkpt lat="43.023098" lon="-2.333991">
        <ele>478.10</ele>
        <time>2022-03-23T08:56:13Z</time>
      </trkpt>
      <trkpt lat="43.023075" lon="-2.333990">
        <ele>478.70</ele>
        <time>2022-03-23T08:56:15Z</time>
      </trkpt>
      <trkpt lat="43.023045" lon="-2.333998">
        <ele>479.00</ele>
        <time>2022-03-23T08:56:18Z</time>
      </trkpt>
      <trkpt lat="43.023015" lon="-2.333992">
        <ele>479.60</ele>
        <time>2022-03-23T08:56:20Z</time>
      </trkpt>
      <trkpt lat="43.022993" lon="-2.334007">
        <ele>479.40</ele>
        <time>2022-03-23T08:56:22Z</time>
      </trkpt>
      <trkpt lat="43.022976" lon="-2.334015">
        <ele>479.30</ele>
        <time>2022-03-23T08:56:23Z</time>
      </trkpt>
      <trkpt lat="43.022957" lon="-2.334020">
        <ele>479.40</ele>
        <time>2022-03-23T08:56:25Z</time>
      </trkpt>
      <trkpt lat="43.022939" lon="-2.334023">
        <ele>479.60</ele>
        <time>2022-03-23T08:56:26Z</time>
      </trkpt>
      <trkpt lat="43.022912" lon="-2.334024">
        <ele>480.00</ele>
        <time>2022-03-23T08:56:29Z</time>
      </trkpt>
      <trkpt lat="43.022892" lon="-2.334030">
        <ele>480.10</ele>
        <time>2022-03-23T08:56:30Z</time>
      </trkpt>
      <trkpt lat="43.022871" lon="-2.334032">
        <ele>480.40</ele>
        <time>2022-03-23T08:56:32Z</time>
      </trkpt>
      <trkpt lat="43.022848" lon="-2.334046">
        <ele>480.10</ele>
        <time>2022-03-23T08:56:34Z</time>
      </trkpt>
      <trkpt lat="43.022835" lon="-2.334063">
        <ele>479.70</ele>
        <time>2022-03-23T08:56:35Z</time>
      </trkpt>
      <trkpt lat="43.022776" lon="-2.334108">
        <ele>478.50</ele>
        <time>2022-03-23T08:56:41Z</time>
      </trkpt>
      <trkpt lat="43.022758" lon="-2.334100">
        <ele>479.00</ele>
        <time>2022-03-23T08:56:42Z</time>
      </trkpt>
      <trkpt lat="43.022740" lon="-2.334095">
        <ele>479.30</ele>
        <time>2022-03-23T08:56:44Z</time>
      </trkpt>
      <trkpt lat="43.022682" lon="-2.334083">
        <ele>480.20</ele>
        <time>2022-03-23T08:56:48Z</time>
      </trkpt>
      <trkpt lat="43.022661" lon="-2.334077">
        <ele>480.50</ele>
        <time>2022-03-23T08:56:50Z</time>
      </trkpt>
      <trkpt lat="43.022640" lon="-2.334074">
        <ele>480.70</ele>
        <time>2022-03-23T08:56:52Z</time>
      </trkpt>
      <trkpt lat="43.022621" lon="-2.334062">
        <ele>481.30</ele>
        <time>2022-03-23T08:56:54Z</time>
      </trkpt>
      <trkpt lat="43.022587" lon="-2.334057">
        <ele>481.70</ele>
        <time>2022-03-23T08:56:56Z</time>
      </trkpt>
      <trkpt lat="43.022560" lon="-2.334045">
        <ele>482.50</ele>
        <time>2022-03-23T08:56:59Z</time>
      </trkpt>
      <trkpt lat="43.022536" lon="-2.334049">
        <ele>482.40</ele>
        <time>2022-03-23T08:57:00Z</time>
      </trkpt>
      <trkpt lat="43.022518" lon="-2.334059">
        <ele>481.90</ele>
        <time>2022-03-23T08:57:02Z</time>
      </trkpt>
      <trkpt lat="43.022491" lon="-2.334072">
        <ele>481.60</ele>
        <time>2022-03-23T08:57:04Z</time>
      </trkpt>
      <trkpt lat="43.022471" lon="-2.334090">
        <ele>480.90</ele>
        <time>2022-03-23T08:57:06Z</time>
      </trkpt>
      <trkpt lat="43.022457" lon="-2.334105">
        <ele>480.20</ele>
        <time>2022-03-23T08:57:08Z</time>
      </trkpt>
      <trkpt lat="43.022443" lon="-2.334126">
        <ele>479.40</ele>
        <time>2022-03-23T08:57:09Z</time>
      </trkpt>
      <trkpt lat="43.022422" lon="-2.334147">
        <ele>478.80</ele>
        <time>2022-03-23T08:57:11Z</time>
      </trkpt>
      <trkpt lat="43.022348" lon="-2.334216">
        <ele>476.90</ele>
        <time>2022-03-23T08:57:19Z</time>
      </trkpt>
      <trkpt lat="43.022325" lon="-2.334224">
        <ele>476.70</ele>
        <time>2022-03-23T08:57:20Z</time>
      </trkpt>
      <trkpt lat="43.022302" lon="-2.334238">
        <ele>476.40</ele>
        <time>2022-03-23T08:57:22Z</time>
      </trkpt>
      <trkpt lat="43.022269" lon="-2.334265">
        <ele>475.80</ele>
        <time>2022-03-23T08:57:26Z</time>
      </trkpt>
      <trkpt lat="43.022252" lon="-2.334245">
        <ele>476.70</ele>
        <time>2022-03-23T08:57:27Z</time>
      </trkpt>
      <trkpt lat="43.022225" lon="-2.334246">
        <ele>476.90</ele>
        <time>2022-03-23T08:57:29Z</time>
      </trkpt>
      <trkpt lat="43.022204" lon="-2.334252">
        <ele>476.70</ele>
        <time>2022-03-23T08:57:31Z</time>
      </trkpt>
      <trkpt lat="43.022170" lon="-2.334251">
        <ele>476.80</ele>
        <time>2022-03-23T08:57:34Z</time>
      </trkpt>
      <trkpt lat="43.022070" lon="-2.334253">
        <ele>476.90</ele>
        <time>2022-03-23T08:57:42Z</time>
      </trkpt>
      <trkpt lat="43.021980" lon="-2.334241">
        <ele>477.50</ele>
        <time>2022-03-23T08:57:49Z</time>
      </trkpt>
      <trkpt lat="43.021886" lon="-2.334252">
        <ele>477.40</ele>
        <time>2022-03-23T08:57:57Z</time>
      </trkpt>
      <trkpt lat="43.021795" lon="-2.334243">
        <ele>478.00</ele>
        <time>2022-03-23T08:58:04Z</time>
      </trkpt>
      <trkpt lat="43.021733" lon="-2.334246">
        <ele>478.00</ele>
        <time>2022-03-23T08:58:09Z</time>
      </trkpt>
      <trkpt lat="43.021680" lon="-2.334260">
        <ele>477.60</ele>
        <time>2022-03-23T08:58:13Z</time>
      </trkpt>
      <trkpt lat="43.021589" lon="-2.334235">
        <ele>478.90</ele>
        <time>2022-03-23T08:58:21Z</time>
      </trkpt>
      <trkpt lat="43.021542" lon="-2.334254">
        <ele>478.40</ele>
        <time>2022-03-23T08:58:25Z</time>
      </trkpt>
      <trkpt lat="43.021443" lon="-2.334235">
        <ele>479.60</ele>
        <time>2022-03-23T08:58:33Z</time>
      </trkpt>
      <trkpt lat="43.021422" lon="-2.334240">
        <ele>479.50</ele>
        <time>2022-03-23T08:58:34Z</time>
      </trkpt>
      <trkpt lat="43.021333" lon="-2.334206">
        <ele>480.50</ele>
        <time>2022-03-23T08:58:42Z</time>
      </trkpt>
      <trkpt lat="43.021250" lon="-2.334137">
        <ele>482.20</ele>
        <time>2022-03-23T08:58:50Z</time>
      </trkpt>
      <trkpt lat="43.021156" lon="-2.334106">
        <ele>482.50</ele>
        <time>2022-03-23T08:58:57Z</time>
      </trkpt>
      <trkpt lat="43.021079" lon="-2.334028">
        <ele>484.10</ele>
        <time>2022-03-23T08:59:05Z</time>
      </trkpt>
      <trkpt lat="43.021028" lon="-2.333979">
        <ele>485.40</ele>
        <time>2022-03-23T08:59:10Z</time>
      </trkpt>
      <trkpt lat="43.020942" lon="-2.333942">
        <ele>486.40</ele>
        <time>2022-03-23T08:59:17Z</time>
      </trkpt>
      <trkpt lat="43.020909" lon="-2.333944">
        <ele>486.50</ele>
        <time>2022-03-23T08:59:20Z</time>
      </trkpt>
      <trkpt lat="43.020891" lon="-2.333955">
        <ele>486.20</ele>
        <time>2022-03-23T08:59:21Z</time>
      </trkpt>
      <trkpt lat="43.020908" lon="-2.333982">
        <ele>485.50</ele>
        <time>2022-03-23T08:59:23Z</time>
      </trkpt>
      <trkpt lat="43.020906" lon="-2.334009">
        <ele>484.80</ele>
        <time>2022-03-23T08:59:25Z</time>
      </trkpt>
      <trkpt lat="43.020894" lon="-2.334030">
        <ele>484.40</ele>
        <time>2022-03-23T08:59:27Z</time>
      </trkpt>
      <trkpt lat="43.020874" lon="-2.334030">
        <ele>484.50</ele>
        <time>2022-03-23T08:59:28Z</time>
      </trkpt>
      <trkpt lat="43.020857" lon="-2.334018">
        <ele>484.80</ele>
        <time>2022-03-23T08:59:30Z</time>
      </trkpt>
      <trkpt lat="43.020826" lon="-2.334026">
        <ele>484.50</ele>
        <time>2022-03-23T08:59:32Z</time>
      </trkpt>
      <trkpt lat="43.020762" lon="-2.333991">
        <ele>484.60</ele>
        <time>2022-03-23T08:59:38Z</time>
      </trkpt>
      <trkpt lat="43.020748" lon="-2.333961">
        <ele>485.30</ele>
        <time>2022-03-23T08:59:40Z</time>
      </trkpt>
      <trkpt lat="43.020734" lon="-2.333945">
        <ele>485.50</ele>
        <time>2022-03-23T08:59:41Z</time>
      </trkpt>
      <trkpt lat="43.020688" lon="-2.333925">
        <ele>485.60</ele>
        <time>2022-03-23T08:59:45Z</time>
      </trkpt>
      <trkpt lat="43.020670" lon="-2.333910">
        <ele>485.70</ele>
        <time>2022-03-23T08:59:47Z</time>
      </trkpt>
      <trkpt lat="43.020648" lon="-2.333903">
        <ele>485.60</ele>
        <time>2022-03-23T08:59:49Z</time>
      </trkpt>
      <trkpt lat="43.020635" lon="-2.333938">
        <ele>484.50</ele>
        <time>2022-03-23T08:59:51Z</time>
      </trkpt>
      <trkpt lat="43.020580" lon="-2.333967">
        <ele>483.10</ele>
        <time>2022-03-23T08:59:56Z</time>
      </trkpt>
      <trkpt lat="43.020487" lon="-2.333912">
        <ele>483.10</ele>
        <time>2022-03-23T09:00:04Z</time>
      </trkpt>
      <trkpt lat="43.020390" lon="-2.333895">
        <ele>482.00</ele>
        <time>2022-03-23T09:00:12Z</time>
      </trkpt>
      <trkpt lat="43.020298" lon="-2.333896">
        <ele>480.30</ele>
        <time>2022-03-23T09:00:19Z</time>
      </trkpt>
      <trkpt lat="43.020202" lon="-2.333874">
        <ele>480.20</ele>
        <time>2022-03-23T09:00:27Z</time>
      </trkpt>
      <trkpt lat="43.020121" lon="-2.333937">
        <ele>478.30</ele>
        <time>2022-03-23T09:00:34Z</time>
      </trkpt>
      <trkpt lat="43.020027" lon="-2.333909">
        <ele>486.40</ele>
        <time>2022-03-23T09:00:42Z</time>
      </trkpt>
      <trkpt lat="43.019991" lon="-2.333905">
        <ele>486.50</ele>
        <time>2022-03-23T09:00:45Z</time>
      </trkpt>
      <trkpt lat="43.019903" lon="-2.333891">
        <ele>486.70</ele>
        <time>2022-03-23T09:00:52Z</time>
      </trkpt>
      <trkpt lat="43.019795" lon="-2.333867">
        <ele>487.10</ele>
        <time>2022-03-23T09:01:01Z</time>
      </trkpt>
      <trkpt lat="43.019676" lon="-2.333850">
        <ele>487.20</ele>
        <time>2022-03-23T09:01:10Z</time>
      </trkpt>
      <trkpt lat="43.019555" lon="-2.333839">
        <ele>486.70</ele>
        <time>2022-03-23T09:01:20Z</time>
      </trkpt>
      <trkpt lat="43.019484" lon="-2.333873">
        <ele>486.90</ele>
        <time>2022-03-23T09:01:26Z</time>
      </trkpt>
      <trkpt lat="43.019394" lon="-2.333887">
        <ele>487.60</ele>
        <time>2022-03-23T09:01:33Z</time>
      </trkpt>
      <trkpt lat="43.019307" lon="-2.333920">
        <ele>487.70</ele>
        <time>2022-03-23T09:01:41Z</time>
      </trkpt>
      <trkpt lat="43.019219" lon="-2.333951">
        <ele>487.90</ele>
        <time>2022-03-23T09:01:48Z</time>
      </trkpt>
      <trkpt lat="43.019130" lon="-2.333925">
        <ele>489.60</ele>
        <time>2022-03-23T09:01:55Z</time>
      </trkpt>
      <trkpt lat="43.019038" lon="-2.333962">
        <ele>489.50</ele>
        <time>2022-03-23T09:02:03Z</time>
      </trkpt>
      <trkpt lat="43.018951" lon="-2.334001">
        <ele>489.30</ele>
        <time>2022-03-23T09:02:10Z</time>
      </trkpt>
      <trkpt lat="43.018884" lon="-2.334054">
        <ele>488.20</ele>
        <time>2022-03-23T09:02:16Z</time>
      </trkpt>
      <trkpt lat="43.018866" lon="-2.334049">
        <ele>488.50</ele>
        <time>2022-03-23T09:02:18Z</time>
      </trkpt>
      <trkpt lat="43.018844" lon="-2.334030">
        <ele>489.00</ele>
        <time>2022-03-23T09:02:20Z</time>
      </trkpt>
      <trkpt lat="43.018818" lon="-2.334022">
        <ele>489.30</ele>
        <time>2022-03-23T09:02:22Z</time>
      </trkpt>
      <trkpt lat="43.018798" lon="-2.334012">
        <ele>489.50</ele>
        <time>2022-03-23T09:02:24Z</time>
      </trkpt>
      <trkpt lat="43.018774" lon="-2.334006">
        <ele>489.80</ele>
        <time>2022-03-23T09:02:26Z</time>
      </trkpt>
      <trkpt lat="43.018727" lon="-2.333891">
        <ele>493.50</ele>
        <time>2022-03-23T09:02:33Z</time>
      </trkpt>
      <trkpt lat="43.018709" lon="-2.333888">
        <ele>493.70</ele>
        <time>2022-03-23T09:02:35Z</time>
      </trkpt>
      <trkpt lat="43.018629" lon="-2.333823">
        <ele>495.90</ele>
        <time>2022-03-23T09:02:42Z</time>
      </trkpt>
      <trkpt lat="43.018538" lon="-2.333810">
        <ele>495.80</ele>
        <time>2022-03-23T09:02:50Z</time>
      </trkpt>
      <trkpt lat="43.018509" lon="-2.333819">
        <ele>495.40</ele>
        <time>2022-03-23T09:02:52Z</time>
      </trkpt>
      <trkpt lat="43.018410" lon="-2.333804">
        <ele>495.00</ele>
        <time>2022-03-23T09:03:00Z</time>
      </trkpt>
      <trkpt lat="43.018387" lon="-2.333806">
        <ele>494.90</ele>
        <time>2022-03-23T09:03:02Z</time>
      </trkpt>
      <trkpt lat="43.018365" lon="-2.333784">
        <ele>495.20</ele>
        <time>2022-03-23T09:03:04Z</time>
      </trkpt>
      <trkpt lat="43.018288" lon="-2.333718">
        <ele>496.40</ele>
        <time>2022-03-23T09:03:11Z</time>
      </trkpt>
      <trkpt lat="43.018233" lon="-2.333714">
        <ele>495.80</ele>
        <time>2022-03-23T09:03:16Z</time>
      </trkpt>
      <trkpt lat="43.018181" lon="-2.333608">
        <ele>498.60</ele>
        <time>2022-03-23T09:03:23Z</time>
      </trkpt>
      <trkpt lat="43.018099" lon="-2.333553">
        <ele>500.10</ele>
        <time>2022-03-23T09:03:30Z</time>
      </trkpt>
      <trkpt lat="43.018029" lon="-2.333475">
        <ele>503.00</ele>
        <time>2022-03-23T09:03:38Z</time>
      </trkpt>
      <trkpt lat="43.017945" lon="-2.333413">
        <ele>504.50</ele>
        <time>2022-03-23T09:03:45Z</time>
      </trkpt>
      <trkpt lat="43.017849" lon="-2.333367">
        <ele>504.90</ele>
        <time>2022-03-23T09:03:53Z</time>
      </trkpt>
      <trkpt lat="43.017753" lon="-2.333337">
        <ele>504.90</ele>
        <time>2022-03-23T09:04:01Z</time>
      </trkpt>
      <trkpt lat="43.017664" lon="-2.333370">
        <ele>503.50</ele>
        <time>2022-03-23T09:04:09Z</time>
      </trkpt>
      <trkpt lat="43.017594" lon="-2.333292">
        <ele>506.90</ele>
        <time>2022-03-23T09:04:16Z</time>
      </trkpt>
      <trkpt lat="43.017503" lon="-2.333318">
        <ele>505.80</ele>
        <time>2022-03-23T09:04:23Z</time>
      </trkpt>
      <trkpt lat="43.017409" lon="-2.333275">
        <ele>506.90</ele>
        <time>2022-03-23T09:04:31Z</time>
      </trkpt>
      <trkpt lat="43.017316" lon="-2.333273">
        <ele>506.50</ele>
        <time>2022-03-23T09:04:39Z</time>
      </trkpt>
      <trkpt lat="43.017223" lon="-2.333291">
        <ele>505.00</ele>
        <time>2022-03-23T09:04:46Z</time>
      </trkpt>
      <trkpt lat="43.017119" lon="-2.333306">
        <ele>504.00</ele>
        <time>2022-03-23T09:04:55Z</time>
      </trkpt>
      <trkpt lat="43.017017" lon="-2.333311">
        <ele>503.30</ele>
        <time>2022-03-23T09:05:03Z</time>
      </trkpt>
      <trkpt lat="43.016920" lon="-2.333352">
        <ele>500.90</ele>
        <time>2022-03-23T09:05:11Z</time>
      </trkpt>
      <trkpt lat="43.016831" lon="-2.333384">
        <ele>498.40</ele>
        <time>2022-03-23T09:05:18Z</time>
      </trkpt>
      <trkpt lat="43.016749" lon="-2.333317">
        <ele>500.70</ele>
        <time>2022-03-23T09:05:26Z</time>
      </trkpt>
      <trkpt lat="43.016659" lon="-2.333280">
        <ele>501.30</ele>
        <time>2022-03-23T09:05:33Z</time>
      </trkpt>
      <trkpt lat="43.016574" lon="-2.333224">
        <ele>502.10</ele>
        <time>2022-03-23T09:05:41Z</time>
      </trkpt>
      <trkpt lat="43.016522" lon="-2.333269">
        <ele>498.70</ele>
        <time>2022-03-23T09:05:46Z</time>
      </trkpt>
      <trkpt lat="43.016471" lon="-2.333240">
        <ele>499.00</ele>
        <time>2022-03-23T09:05:50Z</time>
      </trkpt>
      <trkpt lat="43.016397" lon="-2.333159">
        <ele>501.60</ele>
        <time>2022-03-23T09:05:58Z</time>
      </trkpt>
      <trkpt lat="43.016341" lon="-2.333060">
        <ele>505.70</ele>
        <time>2022-03-23T09:06:05Z</time>
      </trkpt>
      <trkpt lat="43.016251" lon="-2.333046">
        <ele>504.50</ele>
        <time>2022-03-23T09:06:13Z</time>
      </trkpt>
      <trkpt lat="43.016146" lon="-2.333065">
        <ele>501.20</ele>
        <time>2022-03-23T09:06:21Z</time>
      </trkpt>
      <trkpt lat="43.016050" lon="-2.333079">
        <ele>498.80</ele>
        <time>2022-03-23T09:06:29Z</time>
      </trkpt>
      <trkpt lat="43.015996" lon="-2.332972">
        <ele>502.70</ele>
        <time>2022-03-23T09:06:36Z</time>
      </trkpt>
      <trkpt lat="43.015898" lon="-2.332926">
        <ele>502.90</ele>
        <time>2022-03-23T09:06:45Z</time>
      </trkpt>
      <trkpt lat="43.015810" lon="-2.332893">
        <ele>502.90</ele>
        <time>2022-03-23T09:06:52Z</time>
      </trkpt>
      <trkpt lat="43.015722" lon="-2.332865">
        <ele>503.30</ele>
        <time>2022-03-23T09:06:59Z</time>
      </trkpt>
      <trkpt lat="43.015628" lon="-2.332838">
        <ele>503.90</ele>
        <time>2022-03-23T09:07:07Z</time>
      </trkpt>
      <trkpt lat="43.015538" lon="-2.332872">
        <ele>501.50</ele>
        <time>2022-03-23T09:07:14Z</time>
      </trkpt>
      <trkpt lat="43.015447" lon="-2.332873">
        <ele>500.30</ele>
        <time>2022-03-23T09:07:22Z</time>
      </trkpt>
      <trkpt lat="43.015366" lon="-2.332927">
        <ele>497.10</ele>
        <time>2022-03-23T09:07:29Z</time>
      </trkpt>
      <trkpt lat="43.015270" lon="-2.332881">
        <ele>497.80</ele>
        <time>2022-03-23T09:07:37Z</time>
      </trkpt>
      <trkpt lat="43.015192" lon="-2.332812">
        <ele>499.60</ele>
        <time>2022-03-23T09:07:44Z</time>
      </trkpt>
      <trkpt lat="43.015106" lon="-2.332848">
        <ele>497.40</ele>
        <time>2022-03-23T09:07:52Z</time>
      </trkpt>
      <trkpt lat="43.015030" lon="-2.332916">
        <ele>494.70</ele>
        <time>2022-03-23T09:07:59Z</time>
      </trkpt>
      <trkpt lat="43.014939" lon="-2.332901">
        <ele>494.30</ele>
        <time>2022-03-23T09:08:06Z</time>
      </trkpt>
      <trkpt lat="43.014857" lon="-2.332968">
        <ele>491.90</ele>
        <time>2022-03-23T09:08:14Z</time>
      </trkpt>
      <trkpt lat="43.014765" lon="-2.333029">
        <ele>489.90</ele>
        <time>2022-03-23T09:08:22Z</time>
      </trkpt>
      <trkpt lat="43.014675" lon="-2.333055">
        <ele>488.60</ele>
        <time>2022-03-23T09:08:29Z</time>
      </trkpt>
      <trkpt lat="43.014601" lon="-2.333129">
        <ele>485.80</ele>
        <time>2022-03-23T09:08:37Z</time>
      </trkpt>
      <trkpt lat="43.014505" lon="-2.333113">
        <ele>485.30</ele>
        <time>2022-03-23T09:08:45Z</time>
      </trkpt>
      <trkpt lat="43.014406" lon="-2.333142">
        <ele>484.00</ele>
        <time>2022-03-23T09:08:53Z</time>
      </trkpt>
      <trkpt lat="43.014317" lon="-2.333094">
        <ele>484.40</ele>
        <time>2022-03-23T09:09:00Z</time>
      </trkpt>
      <trkpt lat="43.014261" lon="-2.333082">
        <ele>484.40</ele>
        <time>2022-03-23T09:09:05Z</time>
      </trkpt>
      <trkpt lat="43.014239" lon="-2.333081">
        <ele>484.20</ele>
        <time>2022-03-23T09:09:07Z</time>
      </trkpt>
      <trkpt lat="43.014183" lon="-2.333034">
        <ele>484.40</ele>
        <time>2022-03-23T09:09:12Z</time>
      </trkpt>
      <trkpt lat="43.014102" lon="-2.332967">
        <ele>484.60</ele>
        <time>2022-03-23T09:09:19Z</time>
      </trkpt>
      <trkpt lat="43.014014" lon="-2.333004">
        <ele>483.70</ele>
        <time>2022-03-23T09:09:27Z</time>
      </trkpt>
      <trkpt lat="43.013921" lon="-2.333002">
        <ele>483.30</ele>
        <time>2022-03-23T09:09:34Z</time>
      </trkpt>
      <trkpt lat="43.013832" lon="-2.333046">
        <ele>482.60</ele>
        <time>2022-03-23T09:09:42Z</time>
      </trkpt>
      <trkpt lat="43.013752" lon="-2.332973">
        <ele>485.20</ele>
        <time>2022-03-23T09:09:50Z</time>
      </trkpt>
      <trkpt lat="43.013665" lon="-2.332915">
        <ele>487.60</ele>
        <time>2022-03-23T09:09:57Z</time>
      </trkpt>
      <trkpt lat="43.013610" lon="-2.332872">
        <ele>489.40</ele>
        <time>2022-03-23T09:10:02Z</time>
      </trkpt>
      <trkpt lat="43.013584" lon="-2.332909">
        <ele>488.20</ele>
        <time>2022-03-23T09:10:05Z</time>
      </trkpt>
      <trkpt lat="43.013491" lon="-2.332871">
        <ele>489.30</ele>
        <time>2022-03-23T09:10:13Z</time>
      </trkpt>
      <trkpt lat="43.013424" lon="-2.332779">
        <ele>492.00</ele>
        <time>2022-03-23T09:10:21Z</time>
      </trkpt>
      <trkpt lat="43.013400" lon="-2.332785">
        <ele>491.80</ele>
        <time>2022-03-23T09:10:23Z</time>
      </trkpt>
      <trkpt lat="43.013361" lon="-2.332814">
        <ele>490.80</ele>
        <time>2022-03-23T09:10:26Z</time>
      </trkpt>
      <trkpt lat="43.013335" lon="-2.332814">
        <ele>490.90</ele>
        <time>2022-03-23T09:10:28Z</time>
      </trkpt>
      <trkpt lat="43.013252" lon="-2.332746">
        <ele>492.60</ele>
        <time>2022-03-23T09:10:36Z</time>
      </trkpt>
      <trkpt lat="43.013164" lon="-2.332705">
        <ele>493.40</ele>
        <time>2022-03-23T09:10:43Z</time>
      </trkpt>
      <trkpt lat="43.013071" lon="-2.332679">
        <ele>493.60</ele>
        <time>2022-03-23T09:10:51Z</time>
      </trkpt>
      <trkpt lat="43.013031" lon="-2.332677">
        <ele>493.60</ele>
        <time>2022-03-23T09:10:54Z</time>
      </trkpt>
      <trkpt lat="43.013034" lon="-2.332703">
        <ele>492.60</ele>
        <time>2022-03-23T09:10:56Z</time>
      </trkpt>
      <trkpt lat="43.013018" lon="-2.332692">
        <ele>492.90</ele>
        <time>2022-03-23T09:10:57Z</time>
      </trkpt>
      <trkpt lat="43.012940" lon="-2.332624">
        <ele>495.00</ele>
        <time>2022-03-23T09:11:05Z</time>
      </trkpt>
      <trkpt lat="43.012902" lon="-2.332615">
        <ele>495.10</ele>
        <time>2022-03-23T09:11:08Z</time>
      </trkpt>
      <trkpt lat="43.012914" lon="-2.332635">
        <ele>494.40</ele>
        <time>2022-03-23T09:11:09Z</time>
      </trkpt>
      <trkpt lat="43.012947" lon="-2.332665">
        <ele>493.40</ele>
        <time>2022-03-23T09:11:12Z</time>
      </trkpt>
      <trkpt lat="43.012864" lon="-2.332595">
        <ele>495.70</ele>
        <time>2022-03-23T09:11:20Z</time>
      </trkpt>
      <trkpt lat="43.012775" lon="-2.332573">
        <ele>496.10</ele>
        <time>2022-03-23T09:11:28Z</time>
      </trkpt>
      <trkpt lat="43.012690" lon="-2.332524">
        <ele>497.40</ele>
        <time>2022-03-23T09:11:35Z</time>
      </trkpt>
      <trkpt lat="43.012601" lon="-2.332459">
        <ele>499.50</ele>
        <time>2022-03-23T09:11:43Z</time>
      </trkpt>
      <trkpt lat="43.012510" lon="-2.332399">
        <ele>501.10</ele>
        <time>2022-03-23T09:11:51Z</time>
      </trkpt>
      <trkpt lat="43.012422" lon="-2.332376">
        <ele>499.90</ele>
        <time>2022-03-23T09:11:58Z</time>
      </trkpt>
      <trkpt lat="43.012352" lon="-2.332285">
        <ele>502.10</ele>
        <time>2022-03-23T09:12:06Z</time>
      </trkpt>
      <trkpt lat="43.012267" lon="-2.332218">
        <ele>503.10</ele>
        <time>2022-03-23T09:12:14Z</time>
      </trkpt>
      <trkpt lat="43.012207" lon="-2.332121">
        <ele>505.10</ele>
        <time>2022-03-23T09:12:21Z</time>
      </trkpt>
      <trkpt lat="43.012118" lon="-2.332047">
        <ele>504.10</ele>
        <time>2022-03-23T09:12:30Z</time>
      </trkpt>
      <trkpt lat="43.012030" lon="-2.331967">
        <ele>503.50</ele>
        <time>2022-03-23T09:12:38Z</time>
      </trkpt>
      <trkpt lat="43.011961" lon="-2.331885">
        <ele>503.60</ele>
        <time>2022-03-23T09:12:45Z</time>
      </trkpt>
      <trkpt lat="43.011884" lon="-2.331822">
        <ele>502.90</ele>
        <time>2022-03-23T09:12:53Z</time>
      </trkpt>
      <trkpt lat="43.011806" lon="-2.331729">
        <ele>503.00</ele>
        <time>2022-03-23T09:13:01Z</time>
      </trkpt>
      <trkpt lat="43.011732" lon="-2.331641">
        <ele>503.30</ele>
        <time>2022-03-23T09:13:09Z</time>
      </trkpt>
      <trkpt lat="43.011657" lon="-2.331554">
        <ele>503.50</ele>
        <time>2022-03-23T09:13:17Z</time>
      </trkpt>
      <trkpt lat="43.011568" lon="-2.331518">
        <ele>502.30</ele>
        <time>2022-03-23T09:13:24Z</time>
      </trkpt>
      <trkpt lat="43.011473" lon="-2.331502">
        <ele>500.60</ele>
        <time>2022-03-23T09:13:32Z</time>
      </trkpt>
      <trkpt lat="43.011383" lon="-2.331509">
        <ele>498.00</ele>
        <time>2022-03-23T09:13:39Z</time>
      </trkpt>
      <trkpt lat="43.011284" lon="-2.331439">
        <ele>497.50</ele>
        <time>2022-03-23T09:13:48Z</time>
      </trkpt>
      <trkpt lat="43.011194" lon="-2.331402">
        <ele>496.00</ele>
        <time>2022-03-23T09:13:55Z</time>
      </trkpt>
      <trkpt lat="43.011113" lon="-2.331343">
        <ele>495.20</ele>
        <time>2022-03-23T09:14:03Z</time>
      </trkpt>
      <trkpt lat="43.011015" lon="-2.331363">
        <ele>493.60</ele>
        <time>2022-03-23T09:14:11Z</time>
      </trkpt>
      <trkpt lat="43.011015" lon="-2.331498">
        <ele>490.60</ele>
        <time>2022-03-23T09:14:18Z</time>
      </trkpt>
      <trkpt lat="43.011095" lon="-2.331578">
        <ele>489.30</ele>
        <time>2022-03-23T09:14:26Z</time>
      </trkpt>
      <trkpt lat="43.011150" lon="-2.331681">
        <ele>487.80</ele>
        <time>2022-03-23T09:14:34Z</time>
      </trkpt>
      <trkpt lat="43.011186" lon="-2.331742">
        <ele>487.80</ele>
        <time>2022-03-23T09:14:38Z</time>
      </trkpt>
      <trkpt lat="43.011191" lon="-2.331797">
        <ele>508.30</ele>
        <time>2022-03-23T09:14:42Z</time>
      </trkpt>
      <trkpt lat="43.011160" lon="-2.331906">
        <ele>504.10</ele>
        <time>2022-03-23T09:14:49Z</time>
      </trkpt>
      <trkpt lat="43.011118" lon="-2.331871">
        <ele>504.60</ele>
        <time>2022-03-23T09:14:53Z</time>
      </trkpt>
      <trkpt lat="43.010895" lon="-2.331703">
        <ele>505.20</ele>
        <time>2022-03-23T09:15:13Z</time>
      </trkpt>
      <trkpt lat="43.010713" lon="-2.331535">
        <ele>506.40</ele>
        <time>2022-03-23T09:15:30Z</time>
      </trkpt>
      <trkpt lat="43.010499" lon="-2.331464">
        <ele>503.30</ele>
        <time>2022-03-23T09:15:48Z</time>
      </trkpt>
      <trkpt lat="43.010352" lon="-2.331340">
        <ele>502.80</ele>
        <time>2022-03-23T09:16:02Z</time>
      </trkpt>
      <trkpt lat="43.010118" lon="-2.331176">
        <ele>500.00</ele>
        <time>2022-03-23T09:16:23Z</time>
      </trkpt>
      <trkpt lat="43.009896" lon="-2.331019">
        <ele>498.70</ele>
        <time>2022-03-23T09:16:43Z</time>
      </trkpt>
      <trkpt lat="43.009665" lon="-2.330844">
        <ele>498.80</ele>
        <time>2022-03-23T09:17:04Z</time>
      </trkpt>
      <trkpt lat="43.009488" lon="-2.330665">
        <ele>500.90</ele>
        <time>2022-03-23T09:17:22Z</time>
      </trkpt>
      <trkpt lat="43.009317" lon="-2.330549">
        <ele>501.20</ele>
        <time>2022-03-23T09:17:37Z</time>
      </trkpt>
      <trkpt lat="43.009065" lon="-2.330451">
        <ele>500.30</ele>
        <time>2022-03-23T09:17:58Z</time>
      </trkpt>
      <trkpt lat="43.008930" lon="-2.330348">
        <ele>501.50</ele>
        <time>2022-03-23T09:18:10Z</time>
      </trkpt>
      <trkpt lat="43.008797" lon="-2.330251">
        <ele>502.10</ele>
        <time>2022-03-23T09:18:22Z</time>
      </trkpt>
      <trkpt lat="43.008688" lon="-2.330161">
        <ele>502.50</ele>
        <time>2022-03-23T09:18:33Z</time>
      </trkpt>
      <trkpt lat="43.008565" lon="-2.330085">
        <ele>502.40</ele>
        <time>2022-03-23T09:18:43Z</time>
      </trkpt>
      <trkpt lat="43.008400" lon="-2.329966">
        <ele>502.30</ele>
        <time>2022-03-23T09:18:58Z</time>
      </trkpt>
      <trkpt lat="43.008222" lon="-2.329831">
        <ele>503.50</ele>
        <time>2022-03-23T09:19:15Z</time>
      </trkpt>
      <trkpt lat="43.008071" lon="-2.329754">
        <ele>503.60</ele>
        <time>2022-03-23T09:19:28Z</time>
      </trkpt>
      <trkpt lat="43.007945" lon="-2.329687">
        <ele>503.30</ele>
        <time>2022-03-23T09:19:38Z</time>
      </trkpt>
      <trkpt lat="43.007770" lon="-2.329606">
        <ele>502.40</ele>
        <time>2022-03-23T09:19:53Z</time>
      </trkpt>
      <trkpt lat="43.007636" lon="-2.329532">
        <ele>501.70</ele>
        <time>2022-03-23T09:20:05Z</time>
      </trkpt>
      <trkpt lat="43.007432" lon="-2.329410">
        <ele>501.00</ele>
        <time>2022-03-23T09:20:23Z</time>
      </trkpt>
      <trkpt lat="43.007282" lon="-2.329309">
        <ele>501.80</ele>
        <time>2022-03-23T09:20:36Z</time>
      </trkpt>
      <trkpt lat="43.007156" lon="-2.329243">
        <ele>502.20</ele>
        <time>2022-03-23T09:20:47Z</time>
      </trkpt>
      <trkpt lat="43.007071" lon="-2.329237">
        <ele>502.10</ele>
        <time>2022-03-23T09:20:54Z</time>
      </trkpt>
      <trkpt lat="43.006979" lon="-2.329228">
        <ele>502.10</ele>
        <time>2022-03-23T09:21:01Z</time>
      </trkpt>
      <trkpt lat="43.006886" lon="-2.329237">
        <ele>502.00</ele>
        <time>2022-03-23T09:21:08Z</time>
      </trkpt>
      <trkpt lat="43.006769" lon="-2.329251">
        <ele>501.90</ele>
        <time>2022-03-23T09:21:18Z</time>
      </trkpt>
      <trkpt lat="43.006648" lon="-2.329230">
        <ele>502.00</ele>
        <time>2022-03-23T09:21:28Z</time>
      </trkpt>
      <trkpt lat="43.006555" lon="-2.329217">
        <ele>502.40</ele>
        <time>2022-03-23T09:21:35Z</time>
      </trkpt>
      <trkpt lat="43.006482" lon="-2.329207">
        <ele>502.70</ele>
        <time>2022-03-23T09:21:41Z</time>
      </trkpt>
      <trkpt lat="43.006412" lon="-2.329190">
        <ele>503.00</ele>
        <time>2022-03-23T09:21:47Z</time>
      </trkpt>
      <trkpt lat="43.006330" lon="-2.329177">
        <ele>503.20</ele>
        <time>2022-03-23T09:21:53Z</time>
      </trkpt>
      <trkpt lat="43.006246" lon="-2.329145">
        <ele>503.80</ele>
        <time>2022-03-23T09:22:00Z</time>
      </trkpt>
      <trkpt lat="43.006189" lon="-2.329097">
        <ele>505.10</ele>
        <time>2022-03-23T09:22:06Z</time>
      </trkpt>
      <trkpt lat="43.006113" lon="-2.329035">
        <ele>506.80</ele>
        <time>2022-03-23T09:22:13Z</time>
      </trkpt>
      <trkpt lat="43.006048" lon="-2.328957">
        <ele>508.70</ele>
        <time>2022-03-23T09:22:20Z</time>
      </trkpt>
      <trkpt lat="43.005999" lon="-2.328891">
        <ele>510.20</ele>
        <time>2022-03-23T09:22:25Z</time>
      </trkpt>
      <trkpt lat="43.005934" lon="-2.328787">
        <ele>512.50</ele>
        <time>2022-03-23T09:22:33Z</time>
      </trkpt>
      <trkpt lat="43.005858" lon="-2.328725">
        <ele>514.00</ele>
        <time>2022-03-23T09:22:40Z</time>
      </trkpt>
      <trkpt lat="43.005752" lon="-2.328643">
        <ele>515.50</ele>
        <time>2022-03-23T09:22:50Z</time>
      </trkpt>
      <trkpt lat="43.005654" lon="-2.328577">
        <ele>516.60</ele>
        <time>2022-03-23T09:22:59Z</time>
      </trkpt>
      <trkpt lat="43.005542" lon="-2.328503">
        <ele>517.70</ele>
        <time>2022-03-23T09:23:09Z</time>
      </trkpt>
      <trkpt lat="43.005427" lon="-2.328468">
        <ele>517.80</ele>
        <time>2022-03-23T09:23:18Z</time>
      </trkpt>
      <trkpt lat="43.005320" lon="-2.328439">
        <ele>518.00</ele>
        <time>2022-03-23T09:23:27Z</time>
      </trkpt>
      <trkpt lat="43.005222" lon="-2.328411">
        <ele>518.00</ele>
        <time>2022-03-23T09:23:35Z</time>
      </trkpt>
      <trkpt lat="43.005135" lon="-2.328352">
        <ele>518.30</ele>
        <time>2022-03-23T09:23:43Z</time>
      </trkpt>
      <trkpt lat="43.005053" lon="-2.328278">
        <ele>519.30</ele>
        <time>2022-03-23T09:23:50Z</time>
      </trkpt>
      <trkpt lat="43.004963" lon="-2.328212">
        <ele>520.00</ele>
        <time>2022-03-23T09:23:59Z</time>
      </trkpt>
      <trkpt lat="43.004882" lon="-2.328135">
        <ele>520.60</ele>
        <time>2022-03-23T09:24:07Z</time>
      </trkpt>
      <trkpt lat="43.004803" lon="-2.328076">
        <ele>520.60</ele>
        <time>2022-03-23T09:24:14Z</time>
      </trkpt>
      <trkpt lat="43.004741" lon="-2.327938">
        <ele>522.30</ele>
        <time>2022-03-23T09:24:23Z</time>
      </trkpt>
      <trkpt lat="43.004687" lon="-2.327875">
        <ele>522.70</ele>
        <time>2022-03-23T09:24:29Z</time>
      </trkpt>
      <trkpt lat="43.004619" lon="-2.327787">
        <ele>523.10</ele>
        <time>2022-03-23T09:24:36Z</time>
      </trkpt>
      <trkpt lat="43.004540" lon="-2.327724">
        <ele>522.60</ele>
        <time>2022-03-23T09:24:44Z</time>
      </trkpt>
      <trkpt lat="43.004459" lon="-2.327669">
        <ele>522.20</ele>
        <time>2022-03-23T09:24:51Z</time>
      </trkpt>
      <trkpt lat="43.004344" lon="-2.327603">
        <ele>521.10</ele>
        <time>2022-03-23T09:25:01Z</time>
      </trkpt>
      <trkpt lat="43.004223" lon="-2.327586">
        <ele>519.10</ele>
        <time>2022-03-23T09:25:11Z</time>
      </trkpt>
      <trkpt lat="43.004117" lon="-2.327588">
        <ele>517.60</ele>
        <time>2022-03-23T09:25:19Z</time>
      </trkpt>
      <trkpt lat="43.003983" lon="-2.327632">
        <ele>516.30</ele>
        <time>2022-03-23T09:25:30Z</time>
      </trkpt>
      <trkpt lat="43.003871" lon="-2.327671">
        <ele>515.50</ele>
        <time>2022-03-23T09:25:39Z</time>
      </trkpt>
      <trkpt lat="43.003784" lon="-2.327711">
        <ele>515.00</ele>
        <time>2022-03-23T09:25:47Z</time>
      </trkpt>
      <trkpt lat="43.003644" lon="-2.327789">
        <ele>514.80</ele>
        <time>2022-03-23T09:25:59Z</time>
      </trkpt>
      <trkpt lat="43.003460" lon="-2.327911">
        <ele>515.80</ele>
        <time>2022-03-23T09:26:15Z</time>
      </trkpt>
      <trkpt lat="43.003301" lon="-2.327951">
        <ele>516.60</ele>
        <time>2022-03-23T09:26:28Z</time>
      </trkpt>
      <trkpt lat="43.003148" lon="-2.327911">
        <ele>516.40</ele>
        <time>2022-03-23T09:26:41Z</time>
      </trkpt>
      <trkpt lat="43.002944" lon="-2.327826">
        <ele>515.70</ele>
        <time>2022-03-23T09:26:58Z</time>
      </trkpt>
      <trkpt lat="43.002829" lon="-2.327711">
        <ele>514.70</ele>
        <time>2022-03-23T09:27:09Z</time>
      </trkpt>
      <trkpt lat="43.002604" lon="-2.327543">
        <ele>513.30</ele>
        <time>2022-03-23T09:27:30Z</time>
      </trkpt>
      <trkpt lat="43.002481" lon="-2.327454">
        <ele>513.70</ele>
        <time>2022-03-23T09:27:41Z</time>
      </trkpt>
      <trkpt lat="43.002267" lon="-2.327311">
        <ele>518.40</ele>
        <time>2022-03-23T09:28:00Z</time>
      </trkpt>
      <trkpt lat="43.002179" lon="-2.327267">
        <ele>519.90</ele>
        <time>2022-03-23T09:28:07Z</time>
      </trkpt>
      <trkpt lat="43.002054" lon="-2.327158">
        <ele>521.60</ele>
        <time>2022-03-23T09:28:19Z</time>
      </trkpt>
      <trkpt lat="43.002012" lon="-2.327111">
        <ele>521.90</ele>
        <time>2022-03-23T09:28:24Z</time>
      </trkpt>
      <trkpt lat="43.001961" lon="-2.327066">
        <ele>522.20</ele>
        <time>2022-03-23T09:28:28Z</time>
      </trkpt>
      <trkpt lat="43.001901" lon="-2.327021">
        <ele>522.60</ele>
        <time>2022-03-23T09:28:34Z</time>
      </trkpt>
      <trkpt lat="43.001861" lon="-2.326983">
        <ele>522.60</ele>
        <time>2022-03-23T09:28:38Z</time>
      </trkpt>
      <trkpt lat="43.001805" lon="-2.326959">
        <ele>522.90</ele>
        <time>2022-03-23T09:28:43Z</time>
      </trkpt>
      <trkpt lat="43.001759" lon="-2.326946">
        <ele>523.10</ele>
        <time>2022-03-23T09:28:46Z</time>
      </trkpt>
      <trkpt lat="43.001660" lon="-2.326920">
        <ele>523.50</ele>
        <time>2022-03-23T09:28:54Z</time>
      </trkpt>
      <trkpt lat="43.001559" lon="-2.326946">
        <ele>524.90</ele>
        <time>2022-03-23T09:29:03Z</time>
      </trkpt>
      <trkpt lat="43.001469" lon="-2.326999">
        <ele>526.60</ele>
        <time>2022-03-23T09:29:10Z</time>
      </trkpt>
      <trkpt lat="43.001374" lon="-2.327058">
        <ele>528.60</ele>
        <time>2022-03-23T09:29:19Z</time>
      </trkpt>
      <trkpt lat="43.001287" lon="-2.327133">
        <ele>530.90</ele>
        <time>2022-03-23T09:29:27Z</time>
      </trkpt>
      <trkpt lat="43.001211" lon="-2.327176">
        <ele>532.70</ele>
        <time>2022-03-23T09:29:34Z</time>
      </trkpt>
      <trkpt lat="43.001155" lon="-2.327216">
        <ele>534.40</ele>
        <time>2022-03-23T09:29:39Z</time>
      </trkpt>
      <trkpt lat="43.001095" lon="-2.327176">
        <ele>534.10</ele>
        <time>2022-03-23T09:29:44Z</time>
      </trkpt>
      <trkpt lat="43.001060" lon="-2.327105">
        <ele>533.30</ele>
        <time>2022-03-23T09:29:49Z</time>
      </trkpt>
      <trkpt lat="43.001026" lon="-2.327132">
        <ele>534.30</ele>
        <time>2022-03-23T09:29:52Z</time>
      </trkpt>
      <trkpt lat="43.000940" lon="-2.327219">
        <ele>537.30</ele>
        <time>2022-03-23T09:30:01Z</time>
      </trkpt>
      <trkpt lat="43.000878" lon="-2.327295">
        <ele>539.90</ele>
        <time>2022-03-23T09:30:07Z</time>
      </trkpt>
      <trkpt lat="43.000815" lon="-2.327359">
        <ele>541.60</ele>
        <time>2022-03-23T09:30:14Z</time>
      </trkpt>
      <trkpt lat="43.000710" lon="-2.327410">
        <ele>541.70</ele>
        <time>2022-03-23T09:30:23Z</time>
      </trkpt>
      <trkpt lat="43.000625" lon="-2.327407">
        <ele>540.80</ele>
        <time>2022-03-23T09:30:29Z</time>
      </trkpt>
      <trkpt lat="43.000567" lon="-2.327410">
        <ele>540.20</ele>
        <time>2022-03-23T09:30:34Z</time>
      </trkpt>
      <trkpt lat="43.000426" lon="-2.327371">
        <ele>538.40</ele>
        <time>2022-03-23T09:30:46Z</time>
      </trkpt>
      <trkpt lat="43.000394" lon="-2.327296">
        <ele>537.60</ele>
        <time>2022-03-23T09:30:51Z</time>
      </trkpt>
      <trkpt lat="43.000380" lon="-2.327230">
        <ele>537.00</ele>
        <time>2022-03-23T09:30:55Z</time>
      </trkpt>
      <trkpt lat="43.000371" lon="-2.327148">
        <ele>536.30</ele>
        <time>2022-03-23T09:31:00Z</time>
      </trkpt>
      <trkpt lat="43.000364" lon="-2.327056">
        <ele>535.60</ele>
        <time>2022-03-23T09:31:05Z</time>
      </trkpt>
      <trkpt lat="43.000348" lon="-2.326942">
        <ele>534.80</ele>
        <time>2022-03-23T09:31:12Z</time>
      </trkpt>
      <trkpt lat="43.000329" lon="-2.326862">
        <ele>534.50</ele>
        <time>2022-03-23T09:31:17Z</time>
      </trkpt>
      <trkpt lat="43.000295" lon="-2.326800">
        <ele>534.50</ele>
        <time>2022-03-23T09:31:21Z</time>
      </trkpt>
      <trkpt lat="43.000243" lon="-2.326756">
        <ele>534.80</ele>
        <time>2022-03-23T09:31:26Z</time>
      </trkpt>
      <trkpt lat="43.000182" lon="-2.326730">
        <ele>535.50</ele>
        <time>2022-03-23T09:31:31Z</time>
      </trkpt>
      <trkpt lat="43.000114" lon="-2.326735">
        <ele>536.30</ele>
        <time>2022-03-23T09:31:37Z</time>
      </trkpt>
      <trkpt lat="43.000067" lon="-2.326748">
        <ele>536.80</ele>
        <time>2022-03-23T09:31:41Z</time>
      </trkpt>
      <trkpt lat="43.000007" lon="-2.326767">
        <ele>537.40</ele>
        <time>2022-03-23T09:31:45Z</time>
      </trkpt>
      <trkpt lat="42.999927" lon="-2.326809">
        <ele>537.70</ele>
        <time>2022-03-23T09:31:52Z</time>
      </trkpt>
      <trkpt lat="42.999755" lon="-2.326952">
        <ele>538.00</ele>
        <time>2022-03-23T09:32:08Z</time>
      </trkpt>
      <trkpt lat="42.999619" lon="-2.327045">
        <ele>531.80</ele>
        <time>2022-03-23T09:32:21Z</time>
      </trkpt>
      <trkpt lat="42.999568" lon="-2.327064">
        <ele>532.10</ele>
        <time>2022-03-23T09:32:25Z</time>
      </trkpt>
      <trkpt lat="42.999526" lon="-2.327091">
        <ele>532.00</ele>
        <time>2022-03-23T09:32:29Z</time>
      </trkpt>
      <trkpt lat="42.999478" lon="-2.327119">
        <ele>531.80</ele>
        <time>2022-03-23T09:32:33Z</time>
      </trkpt>
      <trkpt lat="42.999434" lon="-2.327150">
        <ele>531.80</ele>
        <time>2022-03-23T09:32:37Z</time>
      </trkpt>
      <trkpt lat="42.999418" lon="-2.327209">
        <ele>531.60</ele>
        <time>2022-03-23T09:32:40Z</time>
      </trkpt>
      <trkpt lat="42.999378" lon="-2.327243">
        <ele>532.60</ele>
        <time>2022-03-23T09:32:44Z</time>
      </trkpt>
      <trkpt lat="42.999333" lon="-2.327265">
        <ele>533.60</ele>
        <time>2022-03-23T09:32:48Z</time>
      </trkpt>
      <trkpt lat="42.999288" lon="-2.327285">
        <ele>534.20</ele>
        <time>2022-03-23T09:32:52Z</time>
      </trkpt>
      <trkpt lat="42.999239" lon="-2.327309">
        <ele>534.60</ele>
        <time>2022-03-23T09:32:56Z</time>
      </trkpt>
      <trkpt lat="42.999191" lon="-2.327330">
        <ele>534.70</ele>
        <time>2022-03-23T09:33:00Z</time>
      </trkpt>
      <trkpt lat="42.999143" lon="-2.327355">
        <ele>535.10</ele>
        <time>2022-03-23T09:33:04Z</time>
      </trkpt>
      <trkpt lat="42.999094" lon="-2.327387">
        <ele>535.60</ele>
        <time>2022-03-23T09:33:08Z</time>
      </trkpt>
      <trkpt lat="42.999044" lon="-2.327415">
        <ele>536.20</ele>
        <time>2022-03-23T09:33:13Z</time>
      </trkpt>
      <trkpt lat="42.998997" lon="-2.327436">
        <ele>536.50</ele>
        <time>2022-03-23T09:33:17Z</time>
      </trkpt>
      <trkpt lat="42.998953" lon="-2.327459">
        <ele>536.50</ele>
        <time>2022-03-23T09:33:20Z</time>
      </trkpt>
      <trkpt lat="42.998912" lon="-2.327486">
        <ele>536.20</ele>
        <time>2022-03-23T09:33:24Z</time>
      </trkpt>
      <trkpt lat="42.998866" lon="-2.327530">
        <ele>536.80</ele>
        <time>2022-03-23T09:33:29Z</time>
      </trkpt>
      <trkpt lat="42.998808" lon="-2.327583">
        <ele>538.00</ele>
        <time>2022-03-23T09:33:34Z</time>
      </trkpt>
      <trkpt lat="42.998760" lon="-2.327611">
        <ele>538.70</ele>
        <time>2022-03-23T09:33:38Z</time>
      </trkpt>
      <trkpt lat="42.998704" lon="-2.327644">
        <ele>539.20</ele>
        <time>2022-03-23T09:33:43Z</time>
      </trkpt>
      <trkpt lat="42.998659" lon="-2.327671">
        <ele>539.00</ele>
        <time>2022-03-23T09:33:47Z</time>
      </trkpt>
      <trkpt lat="42.998614" lon="-2.327701">
        <ele>538.50</ele>
        <time>2022-03-23T09:33:51Z</time>
      </trkpt>
      <trkpt lat="42.998569" lon="-2.327733">
        <ele>538.80</ele>
        <time>2022-03-23T09:33:55Z</time>
      </trkpt>
      <trkpt lat="42.998522" lon="-2.327765">
        <ele>539.30</ele>
        <time>2022-03-23T09:33:59Z</time>
      </trkpt>
      <trkpt lat="42.998478" lon="-2.327793">
        <ele>540.30</ele>
        <time>2022-03-23T09:34:03Z</time>
      </trkpt>
      <trkpt lat="42.998426" lon="-2.327822">
        <ele>541.60</ele>
        <time>2022-03-23T09:34:08Z</time>
      </trkpt>
      <trkpt lat="42.998381" lon="-2.327830">
        <ele>542.70</ele>
        <time>2022-03-23T09:34:11Z</time>
      </trkpt>
      <trkpt lat="42.998332" lon="-2.327840">
        <ele>543.50</ele>
        <time>2022-03-23T09:34:15Z</time>
      </trkpt>
      <trkpt lat="42.998288" lon="-2.327858">
        <ele>544.30</ele>
        <time>2022-03-23T09:34:19Z</time>
      </trkpt>
      <trkpt lat="42.998237" lon="-2.327889">
        <ele>544.70</ele>
        <time>2022-03-23T09:34:24Z</time>
      </trkpt>
      <trkpt lat="42.998184" lon="-2.327921">
        <ele>545.20</ele>
        <time>2022-03-23T09:34:28Z</time>
      </trkpt>
      <trkpt lat="42.998119" lon="-2.327952">
        <ele>545.80</ele>
        <time>2022-03-23T09:34:34Z</time>
      </trkpt>
      <trkpt lat="42.998067" lon="-2.327974">
        <ele>546.40</ele>
        <time>2022-03-23T09:34:38Z</time>
      </trkpt>
      <trkpt lat="42.998023" lon="-2.327989">
        <ele>546.20</ele>
        <time>2022-03-23T09:34:42Z</time>
      </trkpt>
      <trkpt lat="42.997968" lon="-2.328003">
        <ele>545.80</ele>
        <time>2022-03-23T09:34:46Z</time>
      </trkpt>
      <trkpt lat="42.997918" lon="-2.328011">
        <ele>545.50</ele>
        <time>2022-03-23T09:34:50Z</time>
      </trkpt>
      <trkpt lat="42.997870" lon="-2.328021">
        <ele>545.30</ele>
        <time>2022-03-23T09:34:54Z</time>
      </trkpt>
      <trkpt lat="42.997802" lon="-2.328026">
        <ele>545.20</ele>
        <time>2022-03-23T09:35:00Z</time>
      </trkpt>
      <trkpt lat="42.997759" lon="-2.328001">
        <ele>546.00</ele>
        <time>2022-03-23T09:35:03Z</time>
      </trkpt>
      <trkpt lat="42.997709" lon="-2.327966">
        <ele>546.70</ele>
        <time>2022-03-23T09:35:08Z</time>
      </trkpt>
      <trkpt lat="42.997670" lon="-2.327913">
        <ele>548.00</ele>
        <time>2022-03-23T09:35:12Z</time>
      </trkpt>
      <trkpt lat="42.997627" lon="-2.327879">
        <ele>548.40</ele>
        <time>2022-03-23T09:35:16Z</time>
      </trkpt>
      <trkpt lat="42.997581" lon="-2.327860">
        <ele>548.10</ele>
        <time>2022-03-23T09:35:20Z</time>
      </trkpt>
      <trkpt lat="42.997535" lon="-2.327829">
        <ele>548.00</ele>
        <time>2022-03-23T09:35:24Z</time>
      </trkpt>
      <trkpt lat="42.997482" lon="-2.327829">
        <ele>547.20</ele>
        <time>2022-03-23T09:35:28Z</time>
      </trkpt>
      <trkpt lat="42.997436" lon="-2.327847">
        <ele>546.90</ele>
        <time>2022-03-23T09:35:32Z</time>
      </trkpt>
      <trkpt lat="42.997383" lon="-2.327856">
        <ele>546.90</ele>
        <time>2022-03-23T09:35:36Z</time>
      </trkpt>
      <trkpt lat="42.997339" lon="-2.327840">
        <ele>546.90</ele>
        <time>2022-03-23T09:35:40Z</time>
      </trkpt>
      <trkpt lat="42.997306" lon="-2.327896">
        <ele>547.50</ele>
        <time>2022-03-23T09:35:44Z</time>
      </trkpt>
      <trkpt lat="42.997260" lon="-2.327920">
        <ele>548.20</ele>
        <time>2022-03-23T09:35:48Z</time>
      </trkpt>
      <trkpt lat="42.997199" lon="-2.327905">
        <ele>548.20</ele>
        <time>2022-03-23T09:35:53Z</time>
      </trkpt>
      <trkpt lat="42.997139" lon="-2.327879">
        <ele>547.70</ele>
        <time>2022-03-23T09:35:58Z</time>
      </trkpt>
      <trkpt lat="42.997088" lon="-2.327882">
        <ele>547.70</ele>
        <time>2022-03-23T09:36:02Z</time>
      </trkpt>
      <trkpt lat="42.997038" lon="-2.327894">
        <ele>548.00</ele>
        <time>2022-03-23T09:36:06Z</time>
      </trkpt>
      <trkpt lat="42.996992" lon="-2.327892">
        <ele>547.90</ele>
        <time>2022-03-23T09:36:10Z</time>
      </trkpt>
      <trkpt lat="42.996946" lon="-2.327896">
        <ele>547.90</ele>
        <time>2022-03-23T09:36:14Z</time>
      </trkpt>
      <trkpt lat="42.996892" lon="-2.327908">
        <ele>549.60</ele>
        <time>2022-03-23T09:36:18Z</time>
      </trkpt>
      <trkpt lat="42.996861" lon="-2.327954">
        <ele>550.40</ele>
        <time>2022-03-23T09:36:22Z</time>
      </trkpt>
      <trkpt lat="42.996824" lon="-2.328009">
        <ele>550.80</ele>
        <time>2022-03-23T09:36:26Z</time>
      </trkpt>
      <trkpt lat="42.996776" lon="-2.328054">
        <ele>550.80</ele>
        <time>2022-03-23T09:36:31Z</time>
      </trkpt>
      <trkpt lat="42.996727" lon="-2.328098">
        <ele>551.10</ele>
        <time>2022-03-23T09:36:36Z</time>
      </trkpt>
      <trkpt lat="42.996682" lon="-2.328135">
        <ele>550.90</ele>
        <time>2022-03-23T09:36:40Z</time>
      </trkpt>
      <trkpt lat="42.996653" lon="-2.328187">
        <ele>550.60</ele>
        <time>2022-03-23T09:36:44Z</time>
      </trkpt>
      <trkpt lat="42.996627" lon="-2.328252">
        <ele>550.50</ele>
        <time>2022-03-23T09:36:48Z</time>
      </trkpt>
      <trkpt lat="42.996603" lon="-2.328316">
        <ele>550.00</ele>
        <time>2022-03-23T09:36:52Z</time>
      </trkpt>
      <trkpt lat="42.996579" lon="-2.328370">
        <ele>550.60</ele>
        <time>2022-03-23T09:36:56Z</time>
      </trkpt>
      <trkpt lat="42.996555" lon="-2.328432">
        <ele>551.30</ele>
        <time>2022-03-23T09:37:00Z</time>
      </trkpt>
      <trkpt lat="42.996535" lon="-2.328489">
        <ele>551.50</ele>
        <time>2022-03-23T09:37:04Z</time>
      </trkpt>
      <trkpt lat="42.996483" lon="-2.328518">
        <ele>551.30</ele>
        <time>2022-03-23T09:37:08Z</time>
      </trkpt>
      <trkpt lat="42.996439" lon="-2.328550">
        <ele>550.70</ele>
        <time>2022-03-23T09:37:12Z</time>
      </trkpt>
      <trkpt lat="42.996398" lon="-2.328578">
        <ele>549.80</ele>
        <time>2022-03-23T09:37:16Z</time>
      </trkpt>
      <trkpt lat="42.996345" lon="-2.328602">
        <ele>550.30</ele>
        <time>2022-03-23T09:37:20Z</time>
      </trkpt>
      <trkpt lat="42.996294" lon="-2.328610">
        <ele>551.20</ele>
        <time>2022-03-23T09:37:24Z</time>
      </trkpt>
      <trkpt lat="42.996245" lon="-2.328630">
        <ele>552.30</ele>
        <time>2022-03-23T09:37:29Z</time>
      </trkpt>
      <trkpt lat="42.996204" lon="-2.328658">
        <ele>553.20</ele>
        <time>2022-03-23T09:37:32Z</time>
      </trkpt>
      <trkpt lat="42.996159" lon="-2.328669">
        <ele>554.00</ele>
        <time>2022-03-23T09:37:36Z</time>
      </trkpt>
      <trkpt lat="42.996103" lon="-2.328677">
        <ele>554.90</ele>
        <time>2022-03-23T09:37:40Z</time>
      </trkpt>
      <trkpt lat="42.996042" lon="-2.328687">
        <ele>555.20</ele>
        <time>2022-03-23T09:37:45Z</time>
      </trkpt>
      <trkpt lat="42.995985" lon="-2.328693">
        <ele>555.60</ele>
        <time>2022-03-23T09:37:50Z</time>
      </trkpt>
      <trkpt lat="42.995933" lon="-2.328706">
        <ele>556.00</ele>
        <time>2022-03-23T09:37:54Z</time>
      </trkpt>
      <trkpt lat="42.995886" lon="-2.328711">
        <ele>556.30</ele>
        <time>2022-03-23T09:37:58Z</time>
      </trkpt>
      <trkpt lat="42.995837" lon="-2.328732">
        <ele>556.50</ele>
        <time>2022-03-23T09:38:02Z</time>
      </trkpt>
      <trkpt lat="42.995774" lon="-2.328752">
        <ele>556.70</ele>
        <time>2022-03-23T09:38:07Z</time>
      </trkpt>
      <trkpt lat="42.995714" lon="-2.328761">
        <ele>557.00</ele>
        <time>2022-03-23T09:38:12Z</time>
      </trkpt>
      <trkpt lat="42.995650" lon="-2.328768">
        <ele>557.10</ele>
        <time>2022-03-23T09:38:17Z</time>
      </trkpt>
      <trkpt lat="42.995591" lon="-2.328794">
        <ele>557.20</ele>
        <time>2022-03-23T09:38:22Z</time>
      </trkpt>
      <trkpt lat="42.995550" lon="-2.328827">
        <ele>557.20</ele>
        <time>2022-03-23T09:38:26Z</time>
      </trkpt>
      <trkpt lat="42.995497" lon="-2.328871">
        <ele>557.00</ele>
        <time>2022-03-23T09:38:31Z</time>
      </trkpt>
      <trkpt lat="42.995456" lon="-2.328901">
        <ele>557.70</ele>
        <time>2022-03-23T09:38:35Z</time>
      </trkpt>
      <trkpt lat="42.995401" lon="-2.328921">
        <ele>558.60</ele>
        <time>2022-03-23T09:38:39Z</time>
      </trkpt>
      <trkpt lat="42.995346" lon="-2.328911">
        <ele>558.10</ele>
        <time>2022-03-23T09:38:44Z</time>
      </trkpt>
      <trkpt lat="42.995309" lon="-2.328872">
        <ele>557.00</ele>
        <time>2022-03-23T09:38:47Z</time>
      </trkpt>
      <trkpt lat="42.995267" lon="-2.328835">
        <ele>557.20</ele>
        <time>2022-03-23T09:38:51Z</time>
      </trkpt>
      <trkpt lat="42.995230" lon="-2.328798">
        <ele>558.50</ele>
        <time>2022-03-23T09:38:55Z</time>
      </trkpt>
      <trkpt lat="42.995191" lon="-2.328752">
        <ele>559.30</ele>
        <time>2022-03-23T09:38:59Z</time>
      </trkpt>
      <trkpt lat="42.995136" lon="-2.328722">
        <ele>560.70</ele>
        <time>2022-03-23T09:39:04Z</time>
      </trkpt>
      <trkpt lat="42.995092" lon="-2.328698">
        <ele>561.40</ele>
        <time>2022-03-23T09:39:08Z</time>
      </trkpt>
      <trkpt lat="42.995040" lon="-2.328706">
        <ele>563.10</ele>
        <time>2022-03-23T09:39:12Z</time>
      </trkpt>
      <trkpt lat="42.995015" lon="-2.328774">
        <ele>565.80</ele>
        <time>2022-03-23T09:39:16Z</time>
      </trkpt>
      <trkpt lat="42.994992" lon="-2.328828">
        <ele>568.10</ele>
        <time>2022-03-23T09:39:20Z</time>
      </trkpt>
      <trkpt lat="42.994930" lon="-2.328845">
        <ele>568.80</ele>
        <time>2022-03-23T09:39:25Z</time>
      </trkpt>
      <trkpt lat="42.994874" lon="-2.328846">
        <ele>569.10</ele>
        <time>2022-03-23T09:39:29Z</time>
      </trkpt>
      <trkpt lat="42.994822" lon="-2.328847">
        <ele>569.20</ele>
        <time>2022-03-23T09:39:34Z</time>
      </trkpt>
      <trkpt lat="42.994756" lon="-2.328840">
        <ele>569.10</ele>
        <time>2022-03-23T09:39:39Z</time>
      </trkpt>
      <trkpt lat="42.994693" lon="-2.328811">
        <ele>568.10</ele>
        <time>2022-03-23T09:39:44Z</time>
      </trkpt>
      <trkpt lat="42.994636" lon="-2.328766">
        <ele>566.50</ele>
        <time>2022-03-23T09:39:50Z</time>
      </trkpt>
      <trkpt lat="42.994574" lon="-2.328754">
        <ele>566.20</ele>
        <time>2022-03-23T09:39:55Z</time>
      </trkpt>
      <trkpt lat="42.994526" lon="-2.328760">
        <ele>566.40</ele>
        <time>2022-03-23T09:39:58Z</time>
      </trkpt>
      <trkpt lat="42.994470" lon="-2.328786">
        <ele>566.80</ele>
        <time>2022-03-23T09:40:03Z</time>
      </trkpt>
      <trkpt lat="42.994419" lon="-2.328803">
        <ele>567.00</ele>
        <time>2022-03-23T09:40:07Z</time>
      </trkpt>
      <trkpt lat="42.994363" lon="-2.328811">
        <ele>567.00</ele>
        <time>2022-03-23T09:40:12Z</time>
      </trkpt>
      <trkpt lat="42.994308" lon="-2.328839">
        <ele>567.00</ele>
        <time>2022-03-23T09:40:17Z</time>
      </trkpt>
      <trkpt lat="42.994265" lon="-2.328884">
        <ele>567.00</ele>
        <time>2022-03-23T09:40:21Z</time>
      </trkpt>
      <trkpt lat="42.994239" lon="-2.328940">
        <ele>568.00</ele>
        <time>2022-03-23T09:40:25Z</time>
      </trkpt>
      <trkpt lat="42.994222" lon="-2.329021">
        <ele>569.70</ele>
        <time>2022-03-23T09:40:30Z</time>
      </trkpt>
      <trkpt lat="42.994216" lon="-2.329100">
        <ele>571.50</ele>
        <time>2022-03-23T09:40:34Z</time>
      </trkpt>
      <trkpt lat="42.994207" lon="-2.329168">
        <ele>572.80</ele>
        <time>2022-03-23T09:40:38Z</time>
      </trkpt>
      <trkpt lat="42.994178" lon="-2.329224">
        <ele>574.50</ele>
        <time>2022-03-23T09:40:42Z</time>
      </trkpt>
      <trkpt lat="42.994113" lon="-2.329246">
        <ele>574.10</ele>
        <time>2022-03-23T09:40:48Z</time>
      </trkpt>
      <trkpt lat="42.994061" lon="-2.329257">
        <ele>573.30</ele>
        <time>2022-03-23T09:40:52Z</time>
      </trkpt>
      <trkpt lat="42.994007" lon="-2.329281">
        <ele>572.80</ele>
        <time>2022-03-23T09:40:57Z</time>
      </trkpt>
      <trkpt lat="42.993964" lon="-2.329322">
        <ele>573.00</ele>
        <time>2022-03-23T09:41:01Z</time>
      </trkpt>
      <trkpt lat="42.993910" lon="-2.329359">
        <ele>572.40</ele>
        <time>2022-03-23T09:41:06Z</time>
      </trkpt>
      <trkpt lat="42.993854" lon="-2.329381">
        <ele>572.30</ele>
        <time>2022-03-23T09:41:10Z</time>
      </trkpt>
      <trkpt lat="42.993799" lon="-2.329384">
        <ele>572.10</ele>
        <time>2022-03-23T09:41:15Z</time>
      </trkpt>
      <trkpt lat="42.993744" lon="-2.329383">
        <ele>572.00</ele>
        <time>2022-03-23T09:41:19Z</time>
      </trkpt>
      <trkpt lat="42.993688" lon="-2.329388">
        <ele>571.80</ele>
        <time>2022-03-23T09:41:24Z</time>
      </trkpt>
      <trkpt lat="42.993643" lon="-2.329399">
        <ele>571.70</ele>
        <time>2022-03-23T09:41:27Z</time>
      </trkpt>
      <trkpt lat="42.993588" lon="-2.329429">
        <ele>571.80</ele>
        <time>2022-03-23T09:41:32Z</time>
      </trkpt>
      <trkpt lat="42.993542" lon="-2.329466">
        <ele>572.60</ele>
        <time>2022-03-23T09:41:36Z</time>
      </trkpt>
      <trkpt lat="42.993492" lon="-2.329489">
        <ele>573.40</ele>
        <time>2022-03-23T09:41:40Z</time>
      </trkpt>
      <trkpt lat="42.993437" lon="-2.329502">
        <ele>573.60</ele>
        <time>2022-03-23T09:41:45Z</time>
      </trkpt>
      <trkpt lat="42.993379" lon="-2.329536">
        <ele>574.60</ele>
        <time>2022-03-23T09:41:50Z</time>
      </trkpt>
      <trkpt lat="42.993331" lon="-2.329571">
        <ele>575.50</ele>
        <time>2022-03-23T09:41:54Z</time>
      </trkpt>
      <trkpt lat="42.993289" lon="-2.329601">
        <ele>576.30</ele>
        <time>2022-03-23T09:41:58Z</time>
      </trkpt>
      <trkpt lat="42.993237" lon="-2.329647">
        <ele>577.50</ele>
        <time>2022-03-23T09:42:03Z</time>
      </trkpt>
      <trkpt lat="42.993195" lon="-2.329689">
        <ele>578.20</ele>
        <time>2022-03-23T09:42:07Z</time>
      </trkpt>
      <trkpt lat="42.993150" lon="-2.329726">
        <ele>578.60</ele>
        <time>2022-03-23T09:42:11Z</time>
      </trkpt>
      <trkpt lat="42.993099" lon="-2.329765">
        <ele>579.00</ele>
        <time>2022-03-23T09:42:16Z</time>
      </trkpt>
      <trkpt lat="42.993047" lon="-2.329805">
        <ele>579.40</ele>
        <time>2022-03-23T09:42:21Z</time>
      </trkpt>
      <trkpt lat="42.992994" lon="-2.329841">
        <ele>580.60</ele>
        <time>2022-03-23T09:42:26Z</time>
      </trkpt>
      <trkpt lat="42.992939" lon="-2.329882">
        <ele>582.00</ele>
        <time>2022-03-23T09:42:31Z</time>
      </trkpt>
      <trkpt lat="42.992877" lon="-2.329916">
        <ele>583.30</ele>
        <time>2022-03-23T09:42:36Z</time>
      </trkpt>
      <trkpt lat="42.992822" lon="-2.329939">
        <ele>584.20</ele>
        <time>2022-03-23T09:42:41Z</time>
      </trkpt>
      <trkpt lat="42.992766" lon="-2.329958">
        <ele>584.90</ele>
        <time>2022-03-23T09:42:45Z</time>
      </trkpt>
      <trkpt lat="42.992716" lon="-2.329970">
        <ele>585.50</ele>
        <time>2022-03-23T09:42:49Z</time>
      </trkpt>
      <trkpt lat="42.992670" lon="-2.329971">
        <ele>585.80</ele>
        <time>2022-03-23T09:42:53Z</time>
      </trkpt>
      <trkpt lat="42.992611" lon="-2.329967">
        <ele>586.00</ele>
        <time>2022-03-23T09:42:58Z</time>
      </trkpt>
      <trkpt lat="42.992558" lon="-2.329958">
        <ele>586.10</ele>
        <time>2022-03-23T09:43:02Z</time>
      </trkpt>
      <trkpt lat="42.992510" lon="-2.329939">
        <ele>585.50</ele>
        <time>2022-03-23T09:43:06Z</time>
      </trkpt>
      <trkpt lat="42.992462" lon="-2.329940">
        <ele>585.20</ele>
        <time>2022-03-23T09:43:10Z</time>
      </trkpt>
      <trkpt lat="42.992410" lon="-2.329958">
        <ele>585.40</ele>
        <time>2022-03-23T09:43:14Z</time>
      </trkpt>
      <trkpt lat="42.992363" lon="-2.329975">
        <ele>585.30</ele>
        <time>2022-03-23T09:43:18Z</time>
      </trkpt>
      <trkpt lat="42.992316" lon="-2.329980">
        <ele>584.80</ele>
        <time>2022-03-23T09:43:22Z</time>
      </trkpt>
      <trkpt lat="42.992263" lon="-2.329990">
        <ele>584.30</ele>
        <time>2022-03-23T09:43:26Z</time>
      </trkpt>
      <trkpt lat="42.992215" lon="-2.329995">
        <ele>584.00</ele>
        <time>2022-03-23T09:43:30Z</time>
      </trkpt>
      <trkpt lat="42.992159" lon="-2.329990">
        <ele>584.50</ele>
        <time>2022-03-23T09:43:34Z</time>
      </trkpt>
      <trkpt lat="42.992100" lon="-2.330000">
        <ele>585.30</ele>
        <time>2022-03-23T09:43:39Z</time>
      </trkpt>
      <trkpt lat="42.992055" lon="-2.330030">
        <ele>586.90</ele>
        <time>2022-03-23T09:43:43Z</time>
      </trkpt>
      <trkpt lat="42.992011" lon="-2.330069">
        <ele>588.60</ele>
        <time>2022-03-23T09:43:47Z</time>
      </trkpt>
      <trkpt lat="42.991969" lon="-2.330096">
        <ele>589.80</ele>
        <time>2022-03-23T09:43:51Z</time>
      </trkpt>
      <trkpt lat="42.991912" lon="-2.330116">
        <ele>590.70</ele>
        <time>2022-03-23T09:43:56Z</time>
      </trkpt>
      <trkpt lat="42.991859" lon="-2.330114">
        <ele>591.40</ele>
        <time>2022-03-23T09:44:00Z</time>
      </trkpt>
      <trkpt lat="42.991811" lon="-2.330108">
        <ele>591.80</ele>
        <time>2022-03-23T09:44:04Z</time>
      </trkpt>
      <trkpt lat="42.991762" lon="-2.330117">
        <ele>592.60</ele>
        <time>2022-03-23T09:44:08Z</time>
      </trkpt>
      <trkpt lat="42.991715" lon="-2.330125">
        <ele>593.50</ele>
        <time>2022-03-23T09:44:12Z</time>
      </trkpt>
      <trkpt lat="42.991669" lon="-2.330140">
        <ele>594.60</ele>
        <time>2022-03-23T09:44:15Z</time>
      </trkpt>
      <trkpt lat="42.991623" lon="-2.330153">
        <ele>595.10</ele>
        <time>2022-03-23T09:44:19Z</time>
      </trkpt>
      <trkpt lat="42.991571" lon="-2.330145">
        <ele>595.00</ele>
        <time>2022-03-23T09:44:23Z</time>
      </trkpt>
      <trkpt lat="42.991518" lon="-2.330129">
        <ele>594.50</ele>
        <time>2022-03-23T09:44:28Z</time>
      </trkpt>
      <trkpt lat="42.991462" lon="-2.330108">
        <ele>593.80</ele>
        <time>2022-03-23T09:44:32Z</time>
      </trkpt>
      <trkpt lat="42.991412" lon="-2.330094">
        <ele>593.50</ele>
        <time>2022-03-23T09:44:36Z</time>
      </trkpt>
      <trkpt lat="42.991367" lon="-2.330091">
        <ele>592.90</ele>
        <time>2022-03-23T09:44:40Z</time>
      </trkpt>
      <trkpt lat="42.991310" lon="-2.330099">
        <ele>592.20</ele>
        <time>2022-03-23T09:44:45Z</time>
      </trkpt>
      <trkpt lat="42.991267" lon="-2.330142">
        <ele>592.90</ele>
        <time>2022-03-23T09:44:49Z</time>
      </trkpt>
      <trkpt lat="42.991219" lon="-2.330184">
        <ele>593.40</ele>
        <time>2022-03-23T09:44:53Z</time>
      </trkpt>
      <trkpt lat="42.991188" lon="-2.330230">
        <ele>594.20</ele>
        <time>2022-03-23T09:44:57Z</time>
      </trkpt>
      <trkpt lat="42.991152" lon="-2.330277">
        <ele>594.90</ele>
        <time>2022-03-23T09:45:01Z</time>
      </trkpt>
      <trkpt lat="42.991120" lon="-2.330326">
        <ele>596.10</ele>
        <time>2022-03-23T09:45:05Z</time>
      </trkpt>
      <trkpt lat="42.991089" lon="-2.330379">
        <ele>597.80</ele>
        <time>2022-03-23T09:45:09Z</time>
      </trkpt>
      <trkpt lat="42.991041" lon="-2.330406">
        <ele>598.20</ele>
        <time>2022-03-23T09:45:13Z</time>
      </trkpt>
      <trkpt lat="42.990988" lon="-2.330428">
        <ele>598.30</ele>
        <time>2022-03-23T09:45:17Z</time>
      </trkpt>
      <trkpt lat="42.990935" lon="-2.330462">
        <ele>598.80</ele>
        <time>2022-03-23T09:45:22Z</time>
      </trkpt>
      <trkpt lat="42.990880" lon="-2.330481">
        <ele>598.80</ele>
        <time>2022-03-23T09:45:27Z</time>
      </trkpt>
      <trkpt lat="42.990822" lon="-2.330473">
        <ele>597.80</ele>
        <time>2022-03-23T09:45:31Z</time>
      </trkpt>
      <trkpt lat="42.990781" lon="-2.330446">
        <ele>597.10</ele>
        <time>2022-03-23T09:45:35Z</time>
      </trkpt>
      <trkpt lat="42.990728" lon="-2.330401">
        <ele>595.90</ele>
        <time>2022-03-23T09:45:40Z</time>
      </trkpt>
      <trkpt lat="42.990690" lon="-2.330367">
        <ele>595.40</ele>
        <time>2022-03-23T09:45:44Z</time>
      </trkpt>
      <trkpt lat="42.990637" lon="-2.330324">
        <ele>594.80</ele>
        <time>2022-03-23T09:45:49Z</time>
      </trkpt>
      <trkpt lat="42.990583" lon="-2.330274">
        <ele>594.50</ele>
        <time>2022-03-23T09:45:54Z</time>
      </trkpt>
      <trkpt lat="42.990546" lon="-2.330236">
        <ele>594.70</ele>
        <time>2022-03-23T09:45:58Z</time>
      </trkpt>
      <trkpt lat="42.990497" lon="-2.330188">
        <ele>594.90</ele>
        <time>2022-03-23T09:46:02Z</time>
      </trkpt>
      <trkpt lat="42.990454" lon="-2.330142">
        <ele>595.00</ele>
        <time>2022-03-23T09:46:07Z</time>
      </trkpt>
      <trkpt lat="42.990416" lon="-2.330095">
        <ele>594.90</ele>
        <time>2022-03-23T09:46:11Z</time>
      </trkpt>
      <trkpt lat="42.990381" lon="-2.330048">
        <ele>594.60</ele>
        <time>2022-03-23T09:46:15Z</time>
      </trkpt>
      <trkpt lat="42.990344" lon="-2.330001">
        <ele>594.40</ele>
        <time>2022-03-23T09:46:19Z</time>
      </trkpt>
      <trkpt lat="42.990304" lon="-2.329970">
        <ele>594.70</ele>
        <time>2022-03-23T09:46:22Z</time>
      </trkpt>
      <trkpt lat="42.990257" lon="-2.329967">
        <ele>595.40</ele>
        <time>2022-03-23T09:46:26Z</time>
      </trkpt>
      <trkpt lat="42.990208" lon="-2.329974">
        <ele>596.40</ele>
        <time>2022-03-23T09:46:30Z</time>
      </trkpt>
      <trkpt lat="42.990158" lon="-2.329983">
        <ele>597.40</ele>
        <time>2022-03-23T09:46:34Z</time>
      </trkpt>
      <trkpt lat="42.990107" lon="-2.330002">
        <ele>598.70</ele>
        <time>2022-03-23T09:46:38Z</time>
      </trkpt>
      <trkpt lat="42.990055" lon="-2.330011">
        <ele>599.90</ele>
        <time>2022-03-23T09:46:43Z</time>
      </trkpt>
      <trkpt lat="42.990009" lon="-2.330013">
        <ele>600.80</ele>
        <time>2022-03-23T09:46:46Z</time>
      </trkpt>
      <trkpt lat="42.989964" lon="-2.330011">
        <ele>602.20</ele>
        <time>2022-03-23T09:46:50Z</time>
      </trkpt>
      <trkpt lat="42.989911" lon="-2.330013">
        <ele>603.80</ele>
        <time>2022-03-23T09:46:54Z</time>
      </trkpt>
      <trkpt lat="42.989862" lon="-2.330014">
        <ele>605.40</ele>
        <time>2022-03-23T09:46:58Z</time>
      </trkpt>
      <trkpt lat="42.989817" lon="-2.330003">
        <ele>607.00</ele>
        <time>2022-03-23T09:47:02Z</time>
      </trkpt>
      <trkpt lat="42.989772" lon="-2.329986">
        <ele>608.10</ele>
        <time>2022-03-23T09:47:05Z</time>
      </trkpt>
      <trkpt lat="42.989716" lon="-2.329957">
        <ele>609.00</ele>
        <time>2022-03-23T09:47:10Z</time>
      </trkpt>
      <trkpt lat="42.989664" lon="-2.329928">
        <ele>610.20</ele>
        <time>2022-03-23T09:47:15Z</time>
      </trkpt>
      <trkpt lat="42.989613" lon="-2.329904">
        <ele>611.70</ele>
        <time>2022-03-23T09:47:19Z</time>
      </trkpt>
      <trkpt lat="42.989558" lon="-2.329880">
        <ele>613.20</ele>
        <time>2022-03-23T09:47:24Z</time>
      </trkpt>
      <trkpt lat="42.989510" lon="-2.329854">
        <ele>614.60</ele>
        <time>2022-03-23T09:47:28Z</time>
      </trkpt>
      <trkpt lat="42.989471" lon="-2.329823">
        <ele>615.70</ele>
        <time>2022-03-23T09:47:31Z</time>
      </trkpt>
      <trkpt lat="42.989435" lon="-2.329780">
        <ele>616.20</ele>
        <time>2022-03-23T09:47:35Z</time>
      </trkpt>
      <trkpt lat="42.989397" lon="-2.329740">
        <ele>616.00</ele>
        <time>2022-03-23T09:47:39Z</time>
      </trkpt>
      <trkpt lat="42.989352" lon="-2.329769">
        <ele>617.10</ele>
        <time>2022-03-23T09:47:43Z</time>
      </trkpt>
      <trkpt lat="42.989309" lon="-2.329803">
        <ele>618.70</ele>
        <time>2022-03-23T09:47:47Z</time>
      </trkpt>
      <trkpt lat="42.989259" lon="-2.329829">
        <ele>620.30</ele>
        <time>2022-03-23T09:47:51Z</time>
      </trkpt>
      <trkpt lat="42.989220" lon="-2.329865">
        <ele>622.10</ele>
        <time>2022-03-23T09:47:55Z</time>
      </trkpt>
      <trkpt lat="42.989192" lon="-2.329916">
        <ele>624.40</ele>
        <time>2022-03-23T09:47:59Z</time>
      </trkpt>
      <trkpt lat="42.989144" lon="-2.329966">
        <ele>626.90</ele>
        <time>2022-03-23T09:48:04Z</time>
      </trkpt>
      <trkpt lat="42.989091" lon="-2.329978">
        <ele>627.80</ele>
        <time>2022-03-23T09:48:08Z</time>
      </trkpt>
      <trkpt lat="42.989035" lon="-2.329983">
        <ele>628.20</ele>
        <time>2022-03-23T09:48:13Z</time>
      </trkpt>
      <trkpt lat="42.988975" lon="-2.329985">
        <ele>628.70</ele>
        <time>2022-03-23T09:48:17Z</time>
      </trkpt>
      <trkpt lat="42.988927" lon="-2.329975">
        <ele>628.60</ele>
        <time>2022-03-23T09:48:21Z</time>
      </trkpt>
      <trkpt lat="42.988873" lon="-2.329965">
        <ele>628.70</ele>
        <time>2022-03-23T09:48:26Z</time>
      </trkpt>
      <trkpt lat="42.988823" lon="-2.329954">
        <ele>628.80</ele>
        <time>2022-03-23T09:48:30Z</time>
      </trkpt>
      <trkpt lat="42.988771" lon="-2.329950">
        <ele>629.50</ele>
        <time>2022-03-23T09:48:34Z</time>
      </trkpt>
      <trkpt lat="42.988716" lon="-2.329941">
        <ele>630.00</ele>
        <time>2022-03-23T09:48:38Z</time>
      </trkpt>
      <trkpt lat="42.988661" lon="-2.329922">
        <ele>630.00</ele>
        <time>2022-03-23T09:48:43Z</time>
      </trkpt>
      <trkpt lat="42.988609" lon="-2.329896">
        <ele>629.60</ele>
        <time>2022-03-23T09:48:47Z</time>
      </trkpt>
      <trkpt lat="42.988562" lon="-2.329879">
        <ele>629.20</ele>
        <time>2022-03-23T09:48:51Z</time>
      </trkpt>
      <trkpt lat="42.988516" lon="-2.329863">
        <ele>628.80</ele>
        <time>2022-03-23T09:48:55Z</time>
      </trkpt>
      <trkpt lat="42.988473" lon="-2.329845">
        <ele>628.50</ele>
        <time>2022-03-23T09:48:58Z</time>
      </trkpt>
      <trkpt lat="42.988418" lon="-2.329841">
        <ele>628.60</ele>
        <time>2022-03-23T09:49:03Z</time>
      </trkpt>
      <trkpt lat="42.988361" lon="-2.329857">
        <ele>629.60</ele>
        <time>2022-03-23T09:49:08Z</time>
      </trkpt>
      <trkpt lat="42.988314" lon="-2.329871">
        <ele>630.10</ele>
        <time>2022-03-23T09:49:11Z</time>
      </trkpt>
      <trkpt lat="42.988255" lon="-2.329881">
        <ele>629.70</ele>
        <time>2022-03-23T09:49:16Z</time>
      </trkpt>
      <trkpt lat="42.988197" lon="-2.329887">
        <ele>629.10</ele>
        <time>2022-03-23T09:49:21Z</time>
      </trkpt>
      <trkpt lat="42.988153" lon="-2.329902">
        <ele>629.00</ele>
        <time>2022-03-23T09:49:24Z</time>
      </trkpt>
      <trkpt lat="42.988107" lon="-2.329921">
        <ele>629.00</ele>
        <time>2022-03-23T09:49:28Z</time>
      </trkpt>
      <trkpt lat="42.988057" lon="-2.329940">
        <ele>629.00</ele>
        <time>2022-03-23T09:49:32Z</time>
      </trkpt>
      <trkpt lat="42.988008" lon="-2.329962">
        <ele>628.40</ele>
        <time>2022-03-23T09:49:37Z</time>
      </trkpt>
      <trkpt lat="42.987953" lon="-2.329990">
        <ele>627.40</ele>
        <time>2022-03-23T09:49:41Z</time>
      </trkpt>
      <trkpt lat="42.987901" lon="-2.330020">
        <ele>626.70</ele>
        <time>2022-03-23T09:49:46Z</time>
      </trkpt>
      <trkpt lat="42.987852" lon="-2.330051">
        <ele>626.30</ele>
        <time>2022-03-23T09:49:50Z</time>
      </trkpt>
      <trkpt lat="42.987806" lon="-2.330079">
        <ele>625.90</ele>
        <time>2022-03-23T09:49:54Z</time>
      </trkpt>
      <trkpt lat="42.987750" lon="-2.330104">
        <ele>625.40</ele>
        <time>2022-03-23T09:49:59Z</time>
      </trkpt>
      <trkpt lat="42.987706" lon="-2.330136">
        <ele>625.90</ele>
        <time>2022-03-23T09:50:03Z</time>
      </trkpt>
      <trkpt lat="42.987663" lon="-2.330188">
        <ele>626.60</ele>
        <time>2022-03-23T09:50:07Z</time>
      </trkpt>
      <trkpt lat="42.987631" lon="-2.330235">
        <ele>627.00</ele>
        <time>2022-03-23T09:50:11Z</time>
      </trkpt>
      <trkpt lat="42.987594" lon="-2.330272">
        <ele>626.60</ele>
        <time>2022-03-23T09:50:15Z</time>
      </trkpt>
      <trkpt lat="42.987580" lon="-2.330211">
        <ele>625.30</ele>
        <time>2022-03-23T09:50:19Z</time>
      </trkpt>
      <trkpt lat="42.987533" lon="-2.330218">
        <ele>624.40</ele>
        <time>2022-03-23T09:50:22Z</time>
      </trkpt>
      <trkpt lat="42.987491" lon="-2.330191">
        <ele>623.70</ele>
        <time>2022-03-23T09:50:26Z</time>
      </trkpt>
      <trkpt lat="42.987438" lon="-2.330152">
        <ele>624.50</ele>
        <time>2022-03-23T09:50:31Z</time>
      </trkpt>
      <trkpt lat="42.987383" lon="-2.330126">
        <ele>625.40</ele>
        <time>2022-03-23T09:50:36Z</time>
      </trkpt>
      <trkpt lat="42.987333" lon="-2.330111">
        <ele>626.30</ele>
        <time>2022-03-23T09:50:40Z</time>
      </trkpt>
      <trkpt lat="42.987284" lon="-2.330119">
        <ele>627.40</ele>
        <time>2022-03-23T09:50:44Z</time>
      </trkpt>
      <trkpt lat="42.987228" lon="-2.330123">
        <ele>628.50</ele>
        <time>2022-03-23T09:50:48Z</time>
      </trkpt>
      <trkpt lat="42.987165" lon="-2.330115">
        <ele>629.70</ele>
        <time>2022-03-23T09:50:53Z</time>
      </trkpt>
      <trkpt lat="42.987110" lon="-2.330125">
        <ele>631.20</ele>
        <time>2022-03-23T09:50:58Z</time>
      </trkpt>
      <trkpt lat="42.987064" lon="-2.330133">
        <ele>632.50</ele>
        <time>2022-03-23T09:51:01Z</time>
      </trkpt>
      <trkpt lat="42.987008" lon="-2.330147">
        <ele>634.40</ele>
        <time>2022-03-23T09:51:06Z</time>
      </trkpt>
      <trkpt lat="42.986954" lon="-2.330150">
        <ele>635.80</ele>
        <time>2022-03-23T09:51:10Z</time>
      </trkpt>
      <trkpt lat="42.986908" lon="-2.330149">
        <ele>637.20</ele>
        <time>2022-03-23T09:51:14Z</time>
      </trkpt>
      <trkpt lat="42.986865" lon="-2.330119">
        <ele>637.50</ele>
        <time>2022-03-23T09:51:18Z</time>
      </trkpt>
      <trkpt lat="42.986822" lon="-2.330094">
        <ele>637.80</ele>
        <time>2022-03-23T09:51:22Z</time>
      </trkpt>
      <trkpt lat="42.986784" lon="-2.330056">
        <ele>637.50</ele>
        <time>2022-03-23T09:51:25Z</time>
      </trkpt>
      <trkpt lat="42.986739" lon="-2.330033">
        <ele>638.20</ele>
        <time>2022-03-23T09:51:29Z</time>
      </trkpt>
      <trkpt lat="42.986699" lon="-2.330002">
        <ele>638.00</ele>
        <time>2022-03-23T09:51:33Z</time>
      </trkpt>
      <trkpt lat="42.986651" lon="-2.329965">
        <ele>638.70</ele>
        <time>2022-03-23T09:51:37Z</time>
      </trkpt>
      <trkpt lat="42.986600" lon="-2.329930">
        <ele>639.90</ele>
        <time>2022-03-23T09:51:42Z</time>
      </trkpt>
      <trkpt lat="42.986553" lon="-2.329896">
        <ele>640.70</ele>
        <time>2022-03-23T09:51:46Z</time>
      </trkpt>
      <trkpt lat="42.986507" lon="-2.329856">
        <ele>641.20</ele>
        <time>2022-03-23T09:51:50Z</time>
      </trkpt>
      <trkpt lat="42.986458" lon="-2.329827">
        <ele>642.00</ele>
        <time>2022-03-23T09:51:55Z</time>
      </trkpt>
      <trkpt lat="42.986412" lon="-2.329801">
        <ele>642.70</ele>
        <time>2022-03-23T09:51:59Z</time>
      </trkpt>
      <trkpt lat="42.986359" lon="-2.329769">
        <ele>643.30</ele>
        <time>2022-03-23T09:52:03Z</time>
      </trkpt>
      <trkpt lat="42.986306" lon="-2.329733">
        <ele>643.80</ele>
        <time>2022-03-23T09:52:08Z</time>
      </trkpt>
      <trkpt lat="42.986262" lon="-2.329700">
        <ele>644.50</ele>
        <time>2022-03-23T09:52:12Z</time>
      </trkpt>
      <trkpt lat="42.986219" lon="-2.329671">
        <ele>645.30</ele>
        <time>2022-03-23T09:52:16Z</time>
      </trkpt>
      <trkpt lat="42.986164" lon="-2.329634">
        <ele>646.10</ele>
        <time>2022-03-23T09:52:21Z</time>
      </trkpt>
      <trkpt lat="42.986108" lon="-2.329610">
        <ele>647.20</ele>
        <time>2022-03-23T09:52:26Z</time>
      </trkpt>
      <trkpt lat="42.986061" lon="-2.329581">
        <ele>647.80</ele>
        <time>2022-03-23T09:52:30Z</time>
      </trkpt>
      <trkpt lat="42.986014" lon="-2.329564">
        <ele>649.00</ele>
        <time>2022-03-23T09:52:34Z</time>
      </trkpt>
      <trkpt lat="42.985968" lon="-2.329527">
        <ele>649.40</ele>
        <time>2022-03-23T09:52:38Z</time>
      </trkpt>
      <trkpt lat="42.985926" lon="-2.329494">
        <ele>649.70</ele>
        <time>2022-03-23T09:52:42Z</time>
      </trkpt>
      <trkpt lat="42.985885" lon="-2.329465">
        <ele>649.90</ele>
        <time>2022-03-23T09:52:45Z</time>
      </trkpt>
      <trkpt lat="42.985844" lon="-2.329432">
        <ele>650.30</ele>
        <time>2022-03-23T09:52:49Z</time>
      </trkpt>
      <trkpt lat="42.985808" lon="-2.329395">
        <ele>651.00</ele>
        <time>2022-03-23T09:52:53Z</time>
      </trkpt>
      <trkpt lat="42.985773" lon="-2.329345">
        <ele>651.60</ele>
        <time>2022-03-23T09:52:57Z</time>
      </trkpt>
      <trkpt lat="42.985728" lon="-2.329308">
        <ele>652.70</ele>
        <time>2022-03-23T09:53:01Z</time>
      </trkpt>
      <trkpt lat="42.985678" lon="-2.329277">
        <ele>654.40</ele>
        <time>2022-03-23T09:53:05Z</time>
      </trkpt>
      <trkpt lat="42.985637" lon="-2.329238">
        <ele>655.20</ele>
        <time>2022-03-23T09:53:09Z</time>
      </trkpt>
      <trkpt lat="42.985603" lon="-2.329191">
        <ele>655.50</ele>
        <time>2022-03-23T09:53:13Z</time>
      </trkpt>
      <trkpt lat="42.985569" lon="-2.329148">
        <ele>655.80</ele>
        <time>2022-03-23T09:53:17Z</time>
      </trkpt>
      <trkpt lat="42.985528" lon="-2.329110">
        <ele>656.60</ele>
        <time>2022-03-23T09:53:21Z</time>
      </trkpt>
      <trkpt lat="42.985483" lon="-2.329083">
        <ele>658.00</ele>
        <time>2022-03-23T09:53:25Z</time>
      </trkpt>
      <trkpt lat="42.985433" lon="-2.329049">
        <ele>659.50</ele>
        <time>2022-03-23T09:53:29Z</time>
      </trkpt>
      <trkpt lat="42.985391" lon="-2.329018">
        <ele>660.50</ele>
        <time>2022-03-23T09:53:33Z</time>
      </trkpt>
      <trkpt lat="42.985343" lon="-2.328989">
        <ele>661.70</ele>
        <time>2022-03-23T09:53:37Z</time>
      </trkpt>
      <trkpt lat="42.985289" lon="-2.328982">
        <ele>664.20</ele>
        <time>2022-03-23T09:53:42Z</time>
      </trkpt>
      <trkpt lat="42.985236" lon="-2.328995">
        <ele>665.70</ele>
        <time>2022-03-23T09:53:46Z</time>
      </trkpt>
      <trkpt lat="42.985184" lon="-2.329010">
        <ele>667.00</ele>
        <time>2022-03-23T09:53:50Z</time>
      </trkpt>
      <trkpt lat="42.985134" lon="-2.329011">
        <ele>667.60</ele>
        <time>2022-03-23T09:53:54Z</time>
      </trkpt>
      <trkpt lat="42.985082" lon="-2.329002">
        <ele>667.90</ele>
        <time>2022-03-23T09:53:59Z</time>
      </trkpt>
      <trkpt lat="42.985029" lon="-2.329007">
        <ele>668.70</ele>
        <time>2022-03-23T09:54:03Z</time>
      </trkpt>
      <trkpt lat="42.984981" lon="-2.329013">
        <ele>669.20</ele>
        <time>2022-03-23T09:54:07Z</time>
      </trkpt>
      <trkpt lat="42.984933" lon="-2.329025">
        <ele>669.60</ele>
        <time>2022-03-23T09:54:11Z</time>
      </trkpt>
      <trkpt lat="42.984885" lon="-2.329045">
        <ele>670.40</ele>
        <time>2022-03-23T09:54:15Z</time>
      </trkpt>
      <trkpt lat="42.984837" lon="-2.329075">
        <ele>671.70</ele>
        <time>2022-03-23T09:54:19Z</time>
      </trkpt>
      <trkpt lat="42.984802" lon="-2.329115">
        <ele>673.20</ele>
        <time>2022-03-23T09:54:22Z</time>
      </trkpt>
      <trkpt lat="42.984769" lon="-2.329164">
        <ele>675.30</ele>
        <time>2022-03-23T09:54:26Z</time>
      </trkpt>
      <trkpt lat="42.984728" lon="-2.329229">
        <ele>677.80</ele>
        <time>2022-03-23T09:54:31Z</time>
      </trkpt>
      <trkpt lat="42.984680" lon="-2.329273">
        <ele>679.10</ele>
        <time>2022-03-23T09:54:36Z</time>
      </trkpt>
      <trkpt lat="42.984637" lon="-2.329313">
        <ele>680.20</ele>
        <time>2022-03-23T09:54:40Z</time>
      </trkpt>
      <trkpt lat="42.984588" lon="-2.329346">
        <ele>680.70</ele>
        <time>2022-03-23T09:54:45Z</time>
      </trkpt>
      <trkpt lat="42.984540" lon="-2.329354">
        <ele>680.30</ele>
        <time>2022-03-23T09:54:48Z</time>
      </trkpt>
      <trkpt lat="42.984484" lon="-2.329342">
        <ele>678.90</ele>
        <time>2022-03-23T09:54:53Z</time>
      </trkpt>
      <trkpt lat="42.984429" lon="-2.329324">
        <ele>677.90</ele>
        <time>2022-03-23T09:54:57Z</time>
      </trkpt>
      <trkpt lat="42.984385" lon="-2.329301">
        <ele>677.80</ele>
        <time>2022-03-23T09:55:01Z</time>
      </trkpt>
      <trkpt lat="42.984332" lon="-2.329273">
        <ele>677.70</ele>
        <time>2022-03-23T09:55:06Z</time>
      </trkpt>
      <trkpt lat="42.984284" lon="-2.329250">
        <ele>677.80</ele>
        <time>2022-03-23T09:55:10Z</time>
      </trkpt>
      <trkpt lat="42.984231" lon="-2.329227">
        <ele>677.80</ele>
        <time>2022-03-23T09:55:14Z</time>
      </trkpt>
      <trkpt lat="42.984180" lon="-2.329211">
        <ele>678.30</ele>
        <time>2022-03-23T09:55:18Z</time>
      </trkpt>
      <trkpt lat="42.984127" lon="-2.329210">
        <ele>679.10</ele>
        <time>2022-03-23T09:55:23Z</time>
      </trkpt>
      <trkpt lat="42.984072" lon="-2.329200">
        <ele>679.80</ele>
        <time>2022-03-23T09:55:27Z</time>
      </trkpt>
      <trkpt lat="42.984022" lon="-2.329185">
        <ele>680.20</ele>
        <time>2022-03-23T09:55:31Z</time>
      </trkpt>
      <trkpt lat="42.983975" lon="-2.329171">
        <ele>680.60</ele>
        <time>2022-03-23T09:55:35Z</time>
      </trkpt>
      <trkpt lat="42.983927" lon="-2.329157">
        <ele>681.10</ele>
        <time>2022-03-23T09:55:39Z</time>
      </trkpt>
      <trkpt lat="42.983875" lon="-2.329138">
        <ele>681.30</ele>
        <time>2022-03-23T09:55:43Z</time>
      </trkpt>
      <trkpt lat="42.983829" lon="-2.329117">
        <ele>681.30</ele>
        <time>2022-03-23T09:55:47Z</time>
      </trkpt>
      <trkpt lat="42.983781" lon="-2.329093">
        <ele>681.10</ele>
        <time>2022-03-23T09:55:51Z</time>
      </trkpt>
      <trkpt lat="42.983735" lon="-2.329088">
        <ele>681.70</ele>
        <time>2022-03-23T09:55:55Z</time>
      </trkpt>
      <trkpt lat="42.983688" lon="-2.329102">
        <ele>682.50</ele>
        <time>2022-03-23T09:55:59Z</time>
      </trkpt>
      <trkpt lat="42.983643" lon="-2.329123">
        <ele>683.50</ele>
        <time>2022-03-23T09:56:03Z</time>
      </trkpt>
      <trkpt lat="42.983592" lon="-2.329137">
        <ele>684.40</ele>
        <time>2022-03-23T09:56:07Z</time>
      </trkpt>
      <trkpt lat="42.983546" lon="-2.329157">
        <ele>685.40</ele>
        <time>2022-03-23T09:56:11Z</time>
      </trkpt>
      <trkpt lat="42.983487" lon="-2.329188">
        <ele>686.50</ele>
        <time>2022-03-23T09:56:16Z</time>
      </trkpt>
      <trkpt lat="42.983438" lon="-2.329205">
        <ele>687.20</ele>
        <time>2022-03-23T09:56:20Z</time>
      </trkpt>
      <trkpt lat="42.983387" lon="-2.329229">
        <ele>687.70</ele>
        <time>2022-03-23T09:56:24Z</time>
      </trkpt>
      <trkpt lat="42.983341" lon="-2.329232">
        <ele>688.00</ele>
        <time>2022-03-23T09:56:28Z</time>
      </trkpt>
      <trkpt lat="42.983301" lon="-2.329195">
        <ele>688.70</ele>
        <time>2022-03-23T09:56:32Z</time>
      </trkpt>
      <trkpt lat="42.983313" lon="-2.329134">
        <ele>687.90</ele>
        <time>2022-03-23T09:56:35Z</time>
      </trkpt>
      <trkpt lat="42.983329" lon="-2.329074">
        <ele>687.50</ele>
        <time>2022-03-23T09:56:39Z</time>
      </trkpt>
      <trkpt lat="42.983333" lon="-2.329007">
        <ele>687.60</ele>
        <time>2022-03-23T09:56:43Z</time>
      </trkpt>
      <trkpt lat="42.983326" lon="-2.328933">
        <ele>688.10</ele>
        <time>2022-03-23T09:56:47Z</time>
      </trkpt>
      <trkpt lat="42.983316" lon="-2.328861">
        <ele>688.40</ele>
        <time>2022-03-23T09:56:52Z</time>
      </trkpt>
      <trkpt lat="42.983290" lon="-2.328798">
        <ele>688.90</ele>
        <time>2022-03-23T09:56:56Z</time>
      </trkpt>
      <trkpt lat="42.983247" lon="-2.328751">
        <ele>690.20</ele>
        <time>2022-03-23T09:57:00Z</time>
      </trkpt>
      <trkpt lat="42.983211" lon="-2.328711">
        <ele>691.60</ele>
        <time>2022-03-23T09:57:04Z</time>
      </trkpt>
      <trkpt lat="42.983184" lon="-2.328661">
        <ele>692.30</ele>
        <time>2022-03-23T09:57:08Z</time>
      </trkpt>
      <trkpt lat="42.983156" lon="-2.328600">
        <ele>693.40</ele>
        <time>2022-03-23T09:57:12Z</time>
      </trkpt>
      <trkpt lat="42.983139" lon="-2.328532">
        <ele>693.80</ele>
        <time>2022-03-23T09:57:16Z</time>
      </trkpt>
      <trkpt lat="42.983150" lon="-2.328450">
        <ele>693.00</ele>
        <time>2022-03-23T09:57:21Z</time>
      </trkpt>
      <trkpt lat="42.983161" lon="-2.328376">
        <ele>692.20</ele>
        <time>2022-03-23T09:57:25Z</time>
      </trkpt>
      <trkpt lat="42.983164" lon="-2.328312">
        <ele>692.10</ele>
        <time>2022-03-23T09:57:29Z</time>
      </trkpt>
      <trkpt lat="42.983167" lon="-2.328248">
        <ele>692.50</ele>
        <time>2022-03-23T09:57:33Z</time>
      </trkpt>
      <trkpt lat="42.983162" lon="-2.328186">
        <ele>693.30</ele>
        <time>2022-03-23T09:57:37Z</time>
      </trkpt>
      <trkpt lat="42.983114" lon="-2.328174">
        <ele>695.60</ele>
        <time>2022-03-23T09:57:41Z</time>
      </trkpt>
      <trkpt lat="42.983065" lon="-2.328245">
        <ele>697.30</ele>
        <time>2022-03-23T09:57:46Z</time>
      </trkpt>
      <trkpt lat="42.983110" lon="-2.328269">
        <ele>695.00</ele>
        <time>2022-03-23T09:57:50Z</time>
      </trkpt>
      <trkpt lat="42.983066" lon="-2.328296">
        <ele>696.90</ele>
        <time>2022-03-23T09:57:54Z</time>
      </trkpt>
      <trkpt lat="42.983022" lon="-2.328286">
        <ele>698.80</ele>
        <time>2022-03-23T09:57:58Z</time>
      </trkpt>
      <trkpt lat="42.982973" lon="-2.328306">
        <ele>700.80</ele>
        <time>2022-03-23T09:58:02Z</time>
      </trkpt>
      <trkpt lat="42.982929" lon="-2.328326">
        <ele>702.50</ele>
        <time>2022-03-23T09:58:05Z</time>
      </trkpt>
      <trkpt lat="42.982883" lon="-2.328339">
        <ele>704.40</ele>
        <time>2022-03-23T09:58:09Z</time>
      </trkpt>
      <trkpt lat="42.982838" lon="-2.328317">
        <ele>706.40</ele>
        <time>2022-03-23T09:58:13Z</time>
      </trkpt>
      <trkpt lat="42.982788" lon="-2.328297">
        <ele>708.70</ele>
        <time>2022-03-23T09:58:17Z</time>
      </trkpt>
      <trkpt lat="42.982737" lon="-2.328272">
        <ele>710.50</ele>
        <time>2022-03-23T09:58:21Z</time>
      </trkpt>
      <trkpt lat="42.982692" lon="-2.328248">
        <ele>712.00</ele>
        <time>2022-03-23T09:58:25Z</time>
      </trkpt>
      <trkpt lat="42.982643" lon="-2.328227">
        <ele>713.60</ele>
        <time>2022-03-23T09:58:29Z</time>
      </trkpt>
      <trkpt lat="42.982606" lon="-2.328182">
        <ele>714.90</ele>
        <time>2022-03-23T09:58:33Z</time>
      </trkpt>
      <trkpt lat="42.982568" lon="-2.328133">
        <ele>716.30</ele>
        <time>2022-03-23T09:58:38Z</time>
      </trkpt>
      <trkpt lat="42.982520" lon="-2.328113">
        <ele>718.20</ele>
        <time>2022-03-23T09:58:42Z</time>
      </trkpt>
      <trkpt lat="42.982469" lon="-2.328096">
        <ele>719.80</ele>
        <time>2022-03-23T09:58:46Z</time>
      </trkpt>
      <trkpt lat="42.982424" lon="-2.328053">
        <ele>721.00</ele>
        <time>2022-03-23T09:58:50Z</time>
      </trkpt>
      <trkpt lat="42.982390" lon="-2.328011">
        <ele>722.00</ele>
        <time>2022-03-23T09:58:54Z</time>
      </trkpt>
      <trkpt lat="42.982353" lon="-2.327971">
        <ele>723.20</ele>
        <time>2022-03-23T09:58:58Z</time>
      </trkpt>
      <trkpt lat="42.982317" lon="-2.327929">
        <ele>724.20</ele>
        <time>2022-03-23T09:59:01Z</time>
      </trkpt>
      <trkpt lat="42.982288" lon="-2.327868">
        <ele>725.20</ele>
        <time>2022-03-23T09:59:06Z</time>
      </trkpt>
      <trkpt lat="42.982251" lon="-2.327815">
        <ele>726.20</ele>
        <time>2022-03-23T09:59:10Z</time>
      </trkpt>
      <trkpt lat="42.982208" lon="-2.327789">
        <ele>727.20</ele>
        <time>2022-03-23T09:59:14Z</time>
      </trkpt>
      <trkpt lat="42.982154" lon="-2.327772">
        <ele>728.00</ele>
        <time>2022-03-23T09:59:18Z</time>
      </trkpt>
      <trkpt lat="42.982110" lon="-2.327759">
        <ele>728.70</ele>
        <time>2022-03-23T09:59:22Z</time>
      </trkpt>
      <trkpt lat="42.982039" lon="-2.327744">
        <ele>729.80</ele>
        <time>2022-03-23T09:59:28Z</time>
      </trkpt>
      <trkpt lat="42.981968" lon="-2.327731">
        <ele>730.90</ele>
        <time>2022-03-23T09:59:33Z</time>
      </trkpt>
      <trkpt lat="42.981921" lon="-2.327690">
        <ele>731.70</ele>
        <time>2022-03-23T09:59:38Z</time>
      </trkpt>
      <trkpt lat="42.981884" lon="-2.327645">
        <ele>732.10</ele>
        <time>2022-03-23T09:59:42Z</time>
      </trkpt>
      <trkpt lat="42.981825" lon="-2.327615">
        <ele>732.80</ele>
        <time>2022-03-23T09:59:47Z</time>
      </trkpt>
      <trkpt lat="42.981775" lon="-2.327588">
        <ele>733.30</ele>
        <time>2022-03-23T09:59:51Z</time>
      </trkpt>
      <trkpt lat="42.981752" lon="-2.327527">
        <ele>733.40</ele>
        <time>2022-03-23T09:59:55Z</time>
      </trkpt>
      <trkpt lat="42.981732" lon="-2.327455">
        <ele>733.60</ele>
        <time>2022-03-23T10:00:00Z</time>
      </trkpt>
      <trkpt lat="42.981704" lon="-2.327391">
        <ele>733.80</ele>
        <time>2022-03-23T10:00:04Z</time>
      </trkpt>
      <trkpt lat="42.981677" lon="-2.327339">
        <ele>734.00</ele>
        <time>2022-03-23T10:00:08Z</time>
      </trkpt>
      <trkpt lat="42.981629" lon="-2.327299">
        <ele>733.60</ele>
        <time>2022-03-23T10:00:12Z</time>
      </trkpt>
      <trkpt lat="42.981584" lon="-2.327261">
        <ele>733.10</ele>
        <time>2022-03-23T10:00:16Z</time>
      </trkpt>
      <trkpt lat="42.981545" lon="-2.327221">
        <ele>732.80</ele>
        <time>2022-03-23T10:00:20Z</time>
      </trkpt>
      <trkpt lat="42.981509" lon="-2.327170">
        <ele>732.60</ele>
        <time>2022-03-23T10:00:24Z</time>
      </trkpt>
      <trkpt lat="42.981481" lon="-2.327116">
        <ele>732.50</ele>
        <time>2022-03-23T10:00:28Z</time>
      </trkpt>
      <trkpt lat="42.981453" lon="-2.327065">
        <ele>732.40</ele>
        <time>2022-03-23T10:00:32Z</time>
      </trkpt>
      <trkpt lat="42.981424" lon="-2.327011">
        <ele>732.30</ele>
        <time>2022-03-23T10:00:36Z</time>
      </trkpt>
      <trkpt lat="42.981396" lon="-2.326952">
        <ele>732.10</ele>
        <time>2022-03-23T10:00:40Z</time>
      </trkpt>
      <trkpt lat="42.981363" lon="-2.326893">
        <ele>731.50</ele>
        <time>2022-03-23T10:00:44Z</time>
      </trkpt>
      <trkpt lat="42.981328" lon="-2.326957">
        <ele>730.10</ele>
        <time>2022-03-23T10:00:49Z</time>
      </trkpt>
      <trkpt lat="42.981319" lon="-2.327029">
        <ele>729.50</ele>
        <time>2022-03-23T10:00:53Z</time>
      </trkpt>
      <trkpt lat="42.981309" lon="-2.327092">
        <ele>728.80</ele>
        <time>2022-03-23T10:00:57Z</time>
      </trkpt>
      <trkpt lat="42.981332" lon="-2.327162">
        <ele>729.30</ele>
        <time>2022-03-23T10:01:02Z</time>
      </trkpt>
      <trkpt lat="42.981352" lon="-2.327222">
        <ele>729.80</ele>
        <time>2022-03-23T10:01:06Z</time>
      </trkpt>
      <trkpt lat="42.981323" lon="-2.327276">
        <ele>728.70</ele>
        <time>2022-03-23T10:01:09Z</time>
      </trkpt>
      <trkpt lat="42.981291" lon="-2.327352">
        <ele>727.70</ele>
        <time>2022-03-23T10:01:15Z</time>
      </trkpt>
      <trkpt lat="42.981287" lon="-2.327429">
        <ele>727.50</ele>
        <time>2022-03-23T10:01:19Z</time>
      </trkpt>
      <trkpt lat="42.981279" lon="-2.327511">
        <ele>727.40</ele>
        <time>2022-03-23T10:01:24Z</time>
      </trkpt>
      <trkpt lat="42.981254" lon="-2.327588">
        <ele>726.60</ele>
        <time>2022-03-23T10:01:29Z</time>
      </trkpt>
      <trkpt lat="42.981230" lon="-2.327648">
        <ele>725.70</ele>
        <time>2022-03-23T10:01:33Z</time>
      </trkpt>
      <trkpt lat="42.981208" lon="-2.327720">
        <ele>725.00</ele>
        <time>2022-03-23T10:01:37Z</time>
      </trkpt>
      <trkpt lat="42.981186" lon="-2.327783">
        <ele>724.40</ele>
        <time>2022-03-23T10:01:42Z</time>
      </trkpt>
      <trkpt lat="42.981161" lon="-2.327839">
        <ele>724.10</ele>
        <time>2022-03-23T10:01:45Z</time>
      </trkpt>
      <trkpt lat="42.981127" lon="-2.327925">
        <ele>724.20</ele>
        <time>2022-03-23T10:01:51Z</time>
      </trkpt>
      <trkpt lat="42.981100" lon="-2.327979">
        <ele>724.10</ele>
        <time>2022-03-23T10:01:55Z</time>
      </trkpt>
      <trkpt lat="42.981070" lon="-2.328026">
        <ele>723.80</ele>
        <time>2022-03-23T10:01:59Z</time>
      </trkpt>
      <trkpt lat="42.981033" lon="-2.328088">
        <ele>723.10</ele>
        <time>2022-03-23T10:02:03Z</time>
      </trkpt>
      <trkpt lat="42.980998" lon="-2.328141">
        <ele>722.50</ele>
        <time>2022-03-23T10:02:07Z</time>
      </trkpt>
      <trkpt lat="42.980969" lon="-2.328190">
        <ele>721.90</ele>
        <time>2022-03-23T10:02:11Z</time>
      </trkpt>
      <trkpt lat="42.980942" lon="-2.328246">
        <ele>721.40</ele>
        <time>2022-03-23T10:02:15Z</time>
      </trkpt>
      <trkpt lat="42.980924" lon="-2.328306">
        <ele>721.20</ele>
        <time>2022-03-23T10:02:19Z</time>
      </trkpt>
      <trkpt lat="42.980902" lon="-2.328378">
        <ele>721.30</ele>
        <time>2022-03-23T10:02:23Z</time>
      </trkpt>
      <trkpt lat="42.980861" lon="-2.328441">
        <ele>720.60</ele>
        <time>2022-03-23T10:02:28Z</time>
      </trkpt>
      <trkpt lat="42.980829" lon="-2.328490">
        <ele>720.30</ele>
        <time>2022-03-23T10:02:32Z</time>
      </trkpt>
      <trkpt lat="42.980786" lon="-2.328547">
        <ele>720.50</ele>
        <time>2022-03-23T10:02:37Z</time>
      </trkpt>
      <trkpt lat="42.980754" lon="-2.328594">
        <ele>720.60</ele>
        <time>2022-03-23T10:02:41Z</time>
      </trkpt>
      <trkpt lat="42.980722" lon="-2.328644">
        <ele>721.00</ele>
        <time>2022-03-23T10:02:45Z</time>
      </trkpt>
      <trkpt lat="42.980676" lon="-2.328655">
        <ele>720.20</ele>
        <time>2022-03-23T10:02:48Z</time>
      </trkpt>
      <trkpt lat="42.980619" lon="-2.328655">
        <ele>718.80</ele>
        <time>2022-03-23T10:02:53Z</time>
      </trkpt>
      <trkpt lat="42.980564" lon="-2.328667">
        <ele>717.70</ele>
        <time>2022-03-23T10:02:57Z</time>
      </trkpt>
      <trkpt lat="42.980525" lon="-2.328699">
        <ele>718.60</ele>
        <time>2022-03-23T10:03:01Z</time>
      </trkpt>
      <trkpt lat="42.980475" lon="-2.328745">
        <ele>720.10</ele>
        <time>2022-03-23T10:03:06Z</time>
      </trkpt>
      <trkpt lat="42.980421" lon="-2.328778">
        <ele>721.30</ele>
        <time>2022-03-23T10:03:11Z</time>
      </trkpt>
      <trkpt lat="42.980377" lon="-2.328752">
        <ele>721.10</ele>
        <time>2022-03-23T10:03:14Z</time>
      </trkpt>
      <trkpt lat="42.980335" lon="-2.328714">
        <ele>720.90</ele>
        <time>2022-03-23T10:03:19Z</time>
      </trkpt>
      <trkpt lat="42.980290" lon="-2.328680">
        <ele>720.80</ele>
        <time>2022-03-23T10:03:23Z</time>
      </trkpt>
      <trkpt lat="42.980258" lon="-2.328620">
        <ele>720.90</ele>
        <time>2022-03-23T10:03:27Z</time>
      </trkpt>
      <trkpt lat="42.980222" lon="-2.328570">
        <ele>721.60</ele>
        <time>2022-03-23T10:03:31Z</time>
      </trkpt>
      <trkpt lat="42.980184" lon="-2.328535">
        <ele>722.30</ele>
        <time>2022-03-23T10:03:35Z</time>
      </trkpt>
      <trkpt lat="42.980148" lon="-2.328480">
        <ele>722.60</ele>
        <time>2022-03-23T10:03:39Z</time>
      </trkpt>
      <trkpt lat="42.980119" lon="-2.328430">
        <ele>722.70</ele>
        <time>2022-03-23T10:03:43Z</time>
      </trkpt>
      <trkpt lat="42.980078" lon="-2.328367">
        <ele>722.80</ele>
        <time>2022-03-23T10:03:48Z</time>
      </trkpt>
      <trkpt lat="42.980046" lon="-2.328318">
        <ele>722.50</ele>
        <time>2022-03-23T10:03:52Z</time>
      </trkpt>
      <trkpt lat="42.980012" lon="-2.328268">
        <ele>722.40</ele>
        <time>2022-03-23T10:03:56Z</time>
      </trkpt>
      <trkpt lat="42.979979" lon="-2.328224">
        <ele>722.20</ele>
        <time>2022-03-23T10:03:59Z</time>
      </trkpt>
      <trkpt lat="42.979942" lon="-2.328181">
        <ele>722.10</ele>
        <time>2022-03-23T10:04:03Z</time>
      </trkpt>
      <trkpt lat="42.979896" lon="-2.328139">
        <ele>722.20</ele>
        <time>2022-03-23T10:04:08Z</time>
      </trkpt>
      <trkpt lat="42.979857" lon="-2.328104">
        <ele>722.30</ele>
        <time>2022-03-23T10:04:11Z</time>
      </trkpt>
      <trkpt lat="42.979813" lon="-2.328061">
        <ele>722.20</ele>
        <time>2022-03-23T10:04:16Z</time>
      </trkpt>
      <trkpt lat="42.979778" lon="-2.328023">
        <ele>722.20</ele>
        <time>2022-03-23T10:04:19Z</time>
      </trkpt>
      <trkpt lat="42.979736" lon="-2.327971">
        <ele>721.90</ele>
        <time>2022-03-23T10:04:24Z</time>
      </trkpt>
      <trkpt lat="42.979696" lon="-2.327915">
        <ele>721.60</ele>
        <time>2022-03-23T10:04:28Z</time>
      </trkpt>
      <trkpt lat="42.979664" lon="-2.327867">
        <ele>721.10</ele>
        <time>2022-03-23T10:04:32Z</time>
      </trkpt>
      <trkpt lat="42.979624" lon="-2.327817">
        <ele>720.80</ele>
        <time>2022-03-23T10:04:37Z</time>
      </trkpt>
      <trkpt lat="42.979588" lon="-2.327775">
        <ele>720.30</ele>
        <time>2022-03-23T10:04:40Z</time>
      </trkpt>
      <trkpt lat="42.979548" lon="-2.327737">
        <ele>719.80</ele>
        <time>2022-03-23T10:04:44Z</time>
      </trkpt>
      <trkpt lat="42.979505" lon="-2.327700">
        <ele>719.40</ele>
        <time>2022-03-23T10:04:48Z</time>
      </trkpt>
      <trkpt lat="42.979465" lon="-2.327667">
        <ele>718.70</ele>
        <time>2022-03-23T10:04:52Z</time>
      </trkpt>
      <trkpt lat="42.979416" lon="-2.327663">
        <ele>719.20</ele>
        <time>2022-03-23T10:04:56Z</time>
      </trkpt>
      <trkpt lat="42.979364" lon="-2.327674">
        <ele>720.20</ele>
        <time>2022-03-23T10:05:00Z</time>
      </trkpt>
      <trkpt lat="42.979313" lon="-2.327682">
        <ele>721.00</ele>
        <time>2022-03-23T10:05:04Z</time>
      </trkpt>
      <trkpt lat="42.979260" lon="-2.327677">
        <ele>721.50</ele>
        <time>2022-03-23T10:05:09Z</time>
      </trkpt>
      <trkpt lat="42.979181" lon="-2.327655">
        <ele>721.70</ele>
        <time>2022-03-23T10:05:15Z</time>
      </trkpt>
      <trkpt lat="42.979117" lon="-2.327656">
        <ele>721.40</ele>
        <time>2022-03-23T10:05:20Z</time>
      </trkpt>
      <trkpt lat="42.979071" lon="-2.327661">
        <ele>721.00</ele>
        <time>2022-03-23T10:05:24Z</time>
      </trkpt>
      <trkpt lat="42.979024" lon="-2.327671">
        <ele>720.60</ele>
        <time>2022-03-23T10:05:28Z</time>
      </trkpt>
      <trkpt lat="42.978978" lon="-2.327684">
        <ele>720.40</ele>
        <time>2022-03-23T10:05:31Z</time>
      </trkpt>
      <trkpt lat="42.978931" lon="-2.327701">
        <ele>720.40</ele>
        <time>2022-03-23T10:05:35Z</time>
      </trkpt>
      <trkpt lat="42.978871" lon="-2.327691">
        <ele>718.90</ele>
        <time>2022-03-23T10:05:40Z</time>
      </trkpt>
      <trkpt lat="42.978819" lon="-2.327683">
        <ele>716.70</ele>
        <time>2022-03-23T10:05:44Z</time>
      </trkpt>
      <trkpt lat="42.978771" lon="-2.327724">
        <ele>716.10</ele>
        <time>2022-03-23T10:05:49Z</time>
      </trkpt>
      <trkpt lat="42.978737" lon="-2.327765">
        <ele>716.20</ele>
        <time>2022-03-23T10:05:52Z</time>
      </trkpt>
      <trkpt lat="42.978694" lon="-2.327803">
        <ele>715.90</ele>
        <time>2022-03-23T10:05:57Z</time>
      </trkpt>
      <trkpt lat="42.978649" lon="-2.327823">
        <ele>715.00</ele>
        <time>2022-03-23T10:06:00Z</time>
      </trkpt>
      <trkpt lat="42.978607" lon="-2.327854">
        <ele>714.70</ele>
        <time>2022-03-23T10:06:04Z</time>
      </trkpt>
      <trkpt lat="42.978566" lon="-2.327895">
        <ele>714.90</ele>
        <time>2022-03-23T10:06:08Z</time>
      </trkpt>
      <trkpt lat="42.978523" lon="-2.327937">
        <ele>715.00</ele>
        <time>2022-03-23T10:06:12Z</time>
      </trkpt>
      <trkpt lat="42.978484" lon="-2.327971">
        <ele>714.80</ele>
        <time>2022-03-23T10:06:16Z</time>
      </trkpt>
      <trkpt lat="42.978426" lon="-2.328008">
        <ele>714.30</ele>
        <time>2022-03-23T10:06:21Z</time>
      </trkpt>
      <trkpt lat="42.978365" lon="-2.328041">
        <ele>713.50</ele>
        <time>2022-03-23T10:06:27Z</time>
      </trkpt>
      <trkpt lat="42.978314" lon="-2.328072">
        <ele>713.40</ele>
        <time>2022-03-23T10:06:31Z</time>
      </trkpt>
      <trkpt lat="42.978272" lon="-2.328103">
        <ele>713.70</ele>
        <time>2022-03-23T10:06:35Z</time>
      </trkpt>
      <trkpt lat="42.978231" lon="-2.328151">
        <ele>714.60</ele>
        <time>2022-03-23T10:06:39Z</time>
      </trkpt>
      <trkpt lat="42.978195" lon="-2.328204">
        <ele>715.60</ele>
        <time>2022-03-23T10:06:43Z</time>
      </trkpt>
      <trkpt lat="42.978161" lon="-2.328255">
        <ele>716.50</ele>
        <time>2022-03-23T10:06:47Z</time>
      </trkpt>
      <trkpt lat="42.978131" lon="-2.328305">
        <ele>717.20</ele>
        <time>2022-03-23T10:06:51Z</time>
      </trkpt>
      <trkpt lat="42.978093" lon="-2.328352">
        <ele>717.60</ele>
        <time>2022-03-23T10:06:55Z</time>
      </trkpt>
      <trkpt lat="42.978040" lon="-2.328351">
        <ele>717.40</ele>
        <time>2022-03-23T10:07:00Z</time>
      </trkpt>
      <trkpt lat="42.977999" lon="-2.328290">
        <ele>717.70</ele>
        <time>2022-03-23T10:07:04Z</time>
      </trkpt>
      <trkpt lat="42.977971" lon="-2.328226">
        <ele>717.90</ele>
        <time>2022-03-23T10:07:09Z</time>
      </trkpt>
      <trkpt lat="42.977960" lon="-2.328159">
        <ele>717.30</ele>
        <time>2022-03-23T10:07:13Z</time>
      </trkpt>
      <trkpt lat="42.977965" lon="-2.328093">
        <ele>715.70</ele>
        <time>2022-03-23T10:07:17Z</time>
      </trkpt>
      <trkpt lat="42.977965" lon="-2.328029">
        <ele>714.40</ele>
        <time>2022-03-23T10:07:20Z</time>
      </trkpt>
      <trkpt lat="42.977957" lon="-2.327954">
        <ele>713.60</ele>
        <time>2022-03-23T10:07:25Z</time>
      </trkpt>
      <trkpt lat="42.977943" lon="-2.327874">
        <ele>713.20</ele>
        <time>2022-03-23T10:07:30Z</time>
      </trkpt>
      <trkpt lat="42.977926" lon="-2.327808">
        <ele>713.30</ele>
        <time>2022-03-23T10:07:34Z</time>
      </trkpt>
      <trkpt lat="42.977906" lon="-2.327740">
        <ele>714.00</ele>
        <time>2022-03-23T10:07:38Z</time>
      </trkpt>
      <trkpt lat="42.977881" lon="-2.327664">
        <ele>714.90</ele>
        <time>2022-03-23T10:07:43Z</time>
      </trkpt>
      <trkpt lat="42.977860" lon="-2.327606">
        <ele>715.80</ele>
        <time>2022-03-23T10:07:47Z</time>
      </trkpt>
      <trkpt lat="42.977827" lon="-2.327531">
        <ele>717.10</ele>
        <time>2022-03-23T10:07:52Z</time>
      </trkpt>
      <trkpt lat="42.977794" lon="-2.327458">
        <ele>718.40</ele>
        <time>2022-03-23T10:07:57Z</time>
      </trkpt>
      <trkpt lat="42.977773" lon="-2.327383">
        <ele>718.60</ele>
        <time>2022-03-23T10:08:02Z</time>
      </trkpt>
      <trkpt lat="42.977759" lon="-2.327314">
        <ele>718.20</ele>
        <time>2022-03-23T10:08:06Z</time>
      </trkpt>
      <trkpt lat="42.977737" lon="-2.327236">
        <ele>718.00</ele>
        <time>2022-03-23T10:08:11Z</time>
      </trkpt>
      <trkpt lat="42.977716" lon="-2.327170">
        <ele>717.80</ele>
        <time>2022-03-23T10:08:15Z</time>
      </trkpt>
      <trkpt lat="42.977696" lon="-2.327090">
        <ele>717.30</ele>
        <time>2022-03-23T10:08:20Z</time>
      </trkpt>
      <trkpt lat="42.977676" lon="-2.327012">
        <ele>716.80</ele>
        <time>2022-03-23T10:08:25Z</time>
      </trkpt>
      <trkpt lat="42.977649" lon="-2.326940">
        <ele>716.50</ele>
        <time>2022-03-23T10:08:29Z</time>
      </trkpt>
      <trkpt lat="42.977613" lon="-2.326880">
        <ele>716.70</ele>
        <time>2022-03-23T10:08:34Z</time>
      </trkpt>
      <trkpt lat="42.977571" lon="-2.326832">
        <ele>717.20</ele>
        <time>2022-03-23T10:08:38Z</time>
      </trkpt>
      <trkpt lat="42.977531" lon="-2.326790">
        <ele>717.70</ele>
        <time>2022-03-23T10:08:42Z</time>
      </trkpt>
      <trkpt lat="42.977494" lon="-2.326752">
        <ele>717.90</ele>
        <time>2022-03-23T10:08:46Z</time>
      </trkpt>
      <trkpt lat="42.977454" lon="-2.326718">
        <ele>717.70</ele>
        <time>2022-03-23T10:08:50Z</time>
      </trkpt>
      <trkpt lat="42.977412" lon="-2.326689">
        <ele>717.50</ele>
        <time>2022-03-23T10:08:54Z</time>
      </trkpt>
      <trkpt lat="42.977365" lon="-2.326666">
        <ele>717.50</ele>
        <time>2022-03-23T10:08:58Z</time>
      </trkpt>
      <trkpt lat="42.977319" lon="-2.326653">
        <ele>717.50</ele>
        <time>2022-03-23T10:09:01Z</time>
      </trkpt>
      <trkpt lat="42.977271" lon="-2.326643">
        <ele>717.80</ele>
        <time>2022-03-23T10:09:05Z</time>
      </trkpt>
      <trkpt lat="42.977212" lon="-2.326638">
        <ele>717.70</ele>
        <time>2022-03-23T10:09:10Z</time>
      </trkpt>
      <trkpt lat="42.977155" lon="-2.326659">
        <ele>716.60</ele>
        <time>2022-03-23T10:09:15Z</time>
      </trkpt>
      <trkpt lat="42.977106" lon="-2.326694">
        <ele>716.10</ele>
        <time>2022-03-23T10:09:19Z</time>
      </trkpt>
      <trkpt lat="42.977065" lon="-2.326727">
        <ele>716.00</ele>
        <time>2022-03-23T10:09:23Z</time>
      </trkpt>
      <trkpt lat="42.977015" lon="-2.326764">
        <ele>715.80</ele>
        <time>2022-03-23T10:09:28Z</time>
      </trkpt>
      <trkpt lat="42.976975" lon="-2.326797">
        <ele>715.90</ele>
        <time>2022-03-23T10:09:31Z</time>
      </trkpt>
      <trkpt lat="42.976934" lon="-2.326830">
        <ele>716.10</ele>
        <time>2022-03-23T10:09:35Z</time>
      </trkpt>
      <trkpt lat="42.976887" lon="-2.326861">
        <ele>715.30</ele>
        <time>2022-03-23T10:09:39Z</time>
      </trkpt>
      <trkpt lat="42.976832" lon="-2.326892">
        <ele>714.10</ele>
        <time>2022-03-23T10:09:44Z</time>
      </trkpt>
      <trkpt lat="42.976769" lon="-2.326934">
        <ele>713.00</ele>
        <time>2022-03-23T10:09:50Z</time>
      </trkpt>
      <trkpt lat="42.976713" lon="-2.326980">
        <ele>712.30</ele>
        <time>2022-03-23T10:09:55Z</time>
      </trkpt>
      <trkpt lat="42.976655" lon="-2.327032">
        <ele>711.30</ele>
        <time>2022-03-23T10:10:00Z</time>
      </trkpt>
      <trkpt lat="42.976603" lon="-2.327086">
        <ele>710.10</ele>
        <time>2022-03-23T10:10:06Z</time>
      </trkpt>
      <trkpt lat="42.976561" lon="-2.327144">
        <ele>709.60</ele>
        <time>2022-03-23T10:10:10Z</time>
      </trkpt>
      <trkpt lat="42.976525" lon="-2.327203">
        <ele>709.30</ele>
        <time>2022-03-23T10:10:15Z</time>
      </trkpt>
      <trkpt lat="42.976493" lon="-2.327264">
        <ele>709.20</ele>
        <time>2022-03-23T10:10:19Z</time>
      </trkpt>
      <trkpt lat="42.976466" lon="-2.327329">
        <ele>709.50</ele>
        <time>2022-03-23T10:10:24Z</time>
      </trkpt>
      <trkpt lat="42.976439" lon="-2.327383">
        <ele>709.40</ele>
        <time>2022-03-23T10:10:28Z</time>
      </trkpt>
      <trkpt lat="42.976405" lon="-2.327428">
        <ele>708.80</ele>
        <time>2022-03-23T10:10:31Z</time>
      </trkpt>
      <trkpt lat="42.976360" lon="-2.327448">
        <ele>707.70</ele>
        <time>2022-03-23T10:10:35Z</time>
      </trkpt>
      <trkpt lat="42.976311" lon="-2.327461">
        <ele>706.80</ele>
        <time>2022-03-23T10:10:39Z</time>
      </trkpt>
      <trkpt lat="42.976258" lon="-2.327473">
        <ele>705.60</ele>
        <time>2022-03-23T10:10:43Z</time>
      </trkpt>
      <trkpt lat="42.976205" lon="-2.327489">
        <ele>704.50</ele>
        <time>2022-03-23T10:10:48Z</time>
      </trkpt>
      <trkpt lat="42.976154" lon="-2.327518">
        <ele>703.80</ele>
        <time>2022-03-23T10:10:52Z</time>
      </trkpt>
      <trkpt lat="42.976113" lon="-2.327549">
        <ele>703.60</ele>
        <time>2022-03-23T10:10:56Z</time>
      </trkpt>
      <trkpt lat="42.976062" lon="-2.327564">
        <ele>703.60</ele>
        <time>2022-03-23T10:11:00Z</time>
      </trkpt>
      <trkpt lat="42.976024" lon="-2.327602">
        <ele>704.50</ele>
        <time>2022-03-23T10:11:04Z</time>
      </trkpt>
      <trkpt lat="42.975975" lon="-2.327632">
        <ele>704.80</ele>
        <time>2022-03-23T10:11:08Z</time>
      </trkpt>
      <trkpt lat="42.975923" lon="-2.327643">
        <ele>704.60</ele>
        <time>2022-03-23T10:11:12Z</time>
      </trkpt>
      <trkpt lat="42.975869" lon="-2.327646">
        <ele>704.20</ele>
        <time>2022-03-23T10:11:17Z</time>
      </trkpt>
      <trkpt lat="42.975822" lon="-2.327667">
        <ele>704.40</ele>
        <time>2022-03-23T10:11:21Z</time>
      </trkpt>
      <trkpt lat="42.975773" lon="-2.327679">
        <ele>705.40</ele>
        <time>2022-03-23T10:11:25Z</time>
      </trkpt>
      <trkpt lat="42.975715" lon="-2.327678">
        <ele>706.40</ele>
        <time>2022-03-23T10:11:29Z</time>
      </trkpt>
      <trkpt lat="42.975665" lon="-2.327666">
        <ele>706.90</ele>
        <time>2022-03-23T10:11:33Z</time>
      </trkpt>
      <trkpt lat="42.975614" lon="-2.327632">
        <ele>707.40</ele>
        <time>2022-03-23T10:11:38Z</time>
      </trkpt>
      <trkpt lat="42.975605" lon="-2.327561">
        <ele>707.10</ele>
        <time>2022-03-23T10:11:42Z</time>
      </trkpt>
      <trkpt lat="42.975631" lon="-2.327501">
        <ele>705.80</ele>
        <time>2022-03-23T10:11:46Z</time>
      </trkpt>
      <trkpt lat="42.975667" lon="-2.327454">
        <ele>704.80</ele>
        <time>2022-03-23T10:11:50Z</time>
      </trkpt>
      <trkpt lat="42.975700" lon="-2.327397">
        <ele>703.70</ele>
        <time>2022-03-23T10:11:54Z</time>
      </trkpt>
      <trkpt lat="42.975719" lon="-2.327336">
        <ele>702.80</ele>
        <time>2022-03-23T10:11:58Z</time>
      </trkpt>
      <trkpt lat="42.975703" lon="-2.327264">
        <ele>703.20</ele>
        <time>2022-03-23T10:12:03Z</time>
      </trkpt>
      <trkpt lat="42.975679" lon="-2.327199">
        <ele>704.00</ele>
        <time>2022-03-23T10:12:07Z</time>
      </trkpt>
      <trkpt lat="42.975661" lon="-2.327128">
        <ele>703.90</ele>
        <time>2022-03-23T10:12:11Z</time>
      </trkpt>
      <trkpt lat="42.975644" lon="-2.327065">
        <ele>704.10</ele>
        <time>2022-03-23T10:12:15Z</time>
      </trkpt>
      <trkpt lat="42.975650" lon="-2.326982">
        <ele>703.00</ele>
        <time>2022-03-23T10:12:20Z</time>
      </trkpt>
      <trkpt lat="42.975649" lon="-2.326907">
        <ele>702.80</ele>
        <time>2022-03-23T10:12:25Z</time>
      </trkpt>
      <trkpt lat="42.975635" lon="-2.326832">
        <ele>703.70</ele>
        <time>2022-03-23T10:12:29Z</time>
      </trkpt>
      <trkpt lat="42.975644" lon="-2.326771">
        <ele>703.30</ele>
        <time>2022-03-23T10:12:33Z</time>
      </trkpt>
      <trkpt lat="42.975659" lon="-2.326707">
        <ele>702.70</ele>
        <time>2022-03-23T10:12:37Z</time>
      </trkpt>
      <trkpt lat="42.975661" lon="-2.326638">
        <ele>702.80</ele>
        <time>2022-03-23T10:12:41Z</time>
      </trkpt>
      <trkpt lat="42.975651" lon="-2.326576">
        <ele>703.50</ele>
        <time>2022-03-23T10:12:44Z</time>
      </trkpt>
      <trkpt lat="42.975644" lon="-2.326505">
        <ele>704.00</ele>
        <time>2022-03-23T10:12:49Z</time>
      </trkpt>
      <trkpt lat="42.975646" lon="-2.326439">
        <ele>704.10</ele>
        <time>2022-03-23T10:12:53Z</time>
      </trkpt>
      <trkpt lat="42.975641" lon="-2.326369">
        <ele>704.60</ele>
        <time>2022-03-23T10:12:57Z</time>
      </trkpt>
      <trkpt lat="42.975624" lon="-2.326306">
        <ele>705.90</ele>
        <time>2022-03-23T10:13:01Z</time>
      </trkpt>
      <trkpt lat="42.975626" lon="-2.326240">
        <ele>706.10</ele>
        <time>2022-03-23T10:13:04Z</time>
      </trkpt>
      <trkpt lat="42.975640" lon="-2.326174">
        <ele>705.90</ele>
        <time>2022-03-23T10:13:08Z</time>
      </trkpt>
      <trkpt lat="42.975651" lon="-2.326095">
        <ele>705.70</ele>
        <time>2022-03-23T10:13:13Z</time>
      </trkpt>
      <trkpt lat="42.975662" lon="-2.326008">
        <ele>706.10</ele>
        <time>2022-03-23T10:13:18Z</time>
      </trkpt>
      <trkpt lat="42.975670" lon="-2.325929">
        <ele>706.40</ele>
        <time>2022-03-23T10:13:23Z</time>
      </trkpt>
      <trkpt lat="42.975679" lon="-2.325845">
        <ele>706.80</ele>
        <time>2022-03-23T10:13:28Z</time>
      </trkpt>
      <trkpt lat="42.975686" lon="-2.325766">
        <ele>707.10</ele>
        <time>2022-03-23T10:13:33Z</time>
      </trkpt>
      <trkpt lat="42.975687" lon="-2.325687">
        <ele>707.70</ele>
        <time>2022-03-23T10:13:37Z</time>
      </trkpt>
      <trkpt lat="42.975689" lon="-2.325603">
        <ele>708.50</ele>
        <time>2022-03-23T10:13:42Z</time>
      </trkpt>
      <trkpt lat="42.975693" lon="-2.325525">
        <ele>709.00</ele>
        <time>2022-03-23T10:13:47Z</time>
      </trkpt>
      <trkpt lat="42.975700" lon="-2.325454">
        <ele>709.10</ele>
        <time>2022-03-23T10:13:51Z</time>
      </trkpt>
      <trkpt lat="42.975712" lon="-2.325387">
        <ele>709.20</ele>
        <time>2022-03-23T10:13:55Z</time>
      </trkpt>
      <trkpt lat="42.975723" lon="-2.325323">
        <ele>709.20</ele>
        <time>2022-03-23T10:13:59Z</time>
      </trkpt>
      <trkpt lat="42.975735" lon="-2.325251">
        <ele>709.10</ele>
        <time>2022-03-23T10:14:03Z</time>
      </trkpt>
      <trkpt lat="42.975751" lon="-2.325177">
        <ele>708.90</ele>
        <time>2022-03-23T10:14:08Z</time>
      </trkpt>
      <trkpt lat="42.975768" lon="-2.325106">
        <ele>708.50</ele>
        <time>2022-03-23T10:14:12Z</time>
      </trkpt>
      <trkpt lat="42.975784" lon="-2.325037">
        <ele>708.20</ele>
        <time>2022-03-23T10:14:16Z</time>
      </trkpt>
      <trkpt lat="42.975803" lon="-2.324971">
        <ele>707.70</ele>
        <time>2022-03-23T10:14:21Z</time>
      </trkpt>
      <trkpt lat="42.975824" lon="-2.324905">
        <ele>707.20</ele>
        <time>2022-03-23T10:14:25Z</time>
      </trkpt>
      <trkpt lat="42.975845" lon="-2.324832">
        <ele>706.80</ele>
        <time>2022-03-23T10:14:29Z</time>
      </trkpt>
      <trkpt lat="42.975867" lon="-2.324753">
        <ele>706.40</ele>
        <time>2022-03-23T10:14:34Z</time>
      </trkpt>
      <trkpt lat="42.975877" lon="-2.324665">
        <ele>706.40</ele>
        <time>2022-03-23T10:14:39Z</time>
      </trkpt>
      <trkpt lat="42.975888" lon="-2.324605">
        <ele>706.40</ele>
        <time>2022-03-23T10:14:43Z</time>
      </trkpt>
      <trkpt lat="42.975895" lon="-2.324521">
        <ele>706.60</ele>
        <time>2022-03-23T10:14:48Z</time>
      </trkpt>
      <trkpt lat="42.975897" lon="-2.324443">
        <ele>706.90</ele>
        <time>2022-03-23T10:14:53Z</time>
      </trkpt>
      <trkpt lat="42.975888" lon="-2.324369">
        <ele>707.00</ele>
        <time>2022-03-23T10:14:57Z</time>
      </trkpt>
      <trkpt lat="42.975874" lon="-2.324298">
        <ele>707.10</ele>
        <time>2022-03-23T10:15:01Z</time>
      </trkpt>
      <trkpt lat="42.975855" lon="-2.324232">
        <ele>707.50</ele>
        <time>2022-03-23T10:15:05Z</time>
      </trkpt>
      <trkpt lat="42.975834" lon="-2.324169">
        <ele>708.10</ele>
        <time>2022-03-23T10:15:10Z</time>
      </trkpt>
      <trkpt lat="42.975810" lon="-2.324112">
        <ele>709.20</ele>
        <time>2022-03-23T10:15:13Z</time>
      </trkpt>
      <trkpt lat="42.975789" lon="-2.324044">
        <ele>710.20</ele>
        <time>2022-03-23T10:15:18Z</time>
      </trkpt>
      <trkpt lat="42.975816" lon="-2.323986">
        <ele>708.90</ele>
        <time>2022-03-23T10:15:22Z</time>
      </trkpt>
      <trkpt lat="42.975835" lon="-2.323918">
        <ele>708.00</ele>
        <time>2022-03-23T10:15:26Z</time>
      </trkpt>
      <trkpt lat="42.975843" lon="-2.323851">
        <ele>707.80</ele>
        <time>2022-03-23T10:15:30Z</time>
      </trkpt>
      <trkpt lat="42.975832" lon="-2.323787">
        <ele>708.50</ele>
        <time>2022-03-23T10:15:34Z</time>
      </trkpt>
      <trkpt lat="42.975820" lon="-2.323699">
        <ele>709.40</ele>
        <time>2022-03-23T10:15:39Z</time>
      </trkpt>
      <trkpt lat="42.975810" lon="-2.323629">
        <ele>710.00</ele>
        <time>2022-03-23T10:15:43Z</time>
      </trkpt>
      <trkpt lat="42.975804" lon="-2.323548">
        <ele>710.50</ele>
        <time>2022-03-23T10:15:48Z</time>
      </trkpt>
      <trkpt lat="42.975803" lon="-2.323485">
        <ele>710.70</ele>
        <time>2022-03-23T10:15:52Z</time>
      </trkpt>
      <trkpt lat="42.975779" lon="-2.323423">
        <ele>711.70</ele>
        <time>2022-03-23T10:15:56Z</time>
      </trkpt>
      <trkpt lat="42.975737" lon="-2.323370">
        <ele>713.20</ele>
        <time>2022-03-23T10:16:00Z</time>
      </trkpt>
      <trkpt lat="42.975706" lon="-2.323324">
        <ele>714.10</ele>
        <time>2022-03-23T10:16:04Z</time>
      </trkpt>
      <trkpt lat="42.975665" lon="-2.323274">
        <ele>715.30</ele>
        <time>2022-03-23T10:16:08Z</time>
      </trkpt>
      <trkpt lat="42.975623" lon="-2.323223">
        <ele>716.60</ele>
        <time>2022-03-23T10:16:13Z</time>
      </trkpt>
      <trkpt lat="42.975580" lon="-2.323181">
        <ele>717.70</ele>
        <time>2022-03-23T10:16:17Z</time>
      </trkpt>
      <trkpt lat="42.975550" lon="-2.323118">
        <ele>718.40</ele>
        <time>2022-03-23T10:16:22Z</time>
      </trkpt>
      <trkpt lat="42.975529" lon="-2.323063">
        <ele>718.40</ele>
        <time>2022-03-23T10:16:25Z</time>
      </trkpt>
      <trkpt lat="42.975514" lon="-2.322962">
        <ele>717.90</ele>
        <time>2022-03-23T10:16:31Z</time>
      </trkpt>
      <trkpt lat="42.975467" lon="-2.322927">
        <ele>718.20</ele>
        <time>2022-03-23T10:16:36Z</time>
      </trkpt>
      <trkpt lat="42.975425" lon="-2.322898">
        <ele>718.60</ele>
        <time>2022-03-23T10:16:39Z</time>
      </trkpt>
      <trkpt lat="42.975384" lon="-2.322852">
        <ele>718.70</ele>
        <time>2022-03-23T10:16:44Z</time>
      </trkpt>
      <trkpt lat="42.975345" lon="-2.322819">
        <ele>718.70</ele>
        <time>2022-03-23T10:16:47Z</time>
      </trkpt>
      <trkpt lat="42.975298" lon="-2.322801">
        <ele>719.10</ele>
        <time>2022-03-23T10:16:51Z</time>
      </trkpt>
      <trkpt lat="42.975250" lon="-2.322767">
        <ele>719.10</ele>
        <time>2022-03-23T10:16:55Z</time>
      </trkpt>
      <trkpt lat="42.975202" lon="-2.322740">
        <ele>719.20</ele>
        <time>2022-03-23T10:17:00Z</time>
      </trkpt>
      <trkpt lat="42.975160" lon="-2.322713">
        <ele>719.30</ele>
        <time>2022-03-23T10:17:03Z</time>
      </trkpt>
      <trkpt lat="42.975120" lon="-2.322682">
        <ele>719.40</ele>
        <time>2022-03-23T10:17:07Z</time>
      </trkpt>
      <trkpt lat="42.975093" lon="-2.322625">
        <ele>719.00</ele>
        <time>2022-03-23T10:17:11Z</time>
      </trkpt>
      <trkpt lat="42.975081" lon="-2.322565">
        <ele>718.80</ele>
        <time>2022-03-23T10:17:15Z</time>
      </trkpt>
      <trkpt lat="42.975054" lon="-2.322509">
        <ele>718.60</ele>
        <time>2022-03-23T10:17:19Z</time>
      </trkpt>
      <trkpt lat="42.975015" lon="-2.322464">
        <ele>718.30</ele>
        <time>2022-03-23T10:17:23Z</time>
      </trkpt>
      <trkpt lat="42.974985" lon="-2.322413">
        <ele>718.10</ele>
        <time>2022-03-23T10:17:26Z</time>
      </trkpt>
      <trkpt lat="42.974959" lon="-2.322357">
        <ele>717.70</ele>
        <time>2022-03-23T10:17:30Z</time>
      </trkpt>
      <trkpt lat="42.974926" lon="-2.322294">
        <ele>717.40</ele>
        <time>2022-03-23T10:17:35Z</time>
      </trkpt>
      <trkpt lat="42.974894" lon="-2.322234">
        <ele>717.10</ele>
        <time>2022-03-23T10:17:39Z</time>
      </trkpt>
      <trkpt lat="42.974873" lon="-2.322163">
        <ele>716.80</ele>
        <time>2022-03-23T10:17:44Z</time>
      </trkpt>
      <trkpt lat="42.974837" lon="-2.322098">
        <ele>717.30</ele>
        <time>2022-03-23T10:17:49Z</time>
      </trkpt>
      <trkpt lat="42.974796" lon="-2.322042">
        <ele>718.40</ele>
        <time>2022-03-23T10:17:53Z</time>
      </trkpt>
      <trkpt lat="42.974769" lon="-2.321982">
        <ele>719.20</ele>
        <time>2022-03-23T10:17:57Z</time>
      </trkpt>
      <trkpt lat="42.974744" lon="-2.321923">
        <ele>720.20</ele>
        <time>2022-03-23T10:18:01Z</time>
      </trkpt>
      <trkpt lat="42.974719" lon="-2.321861">
        <ele>720.90</ele>
        <time>2022-03-23T10:18:05Z</time>
      </trkpt>
      <trkpt lat="42.974705" lon="-2.321779">
        <ele>721.10</ele>
        <time>2022-03-23T10:18:10Z</time>
      </trkpt>
      <trkpt lat="42.974684" lon="-2.321705">
        <ele>721.80</ele>
        <time>2022-03-23T10:18:15Z</time>
      </trkpt>
      <trkpt lat="42.974669" lon="-2.321628">
        <ele>721.90</ele>
        <time>2022-03-23T10:18:20Z</time>
      </trkpt>
      <trkpt lat="42.974653" lon="-2.321562">
        <ele>722.20</ele>
        <time>2022-03-23T10:18:24Z</time>
      </trkpt>
      <trkpt lat="42.974627" lon="-2.321501">
        <ele>722.80</ele>
        <time>2022-03-23T10:18:28Z</time>
      </trkpt>
      <trkpt lat="42.974607" lon="-2.321436">
        <ele>723.10</ele>
        <time>2022-03-23T10:18:32Z</time>
      </trkpt>
      <trkpt lat="42.974588" lon="-2.321364">
        <ele>723.10</ele>
        <time>2022-03-23T10:18:36Z</time>
      </trkpt>
      <trkpt lat="42.974570" lon="-2.321300">
        <ele>723.10</ele>
        <time>2022-03-23T10:18:41Z</time>
      </trkpt>
      <trkpt lat="42.974552" lon="-2.321231">
        <ele>723.00</ele>
        <time>2022-03-23T10:18:45Z</time>
      </trkpt>
      <trkpt lat="42.974534" lon="-2.321165">
        <ele>723.00</ele>
        <time>2022-03-23T10:18:49Z</time>
      </trkpt>
      <trkpt lat="42.974511" lon="-2.321109">
        <ele>723.10</ele>
        <time>2022-03-23T10:18:53Z</time>
      </trkpt>
      <trkpt lat="42.974469" lon="-2.321064">
        <ele>723.80</ele>
        <time>2022-03-23T10:18:57Z</time>
      </trkpt>
      <trkpt lat="42.974413" lon="-2.321028">
        <ele>724.70</ele>
        <time>2022-03-23T10:19:02Z</time>
      </trkpt>
      <trkpt lat="42.974352" lon="-2.320994">
        <ele>725.20</ele>
        <time>2022-03-23T10:19:07Z</time>
      </trkpt>
      <trkpt lat="42.974308" lon="-2.320968">
        <ele>725.40</ele>
        <time>2022-03-23T10:19:11Z</time>
      </trkpt>
      <trkpt lat="42.974251" lon="-2.320937">
        <ele>725.90</ele>
        <time>2022-03-23T10:19:16Z</time>
      </trkpt>
      <trkpt lat="42.974206" lon="-2.320910">
        <ele>726.30</ele>
        <time>2022-03-23T10:19:20Z</time>
      </trkpt>
      <trkpt lat="42.974155" lon="-2.320875">
        <ele>726.50</ele>
        <time>2022-03-23T10:19:24Z</time>
      </trkpt>
      <trkpt lat="42.974104" lon="-2.320862">
        <ele>725.90</ele>
        <time>2022-03-23T10:19:29Z</time>
      </trkpt>
      <trkpt lat="42.974060" lon="-2.320835">
        <ele>725.30</ele>
        <time>2022-03-23T10:19:32Z</time>
      </trkpt>
      <trkpt lat="42.974018" lon="-2.320860">
        <ele>725.40</ele>
        <time>2022-03-23T10:19:36Z</time>
      </trkpt>
      <trkpt lat="42.974003" lon="-2.320921">
        <ele>726.30</ele>
        <time>2022-03-23T10:19:40Z</time>
      </trkpt>
      <trkpt lat="42.973966" lon="-2.320978">
        <ele>727.30</ele>
        <time>2022-03-23T10:19:44Z</time>
      </trkpt>
      <trkpt lat="42.973906" lon="-2.320984">
        <ele>727.30</ele>
        <time>2022-03-23T10:19:49Z</time>
      </trkpt>
      <trkpt lat="42.973852" lon="-2.320985">
        <ele>727.30</ele>
        <time>2022-03-23T10:19:53Z</time>
      </trkpt>
      <trkpt lat="42.973796" lon="-2.320967">
        <ele>726.70</ele>
        <time>2022-03-23T10:19:58Z</time>
      </trkpt>
      <trkpt lat="42.973747" lon="-2.320974">
        <ele>726.90</ele>
        <time>2022-03-23T10:20:02Z</time>
      </trkpt>
      <trkpt lat="42.973699" lon="-2.320966">
        <ele>726.50</ele>
        <time>2022-03-23T10:20:06Z</time>
      </trkpt>
      <trkpt lat="42.973634" lon="-2.320973">
        <ele>726.70</ele>
        <time>2022-03-23T10:20:11Z</time>
      </trkpt>
      <trkpt lat="42.973588" lon="-2.320984">
        <ele>727.00</ele>
        <time>2022-03-23T10:20:15Z</time>
      </trkpt>
      <trkpt lat="42.973541" lon="-2.320991">
        <ele>727.10</ele>
        <time>2022-03-23T10:20:19Z</time>
      </trkpt>
      <trkpt lat="42.973475" lon="-2.320999">
        <ele>727.20</ele>
        <time>2022-03-23T10:20:24Z</time>
      </trkpt>
      <trkpt lat="42.973429" lon="-2.321002">
        <ele>727.10</ele>
        <time>2022-03-23T10:20:28Z</time>
      </trkpt>
      <trkpt lat="42.973362" lon="-2.321002">
        <ele>726.80</ele>
        <time>2022-03-23T10:20:33Z</time>
      </trkpt>
      <trkpt lat="42.973303" lon="-2.321004">
        <ele>726.80</ele>
        <time>2022-03-23T10:20:38Z</time>
      </trkpt>
      <trkpt lat="42.973241" lon="-2.321019">
        <ele>727.50</ele>
        <time>2022-03-23T10:20:43Z</time>
      </trkpt>
      <trkpt lat="42.973191" lon="-2.321028">
        <ele>727.80</ele>
        <time>2022-03-23T10:20:47Z</time>
      </trkpt>
      <trkpt lat="42.973140" lon="-2.321044">
        <ele>728.30</ele>
        <time>2022-03-23T10:20:51Z</time>
      </trkpt>
      <trkpt lat="42.973092" lon="-2.321053">
        <ele>728.80</ele>
        <time>2022-03-23T10:20:55Z</time>
      </trkpt>
      <trkpt lat="42.973041" lon="-2.321076">
        <ele>729.70</ele>
        <time>2022-03-23T10:20:59Z</time>
      </trkpt>
      <trkpt lat="42.972995" lon="-2.321105">
        <ele>731.00</ele>
        <time>2022-03-23T10:21:03Z</time>
      </trkpt>
      <trkpt lat="42.972945" lon="-2.321129">
        <ele>732.20</ele>
        <time>2022-03-23T10:21:07Z</time>
      </trkpt>
      <trkpt lat="42.972899" lon="-2.321142">
        <ele>732.80</ele>
        <time>2022-03-23T10:21:11Z</time>
      </trkpt>
      <trkpt lat="42.972847" lon="-2.321164">
        <ele>733.80</ele>
        <time>2022-03-23T10:21:16Z</time>
      </trkpt>
      <trkpt lat="42.972799" lon="-2.321183">
        <ele>734.90</ele>
        <time>2022-03-23T10:21:20Z</time>
      </trkpt>
      <trkpt lat="42.972752" lon="-2.321191">
        <ele>735.60</ele>
        <time>2022-03-23T10:21:23Z</time>
      </trkpt>
      <trkpt lat="42.972697" lon="-2.321188">
        <ele>736.10</ele>
        <time>2022-03-23T10:21:28Z</time>
      </trkpt>
      <trkpt lat="42.972643" lon="-2.321172">
        <ele>736.20</ele>
        <time>2022-03-23T10:21:32Z</time>
      </trkpt>
      <trkpt lat="42.972590" lon="-2.321141">
        <ele>735.80</ele>
        <time>2022-03-23T10:21:37Z</time>
      </trkpt>
      <trkpt lat="42.972550" lon="-2.321088">
        <ele>734.70</ele>
        <time>2022-03-23T10:21:41Z</time>
      </trkpt>
      <trkpt lat="42.972525" lon="-2.321018">
        <ele>733.20</ele>
        <time>2022-03-23T10:21:46Z</time>
      </trkpt>
      <trkpt lat="42.972496" lon="-2.320943">
        <ele>732.00</ele>
        <time>2022-03-23T10:21:51Z</time>
      </trkpt>
      <trkpt lat="42.972472" lon="-2.320880">
        <ele>731.20</ele>
        <time>2022-03-23T10:21:55Z</time>
      </trkpt>
      <trkpt lat="42.972447" lon="-2.320828">
        <ele>730.80</ele>
        <time>2022-03-23T10:21:59Z</time>
      </trkpt>
      <trkpt lat="42.972412" lon="-2.320761">
        <ele>730.20</ele>
        <time>2022-03-23T10:22:03Z</time>
      </trkpt>
      <trkpt lat="42.972370" lon="-2.320698">
        <ele>730.00</ele>
        <time>2022-03-23T10:22:08Z</time>
      </trkpt>
      <trkpt lat="42.972335" lon="-2.320659">
        <ele>730.40</ele>
        <time>2022-03-23T10:22:12Z</time>
      </trkpt>
      <trkpt lat="42.972289" lon="-2.320630">
        <ele>731.40</ele>
        <time>2022-03-23T10:22:16Z</time>
      </trkpt>
      <trkpt lat="42.972235" lon="-2.320625">
        <ele>733.30</ele>
        <time>2022-03-23T10:22:20Z</time>
      </trkpt>
      <trkpt lat="42.972188" lon="-2.320629">
        <ele>734.70</ele>
        <time>2022-03-23T10:22:24Z</time>
      </trkpt>
      <trkpt lat="42.972141" lon="-2.320634">
        <ele>736.10</ele>
        <time>2022-03-23T10:22:28Z</time>
      </trkpt>
      <trkpt lat="42.972084" lon="-2.320630">
        <ele>737.50</ele>
        <time>2022-03-23T10:22:33Z</time>
      </trkpt>
      <trkpt lat="42.972038" lon="-2.320611">
        <ele>738.30</ele>
        <time>2022-03-23T10:22:36Z</time>
      </trkpt>
      <trkpt lat="42.971988" lon="-2.320580">
        <ele>738.70</ele>
        <time>2022-03-23T10:22:41Z</time>
      </trkpt>
      <trkpt lat="42.971949" lon="-2.320534">
        <ele>738.70</ele>
        <time>2022-03-23T10:22:45Z</time>
      </trkpt>
      <trkpt lat="42.971920" lon="-2.320481">
        <ele>739.10</ele>
        <time>2022-03-23T10:22:49Z</time>
      </trkpt>
      <trkpt lat="42.971886" lon="-2.320416">
        <ele>739.70</ele>
        <time>2022-03-23T10:22:53Z</time>
      </trkpt>
      <trkpt lat="42.971853" lon="-2.320366">
        <ele>740.40</ele>
        <time>2022-03-23T10:22:57Z</time>
      </trkpt>
      <trkpt lat="42.971823" lon="-2.320305">
        <ele>740.80</ele>
        <time>2022-03-23T10:23:02Z</time>
      </trkpt>
      <trkpt lat="42.971824" lon="-2.320232">
        <ele>739.70</ele>
        <time>2022-03-23T10:23:06Z</time>
      </trkpt>
      <trkpt lat="42.971826" lon="-2.320157">
        <ele>738.50</ele>
        <time>2022-03-23T10:23:10Z</time>
      </trkpt>
      <trkpt lat="42.971822" lon="-2.320090">
        <ele>737.70</ele>
        <time>2022-03-23T10:23:14Z</time>
      </trkpt>
      <trkpt lat="42.971840" lon="-2.320027">
        <ele>736.40</ele>
        <time>2022-03-23T10:23:18Z</time>
      </trkpt>
      <trkpt lat="42.971799" lon="-2.319965">
        <ele>736.70</ele>
        <time>2022-03-23T10:23:23Z</time>
      </trkpt>
      <trkpt lat="42.971758" lon="-2.319932">
        <ele>737.10</ele>
        <time>2022-03-23T10:23:27Z</time>
      </trkpt>
      <trkpt lat="42.971704" lon="-2.319885">
        <ele>738.00</ele>
        <time>2022-03-23T10:23:32Z</time>
      </trkpt>
      <trkpt lat="42.971660" lon="-2.319837">
        <ele>738.40</ele>
        <time>2022-03-23T10:23:37Z</time>
      </trkpt>
      <trkpt lat="42.971622" lon="-2.319788">
        <ele>738.90</ele>
        <time>2022-03-23T10:23:41Z</time>
      </trkpt>
      <trkpt lat="42.971586" lon="-2.319741">
        <ele>739.00</ele>
        <time>2022-03-23T10:23:45Z</time>
      </trkpt>
      <trkpt lat="42.971543" lon="-2.319704">
        <ele>739.40</ele>
        <time>2022-03-23T10:23:49Z</time>
      </trkpt>
      <trkpt lat="42.971488" lon="-2.319680">
        <ele>740.20</ele>
        <time>2022-03-23T10:23:53Z</time>
      </trkpt>
      <trkpt lat="42.971431" lon="-2.319664">
        <ele>741.20</ele>
        <time>2022-03-23T10:23:58Z</time>
      </trkpt>
      <trkpt lat="42.971385" lon="-2.319650">
        <ele>742.00</ele>
        <time>2022-03-23T10:24:02Z</time>
      </trkpt>
      <trkpt lat="42.971327" lon="-2.319618">
        <ele>742.50</ele>
        <time>2022-03-23T10:24:07Z</time>
      </trkpt>
      <trkpt lat="42.971275" lon="-2.319585">
        <ele>742.80</ele>
        <time>2022-03-23T10:24:12Z</time>
      </trkpt>
      <trkpt lat="42.971216" lon="-2.319546">
        <ele>743.00</ele>
        <time>2022-03-23T10:24:17Z</time>
      </trkpt>
      <trkpt lat="42.971162" lon="-2.319509">
        <ele>743.10</ele>
        <time>2022-03-23T10:24:22Z</time>
      </trkpt>
      <trkpt lat="42.971117" lon="-2.319486">
        <ele>743.60</ele>
        <time>2022-03-23T10:24:25Z</time>
      </trkpt>
      <trkpt lat="42.971065" lon="-2.319465">
        <ele>744.60</ele>
        <time>2022-03-23T10:24:30Z</time>
      </trkpt>
      <trkpt lat="42.971023" lon="-2.319443">
        <ele>745.10</ele>
        <time>2022-03-23T10:24:33Z</time>
      </trkpt>
      <trkpt lat="42.970976" lon="-2.319423">
        <ele>746.00</ele>
        <time>2022-03-23T10:24:37Z</time>
      </trkpt>
      <trkpt lat="42.970924" lon="-2.319403">
        <ele>747.00</ele>
        <time>2022-03-23T10:24:42Z</time>
      </trkpt>
      <trkpt lat="42.970874" lon="-2.319380">
        <ele>747.80</ele>
        <time>2022-03-23T10:24:46Z</time>
      </trkpt>
      <trkpt lat="42.970830" lon="-2.319368">
        <ele>748.80</ele>
        <time>2022-03-23T10:24:49Z</time>
      </trkpt>
      <trkpt lat="42.970785" lon="-2.319360">
        <ele>749.50</ele>
        <time>2022-03-23T10:24:53Z</time>
      </trkpt>
      <trkpt lat="42.970728" lon="-2.319349">
        <ele>750.40</ele>
        <time>2022-03-23T10:24:58Z</time>
      </trkpt>
      <trkpt lat="42.970672" lon="-2.319342">
        <ele>751.30</ele>
        <time>2022-03-23T10:25:02Z</time>
      </trkpt>
      <trkpt lat="42.970611" lon="-2.319334">
        <ele>752.40</ele>
        <time>2022-03-23T10:25:07Z</time>
      </trkpt>
      <trkpt lat="42.970554" lon="-2.319324">
        <ele>753.20</ele>
        <time>2022-03-23T10:25:12Z</time>
      </trkpt>
      <trkpt lat="42.970502" lon="-2.319307">
        <ele>753.00</ele>
        <time>2022-03-23T10:25:16Z</time>
      </trkpt>
      <trkpt lat="42.970443" lon="-2.319297">
        <ele>753.20</ele>
        <time>2022-03-23T10:25:21Z</time>
      </trkpt>
      <trkpt lat="42.970390" lon="-2.319293">
        <ele>753.60</ele>
        <time>2022-03-23T10:25:25Z</time>
      </trkpt>
      <trkpt lat="42.970341" lon="-2.319287">
        <ele>753.70</ele>
        <time>2022-03-23T10:25:29Z</time>
      </trkpt>
      <trkpt lat="42.970294" lon="-2.319284">
        <ele>754.10</ele>
        <time>2022-03-23T10:25:33Z</time>
      </trkpt>
      <trkpt lat="42.970247" lon="-2.319284">
        <ele>754.50</ele>
        <time>2022-03-23T10:25:36Z</time>
      </trkpt>
      <trkpt lat="42.970192" lon="-2.319274">
        <ele>754.60</ele>
        <time>2022-03-23T10:25:41Z</time>
      </trkpt>
      <trkpt lat="42.970146" lon="-2.319264">
        <ele>754.60</ele>
        <time>2022-03-23T10:25:45Z</time>
      </trkpt>
      <trkpt lat="42.970101" lon="-2.319252">
        <ele>754.30</ele>
        <time>2022-03-23T10:25:48Z</time>
      </trkpt>
      <trkpt lat="42.970054" lon="-2.319241">
        <ele>754.30</ele>
        <time>2022-03-23T10:25:52Z</time>
      </trkpt>
      <trkpt lat="42.970006" lon="-2.319253">
        <ele>755.10</ele>
        <time>2022-03-23T10:25:56Z</time>
      </trkpt>
      <trkpt lat="42.969968" lon="-2.319286">
        <ele>756.20</ele>
        <time>2022-03-23T10:26:00Z</time>
      </trkpt>
      <trkpt lat="42.969923" lon="-2.319316">
        <ele>757.10</ele>
        <time>2022-03-23T10:26:04Z</time>
      </trkpt>
      <trkpt lat="42.969874" lon="-2.319340">
        <ele>757.60</ele>
        <time>2022-03-23T10:26:08Z</time>
      </trkpt>
      <trkpt lat="42.969821" lon="-2.319353">
        <ele>758.00</ele>
        <time>2022-03-23T10:26:12Z</time>
      </trkpt>
      <trkpt lat="42.969766" lon="-2.319378">
        <ele>758.60</ele>
        <time>2022-03-23T10:26:17Z</time>
      </trkpt>
      <trkpt lat="42.969714" lon="-2.319423">
        <ele>759.90</ele>
        <time>2022-03-23T10:26:22Z</time>
      </trkpt>
      <trkpt lat="42.969674" lon="-2.319455">
        <ele>759.80</ele>
        <time>2022-03-23T10:26:25Z</time>
      </trkpt>
      <trkpt lat="42.969626" lon="-2.319497">
        <ele>759.60</ele>
        <time>2022-03-23T10:26:30Z</time>
      </trkpt>
      <trkpt lat="42.969573" lon="-2.319542">
        <ele>759.40</ele>
        <time>2022-03-23T10:26:35Z</time>
      </trkpt>
      <trkpt lat="42.969523" lon="-2.319575">
        <ele>759.30</ele>
        <time>2022-03-23T10:26:39Z</time>
      </trkpt>
      <trkpt lat="42.969465" lon="-2.319594">
        <ele>758.40</ele>
        <time>2022-03-23T10:26:44Z</time>
      </trkpt>
      <trkpt lat="42.969397" lon="-2.319612">
        <ele>757.40</ele>
        <time>2022-03-23T10:26:50Z</time>
      </trkpt>
      <trkpt lat="42.969349" lon="-2.319638">
        <ele>757.10</ele>
        <time>2022-03-23T10:26:54Z</time>
      </trkpt>
      <trkpt lat="42.969324" lon="-2.319690">
        <ele>758.00</ele>
        <time>2022-03-23T10:26:57Z</time>
      </trkpt>
      <trkpt lat="42.969312" lon="-2.319752">
        <ele>759.60</ele>
        <time>2022-03-23T10:27:01Z</time>
      </trkpt>
      <trkpt lat="42.969280" lon="-2.319806">
        <ele>760.40</ele>
        <time>2022-03-23T10:27:05Z</time>
      </trkpt>
      <trkpt lat="42.969237" lon="-2.319846">
        <ele>760.20</ele>
        <time>2022-03-23T10:27:09Z</time>
      </trkpt>
      <trkpt lat="42.969203" lon="-2.319887">
        <ele>760.40</ele>
        <time>2022-03-23T10:27:13Z</time>
      </trkpt>
      <trkpt lat="42.969170" lon="-2.319930">
        <ele>760.80</ele>
        <time>2022-03-23T10:27:17Z</time>
      </trkpt>
      <trkpt lat="42.969131" lon="-2.319962">
        <ele>760.40</ele>
        <time>2022-03-23T10:27:20Z</time>
      </trkpt>
      <trkpt lat="42.969079" lon="-2.319993">
        <ele>759.40</ele>
        <time>2022-03-23T10:27:25Z</time>
      </trkpt>
      <trkpt lat="42.969036" lon="-2.320030">
        <ele>759.40</ele>
        <time>2022-03-23T10:27:29Z</time>
      </trkpt>
      <trkpt lat="42.968995" lon="-2.320078">
        <ele>760.20</ele>
        <time>2022-03-23T10:27:33Z</time>
      </trkpt>
      <trkpt lat="42.968960" lon="-2.320141">
        <ele>762.20</ele>
        <time>2022-03-23T10:27:38Z</time>
      </trkpt>
      <trkpt lat="42.968934" lon="-2.320209">
        <ele>764.80</ele>
        <time>2022-03-23T10:27:42Z</time>
      </trkpt>
      <trkpt lat="42.968904" lon="-2.320272">
        <ele>767.30</ele>
        <time>2022-03-23T10:27:47Z</time>
      </trkpt>
      <trkpt lat="42.968867" lon="-2.320320">
        <ele>769.00</ele>
        <time>2022-03-23T10:27:51Z</time>
      </trkpt>
      <trkpt lat="42.968808" lon="-2.320343">
        <ele>768.90</ele>
        <time>2022-03-23T10:27:56Z</time>
      </trkpt>
      <trkpt lat="42.968764" lon="-2.320361">
        <ele>768.80</ele>
        <time>2022-03-23T10:28:00Z</time>
      </trkpt>
      <trkpt lat="42.968712" lon="-2.320397">
        <ele>769.50</ele>
        <time>2022-03-23T10:28:04Z</time>
      </trkpt>
      <trkpt lat="42.968656" lon="-2.320418">
        <ele>769.30</ele>
        <time>2022-03-23T10:28:09Z</time>
      </trkpt>
      <trkpt lat="42.968602" lon="-2.320422">
        <ele>768.10</ele>
        <time>2022-03-23T10:28:13Z</time>
      </trkpt>
      <trkpt lat="42.968547" lon="-2.320445">
        <ele>767.30</ele>
        <time>2022-03-23T10:28:18Z</time>
      </trkpt>
      <trkpt lat="42.968501" lon="-2.320479">
        <ele>767.30</ele>
        <time>2022-03-23T10:28:22Z</time>
      </trkpt>
      <trkpt lat="42.968450" lon="-2.320502">
        <ele>766.70</ele>
        <time>2022-03-23T10:28:26Z</time>
      </trkpt>
      <trkpt lat="42.968398" lon="-2.320512">
        <ele>765.30</ele>
        <time>2022-03-23T10:28:30Z</time>
      </trkpt>
      <trkpt lat="42.968348" lon="-2.320547">
        <ele>765.20</ele>
        <time>2022-03-23T10:28:35Z</time>
      </trkpt>
      <trkpt lat="42.968292" lon="-2.320584">
        <ele>765.80</ele>
        <time>2022-03-23T10:28:40Z</time>
      </trkpt>
      <trkpt lat="42.968246" lon="-2.320609">
        <ele>766.10</ele>
        <time>2022-03-23T10:28:44Z</time>
      </trkpt>
      <trkpt lat="42.968197" lon="-2.320648">
        <ele>767.30</ele>
        <time>2022-03-23T10:28:48Z</time>
      </trkpt>
      <trkpt lat="42.968143" lon="-2.320679">
        <ele>767.80</ele>
        <time>2022-03-23T10:28:53Z</time>
      </trkpt>
      <trkpt lat="42.968095" lon="-2.320705">
        <ele>768.20</ele>
        <time>2022-03-23T10:28:57Z</time>
      </trkpt>
      <trkpt lat="42.968040" lon="-2.320732">
        <ele>768.80</ele>
        <time>2022-03-23T10:29:02Z</time>
      </trkpt>
      <trkpt lat="42.967998" lon="-2.320760">
        <ele>769.70</ele>
        <time>2022-03-23T10:29:06Z</time>
      </trkpt>
      <trkpt lat="42.967953" lon="-2.320794">
        <ele>771.00</ele>
        <time>2022-03-23T10:29:10Z</time>
      </trkpt>
      <trkpt lat="42.967904" lon="-2.320812">
        <ele>771.30</ele>
        <time>2022-03-23T10:29:14Z</time>
      </trkpt>
      <trkpt lat="42.967857" lon="-2.320823">
        <ele>771.50</ele>
        <time>2022-03-23T10:29:18Z</time>
      </trkpt>
      <trkpt lat="42.967808" lon="-2.320800">
        <ele>769.80</ele>
        <time>2022-03-23T10:29:22Z</time>
      </trkpt>
      <trkpt lat="42.967762" lon="-2.320772">
        <ele>768.70</ele>
        <time>2022-03-23T10:29:26Z</time>
      </trkpt>
      <trkpt lat="42.967716" lon="-2.320729">
        <ele>768.30</ele>
        <time>2022-03-23T10:29:30Z</time>
      </trkpt>
      <trkpt lat="42.967667" lon="-2.320691">
        <ele>768.30</ele>
        <time>2022-03-23T10:29:35Z</time>
      </trkpt>
      <trkpt lat="42.967622" lon="-2.320658">
        <ele>768.50</ele>
        <time>2022-03-23T10:29:39Z</time>
      </trkpt>
      <trkpt lat="42.967567" lon="-2.320635">
        <ele>769.60</ele>
        <time>2022-03-23T10:29:44Z</time>
      </trkpt>
      <trkpt lat="42.967516" lon="-2.320611">
        <ele>770.60</ele>
        <time>2022-03-23T10:29:48Z</time>
      </trkpt>
      <trkpt lat="42.967471" lon="-2.320588">
        <ele>769.40</ele>
        <time>2022-03-23T10:29:52Z</time>
      </trkpt>
      <trkpt lat="42.967415" lon="-2.320590">
        <ele>767.60</ele>
        <time>2022-03-23T10:29:56Z</time>
      </trkpt>
      <trkpt lat="42.967367" lon="-2.320604">
        <ele>766.40</ele>
        <time>2022-03-23T10:30:00Z</time>
      </trkpt>
      <trkpt lat="42.967323" lon="-2.320617">
        <ele>765.50</ele>
        <time>2022-03-23T10:30:04Z</time>
      </trkpt>
      <trkpt lat="42.967271" lon="-2.320653">
        <ele>764.90</ele>
        <time>2022-03-23T10:30:08Z</time>
      </trkpt>
      <trkpt lat="42.967217" lon="-2.320659">
        <ele>763.10</ele>
        <time>2022-03-23T10:30:13Z</time>
      </trkpt>
      <trkpt lat="42.967170" lon="-2.320680">
        <ele>761.80</ele>
        <time>2022-03-23T10:30:17Z</time>
      </trkpt>
      <trkpt lat="42.967129" lon="-2.320707">
        <ele>760.80</ele>
        <time>2022-03-23T10:30:20Z</time>
      </trkpt>
      <trkpt lat="42.967082" lon="-2.320746">
        <ele>760.10</ele>
        <time>2022-03-23T10:30:25Z</time>
      </trkpt>
      <trkpt lat="42.967032" lon="-2.320758">
        <ele>758.60</ele>
        <time>2022-03-23T10:30:29Z</time>
      </trkpt>
      <trkpt lat="42.966982" lon="-2.320787">
        <ele>757.60</ele>
        <time>2022-03-23T10:30:33Z</time>
      </trkpt>
      <trkpt lat="42.966934" lon="-2.320822">
        <ele>757.60</ele>
        <time>2022-03-23T10:30:37Z</time>
      </trkpt>
      <trkpt lat="42.966871" lon="-2.320860">
        <ele>759.60</ele>
        <time>2022-03-23T10:30:43Z</time>
      </trkpt>
      <trkpt lat="42.966828" lon="-2.320885">
        <ele>760.50</ele>
        <time>2022-03-23T10:30:47Z</time>
      </trkpt>
      <trkpt lat="42.966782" lon="-2.320917">
        <ele>761.70</ele>
        <time>2022-03-23T10:30:51Z</time>
      </trkpt>
      <trkpt lat="42.966741" lon="-2.320946">
        <ele>762.70</ele>
        <time>2022-03-23T10:30:55Z</time>
      </trkpt>
      <trkpt lat="42.966694" lon="-2.320979">
        <ele>763.50</ele>
        <time>2022-03-23T10:30:59Z</time>
      </trkpt>
      <trkpt lat="42.966649" lon="-2.320994">
        <ele>764.10</ele>
        <time>2022-03-23T10:31:02Z</time>
      </trkpt>
      <trkpt lat="42.966599" lon="-2.321005">
        <ele>764.60</ele>
        <time>2022-03-23T10:31:07Z</time>
      </trkpt>
      <trkpt lat="42.966551" lon="-2.321031">
        <ele>765.60</ele>
        <time>2022-03-23T10:31:11Z</time>
      </trkpt>
      <trkpt lat="42.966509" lon="-2.321061">
        <ele>766.80</ele>
        <time>2022-03-23T10:31:14Z</time>
      </trkpt>
      <trkpt lat="42.966460" lon="-2.321086">
        <ele>768.20</ele>
        <time>2022-03-23T10:31:19Z</time>
      </trkpt>
      <trkpt lat="42.966410" lon="-2.321098">
        <ele>769.20</ele>
        <time>2022-03-23T10:31:23Z</time>
      </trkpt>
      <trkpt lat="42.966372" lon="-2.321137">
        <ele>771.20</ele>
        <time>2022-03-23T10:31:27Z</time>
      </trkpt>
      <trkpt lat="42.966337" lon="-2.321187">
        <ele>773.50</ele>
        <time>2022-03-23T10:31:31Z</time>
      </trkpt>
      <trkpt lat="42.966302" lon="-2.321239">
        <ele>775.80</ele>
        <time>2022-03-23T10:31:35Z</time>
      </trkpt>
      <trkpt lat="42.966249" lon="-2.321265">
        <ele>777.00</ele>
        <time>2022-03-23T10:31:39Z</time>
      </trkpt>
      <trkpt lat="42.966194" lon="-2.321282">
        <ele>777.70</ele>
        <time>2022-03-23T10:31:44Z</time>
      </trkpt>
      <trkpt lat="42.966150" lon="-2.321299">
        <ele>778.50</ele>
        <time>2022-03-23T10:31:47Z</time>
      </trkpt>
      <trkpt lat="42.966102" lon="-2.321315">
        <ele>779.40</ele>
        <time>2022-03-23T10:31:51Z</time>
      </trkpt>
      <trkpt lat="42.966047" lon="-2.321331">
        <ele>780.50</ele>
        <time>2022-03-23T10:31:56Z</time>
      </trkpt>
      <trkpt lat="42.966000" lon="-2.321344">
        <ele>781.40</ele>
        <time>2022-03-23T10:32:00Z</time>
      </trkpt>
      <trkpt lat="42.965944" lon="-2.321358">
        <ele>782.20</ele>
        <time>2022-03-23T10:32:04Z</time>
      </trkpt>
      <trkpt lat="42.965894" lon="-2.321363">
        <ele>782.70</ele>
        <time>2022-03-23T10:32:08Z</time>
      </trkpt>
      <trkpt lat="42.965836" lon="-2.321372">
        <ele>783.30</ele>
        <time>2022-03-23T10:32:13Z</time>
      </trkpt>
      <trkpt lat="42.965789" lon="-2.321384">
        <ele>783.80</ele>
        <time>2022-03-23T10:32:17Z</time>
      </trkpt>
      <trkpt lat="42.965737" lon="-2.321403">
        <ele>784.80</ele>
        <time>2022-03-23T10:32:21Z</time>
      </trkpt>
      <trkpt lat="42.965689" lon="-2.321431">
        <ele>786.10</ele>
        <time>2022-03-23T10:32:25Z</time>
      </trkpt>
      <trkpt lat="42.965634" lon="-2.321455">
        <ele>787.40</ele>
        <time>2022-03-23T10:32:30Z</time>
      </trkpt>
      <trkpt lat="42.965584" lon="-2.321474">
        <ele>788.30</ele>
        <time>2022-03-23T10:32:34Z</time>
      </trkpt>
      <trkpt lat="42.965535" lon="-2.321483">
        <ele>788.60</ele>
        <time>2022-03-23T10:32:38Z</time>
      </trkpt>
      <trkpt lat="42.965476" lon="-2.321486">
        <ele>788.30</ele>
        <time>2022-03-23T10:32:43Z</time>
      </trkpt>
      <trkpt lat="42.965422" lon="-2.321486">
        <ele>787.80</ele>
        <time>2022-03-23T10:32:47Z</time>
      </trkpt>
      <trkpt lat="42.965373" lon="-2.321483">
        <ele>787.30</ele>
        <time>2022-03-23T10:32:51Z</time>
      </trkpt>
      <trkpt lat="42.965326" lon="-2.321471">
        <ele>786.30</ele>
        <time>2022-03-23T10:32:55Z</time>
      </trkpt>
      <trkpt lat="42.965280" lon="-2.321456">
        <ele>785.20</ele>
        <time>2022-03-23T10:32:59Z</time>
      </trkpt>
      <trkpt lat="42.965234" lon="-2.321449">
        <ele>784.60</ele>
        <time>2022-03-23T10:33:02Z</time>
      </trkpt>
      <trkpt lat="42.965178" lon="-2.321467">
        <ele>785.00</ele>
        <time>2022-03-23T10:33:07Z</time>
      </trkpt>
      <trkpt lat="42.965135" lon="-2.321493">
        <ele>785.80</ele>
        <time>2022-03-23T10:33:11Z</time>
      </trkpt>
      <trkpt lat="42.965088" lon="-2.321514">
        <ele>786.30</ele>
        <time>2022-03-23T10:33:15Z</time>
      </trkpt>
      <trkpt lat="42.965040" lon="-2.321544">
        <ele>787.00</ele>
        <time>2022-03-23T10:33:19Z</time>
      </trkpt>
      <trkpt lat="42.965009" lon="-2.321599">
        <ele>788.80</ele>
        <time>2022-03-23T10:33:23Z</time>
      </trkpt>
      <trkpt lat="42.964995" lon="-2.321663">
        <ele>790.80</ele>
        <time>2022-03-23T10:33:27Z</time>
      </trkpt>
      <trkpt lat="42.964982" lon="-2.321726">
        <ele>793.00</ele>
        <time>2022-03-23T10:33:31Z</time>
      </trkpt>
      <trkpt lat="42.964968" lon="-2.321787">
        <ele>795.20</ele>
        <time>2022-03-23T10:33:34Z</time>
      </trkpt>
      <trkpt lat="42.964925" lon="-2.321808">
        <ele>795.50</ele>
        <time>2022-03-23T10:33:38Z</time>
      </trkpt>
      <trkpt lat="42.964900" lon="-2.321868">
        <ele>797.50</ele>
        <time>2022-03-23T10:33:42Z</time>
      </trkpt>
      <trkpt lat="42.964863" lon="-2.321905">
        <ele>798.40</ele>
        <time>2022-03-23T10:33:46Z</time>
      </trkpt>
      <trkpt lat="42.964807" lon="-2.321918">
        <ele>798.10</ele>
        <time>2022-03-23T10:33:50Z</time>
      </trkpt>
      <trkpt lat="42.964763" lon="-2.321942">
        <ele>798.50</ele>
        <time>2022-03-23T10:33:54Z</time>
      </trkpt>
      <trkpt lat="42.964715" lon="-2.321966">
        <ele>799.20</ele>
        <time>2022-03-23T10:33:58Z</time>
      </trkpt>
      <trkpt lat="42.964672" lon="-2.321999">
        <ele>801.00</ele>
        <time>2022-03-23T10:34:02Z</time>
      </trkpt>
      <trkpt lat="42.964619" lon="-2.322025">
        <ele>801.90</ele>
        <time>2022-03-23T10:34:07Z</time>
      </trkpt>
      <trkpt lat="42.964568" lon="-2.322045">
        <ele>802.70</ele>
        <time>2022-03-23T10:34:11Z</time>
      </trkpt>
      <trkpt lat="42.964523" lon="-2.322061">
        <ele>803.10</ele>
        <time>2022-03-23T10:34:15Z</time>
      </trkpt>
      <trkpt lat="42.964479" lon="-2.322074">
        <ele>803.40</ele>
        <time>2022-03-23T10:34:18Z</time>
      </trkpt>
      <trkpt lat="42.964429" lon="-2.322044">
        <ele>801.90</ele>
        <time>2022-03-23T10:34:23Z</time>
      </trkpt>
      <trkpt lat="42.964382" lon="-2.322021">
        <ele>801.70</ele>
        <time>2022-03-23T10:34:27Z</time>
      </trkpt>
      <trkpt lat="42.964334" lon="-2.321994">
        <ele>801.50</ele>
        <time>2022-03-23T10:34:31Z</time>
      </trkpt>
      <trkpt lat="42.964293" lon="-2.321961">
        <ele>800.90</ele>
        <time>2022-03-23T10:34:35Z</time>
      </trkpt>
      <trkpt lat="42.964255" lon="-2.321917">
        <ele>800.40</ele>
        <time>2022-03-23T10:34:39Z</time>
      </trkpt>
      <trkpt lat="42.964216" lon="-2.321873">
        <ele>800.30</ele>
        <time>2022-03-23T10:34:43Z</time>
      </trkpt>
      <trkpt lat="42.964174" lon="-2.321834">
        <ele>800.80</ele>
        <time>2022-03-23T10:34:47Z</time>
      </trkpt>
      <trkpt lat="42.964126" lon="-2.321793">
        <ele>802.00</ele>
        <time>2022-03-23T10:34:51Z</time>
      </trkpt>
      <trkpt lat="42.964077" lon="-2.321755">
        <ele>803.00</ele>
        <time>2022-03-23T10:34:56Z</time>
      </trkpt>
      <trkpt lat="42.964038" lon="-2.321712">
        <ele>803.60</ele>
        <time>2022-03-23T10:35:00Z</time>
      </trkpt>
      <trkpt lat="42.964007" lon="-2.321661">
        <ele>803.70</ele>
        <time>2022-03-23T10:35:04Z</time>
      </trkpt>
      <trkpt lat="42.963966" lon="-2.321614">
        <ele>803.80</ele>
        <time>2022-03-23T10:35:08Z</time>
      </trkpt>
      <trkpt lat="42.963934" lon="-2.321553">
        <ele>803.50</ele>
        <time>2022-03-23T10:35:12Z</time>
      </trkpt>
      <trkpt lat="42.963896" lon="-2.321517">
        <ele>803.90</ele>
        <time>2022-03-23T10:35:16Z</time>
      </trkpt>
      <trkpt lat="42.963856" lon="-2.321464">
        <ele>804.90</ele>
        <time>2022-03-23T10:35:20Z</time>
      </trkpt>
      <trkpt lat="42.963828" lon="-2.321399">
        <ele>805.00</ele>
        <time>2022-03-23T10:35:25Z</time>
      </trkpt>
      <trkpt lat="42.963795" lon="-2.321336">
        <ele>805.30</ele>
        <time>2022-03-23T10:35:29Z</time>
      </trkpt>
      <trkpt lat="42.963761" lon="-2.321280">
        <ele>805.90</ele>
        <time>2022-03-23T10:35:34Z</time>
      </trkpt>
      <trkpt lat="42.963735" lon="-2.321226">
        <ele>806.20</ele>
        <time>2022-03-23T10:35:37Z</time>
      </trkpt>
      <trkpt lat="42.963696" lon="-2.321186">
        <ele>807.50</ele>
        <time>2022-03-23T10:35:41Z</time>
      </trkpt>
      <trkpt lat="42.963659" lon="-2.321144">
        <ele>808.70</ele>
        <time>2022-03-23T10:35:45Z</time>
      </trkpt>
      <trkpt lat="42.963622" lon="-2.321104">
        <ele>810.10</ele>
        <time>2022-03-23T10:35:49Z</time>
      </trkpt>
      <trkpt lat="42.963612" lon="-2.321035">
        <ele>808.50</ele>
        <time>2022-03-23T10:35:53Z</time>
      </trkpt>
      <trkpt lat="42.963577" lon="-2.320988">
        <ele>808.80</ele>
        <time>2022-03-23T10:35:57Z</time>
      </trkpt>
      <trkpt lat="42.963533" lon="-2.320946">
        <ele>809.50</ele>
        <time>2022-03-23T10:36:01Z</time>
      </trkpt>
      <trkpt lat="42.963495" lon="-2.320908">
        <ele>810.20</ele>
        <time>2022-03-23T10:36:05Z</time>
      </trkpt>
      <trkpt lat="42.963451" lon="-2.320859">
        <ele>810.40</ele>
        <time>2022-03-23T10:36:10Z</time>
      </trkpt>
      <trkpt lat="42.963414" lon="-2.320819">
        <ele>810.60</ele>
        <time>2022-03-23T10:36:13Z</time>
      </trkpt>
      <trkpt lat="42.963381" lon="-2.320771">
        <ele>809.90</ele>
        <time>2022-03-23T10:36:17Z</time>
      </trkpt>
      <trkpt lat="42.963339" lon="-2.320712">
        <ele>809.10</ele>
        <time>2022-03-23T10:36:22Z</time>
      </trkpt>
      <trkpt lat="42.963302" lon="-2.320656">
        <ele>808.30</ele>
        <time>2022-03-23T10:36:27Z</time>
      </trkpt>
      <trkpt lat="42.963278" lon="-2.320587">
        <ele>806.20</ele>
        <time>2022-03-23T10:36:31Z</time>
      </trkpt>
      <trkpt lat="42.963274" lon="-2.320514">
        <ele>804.40</ele>
        <time>2022-03-23T10:36:35Z</time>
      </trkpt>
      <trkpt lat="42.963280" lon="-2.320442">
        <ele>803.00</ele>
        <time>2022-03-23T10:36:40Z</time>
      </trkpt>
      <trkpt lat="42.963288" lon="-2.320380">
        <ele>801.70</ele>
        <time>2022-03-23T10:36:43Z</time>
      </trkpt>
      <trkpt lat="42.963286" lon="-2.320317">
        <ele>800.80</ele>
        <time>2022-03-23T10:36:47Z</time>
      </trkpt>
      <trkpt lat="42.963269" lon="-2.320256">
        <ele>801.20</ele>
        <time>2022-03-23T10:36:51Z</time>
      </trkpt>
      <trkpt lat="42.963248" lon="-2.320193">
        <ele>802.60</ele>
        <time>2022-03-23T10:36:55Z</time>
      </trkpt>
      <trkpt lat="42.963219" lon="-2.320135">
        <ele>804.40</ele>
        <time>2022-03-23T10:36:59Z</time>
      </trkpt>
      <trkpt lat="42.963187" lon="-2.320069">
        <ele>806.40</ele>
        <time>2022-03-23T10:37:04Z</time>
      </trkpt>
      <trkpt lat="42.963164" lon="-2.319997">
        <ele>808.10</ele>
        <time>2022-03-23T10:37:08Z</time>
      </trkpt>
      <trkpt lat="42.963140" lon="-2.319937">
        <ele>809.20</ele>
        <time>2022-03-23T10:37:12Z</time>
      </trkpt>
      <trkpt lat="42.963109" lon="-2.319884">
        <ele>810.80</ele>
        <time>2022-03-23T10:37:16Z</time>
      </trkpt>
      <trkpt lat="42.963083" lon="-2.319832">
        <ele>811.90</ele>
        <time>2022-03-23T10:37:20Z</time>
      </trkpt>
      <trkpt lat="42.963071" lon="-2.319765">
        <ele>812.40</ele>
        <time>2022-03-23T10:37:24Z</time>
      </trkpt>
      <trkpt lat="42.963057" lon="-2.319691">
        <ele>812.80</ele>
        <time>2022-03-23T10:37:28Z</time>
      </trkpt>
      <trkpt lat="42.963047" lon="-2.319611">
        <ele>812.50</ele>
        <time>2022-03-23T10:37:33Z</time>
      </trkpt>
      <trkpt lat="42.963020" lon="-2.319545">
        <ele>812.80</ele>
        <time>2022-03-23T10:37:38Z</time>
      </trkpt>
      <trkpt lat="42.962991" lon="-2.319484">
        <ele>813.10</ele>
        <time>2022-03-23T10:37:42Z</time>
      </trkpt>
      <trkpt lat="42.962973" lon="-2.319420">
        <ele>813.20</ele>
        <time>2022-03-23T10:37:46Z</time>
      </trkpt>
      <trkpt lat="42.962944" lon="-2.319356">
        <ele>813.60</ele>
        <time>2022-03-23T10:37:50Z</time>
      </trkpt>
      <trkpt lat="42.962909" lon="-2.319267">
        <ele>814.00</ele>
        <time>2022-03-23T10:37:56Z</time>
      </trkpt>
      <trkpt lat="42.962869" lon="-2.319219">
        <ele>814.80</ele>
        <time>2022-03-23T10:38:00Z</time>
      </trkpt>
      <trkpt lat="42.962823" lon="-2.319190">
        <ele>815.90</ele>
        <time>2022-03-23T10:38:04Z</time>
      </trkpt>
      <trkpt lat="42.962779" lon="-2.319146">
        <ele>816.60</ele>
        <time>2022-03-23T10:38:09Z</time>
      </trkpt>
      <trkpt lat="42.962732" lon="-2.319117">
        <ele>816.50</ele>
        <time>2022-03-23T10:38:13Z</time>
      </trkpt>
      <trkpt lat="42.962678" lon="-2.319101">
        <ele>816.70</ele>
        <time>2022-03-23T10:38:17Z</time>
      </trkpt>
      <trkpt lat="42.962627" lon="-2.319080">
        <ele>816.80</ele>
        <time>2022-03-23T10:38:22Z</time>
      </trkpt>
      <trkpt lat="42.962578" lon="-2.319063">
        <ele>816.90</ele>
        <time>2022-03-23T10:38:26Z</time>
      </trkpt>
      <trkpt lat="42.962536" lon="-2.319033">
        <ele>816.80</ele>
        <time>2022-03-23T10:38:29Z</time>
      </trkpt>
      <trkpt lat="42.962501" lon="-2.318993">
        <ele>816.30</ele>
        <time>2022-03-23T10:38:33Z</time>
      </trkpt>
      <trkpt lat="42.962457" lon="-2.318956">
        <ele>815.50</ele>
        <time>2022-03-23T10:38:37Z</time>
      </trkpt>
      <trkpt lat="42.962420" lon="-2.318916">
        <ele>814.40</ele>
        <time>2022-03-23T10:38:41Z</time>
      </trkpt>
      <trkpt lat="42.962375" lon="-2.318865">
        <ele>813.00</ele>
        <time>2022-03-23T10:38:46Z</time>
      </trkpt>
      <trkpt lat="42.962321" lon="-2.318809">
        <ele>811.10</ele>
        <time>2022-03-23T10:38:51Z</time>
      </trkpt>
      <trkpt lat="42.962281" lon="-2.318765">
        <ele>809.90</ele>
        <time>2022-03-23T10:38:55Z</time>
      </trkpt>
      <trkpt lat="42.962238" lon="-2.318705">
        <ele>808.40</ele>
        <time>2022-03-23T10:39:00Z</time>
      </trkpt>
      <trkpt lat="42.962204" lon="-2.318654">
        <ele>807.30</ele>
        <time>2022-03-23T10:39:04Z</time>
      </trkpt>
      <trkpt lat="42.962170" lon="-2.318588">
        <ele>806.40</ele>
        <time>2022-03-23T10:39:09Z</time>
      </trkpt>
      <trkpt lat="42.962145" lon="-2.318531">
        <ele>806.10</ele>
        <time>2022-03-23T10:39:13Z</time>
      </trkpt>
      <trkpt lat="42.962115" lon="-2.318472">
        <ele>805.90</ele>
        <time>2022-03-23T10:39:17Z</time>
      </trkpt>
      <trkpt lat="42.962087" lon="-2.318406">
        <ele>805.30</ele>
        <time>2022-03-23T10:39:22Z</time>
      </trkpt>
      <trkpt lat="42.962059" lon="-2.318340">
        <ele>804.80</ele>
        <time>2022-03-23T10:39:26Z</time>
      </trkpt>
      <trkpt lat="42.962019" lon="-2.318285">
        <ele>804.00</ele>
        <time>2022-03-23T10:39:31Z</time>
      </trkpt>
      <trkpt lat="42.961979" lon="-2.318238">
        <ele>803.50</ele>
        <time>2022-03-23T10:39:35Z</time>
      </trkpt>
      <trkpt lat="42.961923" lon="-2.318198">
        <ele>803.50</ele>
        <time>2022-03-23T10:39:40Z</time>
      </trkpt>
      <trkpt lat="42.961876" lon="-2.318172">
        <ele>803.90</ele>
        <time>2022-03-23T10:39:44Z</time>
      </trkpt>
      <trkpt lat="42.961824" lon="-2.318139">
        <ele>804.20</ele>
        <time>2022-03-23T10:39:48Z</time>
      </trkpt>
      <trkpt lat="42.961780" lon="-2.318095">
        <ele>804.10</ele>
        <time>2022-03-23T10:39:53Z</time>
      </trkpt>
      <trkpt lat="42.961753" lon="-2.318035">
        <ele>803.40</ele>
        <time>2022-03-23T10:39:57Z</time>
      </trkpt>
      <trkpt lat="42.961712" lon="-2.318000">
        <ele>803.10</ele>
        <time>2022-03-23T10:40:01Z</time>
      </trkpt>
      <trkpt lat="42.961666" lon="-2.317976">
        <ele>803.10</ele>
        <time>2022-03-23T10:40:05Z</time>
      </trkpt>
      <trkpt lat="42.961630" lon="-2.317918">
        <ele>803.30</ele>
        <time>2022-03-23T10:40:09Z</time>
      </trkpt>
      <trkpt lat="42.961594" lon="-2.317865">
        <ele>803.50</ele>
        <time>2022-03-23T10:40:13Z</time>
      </trkpt>
      <trkpt lat="42.961559" lon="-2.317807">
        <ele>803.30</ele>
        <time>2022-03-23T10:40:18Z</time>
      </trkpt>
      <trkpt lat="42.961530" lon="-2.317744">
        <ele>802.50</ele>
        <time>2022-03-23T10:40:22Z</time>
      </trkpt>
      <trkpt lat="42.961488" lon="-2.317708">
        <ele>803.00</ele>
        <time>2022-03-23T10:40:26Z</time>
      </trkpt>
      <trkpt lat="42.961442" lon="-2.317676">
        <ele>803.50</ele>
        <time>2022-03-23T10:40:30Z</time>
      </trkpt>
      <trkpt lat="42.961408" lon="-2.317625">
        <ele>802.90</ele>
        <time>2022-03-23T10:40:34Z</time>
      </trkpt>
      <trkpt lat="42.961370" lon="-2.317587">
        <ele>803.00</ele>
        <time>2022-03-23T10:40:38Z</time>
      </trkpt>
      <trkpt lat="42.961322" lon="-2.317556">
        <ele>804.20</ele>
        <time>2022-03-23T10:40:42Z</time>
      </trkpt>
      <trkpt lat="42.961273" lon="-2.317511">
        <ele>804.60</ele>
        <time>2022-03-23T10:40:47Z</time>
      </trkpt>
      <trkpt lat="42.961233" lon="-2.317463">
        <ele>804.40</ele>
        <time>2022-03-23T10:40:51Z</time>
      </trkpt>
      <trkpt lat="42.961198" lon="-2.317424">
        <ele>804.20</ele>
        <time>2022-03-23T10:40:55Z</time>
      </trkpt>
      <trkpt lat="42.961156" lon="-2.317382">
        <ele>804.00</ele>
        <time>2022-03-23T10:40:59Z</time>
      </trkpt>
      <trkpt lat="42.961107" lon="-2.317341">
        <ele>803.80</ele>
        <time>2022-03-23T10:41:04Z</time>
      </trkpt>
      <trkpt lat="42.961054" lon="-2.317296">
        <ele>803.00</ele>
        <time>2022-03-23T10:41:09Z</time>
      </trkpt>
      <trkpt lat="42.960999" lon="-2.317246">
        <ele>802.00</ele>
        <time>2022-03-23T10:41:14Z</time>
      </trkpt>
      <trkpt lat="42.960955" lon="-2.317197">
        <ele>801.20</ele>
        <time>2022-03-23T10:41:19Z</time>
      </trkpt>
      <trkpt lat="42.960920" lon="-2.317159">
        <ele>800.70</ele>
        <time>2022-03-23T10:41:22Z</time>
      </trkpt>
      <trkpt lat="42.960885" lon="-2.317101">
        <ele>799.70</ele>
        <time>2022-03-23T10:41:27Z</time>
      </trkpt>
      <trkpt lat="42.960843" lon="-2.317071">
        <ele>799.80</ele>
        <time>2022-03-23T10:41:30Z</time>
      </trkpt>
      <trkpt lat="42.960806" lon="-2.317005">
        <ele>799.20</ele>
        <time>2022-03-23T10:41:35Z</time>
      </trkpt>
      <trkpt lat="42.960792" lon="-2.316937">
        <ele>797.80</ele>
        <time>2022-03-23T10:41:39Z</time>
      </trkpt>
      <trkpt lat="42.960791" lon="-2.316875">
        <ele>797.30</ele>
        <time>2022-03-23T10:41:43Z</time>
      </trkpt>
      <trkpt lat="42.960787" lon="-2.316811">
        <ele>797.00</ele>
        <time>2022-03-23T10:41:47Z</time>
      </trkpt>
      <trkpt lat="42.960777" lon="-2.316739">
        <ele>796.90</ele>
        <time>2022-03-23T10:41:51Z</time>
      </trkpt>
      <trkpt lat="42.960752" lon="-2.316681">
        <ele>797.40</ele>
        <time>2022-03-23T10:41:55Z</time>
      </trkpt>
      <trkpt lat="42.960717" lon="-2.316623">
        <ele>798.50</ele>
        <time>2022-03-23T10:41:59Z</time>
      </trkpt>
      <trkpt lat="42.960674" lon="-2.316591">
        <ele>800.00</ele>
        <time>2022-03-23T10:42:03Z</time>
      </trkpt>
      <trkpt lat="42.960638" lon="-2.316546">
        <ele>801.30</ele>
        <time>2022-03-23T10:42:07Z</time>
      </trkpt>
      <trkpt lat="42.960609" lon="-2.316488">
        <ele>802.20</ele>
        <time>2022-03-23T10:42:11Z</time>
      </trkpt>
      <trkpt lat="42.960576" lon="-2.316433">
        <ele>803.30</ele>
        <time>2022-03-23T10:42:15Z</time>
      </trkpt>
      <trkpt lat="42.960543" lon="-2.316375">
        <ele>804.30</ele>
        <time>2022-03-23T10:42:20Z</time>
      </trkpt>
      <trkpt lat="42.960501" lon="-2.316323">
        <ele>805.20</ele>
        <time>2022-03-23T10:42:24Z</time>
      </trkpt>
      <trkpt lat="42.960457" lon="-2.316270">
        <ele>806.10</ele>
        <time>2022-03-23T10:42:29Z</time>
      </trkpt>
      <trkpt lat="42.960416" lon="-2.316211">
        <ele>806.80</ele>
        <time>2022-03-23T10:42:34Z</time>
      </trkpt>
      <trkpt lat="42.960382" lon="-2.316160">
        <ele>807.40</ele>
        <time>2022-03-23T10:42:38Z</time>
      </trkpt>
      <trkpt lat="42.960347" lon="-2.316089">
        <ele>807.80</ele>
        <time>2022-03-23T10:42:43Z</time>
      </trkpt>
      <trkpt lat="42.960310" lon="-2.316023">
        <ele>808.80</ele>
        <time>2022-03-23T10:42:48Z</time>
      </trkpt>
      <trkpt lat="42.960272" lon="-2.315961">
        <ele>809.70</ele>
        <time>2022-03-23T10:42:52Z</time>
      </trkpt>
      <trkpt lat="42.960237" lon="-2.315894">
        <ele>810.50</ele>
        <time>2022-03-23T10:42:57Z</time>
      </trkpt>
      <trkpt lat="42.960205" lon="-2.315830">
        <ele>811.10</ele>
        <time>2022-03-23T10:43:02Z</time>
      </trkpt>
      <trkpt lat="42.960178" lon="-2.315765">
        <ele>812.00</ele>
        <time>2022-03-23T10:43:06Z</time>
      </trkpt>
      <trkpt lat="42.960155" lon="-2.315705">
        <ele>812.40</ele>
        <time>2022-03-23T10:43:10Z</time>
      </trkpt>
      <trkpt lat="42.960129" lon="-2.315647">
        <ele>813.00</ele>
        <time>2022-03-23T10:43:14Z</time>
      </trkpt>
      <trkpt lat="42.960099" lon="-2.315583">
        <ele>813.80</ele>
        <time>2022-03-23T10:43:19Z</time>
      </trkpt>
      <trkpt lat="42.960064" lon="-2.315520">
        <ele>814.40</ele>
        <time>2022-03-23T10:43:23Z</time>
      </trkpt>
      <trkpt lat="42.960037" lon="-2.315458">
        <ele>814.70</ele>
        <time>2022-03-23T10:43:27Z</time>
      </trkpt>
      <trkpt lat="42.960005" lon="-2.315402">
        <ele>815.30</ele>
        <time>2022-03-23T10:43:32Z</time>
      </trkpt>
      <trkpt lat="42.959972" lon="-2.315360">
        <ele>816.10</ele>
        <time>2022-03-23T10:43:35Z</time>
      </trkpt>
      <trkpt lat="42.959930" lon="-2.315319">
        <ele>817.40</ele>
        <time>2022-03-23T10:43:39Z</time>
      </trkpt>
      <trkpt lat="42.959885" lon="-2.315276">
        <ele>818.50</ele>
        <time>2022-03-23T10:43:44Z</time>
      </trkpt>
      <trkpt lat="42.959844" lon="-2.315241">
        <ele>819.70</ele>
        <time>2022-03-23T10:43:48Z</time>
      </trkpt>
      <trkpt lat="42.959796" lon="-2.315203">
        <ele>821.00</ele>
        <time>2022-03-23T10:43:52Z</time>
      </trkpt>
      <trkpt lat="42.959759" lon="-2.315167">
        <ele>821.90</ele>
        <time>2022-03-23T10:43:56Z</time>
      </trkpt>
      <trkpt lat="42.959724" lon="-2.315125">
        <ele>822.70</ele>
        <time>2022-03-23T10:43:59Z</time>
      </trkpt>
      <trkpt lat="42.959687" lon="-2.315084">
        <ele>823.60</ele>
        <time>2022-03-23T10:44:03Z</time>
      </trkpt>
      <trkpt lat="42.959648" lon="-2.315029">
        <ele>824.50</ele>
        <time>2022-03-23T10:44:08Z</time>
      </trkpt>
      <trkpt lat="42.959608" lon="-2.314974">
        <ele>825.20</ele>
        <time>2022-03-23T10:44:12Z</time>
      </trkpt>
      <trkpt lat="42.959574" lon="-2.314934">
        <ele>825.80</ele>
        <time>2022-03-23T10:44:16Z</time>
      </trkpt>
      <trkpt lat="42.959534" lon="-2.314893">
        <ele>826.50</ele>
        <time>2022-03-23T10:44:20Z</time>
      </trkpt>
      <trkpt lat="42.959487" lon="-2.314854">
        <ele>827.80</ele>
        <time>2022-03-23T10:44:24Z</time>
      </trkpt>
      <trkpt lat="42.959444" lon="-2.314819">
        <ele>828.90</ele>
        <time>2022-03-23T10:44:28Z</time>
      </trkpt>
      <trkpt lat="42.959403" lon="-2.314782">
        <ele>829.30</ele>
        <time>2022-03-23T10:44:32Z</time>
      </trkpt>
      <trkpt lat="42.959359" lon="-2.314738">
        <ele>829.70</ele>
        <time>2022-03-23T10:44:37Z</time>
      </trkpt>
      <trkpt lat="42.959311" lon="-2.314702">
        <ele>830.40</ele>
        <time>2022-03-23T10:44:41Z</time>
      </trkpt>
      <trkpt lat="42.959259" lon="-2.314671">
        <ele>831.50</ele>
        <time>2022-03-23T10:44:45Z</time>
      </trkpt>
      <trkpt lat="42.959208" lon="-2.314641">
        <ele>832.30</ele>
        <time>2022-03-23T10:44:50Z</time>
      </trkpt>
      <trkpt lat="42.959160" lon="-2.314603">
        <ele>833.00</ele>
        <time>2022-03-23T10:44:54Z</time>
      </trkpt>
      <trkpt lat="42.959113" lon="-2.314558">
        <ele>833.20</ele>
        <time>2022-03-23T10:44:59Z</time>
      </trkpt>
      <trkpt lat="42.959062" lon="-2.314516">
        <ele>833.30</ele>
        <time>2022-03-23T10:45:04Z</time>
      </trkpt>
      <trkpt lat="42.959011" lon="-2.314472">
        <ele>833.40</ele>
        <time>2022-03-23T10:45:09Z</time>
      </trkpt>
      <trkpt lat="42.958962" lon="-2.314429">
        <ele>833.20</ele>
        <time>2022-03-23T10:45:13Z</time>
      </trkpt>
      <trkpt lat="42.958914" lon="-2.314386">
        <ele>832.90</ele>
        <time>2022-03-23T10:45:18Z</time>
      </trkpt>
      <trkpt lat="42.958868" lon="-2.314347">
        <ele>832.20</ele>
        <time>2022-03-23T10:45:22Z</time>
      </trkpt>
      <trkpt lat="42.958817" lon="-2.314300">
        <ele>830.80</ele>
        <time>2022-03-23T10:45:27Z</time>
      </trkpt>
      <trkpt lat="42.958772" lon="-2.314258">
        <ele>829.20</ele>
        <time>2022-03-23T10:45:31Z</time>
      </trkpt>
      <trkpt lat="42.958722" lon="-2.314209">
        <ele>827.40</ele>
        <time>2022-03-23T10:45:36Z</time>
      </trkpt>
      <trkpt lat="42.958678" lon="-2.314161">
        <ele>825.40</ele>
        <time>2022-03-23T10:45:41Z</time>
      </trkpt>
      <trkpt lat="42.958634" lon="-2.314110">
        <ele>823.30</ele>
        <time>2022-03-23T10:45:46Z</time>
      </trkpt>
      <trkpt lat="42.958595" lon="-2.314058">
        <ele>821.50</ele>
        <time>2022-03-23T10:45:50Z</time>
      </trkpt>
      <trkpt lat="42.958559" lon="-2.314011">
        <ele>820.10</ele>
        <time>2022-03-23T10:45:54Z</time>
      </trkpt>
      <trkpt lat="42.958520" lon="-2.313973">
        <ele>819.10</ele>
        <time>2022-03-23T10:45:58Z</time>
      </trkpt>
      <trkpt lat="42.958478" lon="-2.313939">
        <ele>818.00</ele>
        <time>2022-03-23T10:46:02Z</time>
      </trkpt>
      <trkpt lat="42.958435" lon="-2.313898">
        <ele>816.90</ele>
        <time>2022-03-23T10:46:06Z</time>
      </trkpt>
      <trkpt lat="42.958393" lon="-2.313863">
        <ele>816.10</ele>
        <time>2022-03-23T10:46:10Z</time>
      </trkpt>
      <trkpt lat="42.958349" lon="-2.313830">
        <ele>815.40</ele>
        <time>2022-03-23T10:46:14Z</time>
      </trkpt>
      <trkpt lat="42.958301" lon="-2.313800">
        <ele>815.20</ele>
        <time>2022-03-23T10:46:18Z</time>
      </trkpt>
      <trkpt lat="42.958252" lon="-2.313768">
        <ele>814.80</ele>
        <time>2022-03-23T10:46:22Z</time>
      </trkpt>
      <trkpt lat="42.958205" lon="-2.313732">
        <ele>814.20</ele>
        <time>2022-03-23T10:46:27Z</time>
      </trkpt>
      <trkpt lat="42.958158" lon="-2.313697">
        <ele>813.60</ele>
        <time>2022-03-23T10:46:31Z</time>
      </trkpt>
      <trkpt lat="42.958106" lon="-2.313653">
        <ele>812.80</ele>
        <time>2022-03-23T10:46:36Z</time>
      </trkpt>
      <trkpt lat="42.958054" lon="-2.313616">
        <ele>812.20</ele>
        <time>2022-03-23T10:46:41Z</time>
      </trkpt>
      <trkpt lat="42.957997" lon="-2.313588">
        <ele>812.30</ele>
        <time>2022-03-23T10:46:45Z</time>
      </trkpt>
      <trkpt lat="42.957941" lon="-2.313556">
        <ele>812.40</ele>
        <time>2022-03-23T10:46:50Z</time>
      </trkpt>
      <trkpt lat="42.957895" lon="-2.313515">
        <ele>812.00</ele>
        <time>2022-03-23T10:46:55Z</time>
      </trkpt>
      <trkpt lat="42.957864" lon="-2.313468">
        <ele>811.20</ele>
        <time>2022-03-23T10:46:58Z</time>
      </trkpt>
      <trkpt lat="42.957828" lon="-2.313423">
        <ele>810.60</ele>
        <time>2022-03-23T10:47:02Z</time>
      </trkpt>
      <trkpt lat="42.957787" lon="-2.313394">
        <ele>810.50</ele>
        <time>2022-03-23T10:47:06Z</time>
      </trkpt>
      <trkpt lat="42.957759" lon="-2.313344">
        <ele>809.50</ele>
        <time>2022-03-23T10:47:10Z</time>
      </trkpt>
      <trkpt lat="42.957724" lon="-2.313303">
        <ele>809.30</ele>
        <time>2022-03-23T10:47:13Z</time>
      </trkpt>
      <trkpt lat="42.957681" lon="-2.313274">
        <ele>809.30</ele>
        <time>2022-03-23T10:47:17Z</time>
      </trkpt>
      <trkpt lat="42.957639" lon="-2.313242">
        <ele>809.40</ele>
        <time>2022-03-23T10:47:21Z</time>
      </trkpt>
      <trkpt lat="42.957598" lon="-2.313166">
        <ele>808.70</ele>
        <time>2022-03-23T10:47:27Z</time>
      </trkpt>
      <trkpt lat="42.957561" lon="-2.313129">
        <ele>808.60</ele>
        <time>2022-03-23T10:47:30Z</time>
      </trkpt>
      <trkpt lat="42.957473" lon="-2.313048">
        <ele>807.90</ele>
        <time>2022-03-23T10:47:39Z</time>
      </trkpt>
      <trkpt lat="42.957440" lon="-2.312988">
        <ele>806.60</ele>
        <time>2022-03-23T10:47:43Z</time>
      </trkpt>
      <trkpt lat="42.957389" lon="-2.312972">
        <ele>806.30</ele>
        <time>2022-03-23T10:47:47Z</time>
      </trkpt>
      <trkpt lat="42.957344" lon="-2.312987">
        <ele>806.70</ele>
        <time>2022-03-23T10:47:51Z</time>
      </trkpt>
      <trkpt lat="42.957294" lon="-2.312981">
        <ele>806.70</ele>
        <time>2022-03-23T10:47:55Z</time>
      </trkpt>
      <trkpt lat="42.957248" lon="-2.312963">
        <ele>806.30</ele>
        <time>2022-03-23T10:47:59Z</time>
      </trkpt>
      <trkpt lat="42.957199" lon="-2.312955">
        <ele>806.30</ele>
        <time>2022-03-23T10:48:03Z</time>
      </trkpt>
      <trkpt lat="42.957142" lon="-2.312950">
        <ele>806.60</ele>
        <time>2022-03-23T10:48:07Z</time>
      </trkpt>
      <trkpt lat="42.957078" lon="-2.312956">
        <ele>806.90</ele>
        <time>2022-03-23T10:48:12Z</time>
      </trkpt>
      <trkpt lat="42.957017" lon="-2.312951">
        <ele>807.20</ele>
        <time>2022-03-23T10:48:17Z</time>
      </trkpt>
      <trkpt lat="42.956954" lon="-2.312922">
        <ele>807.00</ele>
        <time>2022-03-23T10:48:23Z</time>
      </trkpt>
      <trkpt lat="42.956897" lon="-2.312889">
        <ele>807.00</ele>
        <time>2022-03-23T10:48:28Z</time>
      </trkpt>
      <trkpt lat="42.956846" lon="-2.312853">
        <ele>807.00</ele>
        <time>2022-03-23T10:48:32Z</time>
      </trkpt>
      <trkpt lat="42.956790" lon="-2.312828">
        <ele>807.00</ele>
        <time>2022-03-23T10:48:37Z</time>
      </trkpt>
      <trkpt lat="42.956726" lon="-2.312839">
        <ele>807.70</ele>
        <time>2022-03-23T10:48:42Z</time>
      </trkpt>
      <trkpt lat="42.956661" lon="-2.312853">
        <ele>808.50</ele>
        <time>2022-03-23T10:48:47Z</time>
      </trkpt>
      <trkpt lat="42.956608" lon="-2.312854">
        <ele>808.50</ele>
        <time>2022-03-23T10:48:52Z</time>
      </trkpt>
      <trkpt lat="42.956557" lon="-2.312855">
        <ele>808.50</ele>
        <time>2022-03-23T10:48:56Z</time>
      </trkpt>
      <trkpt lat="42.956492" lon="-2.312855">
        <ele>808.60</ele>
        <time>2022-03-23T10:49:01Z</time>
      </trkpt>
      <trkpt lat="42.956437" lon="-2.312850">
        <ele>808.50</ele>
        <time>2022-03-23T10:49:05Z</time>
      </trkpt>
      <trkpt lat="42.956390" lon="-2.312837">
        <ele>808.30</ele>
        <time>2022-03-23T10:49:09Z</time>
      </trkpt>
      <trkpt lat="42.956337" lon="-2.312821">
        <ele>807.70</ele>
        <time>2022-03-23T10:49:14Z</time>
      </trkpt>
      <trkpt lat="42.956285" lon="-2.312806">
        <ele>807.20</ele>
        <time>2022-03-23T10:49:18Z</time>
      </trkpt>
      <trkpt lat="42.956232" lon="-2.312795">
        <ele>806.80</ele>
        <time>2022-03-23T10:49:22Z</time>
      </trkpt>
      <trkpt lat="42.956179" lon="-2.312794">
        <ele>806.70</ele>
        <time>2022-03-23T10:49:26Z</time>
      </trkpt>
      <trkpt lat="42.956120" lon="-2.312796">
        <ele>806.40</ele>
        <time>2022-03-23T10:49:31Z</time>
      </trkpt>
      <trkpt lat="42.956057" lon="-2.312801">
        <ele>806.00</ele>
        <time>2022-03-23T10:49:36Z</time>
      </trkpt>
      <trkpt lat="42.955994" lon="-2.312805">
        <ele>805.80</ele>
        <time>2022-03-23T10:49:41Z</time>
      </trkpt>
      <trkpt lat="42.955933" lon="-2.312808">
        <ele>805.40</ele>
        <time>2022-03-23T10:49:46Z</time>
      </trkpt>
      <trkpt lat="42.955873" lon="-2.312809">
        <ele>805.00</ele>
        <time>2022-03-23T10:49:51Z</time>
      </trkpt>
      <trkpt lat="42.955815" lon="-2.312806">
        <ele>804.70</ele>
        <time>2022-03-23T10:49:55Z</time>
      </trkpt>
      <trkpt lat="42.955756" lon="-2.312800">
        <ele>804.60</ele>
        <time>2022-03-23T10:50:00Z</time>
      </trkpt>
      <trkpt lat="42.955699" lon="-2.312791">
        <ele>804.40</ele>
        <time>2022-03-23T10:50:05Z</time>
      </trkpt>
      <trkpt lat="42.955628" lon="-2.312775">
        <ele>804.00</ele>
        <time>2022-03-23T10:50:11Z</time>
      </trkpt>
      <trkpt lat="42.955583" lon="-2.312778">
        <ele>804.00</ele>
        <time>2022-03-23T10:50:14Z</time>
      </trkpt>
      <trkpt lat="42.955522" lon="-2.312762">
        <ele>804.40</ele>
        <time>2022-03-23T10:50:19Z</time>
      </trkpt>
      <trkpt lat="42.955473" lon="-2.312744">
        <ele>805.00</ele>
        <time>2022-03-23T10:50:23Z</time>
      </trkpt>
      <trkpt lat="42.955426" lon="-2.312708">
        <ele>805.50</ele>
        <time>2022-03-23T10:50:28Z</time>
      </trkpt>
      <trkpt lat="42.955387" lon="-2.312666">
        <ele>806.00</ele>
        <time>2022-03-23T10:50:31Z</time>
      </trkpt>
      <trkpt lat="42.955351" lon="-2.312625">
        <ele>806.30</ele>
        <time>2022-03-23T10:50:35Z</time>
      </trkpt>
      <trkpt lat="42.955312" lon="-2.312587">
        <ele>806.80</ele>
        <time>2022-03-23T10:50:39Z</time>
      </trkpt>
      <trkpt lat="42.955274" lon="-2.312553">
        <ele>807.30</ele>
        <time>2022-03-23T10:50:43Z</time>
      </trkpt>
      <trkpt lat="42.955225" lon="-2.312505">
        <ele>807.60</ele>
        <time>2022-03-23T10:50:48Z</time>
      </trkpt>
      <trkpt lat="42.955183" lon="-2.312480">
        <ele>808.00</ele>
        <time>2022-03-23T10:50:51Z</time>
      </trkpt>
      <trkpt lat="42.955132" lon="-2.312483">
        <ele>808.50</ele>
        <time>2022-03-23T10:50:55Z</time>
      </trkpt>
      <trkpt lat="42.955088" lon="-2.312530">
        <ele>809.30</ele>
        <time>2022-03-23T10:51:00Z</time>
      </trkpt>
      <trkpt lat="42.955057" lon="-2.312576">
        <ele>810.10</ele>
        <time>2022-03-23T10:51:03Z</time>
      </trkpt>
      <trkpt lat="42.955025" lon="-2.312620">
        <ele>810.90</ele>
        <time>2022-03-23T10:51:07Z</time>
      </trkpt>
      <trkpt lat="42.954989" lon="-2.312664">
        <ele>812.00</ele>
        <time>2022-03-23T10:51:11Z</time>
      </trkpt>
      <trkpt lat="42.954950" lon="-2.312701">
        <ele>812.70</ele>
        <time>2022-03-23T10:51:15Z</time>
      </trkpt>
      <trkpt lat="42.954901" lon="-2.312734">
        <ele>813.60</ele>
        <time>2022-03-23T10:51:19Z</time>
      </trkpt>
      <trkpt lat="42.954853" lon="-2.312757">
        <ele>814.30</ele>
        <time>2022-03-23T10:51:23Z</time>
      </trkpt>
      <trkpt lat="42.954810" lon="-2.312781">
        <ele>815.20</ele>
        <time>2022-03-23T10:51:27Z</time>
      </trkpt>
      <trkpt lat="42.954760" lon="-2.312808">
        <ele>815.90</ele>
        <time>2022-03-23T10:51:31Z</time>
      </trkpt>
      <trkpt lat="42.954718" lon="-2.312848">
        <ele>816.90</ele>
        <time>2022-03-23T10:51:35Z</time>
      </trkpt>
      <trkpt lat="42.954672" lon="-2.312887">
        <ele>817.50</ele>
        <time>2022-03-23T10:51:40Z</time>
      </trkpt>
      <trkpt lat="42.954624" lon="-2.312908">
        <ele>818.20</ele>
        <time>2022-03-23T10:51:44Z</time>
      </trkpt>
      <trkpt lat="42.954567" lon="-2.312905">
        <ele>818.40</ele>
        <time>2022-03-23T10:51:48Z</time>
      </trkpt>
      <trkpt lat="42.954516" lon="-2.312898">
        <ele>818.70</ele>
        <time>2022-03-23T10:51:52Z</time>
      </trkpt>
      <trkpt lat="42.954464" lon="-2.312894">
        <ele>819.00</ele>
        <time>2022-03-23T10:51:57Z</time>
      </trkpt>
      <trkpt lat="42.954405" lon="-2.312887">
        <ele>819.10</ele>
        <time>2022-03-23T10:52:01Z</time>
      </trkpt>
      <trkpt lat="42.954347" lon="-2.312872">
        <ele>819.00</ele>
        <time>2022-03-23T10:52:06Z</time>
      </trkpt>
      <trkpt lat="42.954292" lon="-2.312863">
        <ele>819.00</ele>
        <time>2022-03-23T10:52:10Z</time>
      </trkpt>
      <trkpt lat="42.954240" lon="-2.312855">
        <ele>818.90</ele>
        <time>2022-03-23T10:52:15Z</time>
      </trkpt>
      <trkpt lat="42.954187" lon="-2.312854">
        <ele>819.00</ele>
        <time>2022-03-23T10:52:19Z</time>
      </trkpt>
      <trkpt lat="42.954142" lon="-2.312855">
        <ele>818.60</ele>
        <time>2022-03-23T10:52:22Z</time>
      </trkpt>
      <trkpt lat="42.954090" lon="-2.312848">
        <ele>817.60</ele>
        <time>2022-03-23T10:52:27Z</time>
      </trkpt>
      <trkpt lat="42.954041" lon="-2.312836">
        <ele>816.30</ele>
        <time>2022-03-23T10:52:31Z</time>
      </trkpt>
      <trkpt lat="42.953986" lon="-2.312840">
        <ele>815.50</ele>
        <time>2022-03-23T10:52:35Z</time>
      </trkpt>
      <trkpt lat="42.953940" lon="-2.312864">
        <ele>815.60</ele>
        <time>2022-03-23T10:52:39Z</time>
      </trkpt>
      <trkpt lat="42.953896" lon="-2.312903">
        <ele>816.50</ele>
        <time>2022-03-23T10:52:43Z</time>
      </trkpt>
      <trkpt lat="42.953851" lon="-2.312944">
        <ele>817.10</ele>
        <time>2022-03-23T10:52:47Z</time>
      </trkpt>
      <trkpt lat="42.953808" lon="-2.312976">
        <ele>817.20</ele>
        <time>2022-03-23T10:52:51Z</time>
      </trkpt>
      <trkpt lat="42.953753" lon="-2.313006">
        <ele>817.00</ele>
        <time>2022-03-23T10:52:56Z</time>
      </trkpt>
      <trkpt lat="42.953700" lon="-2.313029">
        <ele>816.40</ele>
        <time>2022-03-23T10:53:01Z</time>
      </trkpt>
      <trkpt lat="42.953650" lon="-2.313050">
        <ele>816.00</ele>
        <time>2022-03-23T10:53:05Z</time>
      </trkpt>
      <trkpt lat="42.953605" lon="-2.313071">
        <ele>815.70</ele>
        <time>2022-03-23T10:53:09Z</time>
      </trkpt>
      <trkpt lat="42.953561" lon="-2.313100">
        <ele>816.50</ele>
        <time>2022-03-23T10:53:13Z</time>
      </trkpt>
      <trkpt lat="42.953520" lon="-2.313128">
        <ele>817.10</ele>
        <time>2022-03-23T10:53:16Z</time>
      </trkpt>
      <trkpt lat="42.953462" lon="-2.313171">
        <ele>817.90</ele>
        <time>2022-03-23T10:53:21Z</time>
      </trkpt>
      <trkpt lat="42.953405" lon="-2.313209">
        <ele>818.10</ele>
        <time>2022-03-23T10:53:27Z</time>
      </trkpt>
      <trkpt lat="42.953350" lon="-2.313222">
        <ele>817.50</ele>
        <time>2022-03-23T10:53:31Z</time>
      </trkpt>
      <trkpt lat="42.953305" lon="-2.313209">
        <ele>817.40</ele>
        <time>2022-03-23T10:53:35Z</time>
      </trkpt>
      <trkpt lat="42.953266" lon="-2.313175">
        <ele>817.20</ele>
        <time>2022-03-23T10:53:38Z</time>
      </trkpt>
      <trkpt lat="42.953223" lon="-2.313125">
        <ele>816.70</ele>
        <time>2022-03-23T10:53:43Z</time>
      </trkpt>
      <trkpt lat="42.953189" lon="-2.313082">
        <ele>816.40</ele>
        <time>2022-03-23T10:53:47Z</time>
      </trkpt>
      <trkpt lat="42.953147" lon="-2.313024">
        <ele>815.70</ele>
        <time>2022-03-23T10:53:51Z</time>
      </trkpt>
      <trkpt lat="42.953102" lon="-2.312997">
        <ele>816.00</ele>
        <time>2022-03-23T10:53:55Z</time>
      </trkpt>
      <trkpt lat="42.953046" lon="-2.312993">
        <ele>816.90</ele>
        <time>2022-03-23T10:54:00Z</time>
      </trkpt>
      <trkpt lat="42.952998" lon="-2.312999">
        <ele>818.40</ele>
        <time>2022-03-23T10:54:04Z</time>
      </trkpt>
      <trkpt lat="42.952948" lon="-2.313008">
        <ele>820.00</ele>
        <time>2022-03-23T10:54:08Z</time>
      </trkpt>
      <trkpt lat="42.952899" lon="-2.313012">
        <ele>821.40</ele>
        <time>2022-03-23T10:54:12Z</time>
      </trkpt>
      <trkpt lat="42.952852" lon="-2.313008">
        <ele>822.60</ele>
        <time>2022-03-23T10:54:15Z</time>
      </trkpt>
      <trkpt lat="42.952804" lon="-2.312986">
        <ele>823.70</ele>
        <time>2022-03-23T10:54:19Z</time>
      </trkpt>
      <trkpt lat="42.952758" lon="-2.312958">
        <ele>825.20</ele>
        <time>2022-03-23T10:54:23Z</time>
      </trkpt>
      <trkpt lat="42.952715" lon="-2.312925">
        <ele>826.90</ele>
        <time>2022-03-23T10:54:27Z</time>
      </trkpt>
      <trkpt lat="42.952670" lon="-2.312889">
        <ele>828.70</ele>
        <time>2022-03-23T10:54:32Z</time>
      </trkpt>
      <trkpt lat="42.952632" lon="-2.312847">
        <ele>830.30</ele>
        <time>2022-03-23T10:54:36Z</time>
      </trkpt>
      <trkpt lat="42.952605" lon="-2.312783">
        <ele>831.20</ele>
        <time>2022-03-23T10:54:40Z</time>
      </trkpt>
      <trkpt lat="42.952577" lon="-2.312721">
        <ele>831.80</ele>
        <time>2022-03-23T10:54:44Z</time>
      </trkpt>
      <trkpt lat="42.952545" lon="-2.312667">
        <ele>832.70</ele>
        <time>2022-03-23T10:54:48Z</time>
      </trkpt>
      <trkpt lat="42.952506" lon="-2.312610">
        <ele>834.00</ele>
        <time>2022-03-23T10:54:53Z</time>
      </trkpt>
      <trkpt lat="42.952472" lon="-2.312562">
        <ele>834.90</ele>
        <time>2022-03-23T10:54:57Z</time>
      </trkpt>
      <trkpt lat="42.952433" lon="-2.312509">
        <ele>835.90</ele>
        <time>2022-03-23T10:55:01Z</time>
      </trkpt>
      <trkpt lat="42.952394" lon="-2.312461">
        <ele>836.40</ele>
        <time>2022-03-23T10:55:05Z</time>
      </trkpt>
      <trkpt lat="42.952357" lon="-2.312409">
        <ele>836.50</ele>
        <time>2022-03-23T10:55:10Z</time>
      </trkpt>
      <trkpt lat="42.952327" lon="-2.312352">
        <ele>836.50</ele>
        <time>2022-03-23T10:55:14Z</time>
      </trkpt>
      <trkpt lat="42.952300" lon="-2.312295">
        <ele>836.30</ele>
        <time>2022-03-23T10:55:18Z</time>
      </trkpt>
      <trkpt lat="42.952265" lon="-2.312241">
        <ele>836.60</ele>
        <time>2022-03-23T10:55:22Z</time>
      </trkpt>
      <trkpt lat="42.952223" lon="-2.312196">
        <ele>837.20</ele>
        <time>2022-03-23T10:55:26Z</time>
      </trkpt>
      <trkpt lat="42.952176" lon="-2.312160">
        <ele>837.40</ele>
        <time>2022-03-23T10:55:30Z</time>
      </trkpt>
      <trkpt lat="42.952135" lon="-2.312133">
        <ele>837.80</ele>
        <time>2022-03-23T10:55:34Z</time>
      </trkpt>
      <trkpt lat="42.952088" lon="-2.312103">
        <ele>838.30</ele>
        <time>2022-03-23T10:55:38Z</time>
      </trkpt>
      <trkpt lat="42.952044" lon="-2.312081">
        <ele>838.90</ele>
        <time>2022-03-23T10:55:42Z</time>
      </trkpt>
      <trkpt lat="42.951990" lon="-2.312057">
        <ele>839.90</ele>
        <time>2022-03-23T10:55:47Z</time>
      </trkpt>
      <trkpt lat="42.951933" lon="-2.312040">
        <ele>841.30</ele>
        <time>2022-03-23T10:55:51Z</time>
      </trkpt>
      <trkpt lat="42.951879" lon="-2.312017">
        <ele>842.50</ele>
        <time>2022-03-23T10:55:56Z</time>
      </trkpt>
      <trkpt lat="42.951834" lon="-2.311982">
        <ele>843.30</ele>
        <time>2022-03-23T10:56:00Z</time>
      </trkpt>
      <trkpt lat="42.951797" lon="-2.311943">
        <ele>843.80</ele>
        <time>2022-03-23T10:56:04Z</time>
      </trkpt>
      <trkpt lat="42.951779" lon="-2.311885">
        <ele>843.00</ele>
        <time>2022-03-23T10:56:07Z</time>
      </trkpt>
      <trkpt lat="42.951752" lon="-2.311833">
        <ele>842.80</ele>
        <time>2022-03-23T10:56:11Z</time>
      </trkpt>
      <trkpt lat="42.951716" lon="-2.311784">
        <ele>843.00</ele>
        <time>2022-03-23T10:56:15Z</time>
      </trkpt>
      <trkpt lat="42.951682" lon="-2.311742">
        <ele>843.40</ele>
        <time>2022-03-23T10:56:19Z</time>
      </trkpt>
      <trkpt lat="42.951643" lon="-2.311700">
        <ele>843.50</ele>
        <time>2022-03-23T10:56:23Z</time>
      </trkpt>
      <trkpt lat="42.951600" lon="-2.311666">
        <ele>843.70</ele>
        <time>2022-03-23T10:56:27Z</time>
      </trkpt>
      <trkpt lat="42.951556" lon="-2.311631">
        <ele>843.90</ele>
        <time>2022-03-23T10:56:31Z</time>
      </trkpt>
      <trkpt lat="42.951504" lon="-2.311594">
        <ele>844.00</ele>
        <time>2022-03-23T10:56:36Z</time>
      </trkpt>
      <trkpt lat="42.951460" lon="-2.311569">
        <ele>844.50</ele>
        <time>2022-03-23T10:56:39Z</time>
      </trkpt>
      <trkpt lat="42.951410" lon="-2.311545">
        <ele>845.00</ele>
        <time>2022-03-23T10:56:44Z</time>
      </trkpt>
      <trkpt lat="42.951359" lon="-2.311519">
        <ele>845.40</ele>
        <time>2022-03-23T10:56:48Z</time>
      </trkpt>
      <trkpt lat="42.951314" lon="-2.311505">
        <ele>845.80</ele>
        <time>2022-03-23T10:56:52Z</time>
      </trkpt>
      <trkpt lat="42.951265" lon="-2.311493">
        <ele>846.50</ele>
        <time>2022-03-23T10:56:56Z</time>
      </trkpt>
      <trkpt lat="42.951217" lon="-2.311477">
        <ele>847.20</ele>
        <time>2022-03-23T10:57:00Z</time>
      </trkpt>
      <trkpt lat="42.951165" lon="-2.311462">
        <ele>847.80</ele>
        <time>2022-03-23T10:57:04Z</time>
      </trkpt>
      <trkpt lat="42.951114" lon="-2.311441">
        <ele>848.30</ele>
        <time>2022-03-23T10:57:08Z</time>
      </trkpt>
      <trkpt lat="42.951068" lon="-2.311422">
        <ele>848.10</ele>
        <time>2022-03-23T10:57:12Z</time>
      </trkpt>
      <trkpt lat="42.951022" lon="-2.311384">
        <ele>847.70</ele>
        <time>2022-03-23T10:57:16Z</time>
      </trkpt>
      <trkpt lat="42.950977" lon="-2.311342">
        <ele>847.30</ele>
        <time>2022-03-23T10:57:21Z</time>
      </trkpt>
      <trkpt lat="42.950928" lon="-2.311302">
        <ele>847.30</ele>
        <time>2022-03-23T10:57:25Z</time>
      </trkpt>
      <trkpt lat="42.950879" lon="-2.311264">
        <ele>847.20</ele>
        <time>2022-03-23T10:57:30Z</time>
      </trkpt>
      <trkpt lat="42.950825" lon="-2.311228">
        <ele>847.40</ele>
        <time>2022-03-23T10:57:34Z</time>
      </trkpt>
      <trkpt lat="42.950774" lon="-2.311198">
        <ele>847.20</ele>
        <time>2022-03-23T10:57:39Z</time>
      </trkpt>
      <trkpt lat="42.950729" lon="-2.311157">
        <ele>846.90</ele>
        <time>2022-03-23T10:57:43Z</time>
      </trkpt>
      <trkpt lat="42.950682" lon="-2.311112">
        <ele>846.60</ele>
        <time>2022-03-23T10:57:48Z</time>
      </trkpt>
      <trkpt lat="42.950635" lon="-2.311059">
        <ele>846.00</ele>
        <time>2022-03-23T10:57:53Z</time>
      </trkpt>
      <trkpt lat="42.950594" lon="-2.311012">
        <ele>845.50</ele>
        <time>2022-03-23T10:57:57Z</time>
      </trkpt>
      <trkpt lat="42.950561" lon="-2.310965">
        <ele>844.90</ele>
        <time>2022-03-23T10:58:01Z</time>
      </trkpt>
      <trkpt lat="42.950528" lon="-2.310891">
        <ele>844.90</ele>
        <time>2022-03-23T10:58:06Z</time>
      </trkpt>
      <trkpt lat="42.950496" lon="-2.310837">
        <ele>845.00</ele>
        <time>2022-03-23T10:58:10Z</time>
      </trkpt>
      <trkpt lat="42.950453" lon="-2.310797">
        <ele>845.50</ele>
        <time>2022-03-23T10:58:14Z</time>
      </trkpt>
      <trkpt lat="42.950409" lon="-2.310760">
        <ele>846.00</ele>
        <time>2022-03-23T10:58:18Z</time>
      </trkpt>
      <trkpt lat="42.950363" lon="-2.310720">
        <ele>846.80</ele>
        <time>2022-03-23T10:58:23Z</time>
      </trkpt>
      <trkpt lat="42.950343" lon="-2.310665">
        <ele>846.10</ele>
        <time>2022-03-23T10:58:26Z</time>
      </trkpt>
      <trkpt lat="42.950338" lon="-2.310597">
        <ele>844.90</ele>
        <time>2022-03-23T10:58:30Z</time>
      </trkpt>
      <trkpt lat="42.950315" lon="-2.310541">
        <ele>844.40</ele>
        <time>2022-03-23T10:58:34Z</time>
      </trkpt>
      <trkpt lat="42.950296" lon="-2.310485">
        <ele>844.20</ele>
        <time>2022-03-23T10:58:38Z</time>
      </trkpt>
      <trkpt lat="42.950273" lon="-2.310428">
        <ele>844.40</ele>
        <time>2022-03-23T10:58:41Z</time>
      </trkpt>
      <trkpt lat="42.950249" lon="-2.310368">
        <ele>844.70</ele>
        <time>2022-03-23T10:58:45Z</time>
      </trkpt>
      <trkpt lat="42.950227" lon="-2.310303">
        <ele>845.00</ele>
        <time>2022-03-23T10:58:50Z</time>
      </trkpt>
      <trkpt lat="42.950200" lon="-2.310229">
        <ele>845.20</ele>
        <time>2022-03-23T10:58:54Z</time>
      </trkpt>
      <trkpt lat="42.950179" lon="-2.310166">
        <ele>845.10</ele>
        <time>2022-03-23T10:58:59Z</time>
      </trkpt>
      <trkpt lat="42.950153" lon="-2.310102">
        <ele>845.40</ele>
        <time>2022-03-23T10:59:03Z</time>
      </trkpt>
      <trkpt lat="42.950128" lon="-2.310045">
        <ele>845.90</ele>
        <time>2022-03-23T10:59:07Z</time>
      </trkpt>
      <trkpt lat="42.950100" lon="-2.309988">
        <ele>846.30</ele>
        <time>2022-03-23T10:59:11Z</time>
      </trkpt>
      <trkpt lat="42.950077" lon="-2.309924">
        <ele>846.40</ele>
        <time>2022-03-23T10:59:15Z</time>
      </trkpt>
      <trkpt lat="42.950045" lon="-2.309863">
        <ele>847.30</ele>
        <time>2022-03-23T10:59:19Z</time>
      </trkpt>
      <trkpt lat="42.950009" lon="-2.309797">
        <ele>848.50</ele>
        <time>2022-03-23T10:59:24Z</time>
      </trkpt>
      <trkpt lat="42.949985" lon="-2.309745">
        <ele>849.00</ele>
        <time>2022-03-23T10:59:28Z</time>
      </trkpt>
      <trkpt lat="42.949962" lon="-2.309682">
        <ele>849.10</ele>
        <time>2022-03-23T10:59:32Z</time>
      </trkpt>
      <trkpt lat="42.949940" lon="-2.309619">
        <ele>849.10</ele>
        <time>2022-03-23T10:59:36Z</time>
      </trkpt>
      <trkpt lat="42.949917" lon="-2.309552">
        <ele>849.10</ele>
        <time>2022-03-23T10:59:40Z</time>
      </trkpt>
      <trkpt lat="42.949899" lon="-2.309489">
        <ele>848.90</ele>
        <time>2022-03-23T10:59:44Z</time>
      </trkpt>
      <trkpt lat="42.949868" lon="-2.309424">
        <ele>849.30</ele>
        <time>2022-03-23T10:59:49Z</time>
      </trkpt>
      <trkpt lat="42.949835" lon="-2.309361">
        <ele>849.70</ele>
        <time>2022-03-23T10:59:53Z</time>
      </trkpt>
      <trkpt lat="42.949810" lon="-2.309309">
        <ele>850.10</ele>
        <time>2022-03-23T10:59:57Z</time>
      </trkpt>
      <trkpt lat="42.949783" lon="-2.309253">
        <ele>850.40</ele>
        <time>2022-03-23T11:00:01Z</time>
      </trkpt>
      <trkpt lat="42.949763" lon="-2.309195">
        <ele>850.30</ele>
        <time>2022-03-23T11:00:05Z</time>
      </trkpt>
      <trkpt lat="42.949747" lon="-2.309134">
        <ele>850.20</ele>
        <time>2022-03-23T11:00:08Z</time>
      </trkpt>
      <trkpt lat="42.949740" lon="-2.309069">
        <ele>849.60</ele>
        <time>2022-03-23T11:00:12Z</time>
      </trkpt>
      <trkpt lat="42.949733" lon="-2.308999">
        <ele>849.00</ele>
        <time>2022-03-23T11:00:16Z</time>
      </trkpt>
      <trkpt lat="42.949720" lon="-2.308933">
        <ele>848.80</ele>
        <time>2022-03-23T11:00:20Z</time>
      </trkpt>
      <trkpt lat="42.949702" lon="-2.308875">
        <ele>848.80</ele>
        <time>2022-03-23T11:00:24Z</time>
      </trkpt>
      <trkpt lat="42.949682" lon="-2.308818">
        <ele>849.20</ele>
        <time>2022-03-23T11:00:28Z</time>
      </trkpt>
      <trkpt lat="42.949657" lon="-2.308766">
        <ele>849.70</ele>
        <time>2022-03-23T11:00:31Z</time>
      </trkpt>
      <trkpt lat="42.949613" lon="-2.308727">
        <ele>850.80</ele>
        <time>2022-03-23T11:00:36Z</time>
      </trkpt>
      <trkpt lat="42.949565" lon="-2.308706">
        <ele>852.00</ele>
        <time>2022-03-23T11:00:40Z</time>
      </trkpt>
      <trkpt lat="42.949517" lon="-2.308692">
        <ele>853.20</ele>
        <time>2022-03-23T11:00:44Z</time>
      </trkpt>
      <trkpt lat="42.949467" lon="-2.308694">
        <ele>854.60</ele>
        <time>2022-03-23T11:00:48Z</time>
      </trkpt>
      <trkpt lat="42.949420" lon="-2.308713">
        <ele>855.50</ele>
        <time>2022-03-23T11:00:52Z</time>
      </trkpt>
      <trkpt lat="42.949369" lon="-2.308736">
        <ele>855.80</ele>
        <time>2022-03-23T11:00:56Z</time>
      </trkpt>
      <trkpt lat="42.949320" lon="-2.308763">
        <ele>856.20</ele>
        <time>2022-03-23T11:01:00Z</time>
      </trkpt>
      <trkpt lat="42.949283" lon="-2.308811">
        <ele>856.90</ele>
        <time>2022-03-23T11:01:04Z</time>
      </trkpt>
      <trkpt lat="42.949257" lon="-2.308864">
        <ele>857.70</ele>
        <time>2022-03-23T11:01:08Z</time>
      </trkpt>
      <trkpt lat="42.949223" lon="-2.308927">
        <ele>858.60</ele>
        <time>2022-03-23T11:01:13Z</time>
      </trkpt>
      <trkpt lat="42.949196" lon="-2.308978">
        <ele>859.20</ele>
        <time>2022-03-23T11:01:16Z</time>
      </trkpt>
      <trkpt lat="42.949166" lon="-2.309032">
        <ele>860.00</ele>
        <time>2022-03-23T11:01:20Z</time>
      </trkpt>
      <trkpt lat="42.949134" lon="-2.309088">
        <ele>860.00</ele>
        <time>2022-03-23T11:01:24Z</time>
      </trkpt>
      <trkpt lat="42.949097" lon="-2.309149">
        <ele>860.10</ele>
        <time>2022-03-23T11:01:29Z</time>
      </trkpt>
      <trkpt lat="42.949061" lon="-2.309206">
        <ele>859.80</ele>
        <time>2022-03-23T11:01:33Z</time>
      </trkpt>
      <trkpt lat="42.949029" lon="-2.309260">
        <ele>859.70</ele>
        <time>2022-03-23T11:01:37Z</time>
      </trkpt>
      <trkpt lat="42.949002" lon="-2.309311">
        <ele>859.80</ele>
        <time>2022-03-23T11:01:41Z</time>
      </trkpt>
      <trkpt lat="42.948970" lon="-2.309361">
        <ele>860.00</ele>
        <time>2022-03-23T11:01:45Z</time>
      </trkpt>
      <trkpt lat="42.948926" lon="-2.309406">
        <ele>859.90</ele>
        <time>2022-03-23T11:01:49Z</time>
      </trkpt>
      <trkpt lat="42.948886" lon="-2.309455">
        <ele>860.10</ele>
        <time>2022-03-23T11:01:54Z</time>
      </trkpt>
      <trkpt lat="42.948834" lon="-2.309506">
        <ele>859.90</ele>
        <time>2022-03-23T11:01:59Z</time>
      </trkpt>
      <trkpt lat="42.948793" lon="-2.309555">
        <ele>859.80</ele>
        <time>2022-03-23T11:02:03Z</time>
      </trkpt>
      <trkpt lat="42.948761" lon="-2.309605">
        <ele>860.30</ele>
        <time>2022-03-23T11:02:07Z</time>
      </trkpt>
      <trkpt lat="42.948731" lon="-2.309654">
        <ele>860.80</ele>
        <time>2022-03-23T11:02:11Z</time>
      </trkpt>
      <trkpt lat="42.948690" lon="-2.309702">
        <ele>861.00</ele>
        <time>2022-03-23T11:02:15Z</time>
      </trkpt>
      <trkpt lat="42.948645" lon="-2.309752">
        <ele>861.30</ele>
        <time>2022-03-23T11:02:20Z</time>
      </trkpt>
      <trkpt lat="42.948603" lon="-2.309798">
        <ele>861.50</ele>
        <time>2022-03-23T11:02:24Z</time>
      </trkpt>
      <trkpt lat="42.948563" lon="-2.309840">
        <ele>861.70</ele>
        <time>2022-03-23T11:02:28Z</time>
      </trkpt>
      <trkpt lat="42.948523" lon="-2.309884">
        <ele>861.90</ele>
        <time>2022-03-23T11:02:32Z</time>
      </trkpt>
      <trkpt lat="42.948486" lon="-2.309927">
        <ele>862.30</ele>
        <time>2022-03-23T11:02:36Z</time>
      </trkpt>
      <trkpt lat="42.948442" lon="-2.309978">
        <ele>862.50</ele>
        <time>2022-03-23T11:02:41Z</time>
      </trkpt>
      <trkpt lat="42.948398" lon="-2.310009">
        <ele>862.40</ele>
        <time>2022-03-23T11:02:45Z</time>
      </trkpt>
      <trkpt lat="42.948350" lon="-2.310027">
        <ele>862.20</ele>
        <time>2022-03-23T11:02:49Z</time>
      </trkpt>
      <trkpt lat="42.948302" lon="-2.310044">
        <ele>862.20</ele>
        <time>2022-03-23T11:02:53Z</time>
      </trkpt>
      <trkpt lat="42.948255" lon="-2.310054">
        <ele>862.10</ele>
        <time>2022-03-23T11:02:57Z</time>
      </trkpt>
      <trkpt lat="42.948198" lon="-2.310061">
        <ele>861.90</ele>
        <time>2022-03-23T11:03:01Z</time>
      </trkpt>
      <trkpt lat="42.948152" lon="-2.310063">
        <ele>861.80</ele>
        <time>2022-03-23T11:03:05Z</time>
      </trkpt>
      <trkpt lat="42.948097" lon="-2.310074">
        <ele>861.80</ele>
        <time>2022-03-23T11:03:09Z</time>
      </trkpt>
      <trkpt lat="42.948040" lon="-2.310083">
        <ele>861.50</ele>
        <time>2022-03-23T11:03:14Z</time>
      </trkpt>
      <trkpt lat="42.947989" lon="-2.310088">
        <ele>860.70</ele>
        <time>2022-03-23T11:03:18Z</time>
      </trkpt>
      <trkpt lat="42.947938" lon="-2.310104">
        <ele>860.40</ele>
        <time>2022-03-23T11:03:22Z</time>
      </trkpt>
      <trkpt lat="42.947897" lon="-2.310142">
        <ele>860.70</ele>
        <time>2022-03-23T11:03:26Z</time>
      </trkpt>
      <trkpt lat="42.947852" lon="-2.310172">
        <ele>860.90</ele>
        <time>2022-03-23T11:03:30Z</time>
      </trkpt>
      <trkpt lat="42.947796" lon="-2.310181">
        <ele>860.20</ele>
        <time>2022-03-23T11:03:35Z</time>
      </trkpt>
      <trkpt lat="42.947741" lon="-2.310190">
        <ele>860.50</ele>
        <time>2022-03-23T11:03:39Z</time>
      </trkpt>
      <trkpt lat="42.947695" lon="-2.310161">
        <ele>860.10</ele>
        <time>2022-03-23T11:03:43Z</time>
      </trkpt>
      <trkpt lat="42.947652" lon="-2.310111">
        <ele>859.20</ele>
        <time>2022-03-23T11:03:48Z</time>
      </trkpt>
      <trkpt lat="42.947618" lon="-2.310067">
        <ele>858.50</ele>
        <time>2022-03-23T11:03:51Z</time>
      </trkpt>
      <trkpt lat="42.947588" lon="-2.309995">
        <ele>857.40</ele>
        <time>2022-03-23T11:03:56Z</time>
      </trkpt>
      <trkpt lat="42.947566" lon="-2.309934">
        <ele>857.00</ele>
        <time>2022-03-23T11:04:00Z</time>
      </trkpt>
      <trkpt lat="42.947530" lon="-2.309864">
        <ele>856.80</ele>
        <time>2022-03-23T11:04:05Z</time>
      </trkpt>
      <trkpt lat="42.947498" lon="-2.309820">
        <ele>857.10</ele>
        <time>2022-03-23T11:04:09Z</time>
      </trkpt>
      <trkpt lat="42.947460" lon="-2.309768">
        <ele>857.60</ele>
        <time>2022-03-23T11:04:13Z</time>
      </trkpt>
      <trkpt lat="42.947429" lon="-2.309722">
        <ele>857.50</ele>
        <time>2022-03-23T11:04:17Z</time>
      </trkpt>
      <trkpt lat="42.947396" lon="-2.309678">
        <ele>857.40</ele>
        <time>2022-03-23T11:04:21Z</time>
      </trkpt>
      <trkpt lat="42.947363" lon="-2.309615">
        <ele>856.80</ele>
        <time>2022-03-23T11:04:25Z</time>
      </trkpt>
      <trkpt lat="42.947322" lon="-2.309582">
        <ele>857.00</ele>
        <time>2022-03-23T11:04:29Z</time>
      </trkpt>
      <trkpt lat="42.947261" lon="-2.309577">
        <ele>858.20</ele>
        <time>2022-03-23T11:04:34Z</time>
      </trkpt>
      <trkpt lat="42.947213" lon="-2.309543">
        <ele>858.30</ele>
        <time>2022-03-23T11:04:38Z</time>
      </trkpt>
      <trkpt lat="42.947174" lon="-2.309498">
        <ele>858.10</ele>
        <time>2022-03-23T11:04:42Z</time>
      </trkpt>
      <trkpt lat="42.947139" lon="-2.309450">
        <ele>858.00</ele>
        <time>2022-03-23T11:04:46Z</time>
      </trkpt>
      <trkpt lat="42.947108" lon="-2.309403">
        <ele>858.30</ele>
        <time>2022-03-23T11:04:50Z</time>
      </trkpt>
      <trkpt lat="42.947077" lon="-2.309350">
        <ele>858.60</ele>
        <time>2022-03-23T11:04:54Z</time>
      </trkpt>
      <trkpt lat="42.947043" lon="-2.309296">
        <ele>859.10</ele>
        <time>2022-03-23T11:04:58Z</time>
      </trkpt>
      <trkpt lat="42.947009" lon="-2.309237">
        <ele>859.30</ele>
        <time>2022-03-23T11:05:02Z</time>
      </trkpt>
      <trkpt lat="42.946980" lon="-2.309187">
        <ele>859.50</ele>
        <time>2022-03-23T11:05:06Z</time>
      </trkpt>
      <trkpt lat="42.946946" lon="-2.309134">
        <ele>859.70</ele>
        <time>2022-03-23T11:05:10Z</time>
      </trkpt>
      <trkpt lat="42.946916" lon="-2.309083">
        <ele>859.80</ele>
        <time>2022-03-23T11:05:14Z</time>
      </trkpt>
      <trkpt lat="42.946871" lon="-2.309028">
        <ele>860.20</ele>
        <time>2022-03-23T11:05:19Z</time>
      </trkpt>
      <trkpt lat="42.946826" lon="-2.309008">
        <ele>860.60</ele>
        <time>2022-03-23T11:05:23Z</time>
      </trkpt>
      <trkpt lat="42.946778" lon="-2.308998">
        <ele>861.20</ele>
        <time>2022-03-23T11:05:27Z</time>
      </trkpt>
      <trkpt lat="42.946728" lon="-2.309001">
        <ele>861.90</ele>
        <time>2022-03-23T11:05:31Z</time>
      </trkpt>
      <trkpt lat="42.946683" lon="-2.309010">
        <ele>862.60</ele>
        <time>2022-03-23T11:05:34Z</time>
      </trkpt>
      <trkpt lat="42.946630" lon="-2.309018">
        <ele>863.40</ele>
        <time>2022-03-23T11:05:39Z</time>
      </trkpt>
      <trkpt lat="42.946573" lon="-2.309010">
        <ele>864.20</ele>
        <time>2022-03-23T11:05:43Z</time>
      </trkpt>
      <trkpt lat="42.946526" lon="-2.308998">
        <ele>864.80</ele>
        <time>2022-03-23T11:05:47Z</time>
      </trkpt>
      <trkpt lat="42.946478" lon="-2.308986">
        <ele>865.50</ele>
        <time>2022-03-23T11:05:51Z</time>
      </trkpt>
      <trkpt lat="42.946430" lon="-2.308971">
        <ele>865.80</ele>
        <time>2022-03-23T11:05:55Z</time>
      </trkpt>
      <trkpt lat="42.946379" lon="-2.308954">
        <ele>866.30</ele>
        <time>2022-03-23T11:05:59Z</time>
      </trkpt>
      <trkpt lat="42.946324" lon="-2.308931">
        <ele>866.30</ele>
        <time>2022-03-23T11:06:04Z</time>
      </trkpt>
      <trkpt lat="42.946275" lon="-2.308906">
        <ele>866.20</ele>
        <time>2022-03-23T11:06:08Z</time>
      </trkpt>
      <trkpt lat="42.946218" lon="-2.308887">
        <ele>866.30</ele>
        <time>2022-03-23T11:06:12Z</time>
      </trkpt>
      <trkpt lat="42.946166" lon="-2.308884">
        <ele>866.60</ele>
        <time>2022-03-23T11:06:17Z</time>
      </trkpt>
      <trkpt lat="42.946109" lon="-2.308908">
        <ele>867.50</ele>
        <time>2022-03-23T11:06:21Z</time>
      </trkpt>
      <trkpt lat="42.946069" lon="-2.308938">
        <ele>868.90</ele>
        <time>2022-03-23T11:06:25Z</time>
      </trkpt>
      <trkpt lat="42.946016" lon="-2.308962">
        <ele>870.20</ele>
        <time>2022-03-23T11:06:30Z</time>
      </trkpt>
      <trkpt lat="42.945967" lon="-2.308967">
        <ele>871.10</ele>
        <time>2022-03-23T11:06:33Z</time>
      </trkpt>
      <trkpt lat="42.945925" lon="-2.308937">
        <ele>871.30</ele>
        <time>2022-03-23T11:06:37Z</time>
      </trkpt>
      <trkpt lat="42.945898" lon="-2.308875">
        <ele>870.80</ele>
        <time>2022-03-23T11:06:41Z</time>
      </trkpt>
      <trkpt lat="42.945863" lon="-2.308836">
        <ele>870.90</ele>
        <time>2022-03-23T11:06:45Z</time>
      </trkpt>
      <trkpt lat="42.945830" lon="-2.308780">
        <ele>871.00</ele>
        <time>2022-03-23T11:06:49Z</time>
      </trkpt>
      <trkpt lat="42.945811" lon="-2.308717">
        <ele>871.20</ele>
        <time>2022-03-23T11:06:53Z</time>
      </trkpt>
      <trkpt lat="42.945790" lon="-2.308654">
        <ele>871.40</ele>
        <time>2022-03-23T11:06:57Z</time>
      </trkpt>
      <trkpt lat="42.945763" lon="-2.308592">
        <ele>871.80</ele>
        <time>2022-03-23T11:07:02Z</time>
      </trkpt>
      <trkpt lat="42.945733" lon="-2.308534">
        <ele>872.00</ele>
        <time>2022-03-23T11:07:06Z</time>
      </trkpt>
      <trkpt lat="42.945703" lon="-2.308478">
        <ele>872.30</ele>
        <time>2022-03-23T11:07:10Z</time>
      </trkpt>
      <trkpt lat="42.945661" lon="-2.308439">
        <ele>873.30</ele>
        <time>2022-03-23T11:07:14Z</time>
      </trkpt>
      <trkpt lat="42.945620" lon="-2.308412">
        <ele>874.20</ele>
        <time>2022-03-23T11:07:18Z</time>
      </trkpt>
      <trkpt lat="42.945585" lon="-2.308347">
        <ele>874.20</ele>
        <time>2022-03-23T11:07:22Z</time>
      </trkpt>
      <trkpt lat="42.945550" lon="-2.308279">
        <ele>874.30</ele>
        <time>2022-03-23T11:07:27Z</time>
      </trkpt>
      <trkpt lat="42.945510" lon="-2.308211">
        <ele>874.40</ele>
        <time>2022-03-23T11:07:32Z</time>
      </trkpt>
      <trkpt lat="42.945465" lon="-2.308172">
        <ele>874.80</ele>
        <time>2022-03-23T11:07:37Z</time>
      </trkpt>
      <trkpt lat="42.945420" lon="-2.308158">
        <ele>875.70</ele>
        <time>2022-03-23T11:07:40Z</time>
      </trkpt>
      <trkpt lat="42.945366" lon="-2.308141">
        <ele>876.80</ele>
        <time>2022-03-23T11:07:45Z</time>
      </trkpt>
      <trkpt lat="42.945323" lon="-2.308121">
        <ele>877.60</ele>
        <time>2022-03-23T11:07:48Z</time>
      </trkpt>
      <trkpt lat="42.945275" lon="-2.308085">
        <ele>878.50</ele>
        <time>2022-03-23T11:07:53Z</time>
      </trkpt>
      <trkpt lat="42.945233" lon="-2.308051">
        <ele>878.50</ele>
        <time>2022-03-23T11:07:57Z</time>
      </trkpt>
      <trkpt lat="42.945190" lon="-2.308031">
        <ele>878.90</ele>
        <time>2022-03-23T11:08:00Z</time>
      </trkpt>
      <trkpt lat="42.945147" lon="-2.308012">
        <ele>879.00</ele>
        <time>2022-03-23T11:08:04Z</time>
      </trkpt>
      <trkpt lat="42.945094" lon="-2.307982">
        <ele>879.20</ele>
        <time>2022-03-23T11:08:08Z</time>
      </trkpt>
      <trkpt lat="42.945039" lon="-2.307953">
        <ele>879.50</ele>
        <time>2022-03-23T11:08:13Z</time>
      </trkpt>
      <trkpt lat="42.944993" lon="-2.307931">
        <ele>879.90</ele>
        <time>2022-03-23T11:08:17Z</time>
      </trkpt>
      <trkpt lat="42.944933" lon="-2.307911">
        <ele>880.50</ele>
        <time>2022-03-23T11:08:22Z</time>
      </trkpt>
      <trkpt lat="42.944874" lon="-2.307889">
        <ele>880.80</ele>
        <time>2022-03-23T11:08:27Z</time>
      </trkpt>
      <trkpt lat="42.944819" lon="-2.307870">
        <ele>881.30</ele>
        <time>2022-03-23T11:08:31Z</time>
      </trkpt>
      <trkpt lat="42.944765" lon="-2.307858">
        <ele>881.80</ele>
        <time>2022-03-23T11:08:36Z</time>
      </trkpt>
      <trkpt lat="42.944714" lon="-2.307846">
        <ele>882.40</ele>
        <time>2022-03-23T11:08:40Z</time>
      </trkpt>
      <trkpt lat="42.944664" lon="-2.307831">
        <ele>882.70</ele>
        <time>2022-03-23T11:08:44Z</time>
      </trkpt>
      <trkpt lat="42.944614" lon="-2.307814">
        <ele>883.00</ele>
        <time>2022-03-23T11:08:48Z</time>
      </trkpt>
      <trkpt lat="42.944564" lon="-2.307807">
        <ele>883.30</ele>
        <time>2022-03-23T11:08:52Z</time>
      </trkpt>
      <trkpt lat="42.944518" lon="-2.307799">
        <ele>883.70</ele>
        <time>2022-03-23T11:08:56Z</time>
      </trkpt>
      <trkpt lat="42.944461" lon="-2.307781">
        <ele>884.00</ele>
        <time>2022-03-23T11:09:01Z</time>
      </trkpt>
      <trkpt lat="42.944410" lon="-2.307770">
        <ele>883.30</ele>
        <time>2022-03-23T11:09:05Z</time>
      </trkpt>
      <trkpt lat="42.944364" lon="-2.307773">
        <ele>882.50</ele>
        <time>2022-03-23T11:09:08Z</time>
      </trkpt>
      <trkpt lat="42.944314" lon="-2.307792">
        <ele>881.90</ele>
        <time>2022-03-23T11:09:13Z</time>
      </trkpt>
      <trkpt lat="42.944267" lon="-2.307798">
        <ele>881.20</ele>
        <time>2022-03-23T11:09:16Z</time>
      </trkpt>
      <trkpt lat="42.944228" lon="-2.307833">
        <ele>880.70</ele>
        <time>2022-03-23T11:09:20Z</time>
      </trkpt>
      <trkpt lat="42.944195" lon="-2.307883">
        <ele>880.40</ele>
        <time>2022-03-23T11:09:24Z</time>
      </trkpt>
      <trkpt lat="42.944184" lon="-2.307954">
        <ele>880.80</ele>
        <time>2022-03-23T11:09:28Z</time>
      </trkpt>
      <trkpt lat="42.944179" lon="-2.308025">
        <ele>881.30</ele>
        <time>2022-03-23T11:09:32Z</time>
      </trkpt>
      <trkpt lat="42.944165" lon="-2.308092">
        <ele>881.40</ele>
        <time>2022-03-23T11:09:37Z</time>
      </trkpt>
      <trkpt lat="42.944149" lon="-2.308155">
        <ele>881.70</ele>
        <time>2022-03-23T11:09:40Z</time>
      </trkpt>
      <trkpt lat="42.944136" lon="-2.308217">
        <ele>881.80</ele>
        <time>2022-03-23T11:09:44Z</time>
      </trkpt>
      <trkpt lat="42.944133" lon="-2.308289">
        <ele>882.70</ele>
        <time>2022-03-23T11:09:48Z</time>
      </trkpt>
      <trkpt lat="42.944123" lon="-2.308361">
        <ele>883.20</ele>
        <time>2022-03-23T11:09:53Z</time>
      </trkpt>
      <trkpt lat="42.944112" lon="-2.308438">
        <ele>883.90</ele>
        <time>2022-03-23T11:09:57Z</time>
      </trkpt>
      <trkpt lat="42.944106" lon="-2.308500">
        <ele>884.60</ele>
        <time>2022-03-23T11:10:01Z</time>
      </trkpt>
      <trkpt lat="42.944103" lon="-2.308561">
        <ele>885.50</ele>
        <time>2022-03-23T11:10:05Z</time>
      </trkpt>
      <trkpt lat="42.944095" lon="-2.308641">
        <ele>886.50</ele>
        <time>2022-03-23T11:10:09Z</time>
      </trkpt>
      <trkpt lat="42.944088" lon="-2.308703">
        <ele>887.40</ele>
        <time>2022-03-23T11:10:13Z</time>
      </trkpt>
      <trkpt lat="42.944082" lon="-2.308776">
        <ele>888.70</ele>
        <time>2022-03-23T11:10:17Z</time>
      </trkpt>
      <trkpt lat="42.944082" lon="-2.308841">
        <ele>890.10</ele>
        <time>2022-03-23T11:10:21Z</time>
      </trkpt>
      <trkpt lat="42.944065" lon="-2.308898">
        <ele>890.60</ele>
        <time>2022-03-23T11:10:25Z</time>
      </trkpt>
      <trkpt lat="42.944035" lon="-2.308966">
        <ele>891.30</ele>
        <time>2022-03-23T11:10:29Z</time>
      </trkpt>
      <trkpt lat="42.943992" lon="-2.309011">
        <ele>890.80</ele>
        <time>2022-03-23T11:10:34Z</time>
      </trkpt>
      <trkpt lat="42.943942" lon="-2.309038">
        <ele>889.50</ele>
        <time>2022-03-23T11:10:38Z</time>
      </trkpt>
      <trkpt lat="42.943916" lon="-2.309088">
        <ele>890.30</ele>
        <time>2022-03-23T11:10:42Z</time>
      </trkpt>
      <trkpt lat="42.943899" lon="-2.309155">
        <ele>892.00</ele>
        <time>2022-03-23T11:10:46Z</time>
      </trkpt>
      <trkpt lat="42.943873" lon="-2.309221">
        <ele>893.70</ele>
        <time>2022-03-23T11:10:50Z</time>
      </trkpt>
      <trkpt lat="42.943838" lon="-2.309266">
        <ele>894.70</ele>
        <time>2022-03-23T11:10:54Z</time>
      </trkpt>
      <trkpt lat="42.943805" lon="-2.309310">
        <ele>896.00</ele>
        <time>2022-03-23T11:10:58Z</time>
      </trkpt>
      <trkpt lat="42.943762" lon="-2.309338">
        <ele>896.60</ele>
        <time>2022-03-23T11:11:01Z</time>
      </trkpt>
      <trkpt lat="42.943720" lon="-2.309370">
        <ele>897.50</ele>
        <time>2022-03-23T11:11:05Z</time>
      </trkpt>
      <trkpt lat="42.943673" lon="-2.309415">
        <ele>899.20</ele>
        <time>2022-03-23T11:11:10Z</time>
      </trkpt>
      <trkpt lat="42.943629" lon="-2.309451">
        <ele>900.60</ele>
        <time>2022-03-23T11:11:14Z</time>
      </trkpt>
      <trkpt lat="42.943585" lon="-2.309488">
        <ele>902.40</ele>
        <time>2022-03-23T11:11:18Z</time>
      </trkpt>
      <trkpt lat="42.943536" lon="-2.309503">
        <ele>902.80</ele>
        <time>2022-03-23T11:11:22Z</time>
      </trkpt>
      <trkpt lat="42.943488" lon="-2.309502">
        <ele>902.10</ele>
        <time>2022-03-23T11:11:26Z</time>
      </trkpt>
      <trkpt lat="42.943438" lon="-2.309505">
        <ele>901.60</ele>
        <time>2022-03-23T11:11:30Z</time>
      </trkpt>
      <trkpt lat="42.943388" lon="-2.309543">
        <ele>903.10</ele>
        <time>2022-03-23T11:11:35Z</time>
      </trkpt>
      <trkpt lat="42.943344" lon="-2.309566">
        <ele>903.70</ele>
        <time>2022-03-23T11:11:38Z</time>
      </trkpt>
      <trkpt lat="42.943300" lon="-2.309595">
        <ele>904.70</ele>
        <time>2022-03-23T11:11:42Z</time>
      </trkpt>
      <trkpt lat="42.943260" lon="-2.309624">
        <ele>905.60</ele>
        <time>2022-03-23T11:11:46Z</time>
      </trkpt>
      <trkpt lat="42.943205" lon="-2.309649">
        <ele>906.00</ele>
        <time>2022-03-23T11:11:51Z</time>
      </trkpt>
      <trkpt lat="42.943149" lon="-2.309670">
        <ele>906.20</ele>
        <time>2022-03-23T11:11:55Z</time>
      </trkpt>
      <trkpt lat="42.943103" lon="-2.309709">
        <ele>907.20</ele>
        <time>2022-03-23T11:12:00Z</time>
      </trkpt>
      <trkpt lat="42.943069" lon="-2.309756">
        <ele>909.00</ele>
        <time>2022-03-23T11:12:03Z</time>
      </trkpt>
      <trkpt lat="42.943038" lon="-2.309812">
        <ele>910.80</ele>
        <time>2022-03-23T11:12:08Z</time>
      </trkpt>
      <trkpt lat="42.943013" lon="-2.309866">
        <ele>912.70</ele>
        <time>2022-03-23T11:12:11Z</time>
      </trkpt>
      <trkpt lat="42.942977" lon="-2.309931">
        <ele>914.40</ele>
        <time>2022-03-23T11:12:16Z</time>
      </trkpt>
      <trkpt lat="42.942936" lon="-2.309989">
        <ele>915.80</ele>
        <time>2022-03-23T11:12:21Z</time>
      </trkpt>
      <trkpt lat="42.942889" lon="-2.310042">
        <ele>916.70</ele>
        <time>2022-03-23T11:12:26Z</time>
      </trkpt>
      <trkpt lat="42.942850" lon="-2.310075">
        <ele>917.10</ele>
        <time>2022-03-23T11:12:29Z</time>
      </trkpt>
      <trkpt lat="42.942799" lon="-2.310112">
        <ele>917.20</ele>
        <time>2022-03-23T11:12:34Z</time>
      </trkpt>
      <trkpt lat="42.942747" lon="-2.310138">
        <ele>917.90</ele>
        <time>2022-03-23T11:12:38Z</time>
      </trkpt>
      <trkpt lat="42.942696" lon="-2.310162">
        <ele>919.20</ele>
        <time>2022-03-23T11:12:43Z</time>
      </trkpt>
      <trkpt lat="42.942653" lon="-2.310188">
        <ele>920.50</ele>
        <time>2022-03-23T11:12:46Z</time>
      </trkpt>
      <trkpt lat="42.942609" lon="-2.310221">
        <ele>922.30</ele>
        <time>2022-03-23T11:12:50Z</time>
      </trkpt>
      <trkpt lat="42.942557" lon="-2.310246">
        <ele>923.50</ele>
        <time>2022-03-23T11:12:55Z</time>
      </trkpt>
      <trkpt lat="42.942508" lon="-2.310257">
        <ele>923.90</ele>
        <time>2022-03-23T11:12:59Z</time>
      </trkpt>
      <trkpt lat="42.942454" lon="-2.310260">
        <ele>924.30</ele>
        <time>2022-03-23T11:13:03Z</time>
      </trkpt>
      <trkpt lat="42.942399" lon="-2.310254">
        <ele>924.10</ele>
        <time>2022-03-23T11:13:08Z</time>
      </trkpt>
      <trkpt lat="42.942346" lon="-2.310247">
        <ele>923.80</ele>
        <time>2022-03-23T11:13:12Z</time>
      </trkpt>
      <trkpt lat="42.942298" lon="-2.310228">
        <ele>922.90</ele>
        <time>2022-03-23T11:13:16Z</time>
      </trkpt>
      <trkpt lat="42.942247" lon="-2.310222">
        <ele>922.70</ele>
        <time>2022-03-23T11:13:20Z</time>
      </trkpt>
      <trkpt lat="42.942203" lon="-2.310197">
        <ele>921.70</ele>
        <time>2022-03-23T11:13:24Z</time>
      </trkpt>
      <trkpt lat="42.942158" lon="-2.310149">
        <ele>919.90</ele>
        <time>2022-03-23T11:13:28Z</time>
      </trkpt>
      <trkpt lat="42.942105" lon="-2.310123">
        <ele>919.40</ele>
        <time>2022-03-23T11:13:33Z</time>
      </trkpt>
      <trkpt lat="42.942053" lon="-2.310113">
        <ele>919.90</ele>
        <time>2022-03-23T11:13:37Z</time>
      </trkpt>
      <trkpt lat="42.942008" lon="-2.310128">
        <ele>921.70</ele>
        <time>2022-03-23T11:13:41Z</time>
      </trkpt>
      <trkpt lat="42.941962" lon="-2.310155">
        <ele>924.10</ele>
        <time>2022-03-23T11:13:45Z</time>
      </trkpt>
      <trkpt lat="42.941918" lon="-2.310174">
        <ele>925.60</ele>
        <time>2022-03-23T11:13:48Z</time>
      </trkpt>
      <trkpt lat="42.941873" lon="-2.310179">
        <ele>925.70</ele>
        <time>2022-03-23T11:13:52Z</time>
      </trkpt>
      <trkpt lat="42.941819" lon="-2.310186">
        <ele>926.00</ele>
        <time>2022-03-23T11:13:56Z</time>
      </trkpt>
      <trkpt lat="42.941767" lon="-2.310192">
        <ele>926.10</ele>
        <time>2022-03-23T11:14:01Z</time>
      </trkpt>
      <trkpt lat="42.941710" lon="-2.310200">
        <ele>926.40</ele>
        <time>2022-03-23T11:14:05Z</time>
      </trkpt>
      <trkpt lat="42.941658" lon="-2.310207">
        <ele>926.70</ele>
        <time>2022-03-23T11:14:09Z</time>
      </trkpt>
      <trkpt lat="42.941602" lon="-2.310196">
        <ele>927.30</ele>
        <time>2022-03-23T11:14:14Z</time>
      </trkpt>
      <trkpt lat="42.941557" lon="-2.310177">
        <ele>927.20</ele>
        <time>2022-03-23T11:14:18Z</time>
      </trkpt>
      <trkpt lat="42.941516" lon="-2.310148">
        <ele>926.70</ele>
        <time>2022-03-23T11:14:21Z</time>
      </trkpt>
      <trkpt lat="42.941462" lon="-2.310132">
        <ele>927.10</ele>
        <time>2022-03-23T11:14:26Z</time>
      </trkpt>
      <trkpt lat="42.941410" lon="-2.310130">
        <ele>928.20</ele>
        <time>2022-03-23T11:14:30Z</time>
      </trkpt>
      <trkpt lat="42.941358" lon="-2.310133">
        <ele>928.50</ele>
        <time>2022-03-23T11:14:34Z</time>
      </trkpt>
      <trkpt lat="42.941312" lon="-2.310164">
        <ele>929.60</ele>
        <time>2022-03-23T11:14:38Z</time>
      </trkpt>
      <trkpt lat="42.941274" lon="-2.310215">
        <ele>931.50</ele>
        <time>2022-03-23T11:14:43Z</time>
      </trkpt>
      <trkpt lat="42.941232" lon="-2.310258">
        <ele>933.00</ele>
        <time>2022-03-23T11:14:47Z</time>
      </trkpt>
      <trkpt lat="42.941178" lon="-2.310268">
        <ele>933.10</ele>
        <time>2022-03-23T11:14:51Z</time>
      </trkpt>
      <trkpt lat="42.941133" lon="-2.310257">
        <ele>932.40</ele>
        <time>2022-03-23T11:14:55Z</time>
      </trkpt>
      <trkpt lat="42.941083" lon="-2.310262">
        <ele>933.10</ele>
        <time>2022-03-23T11:14:59Z</time>
      </trkpt>
      <trkpt lat="42.941033" lon="-2.310274">
        <ele>934.70</ele>
        <time>2022-03-23T11:15:03Z</time>
      </trkpt>
      <trkpt lat="42.940983" lon="-2.310269">
        <ele>935.50</ele>
        <time>2022-03-23T11:15:07Z</time>
      </trkpt>
      <trkpt lat="42.940931" lon="-2.310249">
        <ele>936.20</ele>
        <time>2022-03-23T11:15:11Z</time>
      </trkpt>
      <trkpt lat="42.940892" lon="-2.310201">
        <ele>936.20</ele>
        <time>2022-03-23T11:15:15Z</time>
      </trkpt>
      <trkpt lat="42.940862" lon="-2.310147">
        <ele>936.20</ele>
        <time>2022-03-23T11:15:19Z</time>
      </trkpt>
      <trkpt lat="42.940834" lon="-2.310079">
        <ele>936.20</ele>
        <time>2022-03-23T11:15:24Z</time>
      </trkpt>
      <trkpt lat="42.940794" lon="-2.310031">
        <ele>937.40</ele>
        <time>2022-03-23T11:15:28Z</time>
      </trkpt>
      <trkpt lat="42.940762" lon="-2.309986">
        <ele>937.90</ele>
        <time>2022-03-23T11:15:32Z</time>
      </trkpt>
      <trkpt lat="42.940724" lon="-2.309939">
        <ele>938.10</ele>
        <time>2022-03-23T11:15:36Z</time>
      </trkpt>
      <trkpt lat="42.940673" lon="-2.309935">
        <ele>940.60</ele>
        <time>2022-03-23T11:15:40Z</time>
      </trkpt>
      <trkpt lat="42.940627" lon="-2.309924">
        <ele>942.50</ele>
        <time>2022-03-23T11:15:44Z</time>
      </trkpt>
      <trkpt lat="42.940583" lon="-2.309899">
        <ele>944.00</ele>
        <time>2022-03-23T11:15:48Z</time>
      </trkpt>
      <trkpt lat="42.940542" lon="-2.309853">
        <ele>945.00</ele>
        <time>2022-03-23T11:15:52Z</time>
      </trkpt>
      <trkpt lat="42.940505" lon="-2.309812">
        <ele>945.80</ele>
        <time>2022-03-23T11:15:56Z</time>
      </trkpt>
      <trkpt lat="42.940466" lon="-2.309764">
        <ele>946.60</ele>
        <time>2022-03-23T11:16:00Z</time>
      </trkpt>
      <trkpt lat="42.940430" lon="-2.309711">
        <ele>946.90</ele>
        <time>2022-03-23T11:16:04Z</time>
      </trkpt>
      <trkpt lat="42.940404" lon="-2.309651">
        <ele>946.40</ele>
        <time>2022-03-23T11:16:08Z</time>
      </trkpt>
      <trkpt lat="42.940381" lon="-2.309597">
        <ele>945.90</ele>
        <time>2022-03-23T11:16:12Z</time>
      </trkpt>
      <trkpt lat="42.940342" lon="-2.309556">
        <ele>946.90</ele>
        <time>2022-03-23T11:16:16Z</time>
      </trkpt>
      <trkpt lat="42.940304" lon="-2.309508">
        <ele>948.00</ele>
        <time>2022-03-23T11:16:20Z</time>
      </trkpt>
      <trkpt lat="42.940261" lon="-2.309455">
        <ele>949.20</ele>
        <time>2022-03-23T11:16:25Z</time>
      </trkpt>
      <trkpt lat="42.940218" lon="-2.309403">
        <ele>949.90</ele>
        <time>2022-03-23T11:16:29Z</time>
      </trkpt>
      <trkpt lat="42.940180" lon="-2.309364">
        <ele>950.70</ele>
        <time>2022-03-23T11:16:33Z</time>
      </trkpt>
      <trkpt lat="42.940138" lon="-2.309327">
        <ele>951.70</ele>
        <time>2022-03-23T11:16:37Z</time>
      </trkpt>
      <trkpt lat="42.940100" lon="-2.309292">
        <ele>952.90</ele>
        <time>2022-03-23T11:16:41Z</time>
      </trkpt>
      <trkpt lat="42.940052" lon="-2.309248">
        <ele>954.30</ele>
        <time>2022-03-23T11:16:45Z</time>
      </trkpt>
      <trkpt lat="42.940006" lon="-2.309216">
        <ele>956.10</ele>
        <time>2022-03-23T11:16:49Z</time>
      </trkpt>
      <trkpt lat="42.939953" lon="-2.309186">
        <ele>958.10</ele>
        <time>2022-03-23T11:16:54Z</time>
      </trkpt>
      <trkpt lat="42.939913" lon="-2.309153">
        <ele>959.40</ele>
        <time>2022-03-23T11:16:58Z</time>
      </trkpt>
      <trkpt lat="42.939864" lon="-2.309098">
        <ele>960.20</ele>
        <time>2022-03-23T11:17:03Z</time>
      </trkpt>
      <trkpt lat="42.939823" lon="-2.309057">
        <ele>961.00</ele>
        <time>2022-03-23T11:17:07Z</time>
      </trkpt>
      <trkpt lat="42.939776" lon="-2.309021">
        <ele>962.50</ele>
        <time>2022-03-23T11:17:11Z</time>
      </trkpt>
      <trkpt lat="42.939728" lon="-2.308980">
        <ele>963.70</ele>
        <time>2022-03-23T11:17:16Z</time>
      </trkpt>
      <trkpt lat="42.939687" lon="-2.308942">
        <ele>964.00</ele>
        <time>2022-03-23T11:17:20Z</time>
      </trkpt>
      <trkpt lat="42.939647" lon="-2.308906">
        <ele>964.30</ele>
        <time>2022-03-23T11:17:24Z</time>
      </trkpt>
      <trkpt lat="42.939594" lon="-2.308865">
        <ele>964.80</ele>
        <time>2022-03-23T11:17:28Z</time>
      </trkpt>
      <trkpt lat="42.939546" lon="-2.308830">
        <ele>965.50</ele>
        <time>2022-03-23T11:17:33Z</time>
      </trkpt>
      <trkpt lat="42.939494" lon="-2.308794">
        <ele>966.10</ele>
        <time>2022-03-23T11:17:37Z</time>
      </trkpt>
      <trkpt lat="42.939449" lon="-2.308761">
        <ele>966.70</ele>
        <time>2022-03-23T11:17:41Z</time>
      </trkpt>
      <trkpt lat="42.939397" lon="-2.308723">
        <ele>966.20</ele>
        <time>2022-03-23T11:17:46Z</time>
      </trkpt>
      <trkpt lat="42.939349" lon="-2.308705">
        <ele>966.00</ele>
        <time>2022-03-23T11:17:50Z</time>
      </trkpt>
      <trkpt lat="42.939286" lon="-2.308702">
        <ele>966.60</ele>
        <time>2022-03-23T11:17:55Z</time>
      </trkpt>
      <trkpt lat="42.939235" lon="-2.308700">
        <ele>966.90</ele>
        <time>2022-03-23T11:17:59Z</time>
      </trkpt>
      <trkpt lat="42.939181" lon="-2.308710">
        <ele>967.80</ele>
        <time>2022-03-23T11:18:04Z</time>
      </trkpt>
      <trkpt lat="42.939136" lon="-2.308736">
        <ele>968.20</ele>
        <time>2022-03-23T11:18:08Z</time>
      </trkpt>
      <trkpt lat="42.939091" lon="-2.308732">
        <ele>967.60</ele>
        <time>2022-03-23T11:18:11Z</time>
      </trkpt>
      <trkpt lat="42.939055" lon="-2.308692">
        <ele>966.30</ele>
        <time>2022-03-23T11:18:15Z</time>
      </trkpt>
      <trkpt lat="42.939056" lon="-2.308754">
        <ele>967.60</ele>
        <time>2022-03-23T11:18:19Z</time>
      </trkpt>
      <trkpt lat="42.939005" lon="-2.308779">
        <ele>967.10</ele>
        <time>2022-03-23T11:18:23Z</time>
      </trkpt>
      <trkpt lat="42.938955" lon="-2.308787">
        <ele>966.40</ele>
        <time>2022-03-23T11:18:27Z</time>
      </trkpt>
      <trkpt lat="42.938937" lon="-2.308843">
        <ele>966.70</ele>
        <time>2022-03-23T11:18:31Z</time>
      </trkpt>
      <trkpt lat="42.938923" lon="-2.308906">
        <ele>967.30</ele>
        <time>2022-03-23T11:18:34Z</time>
      </trkpt>
      <trkpt lat="42.938920" lon="-2.308971">
        <ele>968.60</ele>
        <time>2022-03-23T11:18:38Z</time>
      </trkpt>
      <trkpt lat="42.938930" lon="-2.309032">
        <ele>970.10</ele>
        <time>2022-03-23T11:18:42Z</time>
      </trkpt>
      <trkpt lat="42.938947" lon="-2.309093">
        <ele>972.00</ele>
        <time>2022-03-23T11:18:46Z</time>
      </trkpt>
      <trkpt lat="42.938917" lon="-2.309143">
        <ele>972.30</ele>
        <time>2022-03-23T11:18:49Z</time>
      </trkpt>
      <trkpt lat="42.938927" lon="-2.309211">
        <ele>974.30</ele>
        <time>2022-03-23T11:18:54Z</time>
      </trkpt>
      <trkpt lat="42.938929" lon="-2.309277">
        <ele>976.20</ele>
        <time>2022-03-23T11:18:57Z</time>
      </trkpt>
      <trkpt lat="42.938915" lon="-2.309346">
        <ele>977.90</ele>
        <time>2022-03-23T11:19:02Z</time>
      </trkpt>
      <trkpt lat="42.938892" lon="-2.309408">
        <ele>979.00</ele>
        <time>2022-03-23T11:19:06Z</time>
      </trkpt>
      <trkpt lat="42.938886" lon="-2.309474">
        <ele>980.60</ele>
        <time>2022-03-23T11:19:10Z</time>
      </trkpt>
      <trkpt lat="42.938919" lon="-2.309523">
        <ele>982.80</ele>
        <time>2022-03-23T11:19:13Z</time>
      </trkpt>
      <trkpt lat="42.938928" lon="-2.309590">
        <ele>984.70</ele>
        <time>2022-03-23T11:19:17Z</time>
      </trkpt>
      <trkpt lat="42.938958" lon="-2.309653">
        <ele>987.30</ele>
        <time>2022-03-23T11:19:22Z</time>
      </trkpt>
      <trkpt lat="42.938992" lon="-2.309696">
        <ele>989.30</ele>
        <time>2022-03-23T11:19:26Z</time>
      </trkpt>
      <trkpt lat="42.939023" lon="-2.309747">
        <ele>991.50</ele>
        <time>2022-03-23T11:19:29Z</time>
      </trkpt>
      <trkpt lat="42.939050" lon="-2.309796">
        <ele>993.10</ele>
        <time>2022-03-23T11:19:33Z</time>
      </trkpt>
      <trkpt lat="42.939089" lon="-2.309839">
        <ele>995.20</ele>
        <time>2022-03-23T11:19:37Z</time>
      </trkpt>
      <trkpt lat="42.939092" lon="-2.309903">
        <ele>996.70</ele>
        <time>2022-03-23T11:19:41Z</time>
      </trkpt>
      <trkpt lat="42.939102" lon="-2.309968">
        <ele>998.20</ele>
        <time>2022-03-23T11:19:45Z</time>
      </trkpt>
      <trkpt lat="42.939125" lon="-2.310032">
        <ele>1000.30</ele>
        <time>2022-03-23T11:19:49Z</time>
      </trkpt>
      <trkpt lat="42.939143" lon="-2.310095">
        <ele>1002.30</ele>
        <time>2022-03-23T11:19:53Z</time>
      </trkpt>
      <trkpt lat="42.939153" lon="-2.310164">
        <ele>1004.00</ele>
        <time>2022-03-23T11:19:57Z</time>
      </trkpt>
      <trkpt lat="42.939164" lon="-2.310235">
        <ele>1006.00</ele>
        <time>2022-03-23T11:20:01Z</time>
      </trkpt>
      <trkpt lat="42.939172" lon="-2.310306">
        <ele>1007.70</ele>
        <time>2022-03-23T11:20:05Z</time>
      </trkpt>
      <trkpt lat="42.939176" lon="-2.310368">
        <ele>1009.20</ele>
        <time>2022-03-23T11:20:09Z</time>
      </trkpt>
      <trkpt lat="42.939177" lon="-2.310437">
        <ele>1010.70</ele>
        <time>2022-03-23T11:20:13Z</time>
      </trkpt>
      <trkpt lat="42.939177" lon="-2.310508">
        <ele>1012.40</ele>
        <time>2022-03-23T11:20:17Z</time>
      </trkpt>
      <trkpt lat="42.939180" lon="-2.310581">
        <ele>1014.00</ele>
        <time>2022-03-23T11:20:22Z</time>
      </trkpt>
      <trkpt lat="42.939190" lon="-2.310654">
        <ele>1016.10</ele>
        <time>2022-03-23T11:20:26Z</time>
      </trkpt>
      <trkpt lat="42.939204" lon="-2.310728">
        <ele>1018.20</ele>
        <time>2022-03-23T11:20:30Z</time>
      </trkpt>
      <trkpt lat="42.939207" lon="-2.310801">
        <ele>1020.00</ele>
        <time>2022-03-23T11:20:35Z</time>
      </trkpt>
      <trkpt lat="42.939210" lon="-2.310866">
        <ele>1021.40</ele>
        <time>2022-03-23T11:20:39Z</time>
      </trkpt>
      <trkpt lat="42.939203" lon="-2.310932">
        <ele>1022.20</ele>
        <time>2022-03-23T11:20:42Z</time>
      </trkpt>
      <trkpt lat="42.939201" lon="-2.311000">
        <ele>1023.00</ele>
        <time>2022-03-23T11:20:46Z</time>
      </trkpt>
      <trkpt lat="42.939207" lon="-2.311069">
        <ele>1024.40</ele>
        <time>2022-03-23T11:20:50Z</time>
      </trkpt>
      <trkpt lat="42.939223" lon="-2.311136">
        <ele>1026.20</ele>
        <time>2022-03-23T11:20:55Z</time>
      </trkpt>
      <trkpt lat="42.939220" lon="-2.311203">
        <ele>1027.20</ele>
        <time>2022-03-23T11:20:59Z</time>
      </trkpt>
      <trkpt lat="42.939211" lon="-2.311266">
        <ele>1027.90</ele>
        <time>2022-03-23T11:21:02Z</time>
      </trkpt>
      <trkpt lat="42.939207" lon="-2.311328">
        <ele>1028.60</ele>
        <time>2022-03-23T11:21:06Z</time>
      </trkpt>
      <trkpt lat="42.939212" lon="-2.311399">
        <ele>1030.00</ele>
        <time>2022-03-23T11:21:10Z</time>
      </trkpt>
      <trkpt lat="42.939256" lon="-2.311413">
        <ele>1032.10</ele>
        <time>2022-03-23T11:21:14Z</time>
      </trkpt>
      <trkpt lat="42.939299" lon="-2.311377">
        <ele>1033.10</ele>
        <time>2022-03-23T11:21:18Z</time>
      </trkpt>
      <trkpt lat="42.939344" lon="-2.311360">
        <ele>1034.70</ele>
        <time>2022-03-23T11:21:22Z</time>
      </trkpt>
      <trkpt lat="42.939389" lon="-2.311359">
        <ele>1036.60</ele>
        <time>2022-03-23T11:21:25Z</time>
      </trkpt>
      <trkpt lat="42.939438" lon="-2.311357">
        <ele>1038.60</ele>
        <time>2022-03-23T11:21:29Z</time>
      </trkpt>
      <trkpt lat="42.939488" lon="-2.311371">
        <ele>1039.70</ele>
        <time>2022-03-23T11:21:33Z</time>
      </trkpt>
      <trkpt lat="42.939532" lon="-2.311389">
        <ele>1040.60</ele>
        <time>2022-03-23T11:21:37Z</time>
      </trkpt>
      <trkpt lat="42.939581" lon="-2.311411">
        <ele>1041.90</ele>
        <time>2022-03-23T11:21:41Z</time>
      </trkpt>
      <trkpt lat="42.939627" lon="-2.311412">
        <ele>1042.90</ele>
        <time>2022-03-23T11:21:45Z</time>
      </trkpt>
      <trkpt lat="42.939674" lon="-2.311404">
        <ele>1043.60</ele>
        <time>2022-03-23T11:21:48Z</time>
      </trkpt>
      <trkpt lat="42.939723" lon="-2.311384">
        <ele>1043.90</ele>
        <time>2022-03-23T11:21:53Z</time>
      </trkpt>
      <trkpt lat="42.939767" lon="-2.311348">
        <ele>1041.30</ele>
        <time>2022-03-23T11:21:57Z</time>
      </trkpt>
      <trkpt lat="42.939817" lon="-2.311348">
        <ele>1040.10</ele>
        <time>2022-03-23T11:22:01Z</time>
      </trkpt>
      <trkpt lat="42.939875" lon="-2.311363">
        <ele>1039.20</ele>
        <time>2022-03-23T11:22:05Z</time>
      </trkpt>
      <trkpt lat="42.939921" lon="-2.311386">
        <ele>1038.90</ele>
        <time>2022-03-23T11:22:09Z</time>
      </trkpt>
      <trkpt lat="42.939964" lon="-2.311409">
        <ele>1038.70</ele>
        <time>2022-03-23T11:22:13Z</time>
      </trkpt>
      <trkpt lat="42.940020" lon="-2.311434">
        <ele>1038.30</ele>
        <time>2022-03-23T11:22:18Z</time>
      </trkpt>
      <trkpt lat="42.940069" lon="-2.311451">
        <ele>1037.50</ele>
        <time>2022-03-23T11:22:22Z</time>
      </trkpt>
      <trkpt lat="42.940125" lon="-2.311482">
        <ele>1036.80</ele>
        <time>2022-03-23T11:22:27Z</time>
      </trkpt>
      <trkpt lat="42.940175" lon="-2.311515">
        <ele>1036.50</ele>
        <time>2022-03-23T11:22:31Z</time>
      </trkpt>
      <trkpt lat="42.940219" lon="-2.311543">
        <ele>1036.10</ele>
        <time>2022-03-23T11:22:35Z</time>
      </trkpt>
      <trkpt lat="42.940266" lon="-2.311574">
        <ele>1035.80</ele>
        <time>2022-03-23T11:22:39Z</time>
      </trkpt>
      <trkpt lat="42.940315" lon="-2.311612">
        <ele>1035.50</ele>
        <time>2022-03-23T11:22:44Z</time>
      </trkpt>
      <trkpt lat="42.940359" lon="-2.311641">
        <ele>1035.20</ele>
        <time>2022-03-23T11:22:47Z</time>
      </trkpt>
      <trkpt lat="42.940410" lon="-2.311653">
        <ele>1034.10</ele>
        <time>2022-03-23T11:22:52Z</time>
      </trkpt>
      <trkpt lat="42.940459" lon="-2.311668">
        <ele>1033.30</ele>
        <time>2022-03-23T11:22:56Z</time>
      </trkpt>
      <trkpt lat="42.940508" lon="-2.311687">
        <ele>1032.60</ele>
        <time>2022-03-23T11:23:00Z</time>
      </trkpt>
      <trkpt lat="42.940571" lon="-2.311692">
        <ele>1030.90</ele>
        <time>2022-03-23T11:23:05Z</time>
      </trkpt>
      <trkpt lat="42.940622" lon="-2.311685">
        <ele>1029.80</ele>
        <time>2022-03-23T11:23:09Z</time>
      </trkpt>
      <trkpt lat="42.940669" lon="-2.311683">
        <ele>1028.80</ele>
        <time>2022-03-23T11:23:13Z</time>
      </trkpt>
      <trkpt lat="42.940718" lon="-2.311684">
        <ele>1027.90</ele>
        <time>2022-03-23T11:23:17Z</time>
      </trkpt>
      <trkpt lat="42.940766" lon="-2.311685">
        <ele>1027.10</ele>
        <time>2022-03-23T11:23:20Z</time>
      </trkpt>
      <trkpt lat="42.940815" lon="-2.311694">
        <ele>1026.80</ele>
        <time>2022-03-23T11:23:24Z</time>
      </trkpt>
      <trkpt lat="42.940862" lon="-2.311710">
        <ele>1026.90</ele>
        <time>2022-03-23T11:23:28Z</time>
      </trkpt>
      <trkpt lat="42.940906" lon="-2.311740">
        <ele>1028.00</ele>
        <time>2022-03-23T11:23:32Z</time>
      </trkpt>
      <trkpt lat="42.940953" lon="-2.311753">
        <ele>1028.20</ele>
        <time>2022-03-23T11:23:36Z</time>
      </trkpt>
      <trkpt lat="42.941005" lon="-2.311782">
        <ele>1029.00</ele>
        <time>2022-03-23T11:23:41Z</time>
      </trkpt>
      <trkpt lat="42.941040" lon="-2.311834">
        <ele>1031.30</ele>
        <time>2022-03-23T11:23:45Z</time>
      </trkpt>
      <trkpt lat="42.941086" lon="-2.311858">
        <ele>1032.00</ele>
        <time>2022-03-23T11:23:49Z</time>
      </trkpt>
      <trkpt lat="42.941131" lon="-2.311894">
        <ele>1033.40</ele>
        <time>2022-03-23T11:23:53Z</time>
      </trkpt>
      <trkpt lat="42.941171" lon="-2.311940">
        <ele>1035.30</ele>
        <time>2022-03-23T11:23:57Z</time>
      </trkpt>
      <trkpt lat="42.941224" lon="-2.311968">
        <ele>1036.30</ele>
        <time>2022-03-23T11:24:02Z</time>
      </trkpt>
      <trkpt lat="42.941278" lon="-2.311981">
        <ele>1036.20</ele>
        <time>2022-03-23T11:24:06Z</time>
      </trkpt>
      <trkpt lat="42.941332" lon="-2.312008">
        <ele>1036.50</ele>
        <time>2022-03-23T11:24:11Z</time>
      </trkpt>
      <trkpt lat="42.941383" lon="-2.312029">
        <ele>1036.50</ele>
        <time>2022-03-23T11:24:15Z</time>
      </trkpt>
      <trkpt lat="42.941429" lon="-2.312034">
        <ele>1035.60</ele>
        <time>2022-03-23T11:24:18Z</time>
      </trkpt>
      <trkpt lat="42.941486" lon="-2.312047">
        <ele>1034.50</ele>
        <time>2022-03-23T11:24:23Z</time>
      </trkpt>
      <trkpt lat="42.941533" lon="-2.312068">
        <ele>1033.90</ele>
        <time>2022-03-23T11:24:27Z</time>
      </trkpt>
      <trkpt lat="42.941580" lon="-2.312091">
        <ele>1033.50</ele>
        <time>2022-03-23T11:24:31Z</time>
      </trkpt>
      <trkpt lat="42.941635" lon="-2.312117">
        <ele>1033.10</ele>
        <time>2022-03-23T11:24:36Z</time>
      </trkpt>
      <trkpt lat="42.941677" lon="-2.312147">
        <ele>1033.20</ele>
        <time>2022-03-23T11:24:39Z</time>
      </trkpt>
      <trkpt lat="42.941708" lon="-2.312193">
        <ele>1034.20</ele>
        <time>2022-03-23T11:24:43Z</time>
      </trkpt>
      <trkpt lat="42.941749" lon="-2.312227">
        <ele>1034.80</ele>
        <time>2022-03-23T11:24:47Z</time>
      </trkpt>
      <trkpt lat="42.941798" lon="-2.312264">
        <ele>1035.10</ele>
        <time>2022-03-23T11:24:51Z</time>
      </trkpt>
      <trkpt lat="42.941842" lon="-2.312295">
        <ele>1035.30</ele>
        <time>2022-03-23T11:24:55Z</time>
      </trkpt>
      <trkpt lat="42.941884" lon="-2.312326">
        <ele>1035.50</ele>
        <time>2022-03-23T11:24:59Z</time>
      </trkpt>
      <trkpt lat="42.941931" lon="-2.312349">
        <ele>1035.50</ele>
        <time>2022-03-23T11:25:03Z</time>
      </trkpt>
      <trkpt lat="42.941991" lon="-2.312378">
        <ele>1035.50</ele>
        <time>2022-03-23T11:25:08Z</time>
      </trkpt>
      <trkpt lat="42.942038" lon="-2.312398">
        <ele>1035.60</ele>
        <time>2022-03-23T11:25:12Z</time>
      </trkpt>
      <trkpt lat="42.942079" lon="-2.312440">
        <ele>1036.70</ele>
        <time>2022-03-23T11:25:16Z</time>
      </trkpt>
      <trkpt lat="42.942120" lon="-2.312478">
        <ele>1037.90</ele>
        <time>2022-03-23T11:25:20Z</time>
      </trkpt>
      <trkpt lat="42.942163" lon="-2.312512">
        <ele>1038.80</ele>
        <time>2022-03-23T11:25:24Z</time>
      </trkpt>
      <trkpt lat="42.942212" lon="-2.312555">
        <ele>1039.50</ele>
        <time>2022-03-23T11:25:29Z</time>
      </trkpt>
      <trkpt lat="42.942254" lon="-2.312583">
        <ele>1039.90</ele>
        <time>2022-03-23T11:25:33Z</time>
      </trkpt>
      <trkpt lat="42.942303" lon="-2.312634">
        <ele>1041.00</ele>
        <time>2022-03-23T11:25:38Z</time>
      </trkpt>
      <trkpt lat="42.942340" lon="-2.312688">
        <ele>1042.50</ele>
        <time>2022-03-23T11:25:42Z</time>
      </trkpt>
      <trkpt lat="42.942383" lon="-2.312731">
        <ele>1043.90</ele>
        <time>2022-03-23T11:25:46Z</time>
      </trkpt>
      <trkpt lat="42.942423" lon="-2.312766">
        <ele>1045.30</ele>
        <time>2022-03-23T11:25:50Z</time>
      </trkpt>
      <trkpt lat="42.942471" lon="-2.312794">
        <ele>1046.30</ele>
        <time>2022-03-23T11:25:54Z</time>
      </trkpt>
      <trkpt lat="42.942516" lon="-2.312810">
        <ele>1047.00</ele>
        <time>2022-03-23T11:25:58Z</time>
      </trkpt>
      <trkpt lat="42.942567" lon="-2.312832">
        <ele>1047.70</ele>
        <time>2022-03-23T11:26:02Z</time>
      </trkpt>
      <trkpt lat="42.942615" lon="-2.312873">
        <ele>1049.20</ele>
        <time>2022-03-23T11:26:07Z</time>
      </trkpt>
      <trkpt lat="42.942659" lon="-2.312904">
        <ele>1050.40</ele>
        <time>2022-03-23T11:26:11Z</time>
      </trkpt>
      <trkpt lat="42.942699" lon="-2.312938">
        <ele>1051.70</ele>
        <time>2022-03-23T11:26:15Z</time>
      </trkpt>
      <trkpt lat="42.942746" lon="-2.312976">
        <ele>1053.20</ele>
        <time>2022-03-23T11:26:19Z</time>
      </trkpt>
      <trkpt lat="42.942781" lon="-2.313016">
        <ele>1054.80</ele>
        <time>2022-03-23T11:26:23Z</time>
      </trkpt>
      <trkpt lat="42.942826" lon="-2.313037">
        <ele>1056.00</ele>
        <time>2022-03-23T11:26:26Z</time>
      </trkpt>
      <trkpt lat="42.942880" lon="-2.313047">
        <ele>1056.90</ele>
        <time>2022-03-23T11:26:31Z</time>
      </trkpt>
      <trkpt lat="42.942934" lon="-2.313049">
        <ele>1057.40</ele>
        <time>2022-03-23T11:26:35Z</time>
      </trkpt>
      <trkpt lat="42.942982" lon="-2.313060">
        <ele>1058.30</ele>
        <time>2022-03-23T11:26:39Z</time>
      </trkpt>
      <trkpt lat="42.943028" lon="-2.313088">
        <ele>1059.60</ele>
        <time>2022-03-23T11:26:43Z</time>
      </trkpt>
      <trkpt lat="42.943072" lon="-2.313113">
        <ele>1060.70</ele>
        <time>2022-03-23T11:26:47Z</time>
      </trkpt>
      <trkpt lat="42.943116" lon="-2.313141">
        <ele>1061.90</ele>
        <time>2022-03-23T11:26:51Z</time>
      </trkpt>
      <trkpt lat="42.943156" lon="-2.313174">
        <ele>1063.30</ele>
        <time>2022-03-23T11:26:54Z</time>
      </trkpt>
      <trkpt lat="42.943186" lon="-2.313226">
        <ele>1065.30</ele>
        <time>2022-03-23T11:26:58Z</time>
      </trkpt>
      <trkpt lat="42.943224" lon="-2.313266">
        <ele>1067.50</ele>
        <time>2022-03-23T11:27:02Z</time>
      </trkpt>
      <trkpt lat="42.943244" lon="-2.313334">
        <ele>1070.50</ele>
        <time>2022-03-23T11:27:06Z</time>
      </trkpt>
      <trkpt lat="42.943246" lon="-2.313401">
        <ele>1073.10</ele>
        <time>2022-03-23T11:27:10Z</time>
      </trkpt>
      <trkpt lat="42.943279" lon="-2.313457">
        <ele>1075.70</ele>
        <time>2022-03-23T11:27:15Z</time>
      </trkpt>
      <trkpt lat="42.943321" lon="-2.313482">
        <ele>1077.20</ele>
        <time>2022-03-23T11:27:18Z</time>
      </trkpt>
      <trkpt lat="42.943371" lon="-2.313500">
        <ele>1078.00</ele>
        <time>2022-03-23T11:27:22Z</time>
      </trkpt>
      <trkpt lat="42.943422" lon="-2.313508">
        <ele>1078.40</ele>
        <time>2022-03-23T11:27:26Z</time>
      </trkpt>
      <trkpt lat="42.943488" lon="-2.313515">
        <ele>1079.00</ele>
        <time>2022-03-23T11:27:32Z</time>
      </trkpt>
      <trkpt lat="42.943530" lon="-2.313540">
        <ele>1080.30</ele>
        <time>2022-03-23T11:27:35Z</time>
      </trkpt>
      <trkpt lat="42.943576" lon="-2.313539">
        <ele>1080.50</ele>
        <time>2022-03-23T11:27:39Z</time>
      </trkpt>
      <trkpt lat="42.943630" lon="-2.313528">
        <ele>1080.40</ele>
        <time>2022-03-23T11:27:44Z</time>
      </trkpt>
      <trkpt lat="42.943678" lon="-2.313529">
        <ele>1081.40</ele>
        <time>2022-03-23T11:27:47Z</time>
      </trkpt>
      <trkpt lat="42.943724" lon="-2.313536">
        <ele>1082.90</ele>
        <time>2022-03-23T11:27:51Z</time>
      </trkpt>
      <trkpt lat="42.943770" lon="-2.313546">
        <ele>1084.30</ele>
        <time>2022-03-23T11:27:55Z</time>
      </trkpt>
      <trkpt lat="42.943815" lon="-2.313554">
        <ele>1085.60</ele>
        <time>2022-03-23T11:27:58Z</time>
      </trkpt>
      <trkpt lat="42.943868" lon="-2.313559">
        <ele>1087.10</ele>
        <time>2022-03-23T11:28:03Z</time>
      </trkpt>
      <trkpt lat="42.943919" lon="-2.313553">
        <ele>1087.40</ele>
        <time>2022-03-23T11:28:07Z</time>
      </trkpt>
      <trkpt lat="42.943971" lon="-2.313557">
        <ele>1088.00</ele>
        <time>2022-03-23T11:28:11Z</time>
      </trkpt>
      <trkpt lat="42.944017" lon="-2.313587">
        <ele>1089.80</ele>
        <time>2022-03-23T11:28:15Z</time>
      </trkpt>
      <trkpt lat="42.944062" lon="-2.313610">
        <ele>1091.20</ele>
        <time>2022-03-23T11:28:19Z</time>
      </trkpt>
      <trkpt lat="42.944110" lon="-2.313643">
        <ele>1093.10</ele>
        <time>2022-03-23T11:28:23Z</time>
      </trkpt>
      <trkpt lat="42.944134" lon="-2.313705">
        <ele>1096.30</ele>
        <time>2022-03-23T11:28:27Z</time>
      </trkpt>
      <trkpt lat="42.944161" lon="-2.313763">
        <ele>1099.20</ele>
        <time>2022-03-23T11:28:31Z</time>
      </trkpt>
      <trkpt lat="42.944199" lon="-2.313802">
        <ele>1100.30</ele>
        <time>2022-03-23T11:28:35Z</time>
      </trkpt>
      <trkpt lat="42.944202" lon="-2.313869">
        <ele>1103.30</ele>
        <time>2022-03-23T11:28:39Z</time>
      </trkpt>
      <trkpt lat="42.944240" lon="-2.313909">
        <ele>1104.40</ele>
        <time>2022-03-23T11:28:43Z</time>
      </trkpt>
      <trkpt lat="42.944280" lon="-2.313938">
        <ele>1105.00</ele>
        <time>2022-03-23T11:28:47Z</time>
      </trkpt>
      <trkpt lat="42.944327" lon="-2.313966">
        <ele>1105.60</ele>
        <time>2022-03-23T11:28:51Z</time>
      </trkpt>
      <trkpt lat="42.944372" lon="-2.313986">
        <ele>1105.80</ele>
        <time>2022-03-23T11:28:54Z</time>
      </trkpt>
      <trkpt lat="42.944420" lon="-2.314017">
        <ele>1106.70</ele>
        <time>2022-03-23T11:28:59Z</time>
      </trkpt>
      <trkpt lat="42.944458" lon="-2.314066">
        <ele>1108.60</ele>
        <time>2022-03-23T11:29:03Z</time>
      </trkpt>
      <trkpt lat="42.944490" lon="-2.314127">
        <ele>1110.60</ele>
        <time>2022-03-23T11:29:07Z</time>
      </trkpt>
      <trkpt lat="42.944529" lon="-2.314169">
        <ele>1111.20</ele>
        <time>2022-03-23T11:29:11Z</time>
      </trkpt>
      <trkpt lat="42.944559" lon="-2.314223">
        <ele>1111.30</ele>
        <time>2022-03-23T11:29:15Z</time>
      </trkpt>
      <trkpt lat="42.944580" lon="-2.314283">
        <ele>1112.20</ele>
        <time>2022-03-23T11:29:19Z</time>
      </trkpt>
      <trkpt lat="42.944616" lon="-2.314333">
        <ele>1112.40</ele>
        <time>2022-03-23T11:29:23Z</time>
      </trkpt>
      <trkpt lat="42.944642" lon="-2.314401">
        <ele>1113.60</ele>
        <time>2022-03-23T11:29:28Z</time>
      </trkpt>
      <trkpt lat="42.944664" lon="-2.314467">
        <ele>1114.90</ele>
        <time>2022-03-23T11:29:32Z</time>
      </trkpt>
      <trkpt lat="42.944692" lon="-2.314534">
        <ele>1116.10</ele>
        <time>2022-03-23T11:29:36Z</time>
      </trkpt>
      <trkpt lat="42.944708" lon="-2.314599">
        <ele>1117.60</ele>
        <time>2022-03-23T11:29:40Z</time>
      </trkpt>
      <trkpt lat="42.944721" lon="-2.314670">
        <ele>1119.50</ele>
        <time>2022-03-23T11:29:45Z</time>
      </trkpt>
      <trkpt lat="42.944738" lon="-2.314729">
        <ele>1120.40</ele>
        <time>2022-03-23T11:29:48Z</time>
      </trkpt>
      <trkpt lat="42.944748" lon="-2.314804">
        <ele>1122.00</ele>
        <time>2022-03-23T11:29:53Z</time>
      </trkpt>
      <trkpt lat="42.944780" lon="-2.314858">
        <ele>1122.20</ele>
        <time>2022-03-23T11:29:57Z</time>
      </trkpt>
      <trkpt lat="42.944809" lon="-2.314913">
        <ele>1122.60</ele>
        <time>2022-03-23T11:30:01Z</time>
      </trkpt>
      <trkpt lat="42.944820" lon="-2.314979">
        <ele>1124.30</ele>
        <time>2022-03-23T11:30:05Z</time>
      </trkpt>
      <trkpt lat="42.944810" lon="-2.315047">
        <ele>1126.50</ele>
        <time>2022-03-23T11:30:09Z</time>
      </trkpt>
      <trkpt lat="42.944815" lon="-2.315108">
        <ele>1127.80</ele>
        <time>2022-03-23T11:30:13Z</time>
      </trkpt>
      <trkpt lat="42.944835" lon="-2.315187">
        <ele>1129.20</ele>
        <time>2022-03-23T11:30:18Z</time>
      </trkpt>
      <trkpt lat="42.944864" lon="-2.315237">
        <ele>1129.40</ele>
        <time>2022-03-23T11:30:21Z</time>
      </trkpt>
      <trkpt lat="42.944902" lon="-2.315286">
        <ele>1129.20</ele>
        <time>2022-03-23T11:30:25Z</time>
      </trkpt>
      <trkpt lat="42.944935" lon="-2.315332">
        <ele>1129.50</ele>
        <time>2022-03-23T11:30:29Z</time>
      </trkpt>
      <trkpt lat="42.944977" lon="-2.315386">
        <ele>1129.50</ele>
        <time>2022-03-23T11:30:34Z</time>
      </trkpt>
      <trkpt lat="42.945005" lon="-2.315435">
        <ele>1129.90</ele>
        <time>2022-03-23T11:30:37Z</time>
      </trkpt>
      <trkpt lat="42.945030" lon="-2.315489">
        <ele>1130.60</ele>
        <time>2022-03-23T11:30:41Z</time>
      </trkpt>
      <trkpt lat="42.945056" lon="-2.315542">
        <ele>1131.20</ele>
        <time>2022-03-23T11:30:45Z</time>
      </trkpt>
      <trkpt lat="42.945094" lon="-2.315589">
        <ele>1130.90</ele>
        <time>2022-03-23T11:30:49Z</time>
      </trkpt>
      <trkpt lat="42.945104" lon="-2.315650">
        <ele>1132.20</ele>
        <time>2022-03-23T11:30:53Z</time>
      </trkpt>
      <trkpt lat="42.945109" lon="-2.315718">
        <ele>1133.70</ele>
        <time>2022-03-23T11:30:57Z</time>
      </trkpt>
      <trkpt lat="42.945103" lon="-2.315781">
        <ele>1135.70</ele>
        <time>2022-03-23T11:31:00Z</time>
      </trkpt>
      <trkpt lat="42.945096" lon="-2.315844">
        <ele>1137.90</ele>
        <time>2022-03-23T11:31:04Z</time>
      </trkpt>
      <trkpt lat="42.945137" lon="-2.315874">
        <ele>1136.90</ele>
        <time>2022-03-23T11:31:08Z</time>
      </trkpt>
      <trkpt lat="42.945134" lon="-2.315936">
        <ele>1139.00</ele>
        <time>2022-03-23T11:31:12Z</time>
      </trkpt>
      <trkpt lat="42.945125" lon="-2.316000">
        <ele>1141.30</ele>
        <time>2022-03-23T11:31:15Z</time>
      </trkpt>
      <trkpt lat="42.945101" lon="-2.316062">
        <ele>1144.20</ele>
        <time>2022-03-23T11:31:19Z</time>
      </trkpt>
      <trkpt lat="42.945101" lon="-2.316130">
        <ele>1146.20</ele>
        <time>2022-03-23T11:31:23Z</time>
      </trkpt>
      <trkpt lat="42.945105" lon="-2.316194">
        <ele>1148.20</ele>
        <time>2022-03-23T11:31:27Z</time>
      </trkpt>
      <trkpt lat="42.945105" lon="-2.316261">
        <ele>1150.30</ele>
        <time>2022-03-23T11:31:31Z</time>
      </trkpt>
      <trkpt lat="42.945130" lon="-2.316314">
        <ele>1151.10</ele>
        <time>2022-03-23T11:31:35Z</time>
      </trkpt>
      <trkpt lat="42.945155" lon="-2.316373">
        <ele>1151.90</ele>
        <time>2022-03-23T11:31:39Z</time>
      </trkpt>
      <trkpt lat="42.945168" lon="-2.316441">
        <ele>1153.70</ele>
        <time>2022-03-23T11:31:43Z</time>
      </trkpt>
      <trkpt lat="42.945154" lon="-2.316506">
        <ele>1156.60</ele>
        <time>2022-03-23T11:31:47Z</time>
      </trkpt>
      <trkpt lat="42.945112" lon="-2.316540">
        <ele>1159.70</ele>
        <time>2022-03-23T11:31:51Z</time>
      </trkpt>
      <trkpt lat="42.945056" lon="-2.316553">
        <ele>1162.90</ele>
        <time>2022-03-23T11:31:55Z</time>
      </trkpt>
      <trkpt lat="42.945046" lon="-2.316615">
        <ele>1165.80</ele>
        <time>2022-03-23T11:31:59Z</time>
      </trkpt>
      <trkpt lat="42.945032" lon="-2.316676">
        <ele>1168.70</ele>
        <time>2022-03-23T11:32:03Z</time>
      </trkpt>
      <trkpt lat="42.944989" lon="-2.316708">
        <ele>1172.10</ele>
        <time>2022-03-23T11:32:07Z</time>
      </trkpt>
      <trkpt lat="42.944946" lon="-2.316686">
        <ele>1173.70</ele>
        <time>2022-03-23T11:32:10Z</time>
      </trkpt>
      <trkpt lat="42.944897" lon="-2.316678">
        <ele>1176.00</ele>
        <time>2022-03-23T11:32:14Z</time>
      </trkpt>
      <trkpt lat="42.944855" lon="-2.316650">
        <ele>1177.30</ele>
        <time>2022-03-23T11:32:18Z</time>
      </trkpt>
      <trkpt lat="42.944810" lon="-2.316651">
        <ele>1179.70</ele>
        <time>2022-03-23T11:32:22Z</time>
      </trkpt>
      <trkpt lat="42.944766" lon="-2.316629">
        <ele>1181.20</ele>
        <time>2022-03-23T11:32:25Z</time>
      </trkpt>
      <trkpt lat="42.944772" lon="-2.316693">
        <ele>1183.60</ele>
        <time>2022-03-23T11:32:29Z</time>
      </trkpt>
      <trkpt lat="42.944756" lon="-2.316754">
        <ele>1187.10</ele>
        <time>2022-03-23T11:32:33Z</time>
      </trkpt>
      <trkpt lat="42.944761" lon="-2.316821">
        <ele>1189.90</ele>
        <time>2022-03-23T11:32:37Z</time>
      </trkpt>
      <trkpt lat="42.944758" lon="-2.316887">
        <ele>1193.20</ele>
        <time>2022-03-23T11:32:41Z</time>
      </trkpt>
      <trkpt lat="42.944754" lon="-2.316950">
        <ele>1196.20</ele>
        <time>2022-03-23T11:32:45Z</time>
      </trkpt>
      <trkpt lat="42.944756" lon="-2.317017">
        <ele>1199.50</ele>
        <time>2022-03-23T11:32:49Z</time>
      </trkpt>
      <trkpt lat="42.944770" lon="-2.317076">
        <ele>1201.50</ele>
        <time>2022-03-23T11:32:52Z</time>
      </trkpt>
      <trkpt lat="42.944802" lon="-2.317131">
        <ele>1201.80</ele>
        <time>2022-03-23T11:32:56Z</time>
      </trkpt>
      <trkpt lat="42.944822" lon="-2.317191">
        <ele>1203.30</ele>
        <time>2022-03-23T11:33:00Z</time>
      </trkpt>
      <trkpt lat="42.944777" lon="-2.317164">
        <ele>1205.20</ele>
        <time>2022-03-23T11:33:04Z</time>
      </trkpt>
      <trkpt lat="42.944734" lon="-2.317122">
        <ele>1206.10</ele>
        <time>2022-03-23T11:33:08Z</time>
      </trkpt>
      <trkpt lat="42.944688" lon="-2.317121">
        <ele>1209.20</ele>
        <time>2022-03-23T11:33:12Z</time>
      </trkpt>
      <trkpt lat="42.944640" lon="-2.317111">
        <ele>1211.90</ele>
        <time>2022-03-23T11:33:16Z</time>
      </trkpt>
      <trkpt lat="42.944586" lon="-2.317090">
        <ele>1214.50</ele>
        <time>2022-03-23T11:33:20Z</time>
      </trkpt>
      <trkpt lat="42.944552" lon="-2.317041">
        <ele>1214.40</ele>
        <time>2022-03-23T11:33:24Z</time>
      </trkpt>
      <trkpt lat="42.944505" lon="-2.317019">
        <ele>1216.40</ele>
        <time>2022-03-23T11:33:28Z</time>
      </trkpt>
      <trkpt lat="42.944466" lon="-2.317052">
        <ele>1220.70</ele>
        <time>2022-03-23T11:33:32Z</time>
      </trkpt>
      <trkpt lat="42.944454" lon="-2.317116">
        <ele>1224.40</ele>
        <time>2022-03-23T11:33:36Z</time>
      </trkpt>
      <trkpt lat="42.944432" lon="-2.317172">
        <ele>1228.30</ele>
        <time>2022-03-23T11:33:40Z</time>
      </trkpt>
      <trkpt lat="42.944478" lon="-2.317220">
        <ele>1227.70</ele>
        <time>2022-03-23T11:33:44Z</time>
      </trkpt>
      <trkpt lat="42.944504" lon="-2.317278">
        <ele>1228.20</ele>
        <time>2022-03-23T11:33:48Z</time>
      </trkpt>
      <trkpt lat="42.944493" lon="-2.317348">
        <ele>1231.50</ele>
        <time>2022-03-23T11:33:52Z</time>
      </trkpt>
      <trkpt lat="42.944488" lon="-2.317417">
        <ele>1234.20</ele>
        <time>2022-03-23T11:33:56Z</time>
      </trkpt>
      <trkpt lat="42.944503" lon="-2.317476">
        <ele>1235.70</ele>
        <time>2022-03-23T11:34:00Z</time>
      </trkpt>
      <trkpt lat="42.944542" lon="-2.317513">
        <ele>1235.30</ele>
        <time>2022-03-23T11:34:04Z</time>
      </trkpt>
      <trkpt lat="42.944559" lon="-2.317575">
        <ele>1237.20</ele>
        <time>2022-03-23T11:34:08Z</time>
      </trkpt>
      <trkpt lat="42.944549" lon="-2.317635">
        <ele>1240.20</ele>
        <time>2022-03-23T11:34:11Z</time>
      </trkpt>
      <trkpt lat="42.944557" lon="-2.317698">
        <ele>1242.60</ele>
        <time>2022-03-23T11:34:15Z</time>
      </trkpt>
      <trkpt lat="42.944592" lon="-2.317745">
        <ele>1243.40</ele>
        <time>2022-03-23T11:34:19Z</time>
      </trkpt>
      <trkpt lat="42.944606" lon="-2.317810">
        <ele>1245.40</ele>
        <time>2022-03-23T11:34:23Z</time>
      </trkpt>
      <trkpt lat="42.944615" lon="-2.317883">
        <ele>1247.40</ele>
        <time>2022-03-23T11:34:27Z</time>
      </trkpt>
      <trkpt lat="42.944610" lon="-2.317946">
        <ele>1249.70</ele>
        <time>2022-03-23T11:34:31Z</time>
      </trkpt>
      <trkpt lat="42.944592" lon="-2.318014">
        <ele>1252.70</ele>
        <time>2022-03-23T11:34:35Z</time>
      </trkpt>
      <trkpt lat="42.944597" lon="-2.318080">
        <ele>1255.10</ele>
        <time>2022-03-23T11:34:39Z</time>
      </trkpt>
      <trkpt lat="42.944609" lon="-2.318142">
        <ele>1257.30</ele>
        <time>2022-03-23T11:34:43Z</time>
      </trkpt>
      <trkpt lat="42.944642" lon="-2.318190">
        <ele>1258.10</ele>
        <time>2022-03-23T11:34:47Z</time>
      </trkpt>
      <trkpt lat="42.944682" lon="-2.318234">
        <ele>1258.30</ele>
        <time>2022-03-23T11:34:51Z</time>
      </trkpt>
      <trkpt lat="42.944715" lon="-2.318287">
        <ele>1259.30</ele>
        <time>2022-03-23T11:34:55Z</time>
      </trkpt>
      <trkpt lat="42.944737" lon="-2.318350">
        <ele>1261.50</ele>
        <time>2022-03-23T11:34:59Z</time>
      </trkpt>
      <trkpt lat="42.944752" lon="-2.318409">
        <ele>1263.90</ele>
        <time>2022-03-23T11:35:03Z</time>
      </trkpt>
      <trkpt lat="42.944792" lon="-2.318440">
        <ele>1264.60</ele>
        <time>2022-03-23T11:35:06Z</time>
      </trkpt>
      <trkpt lat="42.944836" lon="-2.318478">
        <ele>1265.60</ele>
        <time>2022-03-23T11:35:11Z</time>
      </trkpt>
      <trkpt lat="42.944842" lon="-2.318547">
        <ele>1269.30</ele>
        <time>2022-03-23T11:35:15Z</time>
      </trkpt>
      <trkpt lat="42.944880" lon="-2.318599">
        <ele>1271.60</ele>
        <time>2022-03-23T11:35:19Z</time>
      </trkpt>
      <trkpt lat="42.944895" lon="-2.318662">
        <ele>1274.10</ele>
        <time>2022-03-23T11:35:23Z</time>
      </trkpt>
      <trkpt lat="42.944906" lon="-2.318726">
        <ele>1276.30</ele>
        <time>2022-03-23T11:35:27Z</time>
      </trkpt>
      <trkpt lat="42.944920" lon="-2.318786">
        <ele>1278.30</ele>
        <time>2022-03-23T11:35:30Z</time>
      </trkpt>
      <trkpt lat="42.944946" lon="-2.318843">
        <ele>1279.70</ele>
        <time>2022-03-23T11:35:34Z</time>
      </trkpt>
      <trkpt lat="42.944983" lon="-2.318893">
        <ele>1280.70</ele>
        <time>2022-03-23T11:35:39Z</time>
      </trkpt>
      <trkpt lat="42.945031" lon="-2.318904">
        <ele>1280.80</ele>
        <time>2022-03-23T11:35:42Z</time>
      </trkpt>
      <trkpt lat="42.945076" lon="-2.318922">
        <ele>1281.60</ele>
        <time>2022-03-23T11:35:46Z</time>
      </trkpt>
      <trkpt lat="42.945121" lon="-2.318966">
        <ele>1283.70</ele>
        <time>2022-03-23T11:35:51Z</time>
      </trkpt>
      <trkpt lat="42.945165" lon="-2.318992">
        <ele>1285.00</ele>
        <time>2022-03-23T11:35:54Z</time>
      </trkpt>
      <trkpt lat="42.945214" lon="-2.319000">
        <ele>1285.60</ele>
        <time>2022-03-23T11:35:58Z</time>
      </trkpt>
      <trkpt lat="42.945256" lon="-2.319023">
        <ele>1286.80</ele>
        <time>2022-03-23T11:36:02Z</time>
      </trkpt>
      <trkpt lat="42.945238" lon="-2.319080">
        <ele>1289.00</ele>
        <time>2022-03-23T11:36:06Z</time>
      </trkpt>
      <trkpt lat="42.945201" lon="-2.319122">
        <ele>1290.60</ele>
        <time>2022-03-23T11:36:10Z</time>
      </trkpt>
      <trkpt lat="42.945167" lon="-2.319174">
        <ele>1292.70</ele>
        <time>2022-03-23T11:36:14Z</time>
      </trkpt>
      <trkpt lat="42.945126" lon="-2.319211">
        <ele>1295.00</ele>
        <time>2022-03-23T11:36:18Z</time>
      </trkpt>
      <trkpt lat="42.945161" lon="-2.319255">
        <ele>1298.10</ele>
        <time>2022-03-23T11:36:21Z</time>
      </trkpt>
      <trkpt lat="42.945209" lon="-2.319259">
        <ele>1298.40</ele>
        <time>2022-03-23T11:36:25Z</time>
      </trkpt>
      <trkpt lat="42.945257" lon="-2.319274">
        <ele>1299.60</ele>
        <time>2022-03-23T11:36:29Z</time>
      </trkpt>
      <trkpt lat="42.945295" lon="-2.319313">
        <ele>1301.90</ele>
        <time>2022-03-23T11:36:33Z</time>
      </trkpt>
      <trkpt lat="42.945343" lon="-2.319304">
        <ele>1301.40</ele>
        <time>2022-03-23T11:36:37Z</time>
      </trkpt>
      <trkpt lat="42.945353" lon="-2.319367">
        <ele>1305.20</ele>
        <time>2022-03-23T11:36:41Z</time>
      </trkpt>
      <trkpt lat="42.945369" lon="-2.319429">
        <ele>1308.70</ele>
        <time>2022-03-23T11:36:44Z</time>
      </trkpt>
      <trkpt lat="42.945392" lon="-2.319489">
        <ele>1311.40</ele>
        <time>2022-03-23T11:36:48Z</time>
      </trkpt>
      <trkpt lat="42.945437" lon="-2.319527">
        <ele>1312.70</ele>
        <time>2022-03-23T11:36:53Z</time>
      </trkpt>
      <trkpt lat="42.945471" lon="-2.319586">
        <ele>1314.90</ele>
        <time>2022-03-23T11:36:57Z</time>
      </trkpt>
      <trkpt lat="42.945525" lon="-2.319609">
        <ele>1315.70</ele>
        <time>2022-03-23T11:37:02Z</time>
      </trkpt>
      <trkpt lat="42.945565" lon="-2.319651">
        <ele>1316.80</ele>
        <time>2022-03-23T11:37:06Z</time>
      </trkpt>
      <trkpt lat="42.945606" lon="-2.319686">
        <ele>1316.90</ele>
        <time>2022-03-23T11:37:09Z</time>
      </trkpt>
      <trkpt lat="42.945638" lon="-2.319731">
        <ele>1317.90</ele>
        <time>2022-03-23T11:37:13Z</time>
      </trkpt>
      <trkpt lat="42.945682" lon="-2.319764">
        <ele>1317.20</ele>
        <time>2022-03-23T11:37:17Z</time>
      </trkpt>
      <trkpt lat="42.945718" lon="-2.319804">
        <ele>1317.10</ele>
        <time>2022-03-23T11:37:21Z</time>
      </trkpt>
      <trkpt lat="42.945759" lon="-2.319840">
        <ele>1316.70</ele>
        <time>2022-03-23T11:37:25Z</time>
      </trkpt>
      <trkpt lat="42.945798" lon="-2.319877">
        <ele>1316.30</ele>
        <time>2022-03-23T11:37:29Z</time>
      </trkpt>
      <trkpt lat="42.945813" lon="-2.319939">
        <ele>1317.30</ele>
        <time>2022-03-23T11:37:32Z</time>
      </trkpt>
      <trkpt lat="42.945816" lon="-2.320004">
        <ele>1318.70</ele>
        <time>2022-03-23T11:37:36Z</time>
      </trkpt>
      <trkpt lat="42.945823" lon="-2.320069">
        <ele>1320.20</ele>
        <time>2022-03-23T11:37:40Z</time>
      </trkpt>
      <trkpt lat="42.945835" lon="-2.320145">
        <ele>1322.10</ele>
        <time>2022-03-23T11:37:45Z</time>
      </trkpt>
      <trkpt lat="42.945859" lon="-2.320198">
        <ele>1322.80</ele>
        <time>2022-03-23T11:37:48Z</time>
      </trkpt>
      <trkpt lat="42.945905" lon="-2.320237">
        <ele>1322.40</ele>
        <time>2022-03-23T11:37:53Z</time>
      </trkpt>
      <trkpt lat="42.945953" lon="-2.320274">
        <ele>1322.10</ele>
        <time>2022-03-23T11:37:57Z</time>
      </trkpt>
      <trkpt lat="42.945984" lon="-2.320324">
        <ele>1322.90</ele>
        <time>2022-03-23T11:38:01Z</time>
      </trkpt>
      <trkpt lat="42.946005" lon="-2.320385">
        <ele>1324.70</ele>
        <time>2022-03-23T11:38:05Z</time>
      </trkpt>
      <trkpt lat="42.946016" lon="-2.320450">
        <ele>1326.90</ele>
        <time>2022-03-23T11:38:09Z</time>
      </trkpt>
      <trkpt lat="42.946021" lon="-2.320516">
        <ele>1329.50</ele>
        <time>2022-03-23T11:38:13Z</time>
      </trkpt>
      <trkpt lat="42.946051" lon="-2.320564">
        <ele>1330.90</ele>
        <time>2022-03-23T11:38:16Z</time>
      </trkpt>
      <trkpt lat="42.946085" lon="-2.320615">
        <ele>1332.90</ele>
        <time>2022-03-23T11:38:20Z</time>
      </trkpt>
      <trkpt lat="42.946123" lon="-2.320654">
        <ele>1334.40</ele>
        <time>2022-03-23T11:38:24Z</time>
      </trkpt>
      <trkpt lat="42.946162" lon="-2.320687">
        <ele>1335.60</ele>
        <time>2022-03-23T11:38:28Z</time>
      </trkpt>
      <trkpt lat="42.946210" lon="-2.320671">
        <ele>1333.70</ele>
        <time>2022-03-23T11:38:32Z</time>
      </trkpt>
      <trkpt lat="42.946256" lon="-2.320702">
        <ele>1334.60</ele>
        <time>2022-03-23T11:38:36Z</time>
      </trkpt>
      <trkpt lat="42.946293" lon="-2.320745">
        <ele>1336.20</ele>
        <time>2022-03-23T11:38:40Z</time>
      </trkpt>
      <trkpt lat="42.946320" lon="-2.320800">
        <ele>1338.70</ele>
        <time>2022-03-23T11:38:44Z</time>
      </trkpt>
      <trkpt lat="42.946336" lon="-2.320863">
        <ele>1341.90</ele>
        <time>2022-03-23T11:38:48Z</time>
      </trkpt>
      <trkpt lat="42.946333" lon="-2.320926">
        <ele>1345.70</ele>
        <time>2022-03-23T11:38:51Z</time>
      </trkpt>
      <trkpt lat="42.946373" lon="-2.320958">
        <ele>1346.30</ele>
        <time>2022-03-23T11:38:55Z</time>
      </trkpt>
      <trkpt lat="42.946420" lon="-2.320987">
        <ele>1347.20</ele>
        <time>2022-03-23T11:38:59Z</time>
      </trkpt>
      <trkpt lat="42.946437" lon="-2.321053">
        <ele>1350.50</ele>
        <time>2022-03-23T11:39:03Z</time>
      </trkpt>
      <trkpt lat="42.946444" lon="-2.321116">
        <ele>1354.10</ele>
        <time>2022-03-23T11:39:07Z</time>
      </trkpt>
      <trkpt lat="42.946492" lon="-2.321108">
        <ele>1353.10</ele>
        <time>2022-03-23T11:39:11Z</time>
      </trkpt>
      <trkpt lat="42.946538" lon="-2.321125">
        <ele>1354.00</ele>
        <time>2022-03-23T11:39:15Z</time>
      </trkpt>
      <trkpt lat="42.946585" lon="-2.321125">
        <ele>1353.50</ele>
        <time>2022-03-23T11:39:18Z</time>
      </trkpt>
      <trkpt lat="42.946630" lon="-2.321170">
        <ele>1355.70</ele>
        <time>2022-03-23T11:39:23Z</time>
      </trkpt>
      <trkpt lat="42.946653" lon="-2.321235">
        <ele>1358.40</ele>
        <time>2022-03-23T11:39:27Z</time>
      </trkpt>
      <trkpt lat="42.946678" lon="-2.321289">
        <ele>1360.40</ele>
        <time>2022-03-23T11:39:31Z</time>
      </trkpt>
      <trkpt lat="42.946704" lon="-2.321353">
        <ele>1363.70</ele>
        <time>2022-03-23T11:39:35Z</time>
      </trkpt>
      <trkpt lat="42.946752" lon="-2.321342">
        <ele>1363.50</ele>
        <time>2022-03-23T11:39:39Z</time>
      </trkpt>
      <trkpt lat="42.946800" lon="-2.321361">
        <ele>1364.80</ele>
        <time>2022-03-23T11:39:43Z</time>
      </trkpt>
      <trkpt lat="42.946836" lon="-2.321404">
        <ele>1367.40</ele>
        <time>2022-03-23T11:39:47Z</time>
      </trkpt>
      <trkpt lat="42.946855" lon="-2.321467">
        <ele>1371.80</ele>
        <time>2022-03-23T11:39:51Z</time>
      </trkpt>
      <trkpt lat="42.946900" lon="-2.321483">
        <ele>1372.60</ele>
        <time>2022-03-23T11:39:55Z</time>
      </trkpt>
      <trkpt lat="42.946935" lon="-2.321443">
        <ele>1369.90</ele>
        <time>2022-03-23T11:39:58Z</time>
      </trkpt>
      <trkpt lat="42.946980" lon="-2.321402">
        <ele>1367.70</ele>
        <time>2022-03-23T11:40:03Z</time>
      </trkpt>
      <trkpt lat="42.947029" lon="-2.321398">
        <ele>1367.50</ele>
        <time>2022-03-23T11:40:07Z</time>
      </trkpt>
      <trkpt lat="42.947071" lon="-2.321428">
        <ele>1369.10</ele>
        <time>2022-03-23T11:40:10Z</time>
      </trkpt>
      <trkpt lat="42.947113" lon="-2.321471">
        <ele>1371.30</ele>
        <time>2022-03-23T11:40:15Z</time>
      </trkpt>
      <trkpt lat="42.947161" lon="-2.321487">
        <ele>1372.10</ele>
        <time>2022-03-23T11:40:18Z</time>
      </trkpt>
      <trkpt lat="42.947210" lon="-2.321487">
        <ele>1372.00</ele>
        <time>2022-03-23T11:40:22Z</time>
      </trkpt>
      <trkpt lat="42.947256" lon="-2.321488">
        <ele>1371.20</ele>
        <time>2022-03-23T11:40:26Z</time>
      </trkpt>
      <trkpt lat="42.947296" lon="-2.321524">
        <ele>1372.30</ele>
        <time>2022-03-23T11:40:30Z</time>
      </trkpt>
      <trkpt lat="42.947329" lon="-2.321572">
        <ele>1374.80</ele>
        <time>2022-03-23T11:40:34Z</time>
      </trkpt>
      <trkpt lat="42.947372" lon="-2.321612">
        <ele>1376.90</ele>
        <time>2022-03-23T11:40:38Z</time>
      </trkpt>
      <trkpt lat="42.947397" lon="-2.321672">
        <ele>1380.60</ele>
        <time>2022-03-23T11:40:42Z</time>
      </trkpt>
      <trkpt lat="42.947393" lon="-2.321735">
        <ele>1382.90</ele>
        <time>2022-03-23T11:40:46Z</time>
      </trkpt>
      <trkpt lat="42.947353" lon="-2.321770">
        <ele>1384.50</ele>
        <time>2022-03-23T11:40:49Z</time>
      </trkpt>
      <trkpt lat="42.947378" lon="-2.321824">
        <ele>1386.30</ele>
        <time>2022-03-23T11:40:53Z</time>
      </trkpt>
      <trkpt lat="42.947418" lon="-2.321854">
        <ele>1387.00</ele>
        <time>2022-03-23T11:40:57Z</time>
      </trkpt>
      <trkpt lat="42.947464" lon="-2.321897">
        <ele>1387.90</ele>
        <time>2022-03-23T11:41:01Z</time>
      </trkpt>
      <trkpt lat="42.947517" lon="-2.321946">
        <ele>1389.40</ele>
        <time>2022-03-23T11:41:06Z</time>
      </trkpt>
      <trkpt lat="42.947554" lon="-2.321990">
        <ele>1391.00</ele>
        <time>2022-03-23T11:41:10Z</time>
      </trkpt>
      <trkpt lat="42.947599" lon="-2.321997">
        <ele>1391.60</ele>
        <time>2022-03-23T11:41:14Z</time>
      </trkpt>
      <trkpt lat="42.947639" lon="-2.322030">
        <ele>1392.20</ele>
        <time>2022-03-23T11:41:18Z</time>
      </trkpt>
      <trkpt lat="42.947683" lon="-2.322061">
        <ele>1392.70</ele>
        <time>2022-03-23T11:41:22Z</time>
      </trkpt>
      <trkpt lat="42.947733" lon="-2.322080">
        <ele>1392.70</ele>
        <time>2022-03-23T11:41:26Z</time>
      </trkpt>
      <trkpt lat="42.947773" lon="-2.322116">
        <ele>1392.50</ele>
        <time>2022-03-23T11:41:30Z</time>
      </trkpt>
      <trkpt lat="42.947811" lon="-2.322157">
        <ele>1393.10</ele>
        <time>2022-03-23T11:41:34Z</time>
      </trkpt>
      <trkpt lat="42.947862" lon="-2.322169">
        <ele>1394.10</ele>
        <time>2022-03-23T11:41:38Z</time>
      </trkpt>
      <trkpt lat="42.947891" lon="-2.322222">
        <ele>1394.40</ele>
        <time>2022-03-23T11:41:42Z</time>
      </trkpt>
      <trkpt lat="42.947939" lon="-2.322233">
        <ele>1395.90</ele>
        <time>2022-03-23T11:41:45Z</time>
      </trkpt>
      <trkpt lat="42.947987" lon="-2.322228">
        <ele>1396.70</ele>
        <time>2022-03-23T11:41:49Z</time>
      </trkpt>
      <trkpt lat="42.948032" lon="-2.322250">
        <ele>1398.10</ele>
        <time>2022-03-23T11:41:53Z</time>
      </trkpt>
      <trkpt lat="42.948062" lon="-2.322298">
        <ele>1399.00</ele>
        <time>2022-03-23T11:41:57Z</time>
      </trkpt>
      <trkpt lat="42.948032" lon="-2.322353">
        <ele>1399.70</ele>
        <time>2022-03-23T11:42:01Z</time>
      </trkpt>
      <trkpt lat="42.948036" lon="-2.322424">
        <ele>1400.90</ele>
        <time>2022-03-23T11:42:05Z</time>
      </trkpt>
      <trkpt lat="42.948060" lon="-2.322480">
        <ele>1401.60</ele>
        <time>2022-03-23T11:42:09Z</time>
      </trkpt>
      <trkpt lat="42.948104" lon="-2.322506">
        <ele>1401.60</ele>
        <time>2022-03-23T11:42:13Z</time>
      </trkpt>
      <trkpt lat="42.948145" lon="-2.322542">
        <ele>1402.50</ele>
        <time>2022-03-23T11:42:17Z</time>
      </trkpt>
      <trkpt lat="42.948196" lon="-2.322467">
        <ele>1399.40</ele>
        <time>2022-03-23T11:42:23Z</time>
      </trkpt>
      <trkpt lat="42.948151" lon="-2.322508">
        <ele>1401.00</ele>
        <time>2022-03-23T11:42:27Z</time>
      </trkpt>
      <trkpt lat="42.948145" lon="-2.322579">
        <ele>1404.00</ele>
        <time>2022-03-23T11:42:31Z</time>
      </trkpt>
      <trkpt lat="42.948165" lon="-2.322635">
        <ele>1405.90</ele>
        <time>2022-03-23T11:42:35Z</time>
      </trkpt>
      <trkpt lat="42.948182" lon="-2.322705">
        <ele>1408.10</ele>
        <time>2022-03-23T11:42:39Z</time>
      </trkpt>
      <trkpt lat="42.948210" lon="-2.322763">
        <ele>1409.60</ele>
        <time>2022-03-23T11:42:43Z</time>
      </trkpt>
      <trkpt lat="42.948240" lon="-2.322812">
        <ele>1410.80</ele>
        <time>2022-03-23T11:42:47Z</time>
      </trkpt>
      <trkpt lat="42.948275" lon="-2.322857">
        <ele>1411.70</ele>
        <time>2022-03-23T11:42:51Z</time>
      </trkpt>
      <trkpt lat="42.948308" lon="-2.322906">
        <ele>1412.70</ele>
        <time>2022-03-23T11:42:55Z</time>
      </trkpt>
      <trkpt lat="42.948328" lon="-2.322965">
        <ele>1414.40</ele>
        <time>2022-03-23T11:42:58Z</time>
      </trkpt>
      <trkpt lat="42.948323" lon="-2.323030">
        <ele>1417.40</ele>
        <time>2022-03-23T11:43:02Z</time>
      </trkpt>
      <trkpt lat="42.948334" lon="-2.323090">
        <ele>1420.60</ele>
        <time>2022-03-23T11:43:06Z</time>
      </trkpt>
      <trkpt lat="42.948365" lon="-2.323142">
        <ele>1423.80</ele>
        <time>2022-03-23T11:43:10Z</time>
      </trkpt>
      <trkpt lat="42.948408" lon="-2.323166">
        <ele>1424.60</ele>
        <time>2022-03-23T11:43:14Z</time>
      </trkpt>
      <trkpt lat="42.948451" lon="-2.323202">
        <ele>1426.30</ele>
        <time>2022-03-23T11:43:18Z</time>
      </trkpt>
      <trkpt lat="42.948493" lon="-2.323230">
        <ele>1427.40</ele>
        <time>2022-03-23T11:43:21Z</time>
      </trkpt>
      <trkpt lat="42.948532" lon="-2.323264">
        <ele>1429.00</ele>
        <time>2022-03-23T11:43:25Z</time>
      </trkpt>
      <trkpt lat="42.948562" lon="-2.323313">
        <ele>1431.90</ele>
        <time>2022-03-23T11:43:29Z</time>
      </trkpt>
      <trkpt lat="42.948613" lon="-2.323323">
        <ele>1431.30</ele>
        <time>2022-03-23T11:43:33Z</time>
      </trkpt>
      <trkpt lat="42.948658" lon="-2.323335">
        <ele>1431.70</ele>
        <time>2022-03-23T11:43:37Z</time>
      </trkpt>
      <trkpt lat="42.948702" lon="-2.323362">
        <ele>1433.40</ele>
        <time>2022-03-23T11:43:40Z</time>
      </trkpt>
      <trkpt lat="42.948749" lon="-2.323380">
        <ele>1434.60</ele>
        <time>2022-03-23T11:43:44Z</time>
      </trkpt>
      <trkpt lat="42.948791" lon="-2.323402">
        <ele>1436.30</ele>
        <time>2022-03-23T11:43:48Z</time>
      </trkpt>
      <trkpt lat="42.948838" lon="-2.323404">
        <ele>1436.40</ele>
        <time>2022-03-23T11:43:52Z</time>
      </trkpt>
      <trkpt lat="42.948887" lon="-2.323411">
        <ele>1436.80</ele>
        <time>2022-03-23T11:43:56Z</time>
      </trkpt>
      <trkpt lat="42.948937" lon="-2.323422">
        <ele>1438.90</ele>
        <time>2022-03-23T11:44:00Z</time>
      </trkpt>
      <trkpt lat="42.948982" lon="-2.323432">
        <ele>1440.90</ele>
        <time>2022-03-23T11:44:03Z</time>
      </trkpt>
      <trkpt lat="42.949024" lon="-2.323461">
        <ele>1444.80</ele>
        <time>2022-03-23T11:44:07Z</time>
      </trkpt>
      <trkpt lat="42.949069" lon="-2.323465">
        <ele>1446.20</ele>
        <time>2022-03-23T11:44:11Z</time>
      </trkpt>
      <trkpt lat="42.949112" lon="-2.323485">
        <ele>1449.20</ele>
        <time>2022-03-23T11:44:14Z</time>
      </trkpt>
      <trkpt lat="42.949177" lon="-2.323503">
        <ele>1451.60</ele>
        <time>2022-03-23T11:44:20Z</time>
      </trkpt>
      <trkpt lat="42.949184" lon="-2.323442">
        <ele>1444.50</ele>
        <time>2022-03-23T11:44:23Z</time>
      </trkpt>
      <trkpt lat="42.949230" lon="-2.323427">
        <ele>1439.90</ele>
        <time>2022-03-23T11:44:27Z</time>
      </trkpt>
      <trkpt lat="42.949276" lon="-2.323449">
        <ele>1438.80</ele>
        <time>2022-03-23T11:44:31Z</time>
      </trkpt>
      <trkpt lat="42.949309" lon="-2.323497">
        <ele>1440.80</ele>
        <time>2022-03-23T11:44:35Z</time>
      </trkpt>
      <trkpt lat="42.949357" lon="-2.323530">
        <ele>1439.70</ele>
        <time>2022-03-23T11:44:39Z</time>
      </trkpt>
      <trkpt lat="42.949397" lon="-2.323567">
        <ele>1439.20</ele>
        <time>2022-03-23T11:44:43Z</time>
      </trkpt>
      <trkpt lat="42.949429" lon="-2.323619">
        <ele>1439.80</ele>
        <time>2022-03-23T11:44:47Z</time>
      </trkpt>
      <trkpt lat="42.949454" lon="-2.323673">
        <ele>1440.60</ele>
        <time>2022-03-23T11:44:51Z</time>
      </trkpt>
      <trkpt lat="42.949454" lon="-2.323739">
        <ele>1444.10</ele>
        <time>2022-03-23T11:44:55Z</time>
      </trkpt>
      <trkpt lat="42.949463" lon="-2.323802">
        <ele>1446.70</ele>
        <time>2022-03-23T11:44:58Z</time>
      </trkpt>
      <trkpt lat="42.949459" lon="-2.323864">
        <ele>1450.20</ele>
        <time>2022-03-23T11:45:02Z</time>
      </trkpt>
      <trkpt lat="42.949458" lon="-2.323930">
        <ele>1454.00</ele>
        <time>2022-03-23T11:45:06Z</time>
      </trkpt>
      <trkpt lat="42.949486" lon="-2.323994">
        <ele>1456.80</ele>
        <time>2022-03-23T11:45:10Z</time>
      </trkpt>
      <trkpt lat="42.949513" lon="-2.324048">
        <ele>1459.20</ele>
        <time>2022-03-23T11:45:14Z</time>
      </trkpt>
      <trkpt lat="42.949550" lon="-2.324084">
        <ele>1460.30</ele>
        <time>2022-03-23T11:45:18Z</time>
      </trkpt>
      <trkpt lat="42.949592" lon="-2.324119">
        <ele>1461.00</ele>
        <time>2022-03-23T11:45:22Z</time>
      </trkpt>
      <trkpt lat="42.949637" lon="-2.324138">
        <ele>1460.80</ele>
        <time>2022-03-23T11:45:25Z</time>
      </trkpt>
      <trkpt lat="42.949684" lon="-2.324102">
        <ele>1456.70</ele>
        <time>2022-03-23T11:45:30Z</time>
      </trkpt>
      <trkpt lat="42.949731" lon="-2.324076">
        <ele>1453.40</ele>
        <time>2022-03-23T11:45:34Z</time>
      </trkpt>
      <trkpt lat="42.949775" lon="-2.324101">
        <ele>1455.10</ele>
        <time>2022-03-23T11:45:38Z</time>
      </trkpt>
      <trkpt lat="42.949814" lon="-2.324132">
        <ele>1457.40</ele>
        <time>2022-03-23T11:45:41Z</time>
      </trkpt>
      <trkpt lat="42.949857" lon="-2.324165">
        <ele>1459.90</ele>
        <time>2022-03-23T11:45:45Z</time>
      </trkpt>
      <trkpt lat="42.949878" lon="-2.324221">
        <ele>1463.50</ele>
        <time>2022-03-23T11:45:49Z</time>
      </trkpt>
      <trkpt lat="42.949910" lon="-2.324267">
        <ele>1466.50</ele>
        <time>2022-03-23T11:45:53Z</time>
      </trkpt>
      <trkpt lat="42.949956" lon="-2.324279">
        <ele>1467.20</ele>
        <time>2022-03-23T11:45:56Z</time>
      </trkpt>
      <trkpt lat="42.950002" lon="-2.324301">
        <ele>1468.70</ele>
        <time>2022-03-23T11:46:00Z</time>
      </trkpt>
      <trkpt lat="42.950046" lon="-2.324326">
        <ele>1471.20</ele>
        <time>2022-03-23T11:46:04Z</time>
      </trkpt>
      <trkpt lat="42.950091" lon="-2.324349">
        <ele>1473.60</ele>
        <time>2022-03-23T11:46:08Z</time>
      </trkpt>
      <trkpt lat="42.950135" lon="-2.324379">
        <ele>1476.00</ele>
        <time>2022-03-23T11:46:12Z</time>
      </trkpt>
      <trkpt lat="42.950191" lon="-2.324389">
        <ele>1477.70</ele>
        <time>2022-03-23T11:46:16Z</time>
      </trkpt>
      <trkpt lat="42.950240" lon="-2.324380">
        <ele>1477.90</ele>
        <time>2022-03-23T11:46:20Z</time>
      </trkpt>
      <trkpt lat="42.950284" lon="-2.324404">
        <ele>1480.00</ele>
        <time>2022-03-23T11:46:24Z</time>
      </trkpt>
      <trkpt lat="42.950320" lon="-2.324448">
        <ele>1483.70</ele>
        <time>2022-03-23T11:46:28Z</time>
      </trkpt>
      <trkpt lat="42.950356" lon="-2.324495">
        <ele>1484.40</ele>
        <time>2022-03-23T11:46:32Z</time>
      </trkpt>
      <trkpt lat="42.950401" lon="-2.324510">
        <ele>1486.00</ele>
        <time>2022-03-23T11:46:36Z</time>
      </trkpt>
      <trkpt lat="42.950449" lon="-2.324501">
        <ele>1488.10</ele>
        <time>2022-03-23T11:46:40Z</time>
      </trkpt>
      <trkpt lat="42.950495" lon="-2.324506">
        <ele>1489.80</ele>
        <time>2022-03-23T11:46:43Z</time>
      </trkpt>
      <trkpt lat="42.950547" lon="-2.324513">
        <ele>1491.70</ele>
        <time>2022-03-23T11:46:47Z</time>
      </trkpt>
      <trkpt lat="42.950597" lon="-2.324523">
        <ele>1491.30</ele>
        <time>2022-03-23T11:46:51Z</time>
      </trkpt>
      <trkpt lat="42.950644" lon="-2.324548">
        <ele>1490.90</ele>
        <time>2022-03-23T11:46:55Z</time>
      </trkpt>
      <trkpt lat="42.950682" lon="-2.324591">
        <ele>1491.70</ele>
        <time>2022-03-23T11:46:59Z</time>
      </trkpt>
      <trkpt lat="42.950719" lon="-2.324639">
        <ele>1493.60</ele>
        <time>2022-03-23T11:47:04Z</time>
      </trkpt>
      <trkpt lat="42.950757" lon="-2.324683">
        <ele>1496.50</ele>
        <time>2022-03-23T11:47:07Z</time>
      </trkpt>
      <trkpt lat="42.950803" lon="-2.324704">
        <ele>1499.40</ele>
        <time>2022-03-23T11:47:11Z</time>
      </trkpt>
      <trkpt lat="42.950850" lon="-2.324689">
        <ele>1499.90</ele>
        <time>2022-03-23T11:47:15Z</time>
      </trkpt>
      <trkpt lat="42.950896" lon="-2.324693">
        <ele>1500.70</ele>
        <time>2022-03-23T11:47:19Z</time>
      </trkpt>
      <trkpt lat="42.950945" lon="-2.324698">
        <ele>1501.70</ele>
        <time>2022-03-23T11:47:23Z</time>
      </trkpt>
      <trkpt lat="42.950992" lon="-2.324714">
        <ele>1504.10</ele>
        <time>2022-03-23T11:47:27Z</time>
      </trkpt>
      <trkpt lat="42.951045" lon="-2.324784">
        <ele>1506.30</ele>
        <time>2022-03-23T11:47:33Z</time>
      </trkpt>
      <trkpt lat="42.951078" lon="-2.324832">
        <ele>1507.60</ele>
        <time>2022-03-23T11:47:36Z</time>
      </trkpt>
      <trkpt lat="42.951023" lon="-2.324845">
        <ele>1506.20</ele>
        <time>2022-03-23T11:47:41Z</time>
      </trkpt>
      <trkpt lat="42.951069" lon="-2.324854">
        <ele>1507.60</ele>
        <time>2022-03-23T11:47:45Z</time>
      </trkpt>
      <trkpt lat="42.951034" lon="-2.324815">
        <ele>1506.30</ele>
        <time>2022-03-23T11:47:48Z</time>
      </trkpt>
      <trkpt lat="42.951062" lon="-2.324864">
        <ele>1507.50</ele>
        <time>2022-03-23T11:47:52Z</time>
      </trkpt>
      <trkpt lat="42.951108" lon="-2.324857">
        <ele>1508.80</ele>
        <time>2022-03-23T11:47:56Z</time>
      </trkpt>
      <trkpt lat="42.951141" lon="-2.324902">
        <ele>1508.70</ele>
        <time>2022-03-23T11:47:59Z</time>
      </trkpt>
      <trkpt lat="42.951164" lon="-2.324961">
        <ele>1509.60</ele>
        <time>2022-03-23T11:48:03Z</time>
      </trkpt>
      <trkpt lat="42.951206" lon="-2.324994">
        <ele>1510.10</ele>
        <time>2022-03-23T11:48:07Z</time>
      </trkpt>
      <trkpt lat="42.951242" lon="-2.325040">
        <ele>1510.80</ele>
        <time>2022-03-23T11:48:11Z</time>
      </trkpt>
      <trkpt lat="42.951278" lon="-2.325079">
        <ele>1511.30</ele>
        <time>2022-03-23T11:48:15Z</time>
      </trkpt>
      <trkpt lat="42.951303" lon="-2.325135">
        <ele>1512.70</ele>
        <time>2022-03-23T11:48:19Z</time>
      </trkpt>
      <trkpt lat="42.951319" lon="-2.325200">
        <ele>1514.40</ele>
        <time>2022-03-23T11:48:23Z</time>
      </trkpt>
      <trkpt lat="42.951329" lon="-2.325266">
        <ele>1516.30</ele>
        <time>2022-03-23T11:48:27Z</time>
      </trkpt>
      <trkpt lat="42.951339" lon="-2.325328">
        <ele>1515.90</ele>
        <time>2022-03-23T11:48:30Z</time>
      </trkpt>
      <trkpt lat="42.951299" lon="-2.325362">
        <ele>1514.50</ele>
        <time>2022-03-23T11:48:34Z</time>
      </trkpt>
      <trkpt lat="42.951305" lon="-2.325424">
        <ele>1513.60</ele>
        <time>2022-03-23T11:48:38Z</time>
      </trkpt>
      <trkpt lat="42.951269" lon="-2.325467">
        <ele>1512.20</ele>
        <time>2022-03-23T11:48:42Z</time>
      </trkpt>
      <trkpt lat="42.951233" lon="-2.325514">
        <ele>1510.80</ele>
        <time>2022-03-23T11:48:46Z</time>
      </trkpt>
      <trkpt lat="42.951220" lon="-2.325582">
        <ele>1509.10</ele>
        <time>2022-03-23T11:48:50Z</time>
      </trkpt>
      <trkpt lat="42.951175" lon="-2.325619">
        <ele>1506.80</ele>
        <time>2022-03-23T11:48:54Z</time>
      </trkpt>
      <trkpt lat="42.951133" lon="-2.325642">
        <ele>1505.30</ele>
        <time>2022-03-23T11:48:58Z</time>
      </trkpt>
      <trkpt lat="42.951140" lon="-2.325711">
        <ele>1502.90</ele>
        <time>2022-03-23T11:49:02Z</time>
      </trkpt>
      <trkpt lat="42.951111" lon="-2.325759">
        <ele>1500.80</ele>
        <time>2022-03-23T11:49:05Z</time>
      </trkpt>
      <trkpt lat="42.951067" lon="-2.325804">
        <ele>1498.20</ele>
        <time>2022-03-23T11:49:10Z</time>
      </trkpt>
      <trkpt lat="42.951084" lon="-2.325866">
        <ele>1496.10</ele>
        <time>2022-03-23T11:49:14Z</time>
      </trkpt>
      <trkpt lat="42.951130" lon="-2.325881">
        <ele>1496.20</ele>
        <time>2022-03-23T11:49:17Z</time>
      </trkpt>
      <trkpt lat="42.951178" lon="-2.325886">
        <ele>1496.70</ele>
        <time>2022-03-23T11:49:21Z</time>
      </trkpt>
      <trkpt lat="42.951225" lon="-2.325890">
        <ele>1497.10</ele>
        <time>2022-03-23T11:49:25Z</time>
      </trkpt>
      <trkpt lat="42.951272" lon="-2.325914">
        <ele>1496.70</ele>
        <time>2022-03-23T11:49:29Z</time>
      </trkpt>
      <trkpt lat="42.951319" lon="-2.325956">
        <ele>1495.40</ele>
        <time>2022-03-23T11:49:33Z</time>
      </trkpt>
      <trkpt lat="42.951344" lon="-2.326010">
        <ele>1493.30</ele>
        <time>2022-03-23T11:49:37Z</time>
      </trkpt>
      <trkpt lat="42.951389" lon="-2.326040">
        <ele>1492.40</ele>
        <time>2022-03-23T11:49:41Z</time>
      </trkpt>
      <trkpt lat="42.951439" lon="-2.326062">
        <ele>1491.60</ele>
        <time>2022-03-23T11:49:45Z</time>
      </trkpt>
      <trkpt lat="42.951481" lon="-2.326086">
        <ele>1491.00</ele>
        <time>2022-03-23T11:49:49Z</time>
      </trkpt>
      <trkpt lat="42.951534" lon="-2.326075">
        <ele>1491.60</ele>
        <time>2022-03-23T11:49:53Z</time>
      </trkpt>
      <trkpt lat="42.951586" lon="-2.326098">
        <ele>1491.40</ele>
        <time>2022-03-23T11:49:58Z</time>
      </trkpt>
      <trkpt lat="42.951632" lon="-2.326111">
        <ele>1491.60</ele>
        <time>2022-03-23T11:50:01Z</time>
      </trkpt>
      <trkpt lat="42.951685" lon="-2.326129">
        <ele>1491.60</ele>
        <time>2022-03-23T11:50:06Z</time>
      </trkpt>
      <trkpt lat="42.951720" lon="-2.326169">
        <ele>1490.50</ele>
        <time>2022-03-23T11:50:09Z</time>
      </trkpt>
      <trkpt lat="42.951756" lon="-2.326217">
        <ele>1489.10</ele>
        <time>2022-03-23T11:50:14Z</time>
      </trkpt>
      <trkpt lat="42.951787" lon="-2.326276">
        <ele>1487.30</ele>
        <time>2022-03-23T11:50:18Z</time>
      </trkpt>
      <trkpt lat="42.951833" lon="-2.326315">
        <ele>1486.60</ele>
        <time>2022-03-23T11:50:22Z</time>
      </trkpt>
      <trkpt lat="42.951860" lon="-2.326373">
        <ele>1485.00</ele>
        <time>2022-03-23T11:50:26Z</time>
      </trkpt>
      <trkpt lat="42.951870" lon="-2.326440">
        <ele>1482.00</ele>
        <time>2022-03-23T11:50:30Z</time>
      </trkpt>
      <trkpt lat="42.951907" lon="-2.326489">
        <ele>1480.30</ele>
        <time>2022-03-23T11:50:34Z</time>
      </trkpt>
      <trkpt lat="42.951946" lon="-2.326522">
        <ele>1479.30</ele>
        <time>2022-03-23T11:50:38Z</time>
      </trkpt>
      <trkpt lat="42.951994" lon="-2.326519">
        <ele>1479.20</ele>
        <time>2022-03-23T11:50:42Z</time>
      </trkpt>
      <trkpt lat="42.952041" lon="-2.326529">
        <ele>1478.40</ele>
        <time>2022-03-23T11:50:46Z</time>
      </trkpt>
      <trkpt lat="42.952094" lon="-2.326550">
        <ele>1477.20</ele>
        <time>2022-03-23T11:50:50Z</time>
      </trkpt>
      <trkpt lat="42.952139" lon="-2.326572">
        <ele>1475.80</ele>
        <time>2022-03-23T11:50:54Z</time>
      </trkpt>
      <trkpt lat="42.952189" lon="-2.326590">
        <ele>1474.80</ele>
        <time>2022-03-23T11:50:58Z</time>
      </trkpt>
      <trkpt lat="42.952242" lon="-2.326600">
        <ele>1473.90</ele>
        <time>2022-03-23T11:51:02Z</time>
      </trkpt>
      <trkpt lat="42.952292" lon="-2.326607">
        <ele>1473.30</ele>
        <time>2022-03-23T11:51:06Z</time>
      </trkpt>
      <trkpt lat="42.952341" lon="-2.326630">
        <ele>1472.50</ele>
        <time>2022-03-23T11:51:10Z</time>
      </trkpt>
      <trkpt lat="42.952391" lon="-2.326667">
        <ele>1472.30</ele>
        <time>2022-03-23T11:51:15Z</time>
      </trkpt>
      <trkpt lat="42.952431" lon="-2.326709">
        <ele>1470.80</ele>
        <time>2022-03-23T11:51:19Z</time>
      </trkpt>
      <trkpt lat="42.952481" lon="-2.326741">
        <ele>1469.90</ele>
        <time>2022-03-23T11:51:23Z</time>
      </trkpt>
      <trkpt lat="42.952532" lon="-2.326742">
        <ele>1470.00</ele>
        <time>2022-03-23T11:51:28Z</time>
      </trkpt>
      <trkpt lat="42.952578" lon="-2.326748">
        <ele>1469.70</ele>
        <time>2022-03-23T11:51:31Z</time>
      </trkpt>
      <trkpt lat="42.952628" lon="-2.326778">
        <ele>1468.80</ele>
        <time>2022-03-23T11:51:36Z</time>
      </trkpt>
      <trkpt lat="42.952669" lon="-2.326807">
        <ele>1468.40</ele>
        <time>2022-03-23T11:51:39Z</time>
      </trkpt>
      <trkpt lat="42.952709" lon="-2.326837">
        <ele>1468.40</ele>
        <time>2022-03-23T11:51:43Z</time>
      </trkpt>
      <trkpt lat="42.952744" lon="-2.326876">
        <ele>1468.60</ele>
        <time>2022-03-23T11:51:47Z</time>
      </trkpt>
      <trkpt lat="42.952795" lon="-2.326903">
        <ele>1469.60</ele>
        <time>2022-03-23T11:51:51Z</time>
      </trkpt>
      <trkpt lat="42.952835" lon="-2.326932">
        <ele>1471.00</ele>
        <time>2022-03-23T11:51:55Z</time>
      </trkpt>
      <trkpt lat="42.952881" lon="-2.326950">
        <ele>1472.40</ele>
        <time>2022-03-23T11:51:58Z</time>
      </trkpt>
      <trkpt lat="42.952926" lon="-2.326972">
        <ele>1473.10</ele>
        <time>2022-03-23T11:52:02Z</time>
      </trkpt>
      <trkpt lat="42.952974" lon="-2.327011">
        <ele>1473.00</ele>
        <time>2022-03-23T11:52:07Z</time>
      </trkpt>
      <trkpt lat="42.953020" lon="-2.327052">
        <ele>1473.00</ele>
        <time>2022-03-23T11:52:11Z</time>
      </trkpt>
      <trkpt lat="42.953052" lon="-2.327109">
        <ele>1471.70</ele>
        <time>2022-03-23T11:52:15Z</time>
      </trkpt>
      <trkpt lat="42.953080" lon="-2.327170">
        <ele>1470.80</ele>
        <time>2022-03-23T11:52:20Z</time>
      </trkpt>
      <trkpt lat="42.953108" lon="-2.327228">
        <ele>1469.90</ele>
        <time>2022-03-23T11:52:24Z</time>
      </trkpt>
      <trkpt lat="42.953156" lon="-2.327243">
        <ele>1472.10</ele>
        <time>2022-03-23T11:52:28Z</time>
      </trkpt>
      <trkpt lat="42.953199" lon="-2.327224">
        <ele>1475.70</ele>
        <time>2022-03-23T11:52:31Z</time>
      </trkpt>
      <trkpt lat="42.953241" lon="-2.327263">
        <ele>1476.10</ele>
        <time>2022-03-23T11:52:35Z</time>
      </trkpt>
      <trkpt lat="42.953284" lon="-2.327301">
        <ele>1476.50</ele>
        <time>2022-03-23T11:52:39Z</time>
      </trkpt>
      <trkpt lat="42.953330" lon="-2.327320">
        <ele>1478.20</ele>
        <time>2022-03-23T11:52:43Z</time>
      </trkpt>
      <trkpt lat="42.953374" lon="-2.327341">
        <ele>1478.00</ele>
        <time>2022-03-23T11:52:47Z</time>
      </trkpt>
      <trkpt lat="42.953427" lon="-2.327350">
        <ele>1478.60</ele>
        <time>2022-03-23T11:52:51Z</time>
      </trkpt>
      <trkpt lat="42.953473" lon="-2.327361">
        <ele>1478.80</ele>
        <time>2022-03-23T11:52:55Z</time>
      </trkpt>
      <trkpt lat="42.953522" lon="-2.327374">
        <ele>1479.00</ele>
        <time>2022-03-23T11:52:59Z</time>
      </trkpt>
      <trkpt lat="42.953568" lon="-2.327374">
        <ele>1479.90</ele>
        <time>2022-03-23T11:53:03Z</time>
      </trkpt>
      <trkpt lat="42.953624" lon="-2.327374">
        <ele>1480.90</ele>
        <time>2022-03-23T11:53:07Z</time>
      </trkpt>
      <trkpt lat="42.953669" lon="-2.327374">
        <ele>1481.20</ele>
        <time>2022-03-23T11:53:11Z</time>
      </trkpt>
      <trkpt lat="42.953718" lon="-2.327355">
        <ele>1482.90</ele>
        <time>2022-03-23T11:53:15Z</time>
      </trkpt>
      <trkpt lat="42.953770" lon="-2.327374">
        <ele>1482.20</ele>
        <time>2022-03-23T11:53:19Z</time>
      </trkpt>
      <trkpt lat="42.953814" lon="-2.327387">
        <ele>1481.90</ele>
        <time>2022-03-23T11:53:23Z</time>
      </trkpt>
      <trkpt lat="42.953861" lon="-2.327388">
        <ele>1482.20</ele>
        <time>2022-03-23T11:53:26Z</time>
      </trkpt>
      <trkpt lat="42.953912" lon="-2.327406">
        <ele>1481.20</ele>
        <time>2022-03-23T11:53:31Z</time>
      </trkpt>
      <trkpt lat="42.953957" lon="-2.327423">
        <ele>1479.90</ele>
        <time>2022-03-23T11:53:34Z</time>
      </trkpt>
      <trkpt lat="42.954008" lon="-2.327420">
        <ele>1479.70</ele>
        <time>2022-03-23T11:53:38Z</time>
      </trkpt>
      <trkpt lat="42.954054" lon="-2.327427">
        <ele>1479.00</ele>
        <time>2022-03-23T11:53:42Z</time>
      </trkpt>
      <trkpt lat="42.954107" lon="-2.327449">
        <ele>1478.10</ele>
        <time>2022-03-23T11:53:47Z</time>
      </trkpt>
      <trkpt lat="42.954153" lon="-2.327480">
        <ele>1477.30</ele>
        <time>2022-03-23T11:53:51Z</time>
      </trkpt>
      <trkpt lat="42.954209" lon="-2.327499">
        <ele>1476.40</ele>
        <time>2022-03-23T11:53:55Z</time>
      </trkpt>
      <trkpt lat="42.954248" lon="-2.327534">
        <ele>1474.70</ele>
        <time>2022-03-23T11:53:59Z</time>
      </trkpt>
      <trkpt lat="42.954289" lon="-2.327579">
        <ele>1472.60</ele>
        <time>2022-03-23T11:54:03Z</time>
      </trkpt>
      <trkpt lat="42.954326" lon="-2.327530">
        <ele>1473.80</ele>
        <time>2022-03-23T11:54:07Z</time>
      </trkpt>
      <trkpt lat="42.954365" lon="-2.327486">
        <ele>1474.20</ele>
        <time>2022-03-23T11:54:11Z</time>
      </trkpt>
      <trkpt lat="42.954410" lon="-2.327493">
        <ele>1473.50</ele>
        <time>2022-03-23T11:54:15Z</time>
      </trkpt>
      <trkpt lat="42.954459" lon="-2.327488">
        <ele>1473.20</ele>
        <time>2022-03-23T11:54:19Z</time>
      </trkpt>
      <trkpt lat="42.954510" lon="-2.327490">
        <ele>1474.10</ele>
        <time>2022-03-23T11:54:23Z</time>
      </trkpt>
      <trkpt lat="42.954555" lon="-2.327505">
        <ele>1474.90</ele>
        <time>2022-03-23T11:54:27Z</time>
      </trkpt>
      <trkpt lat="42.954603" lon="-2.327530">
        <ele>1475.30</ele>
        <time>2022-03-23T11:54:31Z</time>
      </trkpt>
      <trkpt lat="42.954649" lon="-2.327545">
        <ele>1475.70</ele>
        <time>2022-03-23T11:54:35Z</time>
      </trkpt>
      <trkpt lat="42.954689" lon="-2.327574">
        <ele>1475.90</ele>
        <time>2022-03-23T11:54:38Z</time>
      </trkpt>
      <trkpt lat="42.954737" lon="-2.327614">
        <ele>1475.90</ele>
        <time>2022-03-23T11:54:43Z</time>
      </trkpt>
      <trkpt lat="42.954779" lon="-2.327641">
        <ele>1476.50</ele>
        <time>2022-03-23T11:54:47Z</time>
      </trkpt>
      <trkpt lat="42.954823" lon="-2.327670">
        <ele>1477.30</ele>
        <time>2022-03-23T11:54:50Z</time>
      </trkpt>
      <trkpt lat="42.954868" lon="-2.327692">
        <ele>1478.40</ele>
        <time>2022-03-23T11:54:54Z</time>
      </trkpt>
      <trkpt lat="42.954918" lon="-2.327691">
        <ele>1479.90</ele>
        <time>2022-03-23T11:54:58Z</time>
      </trkpt>
      <trkpt lat="42.954963" lon="-2.327686">
        <ele>1481.20</ele>
        <time>2022-03-23T11:55:02Z</time>
      </trkpt>
      <trkpt lat="42.955000" lon="-2.327726">
        <ele>1482.20</ele>
        <time>2022-03-23T11:55:06Z</time>
      </trkpt>
      <trkpt lat="42.955039" lon="-2.327761">
        <ele>1483.60</ele>
        <time>2022-03-23T11:55:09Z</time>
      </trkpt>
      <trkpt lat="42.955079" lon="-2.327789">
        <ele>1484.90</ele>
        <time>2022-03-23T11:55:13Z</time>
      </trkpt>
      <trkpt lat="42.955126" lon="-2.327824">
        <ele>1485.70</ele>
        <time>2022-03-23T11:55:17Z</time>
      </trkpt>
      <trkpt lat="42.955171" lon="-2.327850">
        <ele>1486.80</ele>
        <time>2022-03-23T11:55:21Z</time>
      </trkpt>
      <trkpt lat="42.955219" lon="-2.327880">
        <ele>1487.90</ele>
        <time>2022-03-23T11:55:25Z</time>
      </trkpt>
      <trkpt lat="42.955266" lon="-2.327919">
        <ele>1489.00</ele>
        <time>2022-03-23T11:55:30Z</time>
      </trkpt>
      <trkpt lat="42.955310" lon="-2.327955">
        <ele>1489.90</ele>
        <time>2022-03-23T11:55:34Z</time>
      </trkpt>
      <trkpt lat="42.955356" lon="-2.327984">
        <ele>1491.20</ele>
        <time>2022-03-23T11:55:38Z</time>
      </trkpt>
      <trkpt lat="42.955386" lon="-2.328031">
        <ele>1491.60</ele>
        <time>2022-03-23T11:55:42Z</time>
      </trkpt>
      <trkpt lat="42.955410" lon="-2.328088">
        <ele>1490.80</ele>
        <time>2022-03-23T11:55:45Z</time>
      </trkpt>
      <trkpt lat="42.955452" lon="-2.328111">
        <ele>1491.80</ele>
        <time>2022-03-23T11:55:49Z</time>
      </trkpt>
      <trkpt lat="42.955498" lon="-2.328137">
        <ele>1492.80</ele>
        <time>2022-03-23T11:55:53Z</time>
      </trkpt>
      <trkpt lat="42.955544" lon="-2.328173">
        <ele>1493.40</ele>
        <time>2022-03-23T11:55:57Z</time>
      </trkpt>
      <trkpt lat="42.955590" lon="-2.328207">
        <ele>1493.10</ele>
        <time>2022-03-23T11:56:02Z</time>
      </trkpt>
      <trkpt lat="42.955639" lon="-2.328243">
        <ele>1492.40</ele>
        <time>2022-03-23T11:56:06Z</time>
      </trkpt>
      <trkpt lat="42.955691" lon="-2.328274">
        <ele>1492.20</ele>
        <time>2022-03-23T11:56:11Z</time>
      </trkpt>
      <trkpt lat="42.955741" lon="-2.328313">
        <ele>1491.80</ele>
        <time>2022-03-23T11:56:15Z</time>
      </trkpt>
      <trkpt lat="42.955777" lon="-2.328355">
        <ele>1491.30</ele>
        <time>2022-03-23T11:56:19Z</time>
      </trkpt>
      <trkpt lat="42.955814" lon="-2.328390">
        <ele>1491.60</ele>
        <time>2022-03-23T11:56:23Z</time>
      </trkpt>
      <trkpt lat="42.955859" lon="-2.328437">
        <ele>1491.80</ele>
        <time>2022-03-23T11:56:27Z</time>
      </trkpt>
      <trkpt lat="42.955889" lon="-2.328488">
        <ele>1491.50</ele>
        <time>2022-03-23T11:56:31Z</time>
      </trkpt>
      <trkpt lat="42.955919" lon="-2.328536">
        <ele>1491.10</ele>
        <time>2022-03-23T11:56:35Z</time>
      </trkpt>
      <trkpt lat="42.955948" lon="-2.328594">
        <ele>1490.50</ele>
        <time>2022-03-23T11:56:39Z</time>
      </trkpt>
      <trkpt lat="42.955977" lon="-2.328655">
        <ele>1489.20</ele>
        <time>2022-03-23T11:56:43Z</time>
      </trkpt>
      <trkpt lat="42.956003" lon="-2.328711">
        <ele>1488.00</ele>
        <time>2022-03-23T11:56:47Z</time>
      </trkpt>
      <trkpt lat="42.956047" lon="-2.328748">
        <ele>1487.50</ele>
        <time>2022-03-23T11:56:51Z</time>
      </trkpt>
      <trkpt lat="42.956101" lon="-2.328782">
        <ele>1487.30</ele>
        <time>2022-03-23T11:56:56Z</time>
      </trkpt>
      <trkpt lat="42.956141" lon="-2.328813">
        <ele>1486.90</ele>
        <time>2022-03-23T11:56:59Z</time>
      </trkpt>
      <trkpt lat="42.956186" lon="-2.328840">
        <ele>1486.50</ele>
        <time>2022-03-23T11:57:03Z</time>
      </trkpt>
      <trkpt lat="42.956233" lon="-2.328882">
        <ele>1485.60</ele>
        <time>2022-03-23T11:57:08Z</time>
      </trkpt>
      <trkpt lat="42.956279" lon="-2.328916">
        <ele>1485.20</ele>
        <time>2022-03-23T11:57:12Z</time>
      </trkpt>
      <trkpt lat="42.956324" lon="-2.328951">
        <ele>1485.00</ele>
        <time>2022-03-23T11:57:16Z</time>
      </trkpt>
      <trkpt lat="42.956361" lon="-2.329003">
        <ele>1484.50</ele>
        <time>2022-03-23T11:57:20Z</time>
      </trkpt>
      <trkpt lat="42.956386" lon="-2.329057">
        <ele>1484.00</ele>
        <time>2022-03-23T11:57:24Z</time>
      </trkpt>
      <trkpt lat="42.956414" lon="-2.329117">
        <ele>1483.40</ele>
        <time>2022-03-23T11:57:28Z</time>
      </trkpt>
      <trkpt lat="42.956446" lon="-2.329183">
        <ele>1482.80</ele>
        <time>2022-03-23T11:57:33Z</time>
      </trkpt>
      <trkpt lat="42.956471" lon="-2.329241">
        <ele>1482.40</ele>
        <time>2022-03-23T11:57:37Z</time>
      </trkpt>
      <trkpt lat="42.956497" lon="-2.329292">
        <ele>1482.00</ele>
        <time>2022-03-23T11:57:41Z</time>
      </trkpt>
      <trkpt lat="42.956551" lon="-2.329294">
        <ele>1482.60</ele>
        <time>2022-03-23T11:57:45Z</time>
      </trkpt>
      <trkpt lat="42.956598" lon="-2.329276">
        <ele>1483.50</ele>
        <time>2022-03-23T11:57:49Z</time>
      </trkpt>
      <trkpt lat="42.956644" lon="-2.329274">
        <ele>1484.10</ele>
        <time>2022-03-23T11:57:52Z</time>
      </trkpt>
      <trkpt lat="42.956693" lon="-2.329301">
        <ele>1484.40</ele>
        <time>2022-03-23T11:57:57Z</time>
      </trkpt>
      <trkpt lat="42.956741" lon="-2.329336">
        <ele>1485.10</ele>
        <time>2022-03-23T11:58:01Z</time>
      </trkpt>
      <trkpt lat="42.956777" lon="-2.329380">
        <ele>1485.40</ele>
        <time>2022-03-23T11:58:05Z</time>
      </trkpt>
      <trkpt lat="42.956802" lon="-2.329443">
        <ele>1484.90</ele>
        <time>2022-03-23T11:58:09Z</time>
      </trkpt>
      <trkpt lat="42.956817" lon="-2.329502">
        <ele>1484.90</ele>
        <time>2022-03-23T11:58:13Z</time>
      </trkpt>
      <trkpt lat="42.956811" lon="-2.329569">
        <ele>1484.10</ele>
        <time>2022-03-23T11:58:17Z</time>
      </trkpt>
      <trkpt lat="42.956789" lon="-2.329633">
        <ele>1482.70</ele>
        <time>2022-03-23T11:58:21Z</time>
      </trkpt>
      <trkpt lat="42.956780" lon="-2.329694">
        <ele>1481.90</ele>
        <time>2022-03-23T11:58:25Z</time>
      </trkpt>
      <trkpt lat="42.956795" lon="-2.329755">
        <ele>1481.20</ele>
        <time>2022-03-23T11:58:28Z</time>
      </trkpt>
      <trkpt lat="42.956827" lon="-2.329818">
        <ele>1480.20</ele>
        <time>2022-03-23T11:58:33Z</time>
      </trkpt>
      <trkpt lat="42.956849" lon="-2.329877">
        <ele>1479.20</ele>
        <time>2022-03-23T11:58:37Z</time>
      </trkpt>
      <trkpt lat="42.956868" lon="-2.329937">
        <ele>1477.80</ele>
        <time>2022-03-23T11:58:41Z</time>
      </trkpt>
      <trkpt lat="42.956892" lon="-2.329999">
        <ele>1476.60</ele>
        <time>2022-03-23T11:58:45Z</time>
      </trkpt>
      <trkpt lat="42.956907" lon="-2.330064">
        <ele>1473.60</ele>
        <time>2022-03-23T11:58:49Z</time>
      </trkpt>
      <trkpt lat="42.956952" lon="-2.330084">
        <ele>1474.10</ele>
        <time>2022-03-23T11:58:52Z</time>
      </trkpt>
      <trkpt lat="42.956989" lon="-2.330135">
        <ele>1472.50</ele>
        <time>2022-03-23T11:58:57Z</time>
      </trkpt>
      <trkpt lat="42.957022" lon="-2.330195">
        <ele>1470.50</ele>
        <time>2022-03-23T11:59:01Z</time>
      </trkpt>
      <trkpt lat="42.957058" lon="-2.330241">
        <ele>1469.40</ele>
        <time>2022-03-23T11:59:05Z</time>
      </trkpt>
      <trkpt lat="42.957100" lon="-2.330280">
        <ele>1468.90</ele>
        <time>2022-03-23T11:59:09Z</time>
      </trkpt>
      <trkpt lat="42.957134" lon="-2.330322">
        <ele>1468.20</ele>
        <time>2022-03-23T11:59:13Z</time>
      </trkpt>
      <trkpt lat="42.957162" lon="-2.330370">
        <ele>1467.30</ele>
        <time>2022-03-23T11:59:16Z</time>
      </trkpt>
      <trkpt lat="42.957186" lon="-2.330426">
        <ele>1465.70</ele>
        <time>2022-03-23T11:59:20Z</time>
      </trkpt>
      <trkpt lat="42.957224" lon="-2.330490">
        <ele>1464.70</ele>
        <time>2022-03-23T11:59:25Z</time>
      </trkpt>
      <trkpt lat="42.957257" lon="-2.330547">
        <ele>1464.00</ele>
        <time>2022-03-23T11:59:29Z</time>
      </trkpt>
      <trkpt lat="42.957294" lon="-2.330616">
        <ele>1463.20</ele>
        <time>2022-03-23T11:59:34Z</time>
      </trkpt>
      <trkpt lat="42.957327" lon="-2.330675">
        <ele>1462.70</ele>
        <time>2022-03-23T11:59:39Z</time>
      </trkpt>
      <trkpt lat="42.957355" lon="-2.330742">
        <ele>1461.50</ele>
        <time>2022-03-23T11:59:43Z</time>
      </trkpt>
      <trkpt lat="42.957384" lon="-2.330812">
        <ele>1460.30</ele>
        <time>2022-03-23T11:59:48Z</time>
      </trkpt>
      <trkpt lat="42.957413" lon="-2.330872">
        <ele>1459.40</ele>
        <time>2022-03-23T11:59:52Z</time>
      </trkpt>
      <trkpt lat="42.957445" lon="-2.330929">
        <ele>1458.80</ele>
        <time>2022-03-23T11:59:56Z</time>
      </trkpt>
      <trkpt lat="42.957479" lon="-2.330994">
        <ele>1457.70</ele>
        <time>2022-03-23T12:00:01Z</time>
      </trkpt>
      <trkpt lat="42.957509" lon="-2.331050">
        <ele>1456.60</ele>
        <time>2022-03-23T12:00:05Z</time>
      </trkpt>
      <trkpt lat="42.957543" lon="-2.331109">
        <ele>1455.00</ele>
        <time>2022-03-23T12:00:09Z</time>
      </trkpt>
      <trkpt lat="42.957566" lon="-2.331178">
        <ele>1452.60</ele>
        <time>2022-03-23T12:00:14Z</time>
      </trkpt>
      <trkpt lat="42.957588" lon="-2.331235">
        <ele>1450.80</ele>
        <time>2022-03-23T12:00:18Z</time>
      </trkpt>
      <trkpt lat="42.957624" lon="-2.331279">
        <ele>1449.90</ele>
        <time>2022-03-23T12:00:21Z</time>
      </trkpt>
      <trkpt lat="42.957665" lon="-2.331314">
        <ele>1449.50</ele>
        <time>2022-03-23T12:00:25Z</time>
      </trkpt>
      <trkpt lat="42.957702" lon="-2.331368">
        <ele>1448.70</ele>
        <time>2022-03-23T12:00:30Z</time>
      </trkpt>
      <trkpt lat="42.957722" lon="-2.331424">
        <ele>1448.20</ele>
        <time>2022-03-23T12:00:33Z</time>
      </trkpt>
      <trkpt lat="42.957740" lon="-2.331484">
        <ele>1448.70</ele>
        <time>2022-03-23T12:00:37Z</time>
      </trkpt>
      <trkpt lat="42.957732" lon="-2.331551">
        <ele>1448.00</ele>
        <time>2022-03-23T12:00:41Z</time>
      </trkpt>
      <trkpt lat="42.957714" lon="-2.331613">
        <ele>1447.00</ele>
        <time>2022-03-23T12:00:45Z</time>
      </trkpt>
      <trkpt lat="42.957693" lon="-2.331668">
        <ele>1445.40</ele>
        <time>2022-03-23T12:00:49Z</time>
      </trkpt>
      <trkpt lat="42.957657" lon="-2.331724">
        <ele>1442.50</ele>
        <time>2022-03-23T12:00:53Z</time>
      </trkpt>
      <trkpt lat="42.957666" lon="-2.331789">
        <ele>1441.90</ele>
        <time>2022-03-23T12:00:57Z</time>
      </trkpt>
      <trkpt lat="42.957696" lon="-2.331842">
        <ele>1441.90</ele>
        <time>2022-03-23T12:01:01Z</time>
      </trkpt>
      <trkpt lat="42.957729" lon="-2.331895">
        <ele>1441.50</ele>
        <time>2022-03-23T12:01:05Z</time>
      </trkpt>
      <trkpt lat="42.957771" lon="-2.331928">
        <ele>1441.50</ele>
        <time>2022-03-23T12:01:09Z</time>
      </trkpt>
      <trkpt lat="42.957812" lon="-2.331972">
        <ele>1441.00</ele>
        <time>2022-03-23T12:01:13Z</time>
      </trkpt>
      <trkpt lat="42.957863" lon="-2.332003">
        <ele>1441.40</ele>
        <time>2022-03-23T12:01:17Z</time>
      </trkpt>
      <trkpt lat="42.957912" lon="-2.332028">
        <ele>1442.20</ele>
        <time>2022-03-23T12:01:22Z</time>
      </trkpt>
      <trkpt lat="42.957949" lon="-2.332078">
        <ele>1441.70</ele>
        <time>2022-03-23T12:01:26Z</time>
      </trkpt>
      <trkpt lat="42.957984" lon="-2.332135">
        <ele>1441.10</ele>
        <time>2022-03-23T12:01:30Z</time>
      </trkpt>
      <trkpt lat="42.958026" lon="-2.332189">
        <ele>1440.90</ele>
        <time>2022-03-23T12:01:35Z</time>
      </trkpt>
      <trkpt lat="42.958065" lon="-2.332224">
        <ele>1441.00</ele>
        <time>2022-03-23T12:01:38Z</time>
      </trkpt>
      <trkpt lat="42.958109" lon="-2.332261">
        <ele>1440.20</ele>
        <time>2022-03-23T12:01:43Z</time>
      </trkpt>
      <trkpt lat="42.958155" lon="-2.332280">
        <ele>1440.20</ele>
        <time>2022-03-23T12:01:46Z</time>
      </trkpt>
      <trkpt lat="42.958197" lon="-2.332318">
        <ele>1439.30</ele>
        <time>2022-03-23T12:01:50Z</time>
      </trkpt>
      <trkpt lat="42.958238" lon="-2.332345">
        <ele>1438.90</ele>
        <time>2022-03-23T12:01:54Z</time>
      </trkpt>
      <trkpt lat="42.958285" lon="-2.332351">
        <ele>1439.30</ele>
        <time>2022-03-23T12:01:58Z</time>
      </trkpt>
      <trkpt lat="42.958332" lon="-2.332370">
        <ele>1439.20</ele>
        <time>2022-03-23T12:02:02Z</time>
      </trkpt>
      <trkpt lat="42.958376" lon="-2.332391">
        <ele>1440.50</ele>
        <time>2022-03-23T12:02:05Z</time>
      </trkpt>
      <trkpt lat="42.958392" lon="-2.332458">
        <ele>1439.00</ele>
        <time>2022-03-23T12:02:10Z</time>
      </trkpt>
      <trkpt lat="42.958418" lon="-2.332509">
        <ele>1438.40</ele>
        <time>2022-03-23T12:02:13Z</time>
      </trkpt>
      <trkpt lat="42.958457" lon="-2.332552">
        <ele>1438.80</ele>
        <time>2022-03-23T12:02:17Z</time>
      </trkpt>
      <trkpt lat="42.958503" lon="-2.332595">
        <ele>1439.20</ele>
        <time>2022-03-23T12:02:22Z</time>
      </trkpt>
      <trkpt lat="42.958550" lon="-2.332605">
        <ele>1440.70</ele>
        <time>2022-03-23T12:02:26Z</time>
      </trkpt>
      <trkpt lat="42.958565" lon="-2.332670">
        <ele>1439.10</ele>
        <time>2022-03-23T12:02:30Z</time>
      </trkpt>
      <trkpt lat="42.958585" lon="-2.332739">
        <ele>1437.40</ele>
        <time>2022-03-23T12:02:34Z</time>
      </trkpt>
      <trkpt lat="42.958622" lon="-2.332787">
        <ele>1436.90</ele>
        <time>2022-03-23T12:02:38Z</time>
      </trkpt>
      <trkpt lat="42.958664" lon="-2.332812">
        <ele>1436.60</ele>
        <time>2022-03-23T12:02:42Z</time>
      </trkpt>
      <trkpt lat="42.958696" lon="-2.332857">
        <ele>1435.20</ele>
        <time>2022-03-23T12:02:45Z</time>
      </trkpt>
      <trkpt lat="42.958724" lon="-2.332910">
        <ele>1433.60</ele>
        <time>2022-03-23T12:02:49Z</time>
      </trkpt>
      <trkpt lat="42.958687" lon="-2.332950">
        <ele>1431.20</ele>
        <time>2022-03-23T12:02:53Z</time>
      </trkpt>
      <trkpt lat="42.958687" lon="-2.333013">
        <ele>1428.40</ele>
        <time>2022-03-23T12:02:57Z</time>
      </trkpt>
      <trkpt lat="42.958720" lon="-2.333058">
        <ele>1427.30</ele>
        <time>2022-03-23T12:03:00Z</time>
      </trkpt>
      <trkpt lat="42.958754" lon="-2.333100">
        <ele>1426.40</ele>
        <time>2022-03-23T12:03:04Z</time>
      </trkpt>
      <trkpt lat="42.958785" lon="-2.333150">
        <ele>1425.20</ele>
        <time>2022-03-23T12:03:08Z</time>
      </trkpt>
      <trkpt lat="42.958812" lon="-2.333205">
        <ele>1423.80</ele>
        <time>2022-03-23T12:03:12Z</time>
      </trkpt>
      <trkpt lat="42.958829" lon="-2.333271">
        <ele>1421.80</ele>
        <time>2022-03-23T12:03:16Z</time>
      </trkpt>
      <trkpt lat="42.958849" lon="-2.333349">
        <ele>1419.50</ele>
        <time>2022-03-23T12:03:21Z</time>
      </trkpt>
      <trkpt lat="42.958868" lon="-2.333414">
        <ele>1417.70</ele>
        <time>2022-03-23T12:03:25Z</time>
      </trkpt>
      <trkpt lat="42.958887" lon="-2.333478">
        <ele>1415.70</ele>
        <time>2022-03-23T12:03:29Z</time>
      </trkpt>
      <trkpt lat="42.958908" lon="-2.333551">
        <ele>1414.00</ele>
        <time>2022-03-23T12:03:33Z</time>
      </trkpt>
      <trkpt lat="42.958915" lon="-2.333626">
        <ele>1411.50</ele>
        <time>2022-03-23T12:03:38Z</time>
      </trkpt>
      <trkpt lat="42.958909" lon="-2.333696">
        <ele>1409.30</ele>
        <time>2022-03-23T12:03:42Z</time>
      </trkpt>
      <trkpt lat="42.958916" lon="-2.333764">
        <ele>1407.60</ele>
        <time>2022-03-23T12:03:46Z</time>
      </trkpt>
      <trkpt lat="42.958931" lon="-2.333824">
        <ele>1406.30</ele>
        <time>2022-03-23T12:03:50Z</time>
      </trkpt>
      <trkpt lat="42.958937" lon="-2.333898">
        <ele>1404.30</ele>
        <time>2022-03-23T12:03:54Z</time>
      </trkpt>
      <trkpt lat="42.958937" lon="-2.333964">
        <ele>1402.50</ele>
        <time>2022-03-23T12:03:58Z</time>
      </trkpt>
      <trkpt lat="42.958948" lon="-2.334031">
        <ele>1401.20</ele>
        <time>2022-03-23T12:04:02Z</time>
      </trkpt>
      <trkpt lat="42.958962" lon="-2.334101">
        <ele>1400.00</ele>
        <time>2022-03-23T12:04:06Z</time>
      </trkpt>
      <trkpt lat="42.958984" lon="-2.334179">
        <ele>1399.00</ele>
        <time>2022-03-23T12:04:11Z</time>
      </trkpt>
      <trkpt lat="42.958992" lon="-2.334248">
        <ele>1398.00</ele>
        <time>2022-03-23T12:04:15Z</time>
      </trkpt>
      <trkpt lat="42.958992" lon="-2.334328">
        <ele>1396.80</ele>
        <time>2022-03-23T12:04:20Z</time>
      </trkpt>
      <trkpt lat="42.958993" lon="-2.334391">
        <ele>1395.70</ele>
        <time>2022-03-23T12:04:24Z</time>
      </trkpt>
      <trkpt lat="42.958996" lon="-2.334453">
        <ele>1394.70</ele>
        <time>2022-03-23T12:04:27Z</time>
      </trkpt>
      <trkpt lat="42.958995" lon="-2.334528">
        <ele>1392.90</ele>
        <time>2022-03-23T12:04:32Z</time>
      </trkpt>
      <trkpt lat="42.958987" lon="-2.334592">
        <ele>1391.20</ele>
        <time>2022-03-23T12:04:35Z</time>
      </trkpt>
      <trkpt lat="42.958986" lon="-2.334654">
        <ele>1389.70</ele>
        <time>2022-03-23T12:04:39Z</time>
      </trkpt>
      <trkpt lat="42.958957" lon="-2.334701">
        <ele>1387.70</ele>
        <time>2022-03-23T12:04:43Z</time>
      </trkpt>
      <trkpt lat="42.958938" lon="-2.334767">
        <ele>1385.40</ele>
        <time>2022-03-23T12:04:47Z</time>
      </trkpt>
      <trkpt lat="42.958953" lon="-2.334825">
        <ele>1384.30</ele>
        <time>2022-03-23T12:04:50Z</time>
      </trkpt>
      <trkpt lat="42.958958" lon="-2.334902">
        <ele>1382.40</ele>
        <time>2022-03-23T12:04:55Z</time>
      </trkpt>
      <trkpt lat="42.958964" lon="-2.334965">
        <ele>1381.00</ele>
        <time>2022-03-23T12:04:59Z</time>
      </trkpt>
      <trkpt lat="42.958967" lon="-2.335034">
        <ele>1379.20</ele>
        <time>2022-03-23T12:05:03Z</time>
      </trkpt>
      <trkpt lat="42.958944" lon="-2.335087">
        <ele>1377.10</ele>
        <time>2022-03-23T12:05:06Z</time>
      </trkpt>
      <trkpt lat="42.958941" lon="-2.335149">
        <ele>1375.30</ele>
        <time>2022-03-23T12:05:10Z</time>
      </trkpt>
      <trkpt lat="42.958951" lon="-2.335215">
        <ele>1374.10</ele>
        <time>2022-03-23T12:05:14Z</time>
      </trkpt>
      <trkpt lat="42.958957" lon="-2.335287">
        <ele>1372.50</ele>
        <time>2022-03-23T12:05:18Z</time>
      </trkpt>
      <trkpt lat="42.958956" lon="-2.335357">
        <ele>1370.50</ele>
        <time>2022-03-23T12:05:22Z</time>
      </trkpt>
      <trkpt lat="42.958954" lon="-2.335421">
        <ele>1368.70</ele>
        <time>2022-03-23T12:05:26Z</time>
      </trkpt>
      <trkpt lat="42.958946" lon="-2.335483">
        <ele>1366.90</ele>
        <time>2022-03-23T12:05:30Z</time>
      </trkpt>
      <trkpt lat="42.958956" lon="-2.335548">
        <ele>1365.40</ele>
        <time>2022-03-23T12:05:34Z</time>
      </trkpt>
      <trkpt lat="42.958950" lon="-2.335611">
        <ele>1363.30</ele>
        <time>2022-03-23T12:05:37Z</time>
      </trkpt>
      <trkpt lat="42.958965" lon="-2.335670">
        <ele>1361.90</ele>
        <time>2022-03-23T12:05:41Z</time>
      </trkpt>
      <trkpt lat="42.958986" lon="-2.335740">
        <ele>1360.50</ele>
        <time>2022-03-23T12:05:45Z</time>
      </trkpt>
      <trkpt lat="42.959019" lon="-2.335784">
        <ele>1359.90</ele>
        <time>2022-03-23T12:05:49Z</time>
      </trkpt>
      <trkpt lat="42.959067" lon="-2.335814">
        <ele>1360.10</ele>
        <time>2022-03-23T12:05:53Z</time>
      </trkpt>
      <trkpt lat="42.959092" lon="-2.335872">
        <ele>1358.70</ele>
        <time>2022-03-23T12:05:57Z</time>
      </trkpt>
      <trkpt lat="42.959094" lon="-2.335944">
        <ele>1355.90</ele>
        <time>2022-03-23T12:06:01Z</time>
      </trkpt>
      <trkpt lat="42.959101" lon="-2.336005">
        <ele>1353.60</ele>
        <time>2022-03-23T12:06:05Z</time>
      </trkpt>
      <trkpt lat="42.959107" lon="-2.336070">
        <ele>1351.10</ele>
        <time>2022-03-23T12:06:09Z</time>
      </trkpt>
      <trkpt lat="42.959089" lon="-2.336135">
        <ele>1347.90</ele>
        <time>2022-03-23T12:06:13Z</time>
      </trkpt>
      <trkpt lat="42.959047" lon="-2.336173">
        <ele>1345.20</ele>
        <time>2022-03-23T12:06:17Z</time>
      </trkpt>
      <trkpt lat="42.959000" lon="-2.336195">
        <ele>1343.10</ele>
        <time>2022-03-23T12:06:21Z</time>
      </trkpt>
      <trkpt lat="42.958956" lon="-2.336213">
        <ele>1341.20</ele>
        <time>2022-03-23T12:06:25Z</time>
      </trkpt>
      <trkpt lat="42.958991" lon="-2.336271">
        <ele>1339.50</ele>
        <time>2022-03-23T12:06:29Z</time>
      </trkpt>
      <trkpt lat="42.959033" lon="-2.336301">
        <ele>1339.20</ele>
        <time>2022-03-23T12:06:33Z</time>
      </trkpt>
      <trkpt lat="42.959065" lon="-2.336351">
        <ele>1337.50</ele>
        <time>2022-03-23T12:06:37Z</time>
      </trkpt>
      <trkpt lat="42.959094" lon="-2.336405">
        <ele>1335.70</ele>
        <time>2022-03-23T12:06:41Z</time>
      </trkpt>
      <trkpt lat="42.959128" lon="-2.336447">
        <ele>1334.10</ele>
        <time>2022-03-23T12:06:44Z</time>
      </trkpt>
      <trkpt lat="42.959160" lon="-2.336491">
        <ele>1332.40</ele>
        <time>2022-03-23T12:06:48Z</time>
      </trkpt>
      <trkpt lat="42.959116" lon="-2.336506">
        <ele>1330.70</ele>
        <time>2022-03-23T12:06:52Z</time>
      </trkpt>
      <trkpt lat="42.959069" lon="-2.336508">
        <ele>1329.70</ele>
        <time>2022-03-23T12:06:55Z</time>
      </trkpt>
      <trkpt lat="42.959025" lon="-2.336526">
        <ele>1327.90</ele>
        <time>2022-03-23T12:06:59Z</time>
      </trkpt>
      <trkpt lat="42.958978" lon="-2.336535">
        <ele>1326.40</ele>
        <time>2022-03-23T12:07:03Z</time>
      </trkpt>
      <trkpt lat="42.958930" lon="-2.336536">
        <ele>1325.40</ele>
        <time>2022-03-23T12:07:07Z</time>
      </trkpt>
      <trkpt lat="42.958933" lon="-2.336601">
        <ele>1322.10</ele>
        <time>2022-03-23T12:07:11Z</time>
      </trkpt>
      <trkpt lat="42.958990" lon="-2.336629">
        <ele>1321.80</ele>
        <time>2022-03-23T12:07:15Z</time>
      </trkpt>
      <trkpt lat="42.959036" lon="-2.336659">
        <ele>1321.10</ele>
        <time>2022-03-23T12:07:19Z</time>
      </trkpt>
      <trkpt lat="42.959083" lon="-2.336687">
        <ele>1320.40</ele>
        <time>2022-03-23T12:07:24Z</time>
      </trkpt>
      <trkpt lat="42.959118" lon="-2.336739">
        <ele>1318.40</ele>
        <time>2022-03-23T12:07:28Z</time>
      </trkpt>
      <trkpt lat="42.959149" lon="-2.336788">
        <ele>1316.20</ele>
        <time>2022-03-23T12:07:31Z</time>
      </trkpt>
      <trkpt lat="42.959102" lon="-2.336815">
        <ele>1314.00</ele>
        <time>2022-03-23T12:07:36Z</time>
      </trkpt>
      <trkpt lat="42.959058" lon="-2.336828">
        <ele>1312.60</ele>
        <time>2022-03-23T12:07:39Z</time>
      </trkpt>
      <trkpt lat="42.959020" lon="-2.336867">
        <ele>1310.00</ele>
        <time>2022-03-23T12:07:43Z</time>
      </trkpt>
      <trkpt lat="42.958971" lon="-2.336867">
        <ele>1309.30</ele>
        <time>2022-03-23T12:07:47Z</time>
      </trkpt>
      <trkpt lat="42.958919" lon="-2.336865">
        <ele>1308.60</ele>
        <time>2022-03-23T12:07:51Z</time>
      </trkpt>
      <trkpt lat="42.958864" lon="-2.336876">
        <ele>1307.00</ele>
        <time>2022-03-23T12:07:56Z</time>
      </trkpt>
      <trkpt lat="42.958815" lon="-2.336892">
        <ele>1305.20</ele>
        <time>2022-03-23T12:08:00Z</time>
      </trkpt>
      <trkpt lat="42.958767" lon="-2.336915">
        <ele>1303.20</ele>
        <time>2022-03-23T12:08:04Z</time>
      </trkpt>
      <trkpt lat="42.958715" lon="-2.336930">
        <ele>1301.60</ele>
        <time>2022-03-23T12:08:08Z</time>
      </trkpt>
      <trkpt lat="42.958660" lon="-2.336941">
        <ele>1300.00</ele>
        <time>2022-03-23T12:08:12Z</time>
      </trkpt>
      <trkpt lat="42.958607" lon="-2.336957">
        <ele>1298.40</ele>
        <time>2022-03-23T12:08:17Z</time>
      </trkpt>
      <trkpt lat="42.958563" lon="-2.336980">
        <ele>1296.00</ele>
        <time>2022-03-23T12:08:20Z</time>
      </trkpt>
      <trkpt lat="42.958608" lon="-2.336990">
        <ele>1297.20</ele>
        <time>2022-03-23T12:08:24Z</time>
      </trkpt>
      <trkpt lat="42.958649" lon="-2.337025">
        <ele>1296.40</ele>
        <time>2022-03-23T12:08:28Z</time>
      </trkpt>
      <trkpt lat="42.958652" lon="-2.337088">
        <ele>1293.90</ele>
        <time>2022-03-23T12:08:32Z</time>
      </trkpt>
      <trkpt lat="42.958641" lon="-2.337150">
        <ele>1291.30</ele>
        <time>2022-03-23T12:08:35Z</time>
      </trkpt>
      <trkpt lat="42.958611" lon="-2.337201">
        <ele>1288.80</ele>
        <time>2022-03-23T12:08:39Z</time>
      </trkpt>
      <trkpt lat="42.958638" lon="-2.337252">
        <ele>1286.90</ele>
        <time>2022-03-23T12:08:43Z</time>
      </trkpt>
      <trkpt lat="42.958679" lon="-2.337282">
        <ele>1285.90</ele>
        <time>2022-03-23T12:08:47Z</time>
      </trkpt>
      <trkpt lat="42.958719" lon="-2.337321">
        <ele>1284.40</ele>
        <time>2022-03-23T12:08:51Z</time>
      </trkpt>
      <trkpt lat="42.958714" lon="-2.337392">
        <ele>1281.30</ele>
        <time>2022-03-23T12:08:55Z</time>
      </trkpt>
      <trkpt lat="42.958673" lon="-2.337435">
        <ele>1279.10</ele>
        <time>2022-03-23T12:08:59Z</time>
      </trkpt>
      <trkpt lat="42.958633" lon="-2.337465">
        <ele>1277.60</ele>
        <time>2022-03-23T12:09:03Z</time>
      </trkpt>
      <trkpt lat="42.958669" lon="-2.337506">
        <ele>1276.00</ele>
        <time>2022-03-23T12:09:06Z</time>
      </trkpt>
      <trkpt lat="42.958715" lon="-2.337532">
        <ele>1275.10</ele>
        <time>2022-03-23T12:09:10Z</time>
      </trkpt>
      <trkpt lat="42.958739" lon="-2.337594">
        <ele>1272.40</ele>
        <time>2022-03-23T12:09:14Z</time>
      </trkpt>
      <trkpt lat="42.958747" lon="-2.337660">
        <ele>1269.60</ele>
        <time>2022-03-23T12:09:18Z</time>
      </trkpt>
      <trkpt lat="42.958708" lon="-2.337699">
        <ele>1268.10</ele>
        <time>2022-03-23T12:09:22Z</time>
      </trkpt>
      <trkpt lat="42.958711" lon="-2.337760">
        <ele>1265.40</ele>
        <time>2022-03-23T12:09:26Z</time>
      </trkpt>
      <trkpt lat="42.958753" lon="-2.337792">
        <ele>1263.90</ele>
        <time>2022-03-23T12:09:30Z</time>
      </trkpt>
      <trkpt lat="42.958792" lon="-2.337824">
        <ele>1262.40</ele>
        <time>2022-03-23T12:09:33Z</time>
      </trkpt>
      <trkpt lat="42.958825" lon="-2.337871">
        <ele>1260.20</ele>
        <time>2022-03-23T12:09:37Z</time>
      </trkpt>
      <trkpt lat="42.958858" lon="-2.337916">
        <ele>1258.10</ele>
        <time>2022-03-23T12:09:41Z</time>
      </trkpt>
      <trkpt lat="42.958886" lon="-2.337968">
        <ele>1255.90</ele>
        <time>2022-03-23T12:09:45Z</time>
      </trkpt>
      <trkpt lat="42.958932" lon="-2.337986">
        <ele>1255.30</ele>
        <time>2022-03-23T12:09:48Z</time>
      </trkpt>
      <trkpt lat="42.958976" lon="-2.338004">
        <ele>1254.50</ele>
        <time>2022-03-23T12:09:52Z</time>
      </trkpt>
      <trkpt lat="42.959034" lon="-2.338031">
        <ele>1253.60</ele>
        <time>2022-03-23T12:09:57Z</time>
      </trkpt>
      <trkpt lat="42.959080" lon="-2.338067">
        <ele>1252.20</ele>
        <time>2022-03-23T12:10:01Z</time>
      </trkpt>
      <trkpt lat="42.959123" lon="-2.338109">
        <ele>1250.70</ele>
        <time>2022-03-23T12:10:05Z</time>
      </trkpt>
      <trkpt lat="42.959169" lon="-2.338148">
        <ele>1249.40</ele>
        <time>2022-03-23T12:10:10Z</time>
      </trkpt>
      <trkpt lat="42.959208" lon="-2.338180">
        <ele>1248.60</ele>
        <time>2022-03-23T12:10:13Z</time>
      </trkpt>
      <trkpt lat="42.959254" lon="-2.338223">
        <ele>1247.20</ele>
        <time>2022-03-23T12:10:18Z</time>
      </trkpt>
      <trkpt lat="42.959305" lon="-2.338248">
        <ele>1246.50</ele>
        <time>2022-03-23T12:10:22Z</time>
      </trkpt>
      <trkpt lat="42.959344" lon="-2.338304">
        <ele>1244.50</ele>
        <time>2022-03-23T12:10:27Z</time>
      </trkpt>
      <trkpt lat="42.959379" lon="-2.338347">
        <ele>1243.10</ele>
        <time>2022-03-23T12:10:31Z</time>
      </trkpt>
      <trkpt lat="42.959418" lon="-2.338397">
        <ele>1241.30</ele>
        <time>2022-03-23T12:10:35Z</time>
      </trkpt>
      <trkpt lat="42.959461" lon="-2.338447">
        <ele>1239.90</ele>
        <time>2022-03-23T12:10:39Z</time>
      </trkpt>
      <trkpt lat="42.959507" lon="-2.338472">
        <ele>1239.60</ele>
        <time>2022-03-23T12:10:43Z</time>
      </trkpt>
      <trkpt lat="42.959536" lon="-2.338532">
        <ele>1237.60</ele>
        <time>2022-03-23T12:10:48Z</time>
      </trkpt>
      <trkpt lat="42.959573" lon="-2.338573">
        <ele>1236.40</ele>
        <time>2022-03-23T12:10:51Z</time>
      </trkpt>
      <trkpt lat="42.959623" lon="-2.338557">
        <ele>1237.80</ele>
        <time>2022-03-23T12:10:55Z</time>
      </trkpt>
      <trkpt lat="42.959671" lon="-2.338553">
        <ele>1238.70</ele>
        <time>2022-03-23T12:10:59Z</time>
      </trkpt>
      <trkpt lat="42.959719" lon="-2.338587">
        <ele>1238.10</ele>
        <time>2022-03-23T12:11:04Z</time>
      </trkpt>
      <trkpt lat="42.959739" lon="-2.338643">
        <ele>1236.00</ele>
        <time>2022-03-23T12:11:07Z</time>
      </trkpt>
      <trkpt lat="42.959758" lon="-2.338704">
        <ele>1233.90</ele>
        <time>2022-03-23T12:11:11Z</time>
      </trkpt>
      <trkpt lat="42.959801" lon="-2.338739">
        <ele>1233.20</ele>
        <time>2022-03-23T12:11:15Z</time>
      </trkpt>
      <trkpt lat="42.959845" lon="-2.338769">
        <ele>1232.70</ele>
        <time>2022-03-23T12:11:19Z</time>
      </trkpt>
      <trkpt lat="42.959884" lon="-2.338811">
        <ele>1231.60</ele>
        <time>2022-03-23T12:11:23Z</time>
      </trkpt>
      <trkpt lat="42.959932" lon="-2.338832">
        <ele>1231.50</ele>
        <time>2022-03-23T12:11:27Z</time>
      </trkpt>
      <trkpt lat="42.959982" lon="-2.338853">
        <ele>1231.30</ele>
        <time>2022-03-23T12:11:31Z</time>
      </trkpt>
      <trkpt lat="42.960027" lon="-2.338872">
        <ele>1231.10</ele>
        <time>2022-03-23T12:11:35Z</time>
      </trkpt>
      <trkpt lat="42.960076" lon="-2.338893">
        <ele>1230.90</ele>
        <time>2022-03-23T12:11:39Z</time>
      </trkpt>
      <trkpt lat="42.960128" lon="-2.338912">
        <ele>1230.90</ele>
        <time>2022-03-23T12:11:43Z</time>
      </trkpt>
      <trkpt lat="42.960179" lon="-2.338916">
        <ele>1231.50</ele>
        <time>2022-03-23T12:11:48Z</time>
      </trkpt>
      <trkpt lat="42.960211" lon="-2.338959">
        <ele>1230.30</ele>
        <time>2022-03-23T12:11:51Z</time>
      </trkpt>
      <trkpt lat="42.960265" lon="-2.338975">
        <ele>1230.50</ele>
        <time>2022-03-23T12:11:56Z</time>
      </trkpt>
      <trkpt lat="42.960314" lon="-2.338998">
        <ele>1230.10</ele>
        <time>2022-03-23T12:12:00Z</time>
      </trkpt>
      <trkpt lat="42.960368" lon="-2.339012">
        <ele>1230.20</ele>
        <time>2022-03-23T12:12:04Z</time>
      </trkpt>
      <trkpt lat="42.960413" lon="-2.339056">
        <ele>1229.20</ele>
        <time>2022-03-23T12:12:09Z</time>
      </trkpt>
      <trkpt lat="42.960453" lon="-2.339090">
        <ele>1228.40</ele>
        <time>2022-03-23T12:12:12Z</time>
      </trkpt>
      <trkpt lat="42.960494" lon="-2.339123">
        <ele>1227.80</ele>
        <time>2022-03-23T12:12:16Z</time>
      </trkpt>
      <trkpt lat="42.960539" lon="-2.339134">
        <ele>1227.90</ele>
        <time>2022-03-23T12:12:20Z</time>
      </trkpt>
      <trkpt lat="42.960583" lon="-2.339164">
        <ele>1227.60</ele>
        <time>2022-03-23T12:12:24Z</time>
      </trkpt>
      <trkpt lat="42.960637" lon="-2.339167">
        <ele>1228.60</ele>
        <time>2022-03-23T12:12:28Z</time>
      </trkpt>
      <trkpt lat="42.960688" lon="-2.339181">
        <ele>1228.90</ele>
        <time>2022-03-23T12:12:32Z</time>
      </trkpt>
      <trkpt lat="42.960733" lon="-2.339221">
        <ele>1228.60</ele>
        <time>2022-03-23T12:12:37Z</time>
      </trkpt>
      <trkpt lat="42.960767" lon="-2.339278">
        <ele>1227.50</ele>
        <time>2022-03-23T12:12:41Z</time>
      </trkpt>
      <trkpt lat="42.960806" lon="-2.339318">
        <ele>1227.00</ele>
        <time>2022-03-23T12:12:45Z</time>
      </trkpt>
      <trkpt lat="42.960845" lon="-2.339366">
        <ele>1226.50</ele>
        <time>2022-03-23T12:12:49Z</time>
      </trkpt>
      <trkpt lat="42.960885" lon="-2.339412">
        <ele>1226.10</ele>
        <time>2022-03-23T12:12:53Z</time>
      </trkpt>
      <trkpt lat="42.960924" lon="-2.339445">
        <ele>1226.00</ele>
        <time>2022-03-23T12:12:57Z</time>
      </trkpt>
      <trkpt lat="42.960972" lon="-2.339476">
        <ele>1226.20</ele>
        <time>2022-03-23T12:13:01Z</time>
      </trkpt>
      <trkpt lat="42.961026" lon="-2.339514">
        <ele>1226.30</ele>
        <time>2022-03-23T12:13:06Z</time>
      </trkpt>
      <trkpt lat="42.961071" lon="-2.339546">
        <ele>1226.20</ele>
        <time>2022-03-23T12:13:10Z</time>
      </trkpt>
      <trkpt lat="42.961123" lon="-2.339555">
        <ele>1227.20</ele>
        <time>2022-03-23T12:13:14Z</time>
      </trkpt>
      <trkpt lat="42.961158" lon="-2.339595">
        <ele>1227.20</ele>
        <time>2022-03-23T12:13:18Z</time>
      </trkpt>
      <trkpt lat="42.961194" lon="-2.339645">
        <ele>1227.00</ele>
        <time>2022-03-23T12:13:22Z</time>
      </trkpt>
      <trkpt lat="42.961238" lon="-2.339678">
        <ele>1227.50</ele>
        <time>2022-03-23T12:13:26Z</time>
      </trkpt>
      <trkpt lat="42.961287" lon="-2.339714">
        <ele>1228.00</ele>
        <time>2022-03-23T12:13:30Z</time>
      </trkpt>
      <trkpt lat="42.961327" lon="-2.339751">
        <ele>1228.30</ele>
        <time>2022-03-23T12:13:34Z</time>
      </trkpt>
      <trkpt lat="42.961366" lon="-2.339804">
        <ele>1228.20</ele>
        <time>2022-03-23T12:13:39Z</time>
      </trkpt>
      <trkpt lat="42.961387" lon="-2.339868">
        <ele>1227.30</ele>
        <time>2022-03-23T12:13:43Z</time>
      </trkpt>
      <trkpt lat="42.961400" lon="-2.339945">
        <ele>1226.00</ele>
        <time>2022-03-23T12:13:47Z</time>
      </trkpt>
      <trkpt lat="42.961429" lon="-2.340007">
        <ele>1225.70</ele>
        <time>2022-03-23T12:13:52Z</time>
      </trkpt>
      <trkpt lat="42.961428" lon="-2.340077">
        <ele>1224.10</ele>
        <time>2022-03-23T12:13:56Z</time>
      </trkpt>
      <trkpt lat="42.961430" lon="-2.340149">
        <ele>1222.70</ele>
        <time>2022-03-23T12:14:00Z</time>
      </trkpt>
      <trkpt lat="42.961469" lon="-2.340188">
        <ele>1223.40</ele>
        <time>2022-03-23T12:14:04Z</time>
      </trkpt>
      <trkpt lat="42.961506" lon="-2.340231">
        <ele>1224.20</ele>
        <time>2022-03-23T12:14:08Z</time>
      </trkpt>
      <trkpt lat="42.961540" lon="-2.340286">
        <ele>1224.30</ele>
        <time>2022-03-23T12:14:12Z</time>
      </trkpt>
      <trkpt lat="42.961585" lon="-2.340317">
        <ele>1225.60</ele>
        <time>2022-03-23T12:14:16Z</time>
      </trkpt>
      <trkpt lat="42.961624" lon="-2.340355">
        <ele>1226.50</ele>
        <time>2022-03-23T12:14:20Z</time>
      </trkpt>
      <trkpt lat="42.961642" lon="-2.340413">
        <ele>1226.10</ele>
        <time>2022-03-23T12:14:24Z</time>
      </trkpt>
      <trkpt lat="42.961660" lon="-2.340474">
        <ele>1225.50</ele>
        <time>2022-03-23T12:14:27Z</time>
      </trkpt>
      <trkpt lat="42.961690" lon="-2.340531">
        <ele>1225.60</ele>
        <time>2022-03-23T12:14:32Z</time>
      </trkpt>
      <trkpt lat="42.961725" lon="-2.340570">
        <ele>1226.70</ele>
        <time>2022-03-23T12:14:35Z</time>
      </trkpt>
      <trkpt lat="42.961760" lon="-2.340612">
        <ele>1227.80</ele>
        <time>2022-03-23T12:14:39Z</time>
      </trkpt>
      <trkpt lat="42.961802" lon="-2.340644">
        <ele>1229.20</ele>
        <time>2022-03-23T12:14:43Z</time>
      </trkpt>
      <trkpt lat="42.961828" lon="-2.340701">
        <ele>1229.70</ele>
        <time>2022-03-23T12:14:47Z</time>
      </trkpt>
      <trkpt lat="42.961839" lon="-2.340766">
        <ele>1229.20</ele>
        <time>2022-03-23T12:14:51Z</time>
      </trkpt>
      <trkpt lat="42.961877" lon="-2.340809">
        <ele>1230.00</ele>
        <time>2022-03-23T12:14:55Z</time>
      </trkpt>
      <trkpt lat="42.961924" lon="-2.340817">
        <ele>1231.60</ele>
        <time>2022-03-23T12:14:58Z</time>
      </trkpt>
      <trkpt lat="42.961971" lon="-2.340814">
        <ele>1233.20</ele>
        <time>2022-03-23T12:15:02Z</time>
      </trkpt>
      <trkpt lat="42.962019" lon="-2.340833">
        <ele>1234.20</ele>
        <time>2022-03-23T12:15:06Z</time>
      </trkpt>
      <trkpt lat="42.962065" lon="-2.340850">
        <ele>1235.50</ele>
        <time>2022-03-23T12:15:10Z</time>
      </trkpt>
      <trkpt lat="42.962105" lon="-2.340879">
        <ele>1236.60</ele>
        <time>2022-03-23T12:15:14Z</time>
      </trkpt>
      <trkpt lat="42.962148" lon="-2.340905">
        <ele>1237.90</ele>
        <time>2022-03-23T12:15:17Z</time>
      </trkpt>
      <trkpt lat="42.962197" lon="-2.340905">
        <ele>1239.40</ele>
        <time>2022-03-23T12:15:21Z</time>
      </trkpt>
      <trkpt lat="42.962240" lon="-2.340861">
        <ele>1240.60</ele>
        <time>2022-03-23T12:15:26Z</time>
      </trkpt>
      <trkpt lat="42.962286" lon="-2.340845">
        <ele>1242.00</ele>
        <time>2022-03-23T12:15:29Z</time>
      </trkpt>
      <trkpt lat="42.962334" lon="-2.340843">
        <ele>1243.70</ele>
        <time>2022-03-23T12:15:33Z</time>
      </trkpt>
      <trkpt lat="42.962383" lon="-2.340856">
        <ele>1245.20</ele>
        <time>2022-03-23T12:15:37Z</time>
      </trkpt>
      <trkpt lat="42.962433" lon="-2.340858">
        <ele>1246.70</ele>
        <time>2022-03-23T12:15:41Z</time>
      </trkpt>
      <trkpt lat="42.962478" lon="-2.340878">
        <ele>1247.90</ele>
        <time>2022-03-23T12:15:45Z</time>
      </trkpt>
      <trkpt lat="42.962532" lon="-2.340885">
        <ele>1249.30</ele>
        <time>2022-03-23T12:15:49Z</time>
      </trkpt>
      <trkpt lat="42.962586" lon="-2.340861">
        <ele>1250.70</ele>
        <time>2022-03-23T12:15:54Z</time>
      </trkpt>
      <trkpt lat="42.962630" lon="-2.340840">
        <ele>1252.30</ele>
        <time>2022-03-23T12:15:58Z</time>
      </trkpt>
      <trkpt lat="42.962678" lon="-2.340839">
        <ele>1253.40</ele>
        <time>2022-03-23T12:16:01Z</time>
      </trkpt>
      <trkpt lat="42.962728" lon="-2.340848">
        <ele>1254.40</ele>
        <time>2022-03-23T12:16:05Z</time>
      </trkpt>
      <trkpt lat="42.962772" lon="-2.340860">
        <ele>1255.30</ele>
        <time>2022-03-23T12:16:09Z</time>
      </trkpt>
      <trkpt lat="42.962815" lon="-2.340876">
        <ele>1255.90</ele>
        <time>2022-03-23T12:16:13Z</time>
      </trkpt>
      <trkpt lat="42.962862" lon="-2.340904">
        <ele>1256.40</ele>
        <time>2022-03-23T12:16:17Z</time>
      </trkpt>
      <trkpt lat="42.962911" lon="-2.340931">
        <ele>1257.00</ele>
        <time>2022-03-23T12:16:21Z</time>
      </trkpt>
      <trkpt lat="42.962961" lon="-2.340953">
        <ele>1257.60</ele>
        <time>2022-03-23T12:16:25Z</time>
      </trkpt>
      <trkpt lat="42.963008" lon="-2.340970">
        <ele>1258.40</ele>
        <time>2022-03-23T12:16:29Z</time>
      </trkpt>
      <trkpt lat="42.963055" lon="-2.340995">
        <ele>1258.90</ele>
        <time>2022-03-23T12:16:33Z</time>
      </trkpt>
      <trkpt lat="42.963098" lon="-2.341034">
        <ele>1259.70</ele>
        <time>2022-03-23T12:16:37Z</time>
      </trkpt>
      <trkpt lat="42.963140" lon="-2.341069">
        <ele>1260.80</ele>
        <time>2022-03-23T12:16:41Z</time>
      </trkpt>
      <trkpt lat="42.963169" lon="-2.341118">
        <ele>1260.70</ele>
        <time>2022-03-23T12:16:45Z</time>
      </trkpt>
      <trkpt lat="42.963223" lon="-2.341142">
        <ele>1262.50</ele>
        <time>2022-03-23T12:16:49Z</time>
      </trkpt>
      <trkpt lat="42.963269" lon="-2.341153">
        <ele>1264.20</ele>
        <time>2022-03-23T12:16:53Z</time>
      </trkpt>
      <trkpt lat="42.963318" lon="-2.341171">
        <ele>1265.80</ele>
        <time>2022-03-23T12:16:57Z</time>
      </trkpt>
      <trkpt lat="42.963366" lon="-2.341160">
        <ele>1267.50</ele>
        <time>2022-03-23T12:17:01Z</time>
      </trkpt>
      <trkpt lat="42.963410" lon="-2.341135">
        <ele>1269.20</ele>
        <time>2022-03-23T12:17:05Z</time>
      </trkpt>
      <trkpt lat="42.963455" lon="-2.341106">
        <ele>1270.90</ele>
        <time>2022-03-23T12:17:09Z</time>
      </trkpt>
      <trkpt lat="42.963505" lon="-2.341087">
        <ele>1272.40</ele>
        <time>2022-03-23T12:17:13Z</time>
      </trkpt>
      <trkpt lat="42.963555" lon="-2.341077">
        <ele>1273.80</ele>
        <time>2022-03-23T12:17:17Z</time>
      </trkpt>
      <trkpt lat="42.963604" lon="-2.341074">
        <ele>1275.00</ele>
        <time>2022-03-23T12:17:21Z</time>
      </trkpt>
      <trkpt lat="42.963651" lon="-2.341073">
        <ele>1276.30</ele>
        <time>2022-03-23T12:17:25Z</time>
      </trkpt>
      <trkpt lat="42.963696" lon="-2.341069">
        <ele>1277.60</ele>
        <time>2022-03-23T12:17:28Z</time>
      </trkpt>
      <trkpt lat="42.963733" lon="-2.341034">
        <ele>1279.70</ele>
        <time>2022-03-23T12:17:32Z</time>
      </trkpt>
      <trkpt lat="42.963762" lon="-2.340984">
        <ele>1281.90</ele>
        <time>2022-03-23T12:17:36Z</time>
      </trkpt>
      <trkpt lat="42.963808" lon="-2.340969">
        <ele>1283.60</ele>
        <time>2022-03-23T12:17:40Z</time>
      </trkpt>
      <trkpt lat="42.963851" lon="-2.340939">
        <ele>1285.70</ele>
        <time>2022-03-23T12:17:43Z</time>
      </trkpt>
      <trkpt lat="42.963892" lon="-2.340903">
        <ele>1287.80</ele>
        <time>2022-03-23T12:17:47Z</time>
      </trkpt>
      <trkpt lat="42.963940" lon="-2.340882">
        <ele>1289.20</ele>
        <time>2022-03-23T12:17:51Z</time>
      </trkpt>
      <trkpt lat="42.963992" lon="-2.340870">
        <ele>1290.40</ele>
        <time>2022-03-23T12:17:56Z</time>
      </trkpt>
      <trkpt lat="42.964042" lon="-2.340864">
        <ele>1291.30</ele>
        <time>2022-03-23T12:18:00Z</time>
      </trkpt>
      <trkpt lat="42.964094" lon="-2.340865">
        <ele>1292.10</ele>
        <time>2022-03-23T12:18:04Z</time>
      </trkpt>
      <trkpt lat="42.964140" lon="-2.340847">
        <ele>1293.30</ele>
        <time>2022-03-23T12:18:08Z</time>
      </trkpt>
      <trkpt lat="42.964179" lon="-2.340799">
        <ele>1295.60</ele>
        <time>2022-03-23T12:18:12Z</time>
      </trkpt>
      <trkpt lat="42.964224" lon="-2.340788">
        <ele>1296.40</ele>
        <time>2022-03-23T12:18:15Z</time>
      </trkpt>
      <trkpt lat="42.964270" lon="-2.340780">
        <ele>1297.30</ele>
        <time>2022-03-23T12:18:19Z</time>
      </trkpt>
      <trkpt lat="42.964320" lon="-2.340768">
        <ele>1298.20</ele>
        <time>2022-03-23T12:18:23Z</time>
      </trkpt>
      <trkpt lat="42.964369" lon="-2.340763">
        <ele>1299.00</ele>
        <time>2022-03-23T12:18:27Z</time>
      </trkpt>
      <trkpt lat="42.964419" lon="-2.340741">
        <ele>1300.50</ele>
        <time>2022-03-23T12:18:31Z</time>
      </trkpt>
      <trkpt lat="42.964456" lon="-2.340693">
        <ele>1302.60</ele>
        <time>2022-03-23T12:18:35Z</time>
      </trkpt>
      <trkpt lat="42.964507" lon="-2.340672">
        <ele>1303.40</ele>
        <time>2022-03-23T12:18:40Z</time>
      </trkpt>
      <trkpt lat="42.964567" lon="-2.340692">
        <ele>1302.40</ele>
        <time>2022-03-23T12:18:45Z</time>
      </trkpt>
      <trkpt lat="42.964612" lon="-2.340707">
        <ele>1301.70</ele>
        <time>2022-03-23T12:18:48Z</time>
      </trkpt>
      <trkpt lat="42.964660" lon="-2.340710">
        <ele>1301.60</ele>
        <time>2022-03-23T12:18:52Z</time>
      </trkpt>
      <trkpt lat="42.964703" lon="-2.340729">
        <ele>1300.60</ele>
        <time>2022-03-23T12:18:56Z</time>
      </trkpt>
      <trkpt lat="42.964698" lon="-2.340662">
        <ele>1303.50</ele>
        <time>2022-03-23T12:19:00Z</time>
      </trkpt>
      <trkpt lat="42.964700" lon="-2.340600">
        <ele>1306.10</ele>
        <time>2022-03-23T12:19:03Z</time>
      </trkpt>
      <trkpt lat="42.964714" lon="-2.340539">
        <ele>1308.70</ele>
        <time>2022-03-23T12:19:07Z</time>
      </trkpt>
      <trkpt lat="42.964715" lon="-2.340477">
        <ele>1311.10</ele>
        <time>2022-03-23T12:19:11Z</time>
      </trkpt>
      <trkpt lat="42.964725" lon="-2.340416">
        <ele>1313.50</ele>
        <time>2022-03-23T12:19:14Z</time>
      </trkpt>
      <trkpt lat="42.964734" lon="-2.340351">
        <ele>1316.00</ele>
        <time>2022-03-23T12:19:18Z</time>
      </trkpt>
      <trkpt lat="42.964742" lon="-2.340288">
        <ele>1318.20</ele>
        <time>2022-03-23T12:19:22Z</time>
      </trkpt>
      <trkpt lat="42.964741" lon="-2.340222">
        <ele>1321.00</ele>
        <time>2022-03-23T12:19:26Z</time>
      </trkpt>
      <trkpt lat="42.964742" lon="-2.340160">
        <ele>1323.30</ele>
        <time>2022-03-23T12:19:30Z</time>
      </trkpt>
      <trkpt lat="42.964773" lon="-2.340113">
        <ele>1324.80</ele>
        <time>2022-03-23T12:19:33Z</time>
      </trkpt>
      <trkpt lat="42.964797" lon="-2.340056">
        <ele>1326.80</ele>
        <time>2022-03-23T12:19:37Z</time>
      </trkpt>
      <trkpt lat="42.964830" lon="-2.340004">
        <ele>1328.40</ele>
        <time>2022-03-23T12:19:41Z</time>
      </trkpt>
      <trkpt lat="42.964871" lon="-2.339973">
        <ele>1329.10</ele>
        <time>2022-03-23T12:19:45Z</time>
      </trkpt>
      <trkpt lat="42.964920" lon="-2.339967">
        <ele>1328.70</ele>
        <time>2022-03-23T12:19:49Z</time>
      </trkpt>
      <trkpt lat="42.964978" lon="-2.339945">
        <ele>1328.90</ele>
        <time>2022-03-23T12:19:54Z</time>
      </trkpt>
      <trkpt lat="42.965018" lon="-2.339911">
        <ele>1330.00</ele>
        <time>2022-03-23T12:19:57Z</time>
      </trkpt>
      <trkpt lat="42.965065" lon="-2.339908">
        <ele>1329.80</ele>
        <time>2022-03-23T12:20:01Z</time>
      </trkpt>
      <trkpt lat="42.965112" lon="-2.339884">
        <ele>1330.70</ele>
        <time>2022-03-23T12:20:05Z</time>
      </trkpt>
      <trkpt lat="42.965155" lon="-2.339862">
        <ele>1331.40</ele>
        <time>2022-03-23T12:20:09Z</time>
      </trkpt>
      <trkpt lat="42.965192" lon="-2.339896">
        <ele>1329.60</ele>
        <time>2022-03-23T12:20:12Z</time>
      </trkpt>
      <trkpt lat="42.965237" lon="-2.339879">
        <ele>1330.10</ele>
        <time>2022-03-23T12:20:16Z</time>
      </trkpt>
      <trkpt lat="42.965284" lon="-2.339876">
        <ele>1329.90</ele>
        <time>2022-03-23T12:20:20Z</time>
      </trkpt>
      <trkpt lat="42.965326" lon="-2.339850">
        <ele>1331.20</ele>
        <time>2022-03-23T12:20:24Z</time>
      </trkpt>
      <trkpt lat="42.965370" lon="-2.339868">
        <ele>1330.40</ele>
        <time>2022-03-23T12:20:27Z</time>
      </trkpt>
      <trkpt lat="42.965412" lon="-2.339912">
        <ele>1328.40</ele>
        <time>2022-03-23T12:20:32Z</time>
      </trkpt>
      <trkpt lat="42.965461" lon="-2.339920">
        <ele>1328.20</ele>
        <time>2022-03-23T12:20:35Z</time>
      </trkpt>
      <trkpt lat="42.965509" lon="-2.339915">
        <ele>1328.70</ele>
        <time>2022-03-23T12:20:39Z</time>
      </trkpt>
      <trkpt lat="42.965561" lon="-2.339905">
        <ele>1329.20</ele>
        <time>2022-03-23T12:20:44Z</time>
      </trkpt>
      <trkpt lat="42.965606" lon="-2.339919">
        <ele>1329.20</ele>
        <time>2022-03-23T12:20:47Z</time>
      </trkpt>
      <trkpt lat="42.965663" lon="-2.339933">
        <ele>1329.40</ele>
        <time>2022-03-23T12:20:52Z</time>
      </trkpt>
      <trkpt lat="42.965715" lon="-2.339937">
        <ele>1329.90</ele>
        <time>2022-03-23T12:20:56Z</time>
      </trkpt>
      <trkpt lat="42.965768" lon="-2.339942">
        <ele>1330.40</ele>
        <time>2022-03-23T12:21:00Z</time>
      </trkpt>
      <trkpt lat="42.965820" lon="-2.339948">
        <ele>1330.90</ele>
        <time>2022-03-23T12:21:04Z</time>
      </trkpt>
      <trkpt lat="42.965869" lon="-2.339947">
        <ele>1331.40</ele>
        <time>2022-03-23T12:21:08Z</time>
      </trkpt>
      <trkpt lat="42.965917" lon="-2.339939">
        <ele>1332.00</ele>
        <time>2022-03-23T12:21:12Z</time>
      </trkpt>
      <trkpt lat="42.965963" lon="-2.339937">
        <ele>1332.40</ele>
        <time>2022-03-23T12:21:16Z</time>
      </trkpt>
      <trkpt lat="42.966008" lon="-2.339929">
        <ele>1333.00</ele>
        <time>2022-03-23T12:21:20Z</time>
      </trkpt>
      <trkpt lat="42.966059" lon="-2.339918">
        <ele>1333.60</ele>
        <time>2022-03-23T12:21:24Z</time>
      </trkpt>
      <trkpt lat="42.966111" lon="-2.339908">
        <ele>1334.30</ele>
        <time>2022-03-23T12:21:28Z</time>
      </trkpt>
      <trkpt lat="42.966160" lon="-2.339904">
        <ele>1334.60</ele>
        <time>2022-03-23T12:21:32Z</time>
      </trkpt>
      <trkpt lat="42.966214" lon="-2.339892">
        <ele>1335.30</ele>
        <time>2022-03-23T12:21:36Z</time>
      </trkpt>
      <trkpt lat="42.966272" lon="-2.339878">
        <ele>1336.10</ele>
        <time>2022-03-23T12:21:41Z</time>
      </trkpt>
      <trkpt lat="42.966318" lon="-2.339867">
        <ele>1336.50</ele>
        <time>2022-03-23T12:21:45Z</time>
      </trkpt>
      <trkpt lat="42.966363" lon="-2.339855">
        <ele>1337.20</ele>
        <time>2022-03-23T12:21:48Z</time>
      </trkpt>
      <trkpt lat="42.966414" lon="-2.339833">
        <ele>1338.20</ele>
        <time>2022-03-23T12:21:53Z</time>
      </trkpt>
      <trkpt lat="42.966470" lon="-2.339833">
        <ele>1338.40</ele>
        <time>2022-03-23T12:21:57Z</time>
      </trkpt>
      <trkpt lat="42.966524" lon="-2.339847">
        <ele>1338.20</ele>
        <time>2022-03-23T12:22:01Z</time>
      </trkpt>
      <trkpt lat="42.966570" lon="-2.339861">
        <ele>1338.00</ele>
        <time>2022-03-23T12:22:05Z</time>
      </trkpt>
      <trkpt lat="42.966616" lon="-2.339884">
        <ele>1337.50</ele>
        <time>2022-03-23T12:22:09Z</time>
      </trkpt>
      <trkpt lat="42.966672" lon="-2.339903">
        <ele>1337.30</ele>
        <time>2022-03-23T12:22:14Z</time>
      </trkpt>
      <trkpt lat="42.966720" lon="-2.339923">
        <ele>1337.30</ele>
        <time>2022-03-23T12:22:18Z</time>
      </trkpt>
      <trkpt lat="42.966769" lon="-2.339962">
        <ele>1337.00</ele>
        <time>2022-03-23T12:22:22Z</time>
      </trkpt>
      <trkpt lat="42.966819" lon="-2.340005">
        <ele>1336.60</ele>
        <time>2022-03-23T12:22:27Z</time>
      </trkpt>
      <trkpt lat="42.966871" lon="-2.340043">
        <ele>1336.40</ele>
        <time>2022-03-23T12:22:32Z</time>
      </trkpt>
      <trkpt lat="42.966926" lon="-2.340076">
        <ele>1336.50</ele>
        <time>2022-03-23T12:22:37Z</time>
      </trkpt>
      <trkpt lat="42.966981" lon="-2.340110">
        <ele>1336.80</ele>
        <time>2022-03-23T12:22:41Z</time>
      </trkpt>
      <trkpt lat="42.967029" lon="-2.340140">
        <ele>1336.90</ele>
        <time>2022-03-23T12:22:46Z</time>
      </trkpt>
      <trkpt lat="42.967082" lon="-2.340184">
        <ele>1337.10</ele>
        <time>2022-03-23T12:22:51Z</time>
      </trkpt>
      <trkpt lat="42.967136" lon="-2.340228">
        <ele>1337.20</ele>
        <time>2022-03-23T12:22:56Z</time>
      </trkpt>
      <trkpt lat="42.967174" lon="-2.340264">
        <ele>1337.20</ele>
        <time>2022-03-23T12:22:59Z</time>
      </trkpt>
      <trkpt lat="42.967221" lon="-2.340311">
        <ele>1337.20</ele>
        <time>2022-03-23T12:23:04Z</time>
      </trkpt>
      <trkpt lat="42.967260" lon="-2.340353">
        <ele>1337.60</ele>
        <time>2022-03-23T12:23:08Z</time>
      </trkpt>
      <trkpt lat="42.967299" lon="-2.340397">
        <ele>1338.00</ele>
        <time>2022-03-23T12:23:12Z</time>
      </trkpt>
      <trkpt lat="42.967342" lon="-2.340443">
        <ele>1338.70</ele>
        <time>2022-03-23T12:23:16Z</time>
      </trkpt>
      <trkpt lat="42.967377" lon="-2.340489">
        <ele>1339.10</ele>
        <time>2022-03-23T12:23:20Z</time>
      </trkpt>
      <trkpt lat="42.967411" lon="-2.340555">
        <ele>1339.20</ele>
        <time>2022-03-23T12:23:25Z</time>
      </trkpt>
      <trkpt lat="42.967434" lon="-2.340609">
        <ele>1339.30</ele>
        <time>2022-03-23T12:23:29Z</time>
      </trkpt>
      <trkpt lat="42.967454" lon="-2.340666">
        <ele>1339.10</ele>
        <time>2022-03-23T12:23:32Z</time>
      </trkpt>
      <trkpt lat="42.967476" lon="-2.340729">
        <ele>1338.90</ele>
        <time>2022-03-23T12:23:36Z</time>
      </trkpt>
      <trkpt lat="42.967505" lon="-2.340782">
        <ele>1339.10</ele>
        <time>2022-03-23T12:23:40Z</time>
      </trkpt>
      <trkpt lat="42.967532" lon="-2.340837">
        <ele>1338.40</ele>
        <time>2022-03-23T12:23:44Z</time>
      </trkpt>
      <trkpt lat="42.967554" lon="-2.340899">
        <ele>1337.90</ele>
        <time>2022-03-23T12:23:48Z</time>
      </trkpt>
      <trkpt lat="42.967577" lon="-2.340957">
        <ele>1337.80</ele>
        <time>2022-03-23T12:23:52Z</time>
      </trkpt>
      <trkpt lat="42.967602" lon="-2.341025">
        <ele>1338.00</ele>
        <time>2022-03-23T12:23:57Z</time>
      </trkpt>
      <trkpt lat="42.967622" lon="-2.341085">
        <ele>1338.50</ele>
        <time>2022-03-23T12:24:00Z</time>
      </trkpt>
      <trkpt lat="42.967655" lon="-2.341140">
        <ele>1339.70</ele>
        <time>2022-03-23T12:24:05Z</time>
      </trkpt>
      <trkpt lat="42.967678" lon="-2.341197">
        <ele>1340.80</ele>
        <time>2022-03-23T12:24:08Z</time>
      </trkpt>
      <trkpt lat="42.967691" lon="-2.341261">
        <ele>1341.60</ele>
        <time>2022-03-23T12:24:12Z</time>
      </trkpt>
      <trkpt lat="42.967672" lon="-2.341327">
        <ele>1340.70</ele>
        <time>2022-03-23T12:24:17Z</time>
      </trkpt>
      <trkpt lat="42.967649" lon="-2.341395">
        <ele>1339.70</ele>
        <time>2022-03-23T12:24:21Z</time>
      </trkpt>
      <trkpt lat="42.967659" lon="-2.341463">
        <ele>1341.00</ele>
        <time>2022-03-23T12:24:25Z</time>
      </trkpt>
      <trkpt lat="42.967672" lon="-2.341524">
        <ele>1342.30</ele>
        <time>2022-03-23T12:24:29Z</time>
      </trkpt>
      <trkpt lat="42.967716" lon="-2.341552">
        <ele>1344.40</ele>
        <time>2022-03-23T12:24:33Z</time>
      </trkpt>
      <trkpt lat="42.967672" lon="-2.341569">
        <ele>1342.80</ele>
        <time>2022-03-23T12:24:36Z</time>
      </trkpt>
      <trkpt lat="42.967671" lon="-2.341633">
        <ele>1343.60</ele>
        <time>2022-03-23T12:24:40Z</time>
      </trkpt>
      <trkpt lat="42.967676" lon="-2.341698">
        <ele>1344.40</ele>
        <time>2022-03-23T12:24:44Z</time>
      </trkpt>
      <trkpt lat="42.967683" lon="-2.341775">
        <ele>1344.80</ele>
        <time>2022-03-23T12:24:48Z</time>
      </trkpt>
      <trkpt lat="42.967728" lon="-2.341797">
        <ele>1345.50</ele>
        <time>2022-03-23T12:24:52Z</time>
      </trkpt>
      <trkpt lat="42.967739" lon="-2.341860">
        <ele>1345.50</ele>
        <time>2022-03-23T12:24:56Z</time>
      </trkpt>
      <trkpt lat="42.967763" lon="-2.341913">
        <ele>1345.30</ele>
        <time>2022-03-23T12:25:00Z</time>
      </trkpt>
      <trkpt lat="42.967776" lon="-2.341976">
        <ele>1344.80</ele>
        <time>2022-03-23T12:25:03Z</time>
      </trkpt>
      <trkpt lat="42.967797" lon="-2.342038">
        <ele>1344.30</ele>
        <time>2022-03-23T12:25:07Z</time>
      </trkpt>
      <trkpt lat="42.967816" lon="-2.342109">
        <ele>1343.70</ele>
        <time>2022-03-23T12:25:12Z</time>
      </trkpt>
      <trkpt lat="42.967841" lon="-2.342162">
        <ele>1343.10</ele>
        <time>2022-03-23T12:25:16Z</time>
      </trkpt>
      <trkpt lat="42.967866" lon="-2.342223">
        <ele>1342.10</ele>
        <time>2022-03-23T12:25:20Z</time>
      </trkpt>
      <trkpt lat="42.967874" lon="-2.342298">
        <ele>1342.00</ele>
        <time>2022-03-23T12:25:24Z</time>
      </trkpt>
      <trkpt lat="42.967885" lon="-2.342373">
        <ele>1341.80</ele>
        <time>2022-03-23T12:25:29Z</time>
      </trkpt>
      <trkpt lat="42.967897" lon="-2.342433">
        <ele>1341.30</ele>
        <time>2022-03-23T12:25:32Z</time>
      </trkpt>
      <trkpt lat="42.967908" lon="-2.342497">
        <ele>1340.80</ele>
        <time>2022-03-23T12:25:36Z</time>
      </trkpt>
      <trkpt lat="42.967919" lon="-2.342574">
        <ele>1341.00</ele>
        <time>2022-03-23T12:25:41Z</time>
      </trkpt>
      <trkpt lat="42.967944" lon="-2.342651">
        <ele>1341.00</ele>
        <time>2022-03-23T12:25:46Z</time>
      </trkpt>
      <trkpt lat="42.967980" lon="-2.342722">
        <ele>1341.10</ele>
        <time>2022-03-23T12:25:51Z</time>
      </trkpt>
      <trkpt lat="42.968011" lon="-2.342793">
        <ele>1341.70</ele>
        <time>2022-03-23T12:25:56Z</time>
      </trkpt>
      <trkpt lat="42.968047" lon="-2.342852">
        <ele>1341.90</ele>
        <time>2022-03-23T12:26:00Z</time>
      </trkpt>
      <trkpt lat="42.968075" lon="-2.342921">
        <ele>1342.80</ele>
        <time>2022-03-23T12:26:05Z</time>
      </trkpt>
      <trkpt lat="42.968108" lon="-2.342979">
        <ele>1343.70</ele>
        <time>2022-03-23T12:26:09Z</time>
      </trkpt>
      <trkpt lat="42.968134" lon="-2.343049">
        <ele>1344.60</ele>
        <time>2022-03-23T12:26:14Z</time>
      </trkpt>
      <trkpt lat="42.968160" lon="-2.343111">
        <ele>1344.30</ele>
        <time>2022-03-23T12:26:18Z</time>
      </trkpt>
      <trkpt lat="42.968187" lon="-2.343163">
        <ele>1343.90</ele>
        <time>2022-03-23T12:26:21Z</time>
      </trkpt>
      <trkpt lat="42.968222" lon="-2.343221">
        <ele>1343.30</ele>
        <time>2022-03-23T12:26:26Z</time>
      </trkpt>
      <trkpt lat="42.968256" lon="-2.343262">
        <ele>1342.90</ele>
        <time>2022-03-23T12:26:30Z</time>
      </trkpt>
      <trkpt lat="42.968291" lon="-2.343306">
        <ele>1342.40</ele>
        <time>2022-03-23T12:26:33Z</time>
      </trkpt>
      <trkpt lat="42.968339" lon="-2.343351">
        <ele>1341.90</ele>
        <time>2022-03-23T12:26:38Z</time>
      </trkpt>
      <trkpt lat="42.968377" lon="-2.343386">
        <ele>1342.20</ele>
        <time>2022-03-23T12:26:42Z</time>
      </trkpt>
      <trkpt lat="42.968420" lon="-2.343437">
        <ele>1342.30</ele>
        <time>2022-03-23T12:26:46Z</time>
      </trkpt>
      <trkpt lat="42.968456" lon="-2.343478">
        <ele>1342.20</ele>
        <time>2022-03-23T12:26:50Z</time>
      </trkpt>
      <trkpt lat="42.968509" lon="-2.343493">
        <ele>1342.70</ele>
        <time>2022-03-23T12:26:54Z</time>
      </trkpt>
      <trkpt lat="42.968556" lon="-2.343543">
        <ele>1342.60</ele>
        <time>2022-03-23T12:26:59Z</time>
      </trkpt>
      <trkpt lat="42.968592" lon="-2.343580">
        <ele>1342.30</ele>
        <time>2022-03-23T12:27:03Z</time>
      </trkpt>
      <trkpt lat="42.968644" lon="-2.343617">
        <ele>1342.40</ele>
        <time>2022-03-23T12:27:07Z</time>
      </trkpt>
      <trkpt lat="42.968688" lon="-2.343626">
        <ele>1343.00</ele>
        <time>2022-03-23T12:27:11Z</time>
      </trkpt>
      <trkpt lat="42.968731" lon="-2.343647">
        <ele>1343.20</ele>
        <time>2022-03-23T12:27:15Z</time>
      </trkpt>
      <trkpt lat="42.968774" lon="-2.343681">
        <ele>1343.10</ele>
        <time>2022-03-23T12:27:19Z</time>
      </trkpt>
      <trkpt lat="42.968819" lon="-2.343705">
        <ele>1343.10</ele>
        <time>2022-03-23T12:27:22Z</time>
      </trkpt>
      <trkpt lat="42.968862" lon="-2.343735">
        <ele>1343.00</ele>
        <time>2022-03-23T12:27:26Z</time>
      </trkpt>
      <trkpt lat="42.968915" lon="-2.343770">
        <ele>1342.70</ele>
        <time>2022-03-23T12:27:31Z</time>
      </trkpt>
      <trkpt lat="42.968968" lon="-2.343797">
        <ele>1342.10</ele>
        <time>2022-03-23T12:27:36Z</time>
      </trkpt>
      <trkpt lat="42.969020" lon="-2.343816">
        <ele>1341.70</ele>
        <time>2022-03-23T12:27:40Z</time>
      </trkpt>
      <trkpt lat="42.969064" lon="-2.343831">
        <ele>1341.40</ele>
        <time>2022-03-23T12:27:43Z</time>
      </trkpt>
      <trkpt lat="42.969119" lon="-2.343842">
        <ele>1341.30</ele>
        <time>2022-03-23T12:27:48Z</time>
      </trkpt>
      <trkpt lat="42.969165" lon="-2.343850">
        <ele>1341.10</ele>
        <time>2022-03-23T12:27:52Z</time>
      </trkpt>
      <trkpt lat="42.969210" lon="-2.343859">
        <ele>1340.40</ele>
        <time>2022-03-23T12:27:55Z</time>
      </trkpt>
      <trkpt lat="42.969259" lon="-2.343906">
        <ele>1338.60</ele>
        <time>2022-03-23T12:28:00Z</time>
      </trkpt>
      <trkpt lat="42.969311" lon="-2.343919">
        <ele>1337.70</ele>
        <time>2022-03-23T12:28:04Z</time>
      </trkpt>
      <trkpt lat="42.969360" lon="-2.343940">
        <ele>1336.50</ele>
        <time>2022-03-23T12:28:08Z</time>
      </trkpt>
      <trkpt lat="42.969408" lon="-2.343936">
        <ele>1335.90</ele>
        <time>2022-03-23T12:28:12Z</time>
      </trkpt>
      <trkpt lat="42.969457" lon="-2.343915">
        <ele>1336.30</ele>
        <time>2022-03-23T12:28:16Z</time>
      </trkpt>
      <trkpt lat="42.969502" lon="-2.343907">
        <ele>1337.10</ele>
        <time>2022-03-23T12:28:20Z</time>
      </trkpt>
      <trkpt lat="42.969548" lon="-2.343900">
        <ele>1337.80</ele>
        <time>2022-03-23T12:28:24Z</time>
      </trkpt>
      <trkpt lat="42.969599" lon="-2.343909">
        <ele>1338.10</ele>
        <time>2022-03-23T12:28:28Z</time>
      </trkpt>
      <trkpt lat="42.969645" lon="-2.343933">
        <ele>1337.60</ele>
        <time>2022-03-23T12:28:32Z</time>
      </trkpt>
      <trkpt lat="42.969691" lon="-2.343935">
        <ele>1338.10</ele>
        <time>2022-03-23T12:28:35Z</time>
      </trkpt>
      <trkpt lat="42.969738" lon="-2.343942">
        <ele>1338.50</ele>
        <time>2022-03-23T12:28:39Z</time>
      </trkpt>
      <trkpt lat="42.969781" lon="-2.343918">
        <ele>1340.60</ele>
        <time>2022-03-23T12:28:43Z</time>
      </trkpt>
      <trkpt lat="42.969834" lon="-2.343908">
        <ele>1342.20</ele>
        <time>2022-03-23T12:28:47Z</time>
      </trkpt>
      <trkpt lat="42.969885" lon="-2.343895">
        <ele>1344.00</ele>
        <time>2022-03-23T12:28:51Z</time>
      </trkpt>
      <trkpt lat="42.969929" lon="-2.343884">
        <ele>1345.40</ele>
        <time>2022-03-23T12:28:55Z</time>
      </trkpt>
      <trkpt lat="42.969972" lon="-2.343863">
        <ele>1347.50</ele>
        <time>2022-03-23T12:28:59Z</time>
      </trkpt>
      <trkpt lat="42.970012" lon="-2.343829">
        <ele>1350.00</ele>
        <time>2022-03-23T12:29:02Z</time>
      </trkpt>
      <trkpt lat="42.970059" lon="-2.343806">
        <ele>1351.70</ele>
        <time>2022-03-23T12:29:06Z</time>
      </trkpt>
      <trkpt lat="42.970104" lon="-2.343780">
        <ele>1353.20</ele>
        <time>2022-03-23T12:29:10Z</time>
      </trkpt>
      <trkpt lat="42.970146" lon="-2.343754">
        <ele>1354.40</ele>
        <time>2022-03-23T12:29:14Z</time>
      </trkpt>
      <trkpt lat="42.970182" lon="-2.343702">
        <ele>1356.50</ele>
        <time>2022-03-23T12:29:18Z</time>
      </trkpt>
      <trkpt lat="42.970224" lon="-2.343668">
        <ele>1357.60</ele>
        <time>2022-03-23T12:29:22Z</time>
      </trkpt>
      <trkpt lat="42.970271" lon="-2.343641">
        <ele>1358.40</ele>
        <time>2022-03-23T12:29:26Z</time>
      </trkpt>
      <trkpt lat="42.970319" lon="-2.343614">
        <ele>1358.50</ele>
        <time>2022-03-23T12:29:30Z</time>
      </trkpt>
      <trkpt lat="42.970366" lon="-2.343612">
        <ele>1358.10</ele>
        <time>2022-03-23T12:29:34Z</time>
      </trkpt>
      <trkpt lat="42.970397" lon="-2.343562">
        <ele>1358.20</ele>
        <time>2022-03-23T12:29:38Z</time>
      </trkpt>
      <trkpt lat="42.970430" lon="-2.343517">
        <ele>1357.70</ele>
        <time>2022-03-23T12:29:42Z</time>
      </trkpt>
      <trkpt lat="42.970475" lon="-2.343491">
        <ele>1356.30</ele>
        <time>2022-03-23T12:29:46Z</time>
      </trkpt>
      <trkpt lat="42.970524" lon="-2.343481">
        <ele>1354.70</ele>
        <time>2022-03-23T12:29:50Z</time>
      </trkpt>
      <trkpt lat="42.970570" lon="-2.343456">
        <ele>1352.80</ele>
        <time>2022-03-23T12:29:53Z</time>
      </trkpt>
      <trkpt lat="42.970614" lon="-2.343440">
        <ele>1351.50</ele>
        <time>2022-03-23T12:29:57Z</time>
      </trkpt>
      <trkpt lat="42.970667" lon="-2.343424">
        <ele>1349.80</ele>
        <time>2022-03-23T12:30:01Z</time>
      </trkpt>
      <trkpt lat="42.970709" lon="-2.343391">
        <ele>1348.10</ele>
        <time>2022-03-23T12:30:05Z</time>
      </trkpt>
      <trkpt lat="42.970748" lon="-2.343357">
        <ele>1346.50</ele>
        <time>2022-03-23T12:30:09Z</time>
      </trkpt>
      <trkpt lat="42.970787" lon="-2.343310">
        <ele>1345.7</ele>
      </trkpt>
      <trkpt lat="42.970831" lon="-2.343282">
        <ele>1345.1</ele>
      </trkpt>
      <trkpt lat="42.970884" lon="-2.343283">
        <ele>1343.2</ele>
      </trkpt>
      <trkpt lat="42.970927" lon="-2.343259">
        <ele>1341.9</ele>
      </trkpt>
      <trkpt lat="42.970969" lon="-2.343218">
        <ele>1340.7</ele>
      </trkpt>
      <trkpt lat="42.971018" lon="-2.343182">
        <ele>1338.9</ele>
      </trkpt>
      <trkpt lat="42.971057" lon="-2.343147">
        <ele>1337.4</ele>
      </trkpt>
      <trkpt lat="42.971095" lon="-2.343112">
        <ele>1335.9</ele>
      </trkpt>
      <trkpt lat="42.971142" lon="-2.343079">
        <ele>1334.4</ele>
      </trkpt>
      <trkpt lat="42.971193" lon="-2.343062">
        <ele>1333.4</ele>
      </trkpt>
      <trkpt lat="42.971251" lon="-2.343040">
        <ele>1332.2</ele>
      </trkpt>
      <trkpt lat="42.971304" lon="-2.343029">
        <ele>1331.0</ele>
      </trkpt>
      <trkpt lat="42.971351" lon="-2.343019">
        <ele>1329.8</ele>
      </trkpt>
      <trkpt lat="42.971384" lon="-2.342965">
        <ele>1328.8</ele>
      </trkpt>
      <trkpt lat="42.971412" lon="-2.342913">
        <ele>1327.6</ele>
      </trkpt>
      <trkpt lat="42.971438" lon="-2.342852">
        <ele>1326.1</ele>
      </trkpt>
      <trkpt lat="42.971466" lon="-2.342798">
        <ele>1324.3</ele>
      </trkpt>
      <trkpt lat="42.971478" lon="-2.342728">
        <ele>1323.4</ele>
      </trkpt>
      <trkpt lat="42.971503" lon="-2.342658">
        <ele>1321.9</ele>
      </trkpt>
      <trkpt lat="42.971532" lon="-2.342597">
        <ele>1320.2</ele>
      </trkpt>
      <trkpt lat="42.971561" lon="-2.342535">
        <ele>1318.2</ele>
      </trkpt>
      <trkpt lat="42.971610" lon="-2.342499">
        <ele>1315.3</ele>
      </trkpt>
      <trkpt lat="42.971656" lon="-2.342466">
        <ele>1312.8</ele>
      </trkpt>
      <trkpt lat="42.971706" lon="-2.342438">
        <ele>1310.7</ele>
      </trkpt>
      <trkpt lat="42.971745" lon="-2.342404">
        <ele>1309.1</ele>
      </trkpt>
      <trkpt lat="42.971795" lon="-2.342406">
        <ele>1307.2</ele>
      </trkpt>
      <trkpt lat="42.971837" lon="-2.342430">
        <ele>1305.4</ele>
      </trkpt>
      <trkpt lat="42.971891" lon="-2.342458">
        <ele>1303.2</ele>
      </trkpt>
      <trkpt lat="42.971943" lon="-2.342476">
        <ele>1301.1</ele>
      </trkpt>
      <trkpt lat="42.972000" lon="-2.342466">
        <ele>1298.6</ele>
      </trkpt>
      <trkpt lat="42.972041" lon="-2.342415">
        <ele>1296.7</ele>
      </trkpt>
      <trkpt lat="42.972098" lon="-2.342413">
        <ele>1294.2</ele>
      </trkpt>
      <trkpt lat="42.972154" lon="-2.342414">
        <ele>1291.7</ele>
      </trkpt>
      <trkpt lat="42.972207" lon="-2.342407">
        <ele>1289.3</ele>
      </trkpt>
      <trkpt lat="42.972251" lon="-2.342391">
        <ele>1287.7</ele>
      </trkpt>
      <trkpt lat="42.972299" lon="-2.342409">
        <ele>1286.2</ele>
      </trkpt>
      <trkpt lat="42.972358" lon="-2.342429">
        <ele>1284.4</ele>
      </trkpt>
      <trkpt lat="42.972402" lon="-2.342445">
        <ele>1283.5</ele>
      </trkpt>
      <trkpt lat="42.972446" lon="-2.342478">
        <ele>1282.9</ele>
      </trkpt>
      <trkpt lat="42.972500" lon="-2.342516">
        <ele>1282.5</ele>
      </trkpt>
      <trkpt lat="42.972541" lon="-2.342546">
        <ele>1281.4</ele>
      </trkpt>
      <trkpt lat="42.972591" lon="-2.342569">
        <ele>1279.9</ele>
      </trkpt>
      <trkpt lat="42.972636" lon="-2.342587">
        <ele>1278.6</ele>
      </trkpt>
      <trkpt lat="42.972674" lon="-2.342625">
        <ele>1278.4</ele>
      </trkpt>
      <trkpt lat="42.972701" lon="-2.342676">
        <ele>1279.4</ele>
      </trkpt>
      <trkpt lat="42.972728" lon="-2.342731">
        <ele>1280.7</ele>
      </trkpt>
      <trkpt lat="42.972756" lon="-2.342782">
        <ele>1281.8</ele>
      </trkpt>
      <trkpt lat="42.972787" lon="-2.342827">
        <ele>1282.4</ele>
      </trkpt>
      <trkpt lat="42.972793" lon="-2.342762">
        <ele>1279.6</ele>
      </trkpt>
      <trkpt lat="42.972771" lon="-2.342694">
        <ele>1277.7</ele>
      </trkpt>
      <trkpt lat="42.972762" lon="-2.342629">
        <ele>1275.3</ele>
      </trkpt>
      <trkpt lat="42.972743" lon="-2.342554">
        <ele>1272.8</ele>
      </trkpt>
      <trkpt lat="42.972728" lon="-2.342492">
        <ele>1271.1</ele>
      </trkpt>
      <trkpt lat="42.972689" lon="-2.342460">
        <ele>1271.5</ele>
      </trkpt>
      <trkpt lat="42.972658" lon="-2.342415">
        <ele>1271.3</ele>
      </trkpt>
      <trkpt lat="42.972638" lon="-2.342349">
        <ele>1269.8</ele>
      </trkpt>
      <trkpt lat="42.972637" lon="-2.342283">
        <ele>1267.4</ele>
      </trkpt>
      <trkpt lat="42.972626" lon="-2.342222">
        <ele>1265.9</ele>
      </trkpt>
      <trkpt lat="42.972613" lon="-2.342154">
        <ele>1263.5</ele>
      </trkpt>
      <trkpt lat="42.972596" lon="-2.342093">
        <ele>1261.8</ele>
      </trkpt>
      <trkpt lat="42.972573" lon="-2.342033">
        <ele>1260.4</ele>
      </trkpt>
      <trkpt lat="42.972543" lon="-2.341971">
        <ele>1259.0</ele>
      </trkpt>
      <trkpt lat="42.972539" lon="-2.341907">
        <ele>1256.8</ele>
      </trkpt>
      <trkpt lat="42.972537" lon="-2.341836">
        <ele>1254.5</ele>
      </trkpt>
      <trkpt lat="42.972525" lon="-2.341774">
        <ele>1253.1</ele>
      </trkpt>
      <trkpt lat="42.972514" lon="-2.341711">
        <ele>1251.7</ele>
      </trkpt>
      <trkpt lat="42.972491" lon="-2.341636">
        <ele>1250.6</ele>
      </trkpt>
      <trkpt lat="42.972464" lon="-2.341563">
        <ele>1250.0</ele>
      </trkpt>
      <trkpt lat="42.972435" lon="-2.341505">
        <ele>1249.8</ele>
      </trkpt>
      <trkpt lat="42.972419" lon="-2.341446">
        <ele>1248.8</ele>
      </trkpt>
      <trkpt lat="42.972423" lon="-2.341364">
        <ele>1245.8</ele>
      </trkpt>
      <trkpt lat="42.972419" lon="-2.341296">
        <ele>1243.8</ele>
      </trkpt>
      <trkpt lat="42.972405" lon="-2.341228">
        <ele>1242.4</ele>
      </trkpt>
      <trkpt lat="42.972395" lon="-2.341165">
        <ele>1241.1</ele>
      </trkpt>
      <trkpt lat="42.972406" lon="-2.341096">
        <ele>1238.4</ele>
      </trkpt>
      <trkpt lat="42.972416" lon="-2.341031">
        <ele>1235.8</ele>
      </trkpt>
      <trkpt lat="42.972420" lon="-2.340954">
        <ele>1233.2</ele>
      </trkpt>
      <trkpt lat="42.972423" lon="-2.340879">
        <ele>1230.7</ele>
      </trkpt>
      <trkpt lat="42.972433" lon="-2.340800">
        <ele>1228.0</ele>
      </trkpt>
      <trkpt lat="42.972439" lon="-2.340719">
        <ele>1225.6</ele>
      </trkpt>
      <trkpt lat="42.972422" lon="-2.340652">
        <ele>1224.5</ele>
      </trkpt>
      <trkpt lat="42.972414" lon="-2.340586">
        <ele>1222.9</ele>
      </trkpt>
      <trkpt lat="42.972403" lon="-2.340512">
        <ele>1220.7</ele>
      </trkpt>
      <trkpt lat="42.972398" lon="-2.340443">
        <ele>1218.1</ele>
      </trkpt>
      <trkpt lat="42.972383" lon="-2.340373">
        <ele>1215.6</ele>
      </trkpt>
      <trkpt lat="42.972348" lon="-2.340304">
        <ele>1214.1</ele>
      </trkpt>
      <trkpt lat="42.972317" lon="-2.340243">
        <ele>1212.7</ele>
      </trkpt>
      <trkpt lat="42.972288" lon="-2.340170">
        <ele>1210.7</ele>
      </trkpt>
      <trkpt lat="42.972259" lon="-2.340123">
        <ele>1209.8</ele>
      </trkpt>
      <trkpt lat="42.972215" lon="-2.340080">
        <ele>1209.8</ele>
      </trkpt>
      <trkpt lat="42.972178" lon="-2.340034">
        <ele>1209.4</ele>
      </trkpt>
      <trkpt lat="42.972134" lon="-2.339993">
        <ele>1209.5</ele>
      </trkpt>
      <trkpt lat="42.972090" lon="-2.339947">
        <ele>1209.6</ele>
      </trkpt>
      <trkpt lat="42.972059" lon="-2.339896">
        <ele>1208.7</ele>
      </trkpt>
      <trkpt lat="42.972033" lon="-2.339829">
        <ele>1207.0</ele>
      </trkpt>
      <trkpt lat="42.971999" lon="-2.339775">
        <ele>1206.2</ele>
      </trkpt>
      <trkpt lat="42.971957" lon="-2.339740">
        <ele>1206.3</ele>
      </trkpt>
      <trkpt lat="42.971920" lon="-2.339702">
        <ele>1206.3</ele>
      </trkpt>
      <trkpt lat="42.971963" lon="-2.339649">
        <ele>1202.8</ele>
      </trkpt>
      <trkpt lat="42.972016" lon="-2.339650">
        <ele>1200.6</ele>
      </trkpt>
      <trkpt lat="42.972071" lon="-2.339693">
        <ele>1199.9</ele>
      </trkpt>
      <trkpt lat="42.972114" lon="-2.339733">
        <ele>1199.7</ele>
      </trkpt>
      <trkpt lat="42.972158" lon="-2.339763">
        <ele>1199.2</ele>
      </trkpt>
      <trkpt lat="42.972200" lon="-2.339790">
        <ele>1198.7</ele>
      </trkpt>
      <trkpt lat="42.972231" lon="-2.339847">
        <ele>1199.6</ele>
      </trkpt>
      <trkpt lat="42.972235" lon="-2.339910">
        <ele>1201.9</ele>
      </trkpt>
      <trkpt lat="42.972270" lon="-2.339961">
        <ele>1202.2</ele>
      </trkpt>
      <trkpt lat="42.972324" lon="-2.339987">
        <ele>1200.7</ele>
      </trkpt>
      <trkpt lat="42.972370" lon="-2.340029">
        <ele>1200.4</ele>
      </trkpt>
      <trkpt lat="42.972425" lon="-2.340066">
        <ele>1199.8</ele>
      </trkpt>
      <trkpt lat="42.972469" lon="-2.340080">
        <ele>1198.4</ele>
      </trkpt>
      <trkpt lat="42.972517" lon="-2.340088">
        <ele>1196.8</ele>
      </trkpt>
      <trkpt lat="42.972568" lon="-2.340099">
        <ele>1194.9</ele>
      </trkpt>
      <trkpt lat="42.972621" lon="-2.340131">
        <ele>1194.0</ele>
      </trkpt>
      <trkpt lat="42.972664" lon="-2.340175">
        <ele>1194.0</ele>
      </trkpt>
      <trkpt lat="42.972714" lon="-2.340198">
        <ele>1192.7</ele>
      </trkpt>
      <trkpt lat="42.972757" lon="-2.340222">
        <ele>1191.6</ele>
      </trkpt>
      <trkpt lat="42.972794" lon="-2.340263">
        <ele>1191.7</ele>
      </trkpt>
      <trkpt lat="42.972841" lon="-2.340273">
        <ele>1190.3</ele>
      </trkpt>
      <trkpt lat="42.972866" lon="-2.340220">
        <ele>1187.3</ele>
      </trkpt>
      <trkpt lat="42.972853" lon="-2.340149">
        <ele>1184.8</ele>
      </trkpt>
      <trkpt lat="42.972828" lon="-2.340086">
        <ele>1183.1</ele>
      </trkpt>
      <trkpt lat="42.972829" lon="-2.340017">
        <ele>1180.2</ele>
      </trkpt>
      <trkpt lat="42.972823" lon="-2.339944">
        <ele>1177.3</ele>
      </trkpt>
      <trkpt lat="42.972815" lon="-2.339864">
        <ele>1174.0</ele>
      </trkpt>
      <trkpt lat="42.972813" lon="-2.339797">
        <ele>1170.9</ele>
      </trkpt>
      <trkpt lat="42.972791" lon="-2.339731">
        <ele>1168.9</ele>
      </trkpt>
      <trkpt lat="42.972774" lon="-2.339664">
        <ele>1166.9</ele>
      </trkpt>
      <trkpt lat="42.972743" lon="-2.339616">
        <ele>1166.2</ele>
      </trkpt>
      <trkpt lat="42.972756" lon="-2.339552">
        <ele>1163.1</ele>
      </trkpt>
      <trkpt lat="42.972773" lon="-2.339481">
        <ele>1159.7</ele>
      </trkpt>
      <trkpt lat="42.972752" lon="-2.339420">
        <ele>1157.6</ele>
      </trkpt>
      <trkpt lat="42.972710" lon="-2.339380">
        <ele>1157.2</ele>
      </trkpt>
      <trkpt lat="42.972673" lon="-2.339314">
        <ele>1155.4</ele>
      </trkpt>
      <trkpt lat="42.972638" lon="-2.339251">
        <ele>1153.8</ele>
      </trkpt>
      <trkpt lat="42.972606" lon="-2.339205">
        <ele>1153.1</ele>
      </trkpt>
      <trkpt lat="42.972561" lon="-2.339168">
        <ele>1153.4</ele>
      </trkpt>
      <trkpt lat="42.972517" lon="-2.339130">
        <ele>1153.4</ele>
      </trkpt>
      <trkpt lat="42.972482" lon="-2.339079">
        <ele>1152.4</ele>
      </trkpt>
      <trkpt lat="42.972437" lon="-2.339041">
        <ele>1152.5</ele>
      </trkpt>
      <trkpt lat="42.972401" lon="-2.338996">
        <ele>1151.7</ele>
      </trkpt>
      <trkpt lat="42.972358" lon="-2.338958">
        <ele>1151.6</ele>
      </trkpt>
      <trkpt lat="42.972335" lon="-2.338895">
        <ele>1149.4</ele>
      </trkpt>
      <trkpt lat="42.972300" lon="-2.338829">
        <ele>1148.3</ele>
      </trkpt>
      <trkpt lat="42.972288" lon="-2.338766">
        <ele>1146.5</ele>
      </trkpt>
      <trkpt lat="42.972324" lon="-2.338720">
        <ele>1142.9</ele>
      </trkpt>
      <trkpt lat="42.972324" lon="-2.338643">
        <ele>1139.9</ele>
      </trkpt>
      <trkpt lat="42.972368" lon="-2.338624">
        <ele>1136.8</ele>
      </trkpt>
      <trkpt lat="42.972419" lon="-2.338619">
        <ele>1133.8</ele>
      </trkpt>
      <trkpt lat="42.972466" lon="-2.338611">
        <ele>1130.8</ele>
      </trkpt>
      <trkpt lat="42.972513" lon="-2.338595">
        <ele>1127.8</ele>
      </trkpt>
      <trkpt lat="42.972562" lon="-2.338597">
        <ele>1125.8</ele>
      </trkpt>
      <trkpt lat="42.972609" lon="-2.338604">
        <ele>1124.1</ele>
      </trkpt>
      <trkpt lat="42.972652" lon="-2.338627">
        <ele>1123.2</ele>
      </trkpt>
      <trkpt lat="42.972694" lon="-2.338650">
        <ele>1122.4</ele>
      </trkpt>
      <trkpt lat="42.972749" lon="-2.338648">
        <ele>1119.9</ele>
      </trkpt>
      <trkpt lat="42.972796" lon="-2.338625">
        <ele>1116.9</ele>
      </trkpt>
      <trkpt lat="42.972830" lon="-2.338584">
        <ele>1113.7</ele>
      </trkpt>
      <trkpt lat="42.972782" lon="-2.338568">
        <ele>1115.2</ele>
      </trkpt>
      <trkpt lat="42.972771" lon="-2.338505">
        <ele>1113.2</ele>
      </trkpt>
      <trkpt lat="42.972753" lon="-2.338430">
        <ele>1110.9</ele>
      </trkpt>
      <trkpt lat="42.972723" lon="-2.338373">
        <ele>1109.9</ele>
      </trkpt>
      <trkpt lat="42.972695" lon="-2.338316">
        <ele>1109.0</ele>
      </trkpt>
      <trkpt lat="42.972672" lon="-2.338254">
        <ele>1107.7</ele>
      </trkpt>
      <trkpt lat="42.972644" lon="-2.338188">
        <ele>1106.6</ele>
      </trkpt>
      <trkpt lat="42.972634" lon="-2.338111">
        <ele>1104.2</ele>
      </trkpt>
      <trkpt lat="42.972637" lon="-2.338041">
        <ele>1101.7</ele>
      </trkpt>
      <trkpt lat="42.972643" lon="-2.337947">
        <ele>1098.2</ele>
      </trkpt>
      <trkpt lat="42.972635" lon="-2.337884">
        <ele>1096.4</ele>
      </trkpt>
      <trkpt lat="42.972628" lon="-2.337807">
        <ele>1094.1</ele>
      </trkpt>
      <trkpt lat="42.972625" lon="-2.337732">
        <ele>1092.0</ele>
      </trkpt>
      <trkpt lat="42.972633" lon="-2.337660">
        <ele>1089.6</ele>
      </trkpt>
      <trkpt lat="42.972615" lon="-2.337596">
        <ele>1088.9</ele>
      </trkpt>
      <trkpt lat="42.972608" lon="-2.337527">
        <ele>1087.3</ele>
      </trkpt>
      <trkpt lat="42.972595" lon="-2.337460">
        <ele>1086.1</ele>
      </trkpt>
      <trkpt lat="42.972570" lon="-2.337389">
        <ele>1085.3</ele>
      </trkpt>
      <trkpt lat="42.972552" lon="-2.337308">
        <ele>1083.9</ele>
      </trkpt>
      <trkpt lat="42.972527" lon="-2.337252">
        <ele>1083.5</ele>
      </trkpt>
      <trkpt lat="42.972514" lon="-2.337186">
        <ele>1082.5</ele>
      </trkpt>
      <trkpt lat="42.972505" lon="-2.337124">
        <ele>1081.4</ele>
      </trkpt>
      <trkpt lat="42.972488" lon="-2.337052">
        <ele>1080.5</ele>
      </trkpt>
      <trkpt lat="42.972468" lon="-2.336976">
        <ele>1079.6</ele>
      </trkpt>
      <trkpt lat="42.972452" lon="-2.336907">
        <ele>1078.6</ele>
      </trkpt>
      <trkpt lat="42.972441" lon="-2.336845">
        <ele>1077.5</ele>
      </trkpt>
      <trkpt lat="42.972429" lon="-2.336782">
        <ele>1076.4</ele>
      </trkpt>
      <trkpt lat="42.972416" lon="-2.336721">
        <ele>1075.3</ele>
      </trkpt>
      <trkpt lat="42.972420" lon="-2.336659">
        <ele>1073.4</ele>
      </trkpt>
      <trkpt lat="42.972423" lon="-2.336595">
        <ele>1071.4</ele>
      </trkpt>
      <trkpt lat="42.972446" lon="-2.336531">
        <ele>1068.3</ele>
      </trkpt>
      <trkpt lat="42.972452" lon="-2.336466">
        <ele>1066.0</ele>
      </trkpt>
      <trkpt lat="42.972459" lon="-2.336399">
        <ele>1063.7</ele>
      </trkpt>
      <trkpt lat="42.972440" lon="-2.336334">
        <ele>1062.6</ele>
      </trkpt>
      <trkpt lat="42.972423" lon="-2.336271">
        <ele>1061.4</ele>
      </trkpt>
      <trkpt lat="42.972399" lon="-2.336193">
        <ele>1060.1</ele>
      </trkpt>
      <trkpt lat="42.972381" lon="-2.336135">
        <ele>1059.1</ele>
      </trkpt>
      <trkpt lat="42.972376" lon="-2.336068">
        <ele>1057.5</ele>
      </trkpt>
      <trkpt lat="42.972364" lon="-2.336004">
        <ele>1056.3</ele>
      </trkpt>
      <trkpt lat="42.972342" lon="-2.335939">
        <ele>1055.6</ele>
      </trkpt>
      <trkpt lat="42.972326" lon="-2.335869">
        <ele>1054.5</ele>
      </trkpt>
      <trkpt lat="42.972325" lon="-2.335783">
        <ele>1052.6</ele>
      </trkpt>
      <trkpt lat="42.972326" lon="-2.335703">
        <ele>1051.1</ele>
      </trkpt>
      <trkpt lat="42.972329" lon="-2.335588">
        <ele>1048.8</ele>
      </trkpt>
      <trkpt lat="42.972339" lon="-2.335494">
        <ele>1046.9</ele>
      </trkpt>
      <trkpt lat="42.972350" lon="-2.335423">
        <ele>1045.3</ele>
      </trkpt>
      <trkpt lat="42.972360" lon="-2.335342">
        <ele>1043.5</ele>
      </trkpt>
      <trkpt lat="42.972377" lon="-2.335254">
        <ele>1041.6</ele>
      </trkpt>
      <trkpt lat="42.972389" lon="-2.335171">
        <ele>1040.1</ele>
      </trkpt>
      <trkpt lat="42.972397" lon="-2.335099">
        <ele>1039.2</ele>
      </trkpt>
      <trkpt lat="42.972408" lon="-2.335016">
        <ele>1037.8</ele>
      </trkpt>
      <trkpt lat="42.972427" lon="-2.334947">
        <ele>1036.5</ele>
      </trkpt>
      <trkpt lat="42.972471" lon="-2.334912">
        <ele>1034.5</ele>
      </trkpt>
      <trkpt lat="42.972504" lon="-2.334867">
        <ele>1033.0</ele>
      </trkpt>
      <trkpt lat="42.972556" lon="-2.334890">
        <ele>1031.4</ele>
      </trkpt>
      <trkpt lat="42.972603" lon="-2.334930">
        <ele>1029.9</ele>
      </trkpt>
      <trkpt lat="42.972648" lon="-2.334940">
        <ele>1028.4</ele>
      </trkpt>
      <trkpt lat="42.972703" lon="-2.334909">
        <ele>1026.4</ele>
      </trkpt>
      <trkpt lat="42.972759" lon="-2.334902">
        <ele>1024.3</ele>
      </trkpt>
      <trkpt lat="42.972809" lon="-2.334915">
        <ele>1022.7</ele>
      </trkpt>
      <trkpt lat="42.972873" lon="-2.334947">
        <ele>1020.7</ele>
      </trkpt>
      <trkpt lat="42.972932" lon="-2.334985">
        <ele>1019.0</ele>
      </trkpt>
      <trkpt lat="42.972983" lon="-2.335025">
        <ele>1017.4</ele>
      </trkpt>
      <trkpt lat="42.973027" lon="-2.335043">
        <ele>1015.9</ele>
      </trkpt>
      <trkpt lat="42.973087" lon="-2.335059">
        <ele>1014.0</ele>
      </trkpt>
      <trkpt lat="42.973134" lon="-2.335070">
        <ele>1012.5</ele>
      </trkpt>
      <trkpt lat="42.973173" lon="-2.335113">
        <ele>1011.0</ele>
      </trkpt>
      <trkpt lat="42.973221" lon="-2.335119">
        <ele>1009.4</ele>
      </trkpt>
      <trkpt lat="42.973282" lon="-2.335102">
        <ele>1007.5</ele>
      </trkpt>
      <trkpt lat="42.973336" lon="-2.335090">
        <ele>1005.7</ele>
      </trkpt>
      <trkpt lat="42.973389" lon="-2.335076">
        <ele>1003.4</ele>
      </trkpt>
      <trkpt lat="42.973431" lon="-2.335043">
        <ele>1001.7</ele>
      </trkpt>
      <trkpt lat="42.973476" lon="-2.335016">
        <ele>999.8</ele>
      </trkpt>
      <trkpt lat="42.973524" lon="-2.335007">
        <ele>997.7</ele>
      </trkpt>
      <trkpt lat="42.973572" lon="-2.334983">
        <ele>995.7</ele>
      </trkpt>
      <trkpt lat="42.973611" lon="-2.334932">
        <ele>993.5</ele>
      </trkpt>
      <trkpt lat="42.973634" lon="-2.334875">
        <ele>992.0</ele>
      </trkpt>
      <trkpt lat="42.973671" lon="-2.334825">
        <ele>989.9</ele>
      </trkpt>
      <trkpt lat="42.973706" lon="-2.334779">
        <ele>988.0</ele>
      </trkpt>
      <trkpt lat="42.973756" lon="-2.334794">
        <ele>985.6</ele>
      </trkpt>
      <trkpt lat="42.973800" lon="-2.334779">
        <ele>983.4</ele>
      </trkpt>
      <trkpt lat="42.973853" lon="-2.334766">
        <ele>981.0</ele>
      </trkpt>
      <trkpt lat="42.973910" lon="-2.334769">
        <ele>978.4</ele>
      </trkpt>
      <trkpt lat="42.973962" lon="-2.334752">
        <ele>976.3</ele>
      </trkpt>
      <trkpt lat="42.974003" lon="-2.334725">
        <ele>974.6</ele>
      </trkpt>
      <trkpt lat="42.974036" lon="-2.334679">
        <ele>972.7</ele>
      </trkpt>
      <trkpt lat="42.974073" lon="-2.334638">
        <ele>970.7</ele>
      </trkpt>
      <trkpt lat="42.974121" lon="-2.334601">
        <ele>968.4</ele>
      </trkpt>
      <trkpt lat="42.974175" lon="-2.334588">
        <ele>966.3</ele>
      </trkpt>
      <trkpt lat="42.974227" lon="-2.334591">
        <ele>964.7</ele>
      </trkpt>
      <trkpt lat="42.974281" lon="-2.334606">
        <ele>963.3</ele>
      </trkpt>
      <trkpt lat="42.974336" lon="-2.334623">
        <ele>961.8</ele>
      </trkpt>
      <trkpt lat="42.974397" lon="-2.334632">
        <ele>959.9</ele>
      </trkpt>
      <trkpt lat="42.974458" lon="-2.334626">
        <ele>957.9</ele>
      </trkpt>
      <trkpt lat="42.974514" lon="-2.334600">
        <ele>955.7</ele>
      </trkpt>
      <trkpt lat="42.974554" lon="-2.334571">
        <ele>954.1</ele>
      </trkpt>
      <trkpt lat="42.974600" lon="-2.334541">
        <ele>952.1</ele>
      </trkpt>
      <trkpt lat="42.974643" lon="-2.334514">
        <ele>950.5</ele>
      </trkpt>
      <trkpt lat="42.974681" lon="-2.334478">
        <ele>948.8</ele>
      </trkpt>
      <trkpt lat="42.974728" lon="-2.334474">
        <ele>947.0</ele>
      </trkpt>
      <trkpt lat="42.974772" lon="-2.334497">
        <ele>945.4</ele>
      </trkpt>
      <trkpt lat="42.974821" lon="-2.334530">
        <ele>943.8</ele>
      </trkpt>
      <trkpt lat="42.974873" lon="-2.334554">
        <ele>941.8</ele>
      </trkpt>
      <trkpt lat="42.974930" lon="-2.334570">
        <ele>939.7</ele>
      </trkpt>
      <trkpt lat="42.974984" lon="-2.334598">
        <ele>937.7</ele>
      </trkpt>
      <trkpt lat="42.975039" lon="-2.334615">
        <ele>936.0</ele>
      </trkpt>
      <trkpt lat="42.975094" lon="-2.334621">
        <ele>934.0</ele>
      </trkpt>
      <trkpt lat="42.975115" lon="-2.334562">
        <ele>932.9</ele>
      </trkpt>
      <trkpt lat="42.975134" lon="-2.334499">
        <ele>932.0</ele>
      </trkpt>
      <trkpt lat="42.975153" lon="-2.334432">
        <ele>931.1</ele>
      </trkpt>
      <trkpt lat="42.975199" lon="-2.334408">
        <ele>929.3</ele>
      </trkpt>
      <trkpt lat="42.975249" lon="-2.334407">
        <ele>927.7</ele>
      </trkpt>
      <trkpt lat="42.975302" lon="-2.334398">
        <ele>926.1</ele>
      </trkpt>
      <trkpt lat="42.975354" lon="-2.334381">
        <ele>924.8</ele>
      </trkpt>
      <trkpt lat="42.975414" lon="-2.334369">
        <ele>923.3</ele>
      </trkpt>
      <trkpt lat="42.975471" lon="-2.334362">
        <ele>921.8</ele>
      </trkpt>
      <trkpt lat="42.975531" lon="-2.334357">
        <ele>920.3</ele>
      </trkpt>
      <trkpt lat="42.975587" lon="-2.334353">
        <ele>919.3</ele>
      </trkpt>
      <trkpt lat="42.975641" lon="-2.334339">
        <ele>918.7</ele>
      </trkpt>
      <trkpt lat="42.975713" lon="-2.334321">
        <ele>917.9</ele>
      </trkpt>
      <trkpt lat="42.975765" lon="-2.334315">
        <ele>917.3</ele>
      </trkpt>
      <trkpt lat="42.975813" lon="-2.334312">
        <ele>916.8</ele>
      </trkpt>
      <trkpt lat="42.975872" lon="-2.334307">
        <ele>916.1</ele>
      </trkpt>
      <trkpt lat="42.975932" lon="-2.334300">
        <ele>915.2</ele>
      </trkpt>
      <trkpt lat="42.975980" lon="-2.334277">
        <ele>914.6</ele>
      </trkpt>
      <trkpt lat="42.976029" lon="-2.334252">
        <ele>914.1</ele>
      </trkpt>
      <trkpt lat="42.976078" lon="-2.334226">
        <ele>913.5</ele>
      </trkpt>
      <trkpt lat="42.976131" lon="-2.334216">
        <ele>912.7</ele>
      </trkpt>
      <trkpt lat="42.976181" lon="-2.334221">
        <ele>911.8</ele>
      </trkpt>
      <trkpt lat="42.976244" lon="-2.334219">
        <ele>910.7</ele>
      </trkpt>
      <trkpt lat="42.976296" lon="-2.334216">
        <ele>909.7</ele>
      </trkpt>
      <trkpt lat="42.976346" lon="-2.334202">
        <ele>908.9</ele>
      </trkpt>
      <trkpt lat="42.976397" lon="-2.334172">
        <ele>907.9</ele>
      </trkpt>
      <trkpt lat="42.976441" lon="-2.334140">
        <ele>906.5</ele>
      </trkpt>
      <trkpt lat="42.976477" lon="-2.334100">
        <ele>905.3</ele>
      </trkpt>
      <trkpt lat="42.976521" lon="-2.334050">
        <ele>903.8</ele>
      </trkpt>
      <trkpt lat="42.976562" lon="-2.334021">
        <ele>902.5</ele>
      </trkpt>
      <trkpt lat="42.976605" lon="-2.333998">
        <ele>901.2</ele>
      </trkpt>
      <trkpt lat="42.976649" lon="-2.333968">
        <ele>899.8</ele>
      </trkpt>
      <trkpt lat="42.976694" lon="-2.333941">
        <ele>898.5</ele>
      </trkpt>
      <trkpt lat="42.976736" lon="-2.333904">
        <ele>897.4</ele>
      </trkpt>
      <trkpt lat="42.976778" lon="-2.333867">
        <ele>896.0</ele>
      </trkpt>
      <trkpt lat="42.976817" lon="-2.333836">
        <ele>894.6</ele>
      </trkpt>
      <trkpt lat="42.976860" lon="-2.333814">
        <ele>893.3</ele>
      </trkpt>
      <trkpt lat="42.976906" lon="-2.333790">
        <ele>892.0</ele>
      </trkpt>
      <trkpt lat="42.976952" lon="-2.333756">
        <ele>890.3</ele>
      </trkpt>
      <trkpt lat="42.976998" lon="-2.333710">
        <ele>888.1</ele>
      </trkpt>
      <trkpt lat="42.977045" lon="-2.333681">
        <ele>886.1</ele>
      </trkpt>
      <trkpt lat="42.977110" lon="-2.333674">
        <ele>883.7</ele>
      </trkpt>
      <trkpt lat="42.977158" lon="-2.333675">
        <ele>882.1</ele>
      </trkpt>
      <trkpt lat="42.977219" lon="-2.333685">
        <ele>879.9</ele>
      </trkpt>
      <trkpt lat="42.977274" lon="-2.333687">
        <ele>877.8</ele>
      </trkpt>
      <trkpt lat="42.977327" lon="-2.333671">
        <ele>875.4</ele>
      </trkpt>
      <trkpt lat="42.977369" lon="-2.333636">
        <ele>873.4</ele>
      </trkpt>
      <trkpt lat="42.977411" lon="-2.333680">
        <ele>872.2</ele>
      </trkpt>
      <trkpt lat="42.977455" lon="-2.333716">
        <ele>870.7</ele>
      </trkpt>
      <trkpt lat="42.977494" lon="-2.333751">
        <ele>869.4</ele>
      </trkpt>
      <trkpt lat="42.977548" lon="-2.333789">
        <ele>867.8</ele>
      </trkpt>
      <trkpt lat="42.977609" lon="-2.333800">
        <ele>865.8</ele>
      </trkpt>
      <trkpt lat="42.977660" lon="-2.333794">
        <ele>864.1</ele>
      </trkpt>
      <trkpt lat="42.977712" lon="-2.333764">
        <ele>862.2</ele>
      </trkpt>
      <trkpt lat="42.977762" lon="-2.333729">
        <ele>860.4</ele>
      </trkpt>
      <trkpt lat="42.977809" lon="-2.333709">
        <ele>859.2</ele>
      </trkpt>
      <trkpt lat="42.977871" lon="-2.333687">
        <ele>857.8</ele>
      </trkpt>
      <trkpt lat="42.977916" lon="-2.333670">
        <ele>856.8</ele>
      </trkpt>
      <trkpt lat="42.977967" lon="-2.333642">
        <ele>855.8</ele>
      </trkpt>
      <trkpt lat="42.978011" lon="-2.333606">
        <ele>854.8</ele>
      </trkpt>
      <trkpt lat="42.978050" lon="-2.333568">
        <ele>853.7</ele>
      </trkpt>
      <trkpt lat="42.978101" lon="-2.333557">
        <ele>852.6</ele>
      </trkpt>
      <trkpt lat="42.978148" lon="-2.333538">
        <ele>851.7</ele>
      </trkpt>
      <trkpt lat="42.978207" lon="-2.333494">
        <ele>850.2</ele>
      </trkpt>
      <trkpt lat="42.978252" lon="-2.333449">
        <ele>849.1</ele>
      </trkpt>
      <trkpt lat="42.978306" lon="-2.333417">
        <ele>848.0</ele>
      </trkpt>
      <trkpt lat="42.978353" lon="-2.333409">
        <ele>847.3</ele>
      </trkpt>
      <trkpt lat="42.978406" lon="-2.333407">
        <ele>846.3</ele>
      </trkpt>
      <trkpt lat="42.978453" lon="-2.333411">
        <ele>845.7</ele>
      </trkpt>
      <trkpt lat="42.978501" lon="-2.333437">
        <ele>844.9</ele>
      </trkpt>
      <trkpt lat="42.978544" lon="-2.333479">
        <ele>844.3</ele>
      </trkpt>
      <trkpt lat="42.978590" lon="-2.333514">
        <ele>843.5</ele>
      </trkpt>
      <trkpt lat="42.978633" lon="-2.333554">
        <ele>842.8</ele>
      </trkpt>
      <trkpt lat="42.978687" lon="-2.333576">
        <ele>841.9</ele>
      </trkpt>
      <trkpt lat="42.978735" lon="-2.333585">
        <ele>841.2</ele>
      </trkpt>
      <trkpt lat="42.978784" lon="-2.333591">
        <ele>840.6</ele>
      </trkpt>
      <trkpt lat="42.978842" lon="-2.333591">
        <ele>839.6</ele>
      </trkpt>
      <trkpt lat="42.978898" lon="-2.333591">
        <ele>838.9</ele>
      </trkpt>
      <trkpt lat="42.978961" lon="-2.333594">
        <ele>838.4</ele>
      </trkpt>
      <trkpt lat="42.979017" lon="-2.333594">
        <ele>838.1</ele>
      </trkpt>
      <trkpt lat="42.979070" lon="-2.333596">
        <ele>837.7</ele>
      </trkpt>
      <trkpt lat="42.979123" lon="-2.333583">
        <ele>837.1</ele>
      </trkpt>
      <trkpt lat="42.979178" lon="-2.333563">
        <ele>836.7</ele>
      </trkpt>
      <trkpt lat="42.979227" lon="-2.333546">
        <ele>836.2</ele>
      </trkpt>
      <trkpt lat="42.979276" lon="-2.333513">
        <ele>835.9</ele>
      </trkpt>
      <trkpt lat="42.979313" lon="-2.333478">
        <ele>835.6</ele>
      </trkpt>
      <trkpt lat="42.979346" lon="-2.333436">
        <ele>835.4</ele>
      </trkpt>
      <trkpt lat="42.979377" lon="-2.333384">
        <ele>835.1</ele>
      </trkpt>
      <trkpt lat="42.979405" lon="-2.333331">
        <ele>835.0</ele>
      </trkpt>
      <trkpt lat="42.979432" lon="-2.333277">
        <ele>834.7</ele>
      </trkpt>
      <trkpt lat="42.979464" lon="-2.333231">
        <ele>834.3</ele>
      </trkpt>
      <trkpt lat="42.979501" lon="-2.333176">
        <ele>833.7</ele>
      </trkpt>
      <trkpt lat="42.979541" lon="-2.333126">
        <ele>833.1</ele>
      </trkpt>
      <trkpt lat="42.979570" lon="-2.333078">
        <ele>832.4</ele>
      </trkpt>
      <trkpt lat="42.979608" lon="-2.333025">
        <ele>831.4</ele>
      </trkpt>
      <trkpt lat="42.979656" lon="-2.332988">
        <ele>830.3</ele>
      </trkpt>
      <trkpt lat="42.979698" lon="-2.332954">
        <ele>829.4</ele>
      </trkpt>
      <trkpt lat="42.979734" lon="-2.332907">
        <ele>828.2</ele>
      </trkpt>
      <trkpt lat="42.979777" lon="-2.332858">
        <ele>826.9</ele>
      </trkpt>
      <trkpt lat="42.979827" lon="-2.332815">
        <ele>825.8</ele>
      </trkpt>
      <trkpt lat="42.979872" lon="-2.332773">
        <ele>824.8</ele>
      </trkpt>
      <trkpt lat="42.979912" lon="-2.332722">
        <ele>823.5</ele>
      </trkpt>
      <trkpt lat="42.979954" lon="-2.332666">
        <ele>822.0</ele>
      </trkpt>
      <trkpt lat="42.979982" lon="-2.332611">
        <ele>820.5</ele>
      </trkpt>
      <trkpt lat="42.980025" lon="-2.332549">
        <ele>818.9</ele>
      </trkpt>
      <trkpt lat="42.980061" lon="-2.332505">
        <ele>817.8</ele>
      </trkpt>
      <trkpt lat="42.980111" lon="-2.332451">
        <ele>816.5</ele>
      </trkpt>
      <trkpt lat="42.980157" lon="-2.332412">
        <ele>815.5</ele>
      </trkpt>
      <trkpt lat="42.980206" lon="-2.332381">
        <ele>814.7</ele>
      </trkpt>
      <trkpt lat="42.980249" lon="-2.332346">
        <ele>814.0</ele>
      </trkpt>
      <trkpt lat="42.980289" lon="-2.332304">
        <ele>813.2</ele>
      </trkpt>
      <trkpt lat="42.980333" lon="-2.332256">
        <ele>812.4</ele>
      </trkpt>
      <trkpt lat="42.980389" lon="-2.332202">
        <ele>811.6</ele>
      </trkpt>
      <trkpt lat="42.980437" lon="-2.332146">
        <ele>810.8</ele>
      </trkpt>
      <trkpt lat="42.980483" lon="-2.332094">
        <ele>810.2</ele>
      </trkpt>
      <trkpt lat="42.980516" lon="-2.332051">
        <ele>809.8</ele>
      </trkpt>
      <trkpt lat="42.980550" lon="-2.331991">
        <ele>809.5</ele>
      </trkpt>
      <trkpt lat="42.980578" lon="-2.331917">
        <ele>808.7</ele>
      </trkpt>
      <trkpt lat="42.980594" lon="-2.331842">
        <ele>807.7</ele>
      </trkpt>
      <trkpt lat="42.980611" lon="-2.331761">
        <ele>806.7</ele>
      </trkpt>
      <trkpt lat="42.980633" lon="-2.331685">
        <ele>805.5</ele>
      </trkpt>
      <trkpt lat="42.980665" lon="-2.331617">
        <ele>804.6</ele>
      </trkpt>
      <trkpt lat="42.980693" lon="-2.331557">
        <ele>803.7</ele>
      </trkpt>
      <trkpt lat="42.980722" lon="-2.331500">
        <ele>803.1</ele>
      </trkpt>
      <trkpt lat="42.980745" lon="-2.331445">
        <ele>802.5</ele>
      </trkpt>
      <trkpt lat="42.980766" lon="-2.331390">
        <ele>802.1</ele>
      </trkpt>
      <trkpt lat="42.980791" lon="-2.331339">
        <ele>801.6</ele>
      </trkpt>
      <trkpt lat="42.980816" lon="-2.331287">
        <ele>801.3</ele>
      </trkpt>
      <trkpt lat="42.980851" lon="-2.331227">
        <ele>800.6</ele>
      </trkpt>
      <trkpt lat="42.980885" lon="-2.331170">
        <ele>799.4</ele>
      </trkpt>
      <trkpt lat="42.980901" lon="-2.331101">
        <ele>798.3</ele>
      </trkpt>
      <trkpt lat="42.980900" lon="-2.331027">
        <ele>796.7</ele>
      </trkpt>
      <trkpt lat="42.980890" lon="-2.330952">
        <ele>795.0</ele>
      </trkpt>
      <trkpt lat="42.980897" lon="-2.330880">
        <ele>793.5</ele>
      </trkpt>
      <trkpt lat="42.980925" lon="-2.330826">
        <ele>791.9</ele>
      </trkpt>
      <trkpt lat="42.980974" lon="-2.330793">
        <ele>790.2</ele>
      </trkpt>
      <trkpt lat="42.981013" lon="-2.330743">
        <ele>788.3</ele>
      </trkpt>
      <trkpt lat="42.981030" lon="-2.330678">
        <ele>786.3</ele>
      </trkpt>
      <trkpt lat="42.981018" lon="-2.330618">
        <ele>784.5</ele>
      </trkpt>
      <trkpt lat="42.981039" lon="-2.330550">
        <ele>782.5</ele>
      </trkpt>
      <trkpt lat="42.981073" lon="-2.330500">
        <ele>780.7</ele>
      </trkpt>
      <trkpt lat="42.981121" lon="-2.330460">
        <ele>779.2</ele>
      </trkpt>
      <trkpt lat="42.981159" lon="-2.330403">
        <ele>776.9</ele>
      </trkpt>
      <trkpt lat="42.981178" lon="-2.330347">
        <ele>775.1</ele>
      </trkpt>
      <trkpt lat="42.981202" lon="-2.330275">
        <ele>772.7</ele>
      </trkpt>
      <trkpt lat="42.981218" lon="-2.330212">
        <ele>770.7</ele>
      </trkpt>
      <trkpt lat="42.981219" lon="-2.330140">
        <ele>768.6</ele>
      </trkpt>
      <trkpt lat="42.981226" lon="-2.330076">
        <ele>766.5</ele>
      </trkpt>
      <trkpt lat="42.981257" lon="-2.329999">
        <ele>763.9</ele>
      </trkpt>
      <trkpt lat="42.981285" lon="-2.329946">
        <ele>762.3</ele>
      </trkpt>
      <trkpt lat="42.981323" lon="-2.329876">
        <ele>760.2</ele>
      </trkpt>
      <trkpt lat="42.981354" lon="-2.329823">
        <ele>758.6</ele>
      </trkpt>
      <trkpt lat="42.981374" lon="-2.329759">
        <ele>756.9</ele>
      </trkpt>
      <trkpt lat="42.981374" lon="-2.329692">
        <ele>755.6</ele>
      </trkpt>
      <trkpt lat="42.981364" lon="-2.329625">
        <ele>754.4</ele>
      </trkpt>
      <trkpt lat="42.981362" lon="-2.329563">
        <ele>753.2</ele>
      </trkpt>
      <trkpt lat="42.981364" lon="-2.329493">
        <ele>752.0</ele>
      </trkpt>
      <trkpt lat="42.981360" lon="-2.329430">
        <ele>750.8</ele>
      </trkpt>
      <trkpt lat="42.981355" lon="-2.329354">
        <ele>749.7</ele>
      </trkpt>
      <trkpt lat="42.981358" lon="-2.329286">
        <ele>748.6</ele>
      </trkpt>
      <trkpt lat="42.981359" lon="-2.329217">
        <ele>747.5</ele>
      </trkpt>
      <trkpt lat="42.981357" lon="-2.329140">
        <ele>746.4</ele>
      </trkpt>
      <trkpt lat="42.981360" lon="-2.329068">
        <ele>745.4</ele>
      </trkpt>
      <trkpt lat="42.981369" lon="-2.328992">
        <ele>744.3</ele>
      </trkpt>
      <trkpt lat="42.981372" lon="-2.328924">
        <ele>743.4</ele>
      </trkpt>
      <trkpt lat="42.981352" lon="-2.328849">
        <ele>742.0</ele>
      </trkpt>
      <trkpt lat="42.981315" lon="-2.328802">
        <ele>740.9</ele>
      </trkpt>
      <trkpt lat="42.981310" lon="-2.328728">
        <ele>739.7</ele>
      </trkpt>
      <trkpt lat="42.981343" lon="-2.328625">
        <ele>738.6</ele>
      </trkpt>
      <trkpt lat="42.981374" lon="-2.328560">
        <ele>738.4</ele>
      </trkpt>
      <trkpt lat="42.981407" lon="-2.328514">
        <ele>738.4</ele>
      </trkpt>
      <trkpt lat="42.981448" lon="-2.328465">
        <ele>738.1</ele>
      </trkpt>
      <trkpt lat="42.981475" lon="-2.328413">
        <ele>737.8</ele>
      </trkpt>
      <trkpt lat="42.981500" lon="-2.328360">
        <ele>737.6</ele>
      </trkpt>
      <trkpt lat="42.981526" lon="-2.328304">
        <ele>737.2</ele>
      </trkpt>
      <trkpt lat="42.981533" lon="-2.328237">
        <ele>736.7</ele>
      </trkpt>
      <trkpt lat="42.981526" lon="-2.328160">
        <ele>736.0</ele>
      </trkpt>
      <trkpt lat="42.981532" lon="-2.328095">
        <ele>735.4</ele>
      </trkpt>
      <trkpt lat="42.981553" lon="-2.328023">
        <ele>735.2</ele>
      </trkpt>
      <trkpt lat="42.981572" lon="-2.327958">
        <ele>735.0</ele>
      </trkpt>
      <trkpt lat="42.981595" lon="-2.327899">
        <ele>735.0</ele>
      </trkpt>
      <trkpt lat="42.981637" lon="-2.327802">
        <ele>734.9</ele>
      </trkpt>
      <trkpt lat="42.981688" lon="-2.327766">
        <ele>734.8</ele>
      </trkpt>
      <trkpt lat="42.981734" lon="-2.327752">
        <ele>734.0</ele>
      </trkpt>
      <trkpt lat="42.981780" lon="-2.327725">
        <ele>733.3</ele>
      </trkpt>
      <trkpt lat="42.981828" lon="-2.327725">
        <ele>732.7</ele>
      </trkpt>
      <trkpt lat="42.981873" lon="-2.327703">
        <ele>732.3</ele>
      </trkpt>
      <trkpt lat="42.981928" lon="-2.327718">
        <ele>731.4</ele>
      </trkpt>
      <trkpt lat="42.981967" lon="-2.327763">
        <ele>730.7</ele>
      </trkpt>
      <trkpt lat="42.982000" lon="-2.327824">
        <ele>730.4</ele>
      </trkpt>
      <trkpt lat="42.982027" lon="-2.327876">
        <ele>730.1</ele>
      </trkpt>
      <trkpt lat="42.982061" lon="-2.327933">
        <ele>729.5</ele>
      </trkpt>
      <trkpt lat="42.982108" lon="-2.327980">
        <ele>728.6</ele>
      </trkpt>
      <trkpt lat="42.982154" lon="-2.328008">
        <ele>727.7</ele>
      </trkpt>
      <trkpt lat="42.982204" lon="-2.328027">
        <ele>726.6</ele>
      </trkpt>
      <trkpt lat="42.982249" lon="-2.328040">
        <ele>725.4</ele>
      </trkpt>
      <trkpt lat="42.982300" lon="-2.328056">
        <ele>724.0</ele>
      </trkpt>
      <trkpt lat="42.982350" lon="-2.328084">
        <ele>722.7</ele>
      </trkpt>
      <trkpt lat="42.982400" lon="-2.328113">
        <ele>721.4</ele>
      </trkpt>
      <trkpt lat="42.982437" lon="-2.328155">
        <ele>720.3</ele>
      </trkpt>
      <trkpt lat="42.982453" lon="-2.328217">
        <ele>719.8</ele>
      </trkpt>
      <trkpt lat="42.982477" lon="-2.328277">
        <ele>718.9</ele>
      </trkpt>
      <trkpt lat="42.982518" lon="-2.328311">
        <ele>717.6</ele>
      </trkpt>
      <trkpt lat="42.982562" lon="-2.328332">
        <ele>716.1</ele>
      </trkpt>
      <trkpt lat="42.982612" lon="-2.328331">
        <ele>714.5</ele>
      </trkpt>
      <trkpt lat="42.982674" lon="-2.328335">
        <ele>712.5</ele>
      </trkpt>
      <trkpt lat="42.982739" lon="-2.328346">
        <ele>710.2</ele>
      </trkpt>
      <trkpt lat="42.982800" lon="-2.328352">
        <ele>707.9</ele>
      </trkpt>
      <trkpt lat="42.982859" lon="-2.328353">
        <ele>705.4</ele>
      </trkpt>
      <trkpt lat="42.982907" lon="-2.328341">
        <ele>703.4</ele>
      </trkpt>
      <trkpt lat="42.982958" lon="-2.328304">
        <ele>701.5</ele>
      </trkpt>
      <trkpt lat="42.982985" lon="-2.328242">
        <ele>700.5</ele>
      </trkpt>
      <trkpt lat="42.983025" lon="-2.328206">
        <ele>699.2</ele>
      </trkpt>
      <trkpt lat="42.983068" lon="-2.328186">
        <ele>697.5</ele>
      </trkpt>
      <trkpt lat="42.983112" lon="-2.328199">
        <ele>695.5</ele>
      </trkpt>
      <trkpt lat="42.983151" lon="-2.328238">
        <ele>693.3</ele>
      </trkpt>
      <trkpt lat="42.983193" lon="-2.328289">
        <ele>691.0</ele>
      </trkpt>
      <trkpt lat="42.983205" lon="-2.328355">
        <ele>690.2</ele>
      </trkpt>
      <trkpt lat="42.983218" lon="-2.328419">
        <ele>689.7</ele>
      </trkpt>
      <trkpt lat="42.983242" lon="-2.328477">
        <ele>688.8</ele>
      </trkpt>
      <trkpt lat="42.983268" lon="-2.328540">
        <ele>687.8</ele>
      </trkpt>
      <trkpt lat="42.983298" lon="-2.328603">
        <ele>686.7</ele>
      </trkpt>
      <trkpt lat="42.983334" lon="-2.328648">
        <ele>685.4</ele>
      </trkpt>
      <trkpt lat="42.983369" lon="-2.328707">
        <ele>684.8</ele>
      </trkpt>
      <trkpt lat="42.983380" lon="-2.328767">
        <ele>685.0</ele>
      </trkpt>
      <trkpt lat="42.983383" lon="-2.328839">
        <ele>685.7</ele>
      </trkpt>
      <trkpt lat="42.983387" lon="-2.328908">
        <ele>686.1</ele>
      </trkpt>
      <trkpt lat="42.983399" lon="-2.328987">
        <ele>686.0</ele>
      </trkpt>
      <trkpt lat="42.983415" lon="-2.329050">
        <ele>685.9</ele>
      </trkpt>
      <trkpt lat="42.983408" lon="-2.329117">
        <ele>686.4</ele>
      </trkpt>
      <trkpt lat="42.983389" lon="-2.329179">
        <ele>686.8</ele>
      </trkpt>
      <trkpt lat="42.983437" lon="-2.329200">
        <ele>687.0</ele>
      </trkpt>
      <trkpt lat="42.983493" lon="-2.329201">
        <ele>686.7</ele>
      </trkpt>
      <trkpt lat="42.983542" lon="-2.329174">
        <ele>685.7</ele>
      </trkpt>
      <trkpt lat="42.983595" lon="-2.329141">
        <ele>684.6</ele>
      </trkpt>
      <trkpt lat="42.983641" lon="-2.329119">
        <ele>683.6</ele>
      </trkpt>
      <trkpt lat="42.983687" lon="-2.329083">
        <ele>682.0</ele>
      </trkpt>
      <trkpt lat="42.983722" lon="-2.329043">
        <ele>680.5</ele>
      </trkpt>
      <trkpt lat="42.983763" lon="-2.329004">
        <ele>679.0</ele>
      </trkpt>
      <trkpt lat="42.983810" lon="-2.328987">
        <ele>678.0</ele>
      </trkpt>
      <trkpt lat="42.983865" lon="-2.328981">
        <ele>677.1</ele>
      </trkpt>
      <trkpt lat="42.983910" lon="-2.328997">
        <ele>676.7</ele>
      </trkpt>
      <trkpt lat="42.983957" lon="-2.329026">
        <ele>676.7</ele>
      </trkpt>
      <trkpt lat="42.984020" lon="-2.329042">
        <ele>675.8</ele>
      </trkpt>
      <trkpt lat="42.984067" lon="-2.329048">
        <ele>675.1</ele>
      </trkpt>
      <trkpt lat="42.984117" lon="-2.329057">
        <ele>674.5</ele>
      </trkpt>
      <trkpt lat="42.984172" lon="-2.329066">
        <ele>673.7</ele>
      </trkpt>
      <trkpt lat="42.984228" lon="-2.329078">
        <ele>673.2</ele>
      </trkpt>
      <trkpt lat="42.984283" lon="-2.329077">
        <ele>672.2</ele>
      </trkpt>
      <trkpt lat="42.984342" lon="-2.329081">
        <ele>671.4</ele>
      </trkpt>
      <trkpt lat="42.984410" lon="-2.329076">
        <ele>670.1</ele>
      </trkpt>
      <trkpt lat="42.984457" lon="-2.329072">
        <ele>669.4</ele>
      </trkpt>
      <trkpt lat="42.984514" lon="-2.329069">
        <ele>669.6</ele>
      </trkpt>
      <trkpt lat="42.984576" lon="-2.329069">
        <ele>670.0</ele>
      </trkpt>
      <trkpt lat="42.984629" lon="-2.329063">
        <ele>670.0</ele>
      </trkpt>
      <trkpt lat="42.984676" lon="-2.329048">
        <ele>669.7</ele>
      </trkpt>
      <trkpt lat="42.984724" lon="-2.329036">
        <ele>669.4</ele>
      </trkpt>
      <trkpt lat="42.984776" lon="-2.329019">
        <ele>668.9</ele>
      </trkpt>
      <trkpt lat="42.984823" lon="-2.329006">
        <ele>668.5</ele>
      </trkpt>
      <trkpt lat="42.984872" lon="-2.329004">
        <ele>668.5</ele>
      </trkpt>
      <trkpt lat="42.984917" lon="-2.328990">
        <ele>668.0</ele>
      </trkpt>
      <trkpt lat="42.984967" lon="-2.328956">
        <ele>666.3</ele>
      </trkpt>
      <trkpt lat="42.985022" lon="-2.328943">
        <ele>665.5</ele>
      </trkpt>
      <trkpt lat="42.985066" lon="-2.328923">
        <ele>664.3</ele>
      </trkpt>
      <trkpt lat="42.985119" lon="-2.328902">
        <ele>662.8</ele>
      </trkpt>
      <trkpt lat="42.985164" lon="-2.328898">
        <ele>662.2</ele>
      </trkpt>
      <trkpt lat="42.985215" lon="-2.328923">
        <ele>663.0</ele>
      </trkpt>
      <trkpt lat="42.985253" lon="-2.328962">
        <ele>664.1</ele>
      </trkpt>
      <trkpt lat="42.985290" lon="-2.329023">
        <ele>665.7</ele>
      </trkpt>
      <trkpt lat="42.985325" lon="-2.329070">
        <ele>665.7</ele>
      </trkpt>
      <trkpt lat="42.985370" lon="-2.329100">
        <ele>664.5</ele>
      </trkpt>
      <trkpt lat="42.985416" lon="-2.329121">
        <ele>663.0</ele>
      </trkpt>
      <trkpt lat="42.985461" lon="-2.329145">
        <ele>661.5</ele>
      </trkpt>
      <trkpt lat="42.985511" lon="-2.329170">
        <ele>659.5</ele>
      </trkpt>
      <trkpt lat="42.985564" lon="-2.329204">
        <ele>657.8</ele>
      </trkpt>
      <trkpt lat="42.985610" lon="-2.329243">
        <ele>656.6</ele>
      </trkpt>
      <trkpt lat="42.985641" lon="-2.329289">
        <ele>656.5</ele>
      </trkpt>
      <trkpt lat="42.985681" lon="-2.329344">
        <ele>656.0</ele>
      </trkpt>
      <trkpt lat="42.985725" lon="-2.329389">
        <ele>655.0</ele>
      </trkpt>
      <trkpt lat="42.985765" lon="-2.329428">
        <ele>654.0</ele>
      </trkpt>
      <trkpt lat="42.985816" lon="-2.329450">
        <ele>652.1</ele>
      </trkpt>
      <trkpt lat="42.985871" lon="-2.329474">
        <ele>650.9</ele>
      </trkpt>
      <trkpt lat="42.985922" lon="-2.329502">
        <ele>650.0</ele>
      </trkpt>
      <trkpt lat="42.985977" lon="-2.329525">
        <ele>649.0</ele>
      </trkpt>
      <trkpt lat="42.986038" lon="-2.329542">
        <ele>647.3</ele>
      </trkpt>
      <trkpt lat="42.986082" lon="-2.329557">
        <ele>646.1</ele>
      </trkpt>
      <trkpt lat="42.986134" lon="-2.329570">
        <ele>644.8</ele>
      </trkpt>
      <trkpt lat="42.986183" lon="-2.329597">
        <ele>644.2</ele>
      </trkpt>
      <trkpt lat="42.986237" lon="-2.329634">
        <ele>643.7</ele>
      </trkpt>
      <trkpt lat="42.986281" lon="-2.329678">
        <ele>643.3</ele>
      </trkpt>
      <trkpt lat="42.986320" lon="-2.329716">
        <ele>642.7</ele>
      </trkpt>
      <trkpt lat="42.986357" lon="-2.329760">
        <ele>642.9</ele>
      </trkpt>
      <trkpt lat="42.986397" lon="-2.329800">
        <ele>643.1</ele>
      </trkpt>
      <trkpt lat="42.986446" lon="-2.329829">
        <ele>642.5</ele>
      </trkpt>
      <trkpt lat="42.986489" lon="-2.329861">
        <ele>642.1</ele>
      </trkpt>
      <trkpt lat="42.986531" lon="-2.329887">
        <ele>641.3</ele>
      </trkpt>
      <trkpt lat="42.986578" lon="-2.329923">
        <ele>640.7</ele>
      </trkpt>
      <trkpt lat="42.986636" lon="-2.329945">
        <ele>638.8</ele>
      </trkpt>
      <trkpt lat="42.986690" lon="-2.329965">
        <ele>637.3</ele>
      </trkpt>
      <trkpt lat="42.986750" lon="-2.329983">
        <ele>636.1</ele>
      </trkpt>
      <trkpt lat="42.986800" lon="-2.329997">
        <ele>634.7</ele>
      </trkpt>
      <trkpt lat="42.986863" lon="-2.330009">
        <ele>633.0</ele>
      </trkpt>
      <trkpt lat="42.986910" lon="-2.330010">
        <ele>631.5</ele>
      </trkpt>
      <trkpt lat="42.986959" lon="-2.330006">
        <ele>630.0</ele>
      </trkpt>
      <trkpt lat="42.987007" lon="-2.330007">
        <ele>629.3</ele>
      </trkpt>
      <trkpt lat="42.987061" lon="-2.330009">
        <ele>628.6</ele>
      </trkpt>
      <trkpt lat="42.987125" lon="-2.330007">
        <ele>627.7</ele>
      </trkpt>
      <trkpt lat="42.987178" lon="-2.330018">
        <ele>627.2</ele>
      </trkpt>
      <trkpt lat="42.987229" lon="-2.330030">
        <ele>626.5</ele>
      </trkpt>
      <trkpt lat="42.987276" lon="-2.330044">
        <ele>626.2</ele>
      </trkpt>
      <trkpt lat="42.987331" lon="-2.330065">
        <ele>625.5</ele>
      </trkpt>
      <trkpt lat="42.987373" lon="-2.330097">
        <ele>625.2</ele>
      </trkpt>
      <trkpt lat="42.987417" lon="-2.330130">
        <ele>624.7</ele>
      </trkpt>
      <trkpt lat="42.987468" lon="-2.330147">
        <ele>623.8</ele>
      </trkpt>
      <trkpt lat="42.987515" lon="-2.330150">
        <ele>623.4</ele>
      </trkpt>
      <trkpt lat="42.987565" lon="-2.330161">
        <ele>624.2</ele>
      </trkpt>
      <trkpt lat="42.987615" lon="-2.330146">
        <ele>624.8</ele>
      </trkpt>
      <trkpt lat="42.987671" lon="-2.330128">
        <ele>625.3</ele>
      </trkpt>
      <trkpt lat="42.987725" lon="-2.330109">
        <ele>625.4</ele>
      </trkpt>
      <trkpt lat="42.987777" lon="-2.330089">
        <ele>625.3</ele>
      </trkpt>
      <trkpt lat="42.987825" lon="-2.330061">
        <ele>625.7</ele>
      </trkpt>
      <trkpt lat="42.987866" lon="-2.330014">
        <ele>625.4</ele>
      </trkpt>
      <trkpt lat="42.987911" lon="-2.329978">
        <ele>626.0</ele>
      </trkpt>
      <trkpt lat="42.987952" lon="-2.329952">
        <ele>626.5</ele>
      </trkpt>
      <trkpt lat="42.987999" lon="-2.329927">
        <ele>627.0</ele>
      </trkpt>
      <trkpt lat="42.988051" lon="-2.329905">
        <ele>627.6</ele>
      </trkpt>
      <trkpt lat="42.988093" lon="-2.329871">
        <ele>626.9</ele>
      </trkpt>
      <trkpt lat="42.988139" lon="-2.329835">
        <ele>626.3</ele>
      </trkpt>
      <trkpt lat="42.988182" lon="-2.329798">
        <ele>625.5</ele>
      </trkpt>
      <trkpt lat="42.988238" lon="-2.329764">
        <ele>625.1</ele>
      </trkpt>
      <trkpt lat="42.988289" lon="-2.329747">
        <ele>625.3</ele>
      </trkpt>
      <trkpt lat="42.988340" lon="-2.329751">
        <ele>626.1</ele>
      </trkpt>
      <trkpt lat="42.988390" lon="-2.329764">
        <ele>626.1</ele>
      </trkpt>
      <trkpt lat="42.988442" lon="-2.329792">
        <ele>626.5</ele>
      </trkpt>
      <trkpt lat="42.988500" lon="-2.329815">
        <ele>627.0</ele>
      </trkpt>
      <trkpt lat="42.988559" lon="-2.329838">
        <ele>627.5</ele>
      </trkpt>
      <trkpt lat="42.988615" lon="-2.329864">
        <ele>628.2</ele>
      </trkpt>
      <trkpt lat="42.988668" lon="-2.329884">
        <ele>628.1</ele>
      </trkpt>
      <trkpt lat="42.988713" lon="-2.329895">
        <ele>628.0</ele>
      </trkpt>
      <trkpt lat="42.988768" lon="-2.329902">
        <ele>627.3</ele>
      </trkpt>
      <trkpt lat="42.988819" lon="-2.329903">
        <ele>626.6</ele>
      </trkpt>
      <trkpt lat="42.988865" lon="-2.329893">
        <ele>625.4</ele>
      </trkpt>
      <trkpt lat="42.988911" lon="-2.329887">
        <ele>624.6</ele>
      </trkpt>
      <trkpt lat="42.988961" lon="-2.329867">
        <ele>623.7</ele>
      </trkpt>
      <trkpt lat="42.989016" lon="-2.329850">
        <ele>622.9</ele>
      </trkpt>
      <trkpt lat="42.989068" lon="-2.329812">
        <ele>621.3</ele>
      </trkpt>
      <trkpt lat="42.989107" lon="-2.329778">
        <ele>619.9</ele>
      </trkpt>
      <trkpt lat="42.989153" lon="-2.329751">
        <ele>619.0</ele>
      </trkpt>
      <trkpt lat="42.989207" lon="-2.329737">
        <ele>618.1</ele>
      </trkpt>
      <trkpt lat="42.989252" lon="-2.329735">
        <ele>617.5</ele>
      </trkpt>
      <trkpt lat="42.989302" lon="-2.329737">
        <ele>616.9</ele>
      </trkpt>
      <trkpt lat="42.989347" lon="-2.329744">
        <ele>616.6</ele>
      </trkpt>
      <trkpt lat="42.989395" lon="-2.329772">
        <ele>616.6</ele>
      </trkpt>
      <trkpt lat="42.989435" lon="-2.329804">
        <ele>616.7</ele>
      </trkpt>
      <trkpt lat="42.989488" lon="-2.329830">
        <ele>615.2</ele>
      </trkpt>
      <trkpt lat="42.989541" lon="-2.329846">
        <ele>613.2</ele>
      </trkpt>
      <trkpt lat="42.989590" lon="-2.329860">
        <ele>611.4</ele>
      </trkpt>
      <trkpt lat="42.989647" lon="-2.329879">
        <ele>609.6</ele>
      </trkpt>
      <trkpt lat="42.989705" lon="-2.329893">
        <ele>607.7</ele>
      </trkpt>
      <trkpt lat="42.989758" lon="-2.329909">
        <ele>606.3</ele>
      </trkpt>
      <trkpt lat="42.989806" lon="-2.329928">
        <ele>605.5</ele>
      </trkpt>
      <trkpt lat="42.989865" lon="-2.329934">
        <ele>603.9</ele>
      </trkpt>
      <trkpt lat="42.989937" lon="-2.329932">
        <ele>601.7</ele>
      </trkpt>
      <trkpt lat="42.989988" lon="-2.329922">
        <ele>599.9</ele>
      </trkpt>
      <trkpt lat="42.990047" lon="-2.329929">
        <ele>598.9</ele>
      </trkpt>
      <trkpt lat="42.990092" lon="-2.329948">
        <ele>598.4</ele>
      </trkpt>
      <trkpt lat="42.990139" lon="-2.329985">
        <ele>597.9</ele>
      </trkpt>
      <trkpt lat="42.990186" lon="-2.330027">
        <ele>597.3</ele>
      </trkpt>
      <trkpt lat="42.990230" lon="-2.330062">
        <ele>597.0</ele>
      </trkpt>
      <trkpt lat="42.990271" lon="-2.330099">
        <ele>597.0</ele>
      </trkpt>
      <trkpt lat="42.990313" lon="-2.330127">
        <ele>596.8</ele>
      </trkpt>
      <trkpt lat="42.990356" lon="-2.330146">
        <ele>596.6</ele>
      </trkpt>
      <trkpt lat="42.990402" lon="-2.330174">
        <ele>596.3</ele>
      </trkpt>
      <trkpt lat="42.990464" lon="-2.330200">
        <ele>595.6</ele>
      </trkpt>
      <trkpt lat="42.990512" lon="-2.330224">
        <ele>595.2</ele>
      </trkpt>
      <trkpt lat="42.990556" lon="-2.330258">
        <ele>594.8</ele>
      </trkpt>
      <trkpt lat="42.990598" lon="-2.330282">
        <ele>594.3</ele>
      </trkpt>
      <trkpt lat="42.990671" lon="-2.330274">
        <ele>593.0</ele>
      </trkpt>
      <trkpt lat="42.990732" lon="-2.330249">
        <ele>591.8</ele>
      </trkpt>
      <trkpt lat="42.990782" lon="-2.330227">
        <ele>591.2</ele>
      </trkpt>
      <trkpt lat="42.990826" lon="-2.330211">
        <ele>590.6</ele>
      </trkpt>
      <trkpt lat="42.990888" lon="-2.330188">
        <ele>590.8</ele>
      </trkpt>
      <trkpt lat="42.990952" lon="-2.330161">
        <ele>590.9</ele>
      </trkpt>
      <trkpt lat="42.990995" lon="-2.330126">
        <ele>590.3</ele>
      </trkpt>
      <trkpt lat="42.991041" lon="-2.330090">
        <ele>589.3</ele>
      </trkpt>
      <trkpt lat="42.991095" lon="-2.330066">
        <ele>588.1</ele>
      </trkpt>
      <trkpt lat="42.991149" lon="-2.330065">
        <ele>588.6</ele>
      </trkpt>
      <trkpt lat="42.991205" lon="-2.330055">
        <ele>589.1</ele>
      </trkpt>
      <trkpt lat="42.991247" lon="-2.330030">
        <ele>588.9</ele>
      </trkpt>
      <trkpt lat="42.991292" lon="-2.330002">
        <ele>588.8</ele>
      </trkpt>
      <trkpt lat="42.991347" lon="-2.329974">
        <ele>589.0</ele>
      </trkpt>
      <trkpt lat="42.991393" lon="-2.329950">
        <ele>588.7</ele>
      </trkpt>
      <trkpt lat="42.991435" lon="-2.329923">
        <ele>588.0</ele>
      </trkpt>
      <trkpt lat="42.991480" lon="-2.329910">
        <ele>587.6</ele>
      </trkpt>
      <trkpt lat="42.991541" lon="-2.329914">
        <ele>587.6</ele>
      </trkpt>
      <trkpt lat="42.991596" lon="-2.329912">
        <ele>587.4</ele>
      </trkpt>
      <trkpt lat="42.991641" lon="-2.329900">
        <ele>586.9</ele>
      </trkpt>
      <trkpt lat="42.991708" lon="-2.329890">
        <ele>586.1</ele>
      </trkpt>
      <trkpt lat="42.991758" lon="-2.329897">
        <ele>586.0</ele>
      </trkpt>
      <trkpt lat="42.991810" lon="-2.329912">
        <ele>585.9</ele>
      </trkpt>
      <trkpt lat="42.991855" lon="-2.329924">
        <ele>585.9</ele>
      </trkpt>
      <trkpt lat="42.991918" lon="-2.329936">
        <ele>585.6</ele>
      </trkpt>
      <trkpt lat="42.991964" lon="-2.329937">
        <ele>585.2</ele>
      </trkpt>
      <trkpt lat="42.992010" lon="-2.329930">
        <ele>584.7</ele>
      </trkpt>
      <trkpt lat="42.992054" lon="-2.329917">
        <ele>583.9</ele>
      </trkpt>
      <trkpt lat="42.992115" lon="-2.329890">
        <ele>582.6</ele>
      </trkpt>
      <trkpt lat="42.992174" lon="-2.329850">
        <ele>581.3</ele>
      </trkpt>
      <trkpt lat="42.992232" lon="-2.329814">
        <ele>580.0</ele>
      </trkpt>
      <trkpt lat="42.992287" lon="-2.329779">
        <ele>579.3</ele>
      </trkpt>
      <trkpt lat="42.992345" lon="-2.329740">
        <ele>578.2</ele>
      </trkpt>
      <trkpt lat="42.992403" lon="-2.329712">
        <ele>577.6</ele>
      </trkpt>
      <trkpt lat="42.992463" lon="-2.329694">
        <ele>577.4</ele>
      </trkpt>
      <trkpt lat="42.992528" lon="-2.329691">
        <ele>577.3</ele>
      </trkpt>
      <trkpt lat="42.992590" lon="-2.329696">
        <ele>577.5</ele>
      </trkpt>
      <trkpt lat="42.992650" lon="-2.329709">
        <ele>577.5</ele>
      </trkpt>
      <trkpt lat="42.992711" lon="-2.329721">
        <ele>577.8</ele>
      </trkpt>
      <trkpt lat="42.992776" lon="-2.329727">
        <ele>578.1</ele>
      </trkpt>
      <trkpt lat="42.992836" lon="-2.329727">
        <ele>578.0</ele>
      </trkpt>
      <trkpt lat="42.992895" lon="-2.329716">
        <ele>577.5</ele>
      </trkpt>
      <trkpt lat="42.992957" lon="-2.329699">
        <ele>577.1</ele>
      </trkpt>
      <trkpt lat="42.993018" lon="-2.329676">
        <ele>576.3</ele>
      </trkpt>
      <trkpt lat="42.993079" lon="-2.329646">
        <ele>576.0</ele>
      </trkpt>
      <trkpt lat="42.993138" lon="-2.329615">
        <ele>575.7</ele>
      </trkpt>
      <trkpt lat="42.993194" lon="-2.329585">
        <ele>575.3</ele>
      </trkpt>
      <trkpt lat="42.993237" lon="-2.329564">
        <ele>574.9</ele>
      </trkpt>
      <trkpt lat="42.993298" lon="-2.329536">
        <ele>574.3</ele>
      </trkpt>
      <trkpt lat="42.993357" lon="-2.329517">
        <ele>573.7</ele>
      </trkpt>
      <trkpt lat="42.993415" lon="-2.329503">
        <ele>573.6</ele>
      </trkpt>
      <trkpt lat="42.993467" lon="-2.329494">
        <ele>573.5</ele>
      </trkpt>
      <trkpt lat="42.993520" lon="-2.329487">
        <ele>573.4</ele>
      </trkpt>
      <trkpt lat="42.993579" lon="-2.329481">
        <ele>573.4</ele>
      </trkpt>
      <trkpt lat="42.993645" lon="-2.329476">
        <ele>573.6</ele>
      </trkpt>
      <trkpt lat="42.993693" lon="-2.329468">
        <ele>573.8</ele>
      </trkpt>
      <trkpt lat="42.993758" lon="-2.329454">
        <ele>573.5</ele>
      </trkpt>
      <trkpt lat="42.993818" lon="-2.329439">
        <ele>573.5</ele>
      </trkpt>
      <trkpt lat="42.993864" lon="-2.329418">
        <ele>573.2</ele>
      </trkpt>
      <trkpt lat="42.993909" lon="-2.329383">
        <ele>573.0</ele>
      </trkpt>
      <trkpt lat="42.993951" lon="-2.329360">
        <ele>573.6</ele>
      </trkpt>
      <trkpt lat="42.994009" lon="-2.329345">
        <ele>574.9</ele>
      </trkpt>
      <trkpt lat="42.994057" lon="-2.329299">
        <ele>574.6</ele>
      </trkpt>
      <trkpt lat="42.994098" lon="-2.329257">
        <ele>574.1</ele>
      </trkpt>
      <trkpt lat="42.994144" lon="-2.329221">
        <ele>573.8</ele>
      </trkpt>
      <trkpt lat="42.994186" lon="-2.329187">
        <ele>573.1</ele>
      </trkpt>
      <trkpt lat="42.994231" lon="-2.329143">
        <ele>572.6</ele>
      </trkpt>
      <trkpt lat="42.994281" lon="-2.329099">
        <ele>572.5</ele>
      </trkpt>
      <trkpt lat="42.994330" lon="-2.329040">
        <ele>571.7</ele>
      </trkpt>
      <trkpt lat="42.994379" lon="-2.328973">
        <ele>570.7</ele>
      </trkpt>
      <trkpt lat="42.994428" lon="-2.328938">
        <ele>570.2</ele>
      </trkpt>
      <trkpt lat="42.994473" lon="-2.328909">
        <ele>569.8</ele>
      </trkpt>
      <trkpt lat="42.994512" lon="-2.328864">
        <ele>569.0</ele>
      </trkpt>
      <trkpt lat="42.994564" lon="-2.328848">
        <ele>568.8</ele>
      </trkpt>
      <trkpt lat="42.994616" lon="-2.328840">
        <ele>568.8</ele>
      </trkpt>
      <trkpt lat="42.994668" lon="-2.328833">
        <ele>568.8</ele>
      </trkpt>
      <trkpt lat="42.994721" lon="-2.328803">
        <ele>568.0</ele>
      </trkpt>
      <trkpt lat="42.994770" lon="-2.328778">
        <ele>567.0</ele>
      </trkpt>
      <trkpt lat="42.994817" lon="-2.328759">
        <ele>566.1</ele>
      </trkpt>
      <trkpt lat="42.994865" lon="-2.328740">
        <ele>565.5</ele>
      </trkpt>
      <trkpt lat="42.994907" lon="-2.328713">
        <ele>564.4</ele>
      </trkpt>
      <trkpt lat="42.994954" lon="-2.328676">
        <ele>563.2</ele>
      </trkpt>
      <trkpt lat="42.995008" lon="-2.328674">
        <ele>562.8</ele>
      </trkpt>
      <trkpt lat="42.995054" lon="-2.328695">
        <ele>562.3</ele>
      </trkpt>
      <trkpt lat="42.995105" lon="-2.328724">
        <ele>561.6</ele>
      </trkpt>
      <trkpt lat="42.995159" lon="-2.328749">
        <ele>560.3</ele>
      </trkpt>
      <trkpt lat="42.995204" lon="-2.328758">
        <ele>559.1</ele>
      </trkpt>
      <trkpt lat="42.995261" lon="-2.328760">
        <ele>557.1</ele>
      </trkpt>
      <trkpt lat="42.995317" lon="-2.328759">
        <ele>556.7</ele>
      </trkpt>
      <trkpt lat="42.995366" lon="-2.328747">
        <ele>556.8</ele>
      </trkpt>
      <trkpt lat="42.995412" lon="-2.328738">
        <ele>557.1</ele>
      </trkpt>
      <trkpt lat="42.995470" lon="-2.328746">
        <ele>557.2</ele>
      </trkpt>
      <trkpt lat="42.995530" lon="-2.328766">
        <ele>557.4</ele>
      </trkpt>
      <trkpt lat="42.995580" lon="-2.328783">
        <ele>557.4</ele>
      </trkpt>
      <trkpt lat="42.995636" lon="-2.328794">
        <ele>557.1</ele>
      </trkpt>
      <trkpt lat="42.995690" lon="-2.328788">
        <ele>556.9</ele>
      </trkpt>
      <trkpt lat="42.995744" lon="-2.328782">
        <ele>556.8</ele>
      </trkpt>
      <trkpt lat="42.995798" lon="-2.328779">
        <ele>556.6</ele>
      </trkpt>
      <trkpt lat="42.995850" lon="-2.328776">
        <ele>556.4</ele>
      </trkpt>
      <trkpt lat="42.995897" lon="-2.328772">
        <ele>556.0</ele>
      </trkpt>
      <trkpt lat="42.995957" lon="-2.328760">
        <ele>555.6</ele>
      </trkpt>
      <trkpt lat="42.996014" lon="-2.328739">
        <ele>555.3</ele>
      </trkpt>
      <trkpt lat="42.996065" lon="-2.328720">
        <ele>555.0</ele>
      </trkpt>
      <trkpt lat="42.996113" lon="-2.328701">
        <ele>554.6</ele>
      </trkpt>
      <trkpt lat="42.996164" lon="-2.328663">
        <ele>553.9</ele>
      </trkpt>
      <trkpt lat="42.996212" lon="-2.328612">
        <ele>552.8</ele>
      </trkpt>
      <trkpt lat="42.996260" lon="-2.328566">
        <ele>553.1</ele>
      </trkpt>
      <trkpt lat="42.996311" lon="-2.328521">
        <ele>553.0</ele>
      </trkpt>
      <trkpt lat="42.996362" lon="-2.328482">
        <ele>552.6</ele>
      </trkpt>
      <trkpt lat="42.996411" lon="-2.328463">
        <ele>552.2</ele>
      </trkpt>
      <trkpt lat="42.996463" lon="-2.328450">
        <ele>552.0</ele>
      </trkpt>
      <trkpt lat="42.996512" lon="-2.328443">
        <ele>551.7</ele>
      </trkpt>
      <trkpt lat="42.996568" lon="-2.328440">
        <ele>551.2</ele>
      </trkpt>
      <trkpt lat="42.996616" lon="-2.328441">
        <ele>550.8</ele>
      </trkpt>
      <trkpt lat="42.996665" lon="-2.328439">
        <ele>550.3</ele>
      </trkpt>
      <trkpt lat="42.996713" lon="-2.328428">
        <ele>551.9</ele>
      </trkpt>
      <trkpt lat="42.996758" lon="-2.328402">
        <ele>552.8</ele>
      </trkpt>
      <trkpt lat="42.996796" lon="-2.328356">
        <ele>552.8</ele>
      </trkpt>
      <trkpt lat="42.996823" lon="-2.328306">
        <ele>552.8</ele>
      </trkpt>
      <trkpt lat="42.996851" lon="-2.328251">
        <ele>552.8</ele>
      </trkpt>
      <trkpt lat="42.996877" lon="-2.328187">
        <ele>552.1</ele>
      </trkpt>
      <trkpt lat="42.996909" lon="-2.328118">
        <ele>550.8</ele>
      </trkpt>
      <trkpt lat="42.996939" lon="-2.328055">
        <ele>549.1</ele>
      </trkpt>
      <trkpt lat="42.996957" lon="-2.327995">
        <ele>548.6</ele>
      </trkpt>
      <trkpt lat="42.996989" lon="-2.327949">
        <ele>548.4</ele>
      </trkpt>
      <trkpt lat="42.997048" lon="-2.327911">
        <ele>548.1</ele>
      </trkpt>
      <trkpt lat="42.997095" lon="-2.327893">
        <ele>548.0</ele>
      </trkpt>
      <trkpt lat="42.997140" lon="-2.327881">
        <ele>547.6</ele>
      </trkpt>
      <trkpt lat="42.997193" lon="-2.327865">
        <ele>547.2</ele>
      </trkpt>
      <trkpt lat="42.997249" lon="-2.327855">
        <ele>547.0</ele>
      </trkpt>
      <trkpt lat="42.997296" lon="-2.327853">
        <ele>546.9</ele>
      </trkpt>
      <trkpt lat="42.997341" lon="-2.327879">
        <ele>547.1</ele>
      </trkpt>
      <trkpt lat="42.997383" lon="-2.327912">
        <ele>547.1</ele>
      </trkpt>
      <trkpt lat="42.997435" lon="-2.327912">
        <ele>546.7</ele>
      </trkpt>
      <trkpt lat="42.997487" lon="-2.327921">
        <ele>546.2</ele>
      </trkpt>
      <trkpt lat="42.997542" lon="-2.327933">
        <ele>546.2</ele>
      </trkpt>
      <trkpt lat="42.997592" lon="-2.327953">
        <ele>546.2</ele>
      </trkpt>
      <trkpt lat="42.997643" lon="-2.327982">
        <ele>545.9</ele>
      </trkpt>
      <trkpt lat="42.997693" lon="-2.328009">
        <ele>545.4</ele>
      </trkpt>
      <trkpt lat="42.997753" lon="-2.328018">
        <ele>545.3</ele>
      </trkpt>
      <trkpt lat="42.997822" lon="-2.328020">
        <ele>545.3</ele>
      </trkpt>
      <trkpt lat="42.997872" lon="-2.328053">
        <ele>544.2</ele>
      </trkpt>
      <trkpt lat="42.997910" lon="-2.328088">
        <ele>543.9</ele>
      </trkpt>
      <trkpt lat="42.997967" lon="-2.328102">
        <ele>543.8</ele>
      </trkpt>
      <trkpt lat="42.998017" lon="-2.328108">
        <ele>543.8</ele>
      </trkpt>
      <trkpt lat="42.998063" lon="-2.328117">
        <ele>543.6</ele>
      </trkpt>
      <trkpt lat="42.998119" lon="-2.328100">
        <ele>542.8</ele>
      </trkpt>
      <trkpt lat="42.998166" lon="-2.328069">
        <ele>541.8</ele>
      </trkpt>
      <trkpt lat="42.998216" lon="-2.328017">
        <ele>541.7</ele>
      </trkpt>
      <trkpt lat="42.998250" lon="-2.327974">
        <ele>542.1</ele>
      </trkpt>
      <trkpt lat="42.998295" lon="-2.327943">
        <ele>541.9</ele>
      </trkpt>
      <trkpt lat="42.998339" lon="-2.327930">
        <ele>541.2</ele>
      </trkpt>
      <trkpt lat="42.998391" lon="-2.327917">
        <ele>541.0</ele>
      </trkpt>
      <trkpt lat="42.998445" lon="-2.327886">
        <ele>540.8</ele>
      </trkpt>
      <trkpt lat="42.998492" lon="-2.327843">
        <ele>540.0</ele>
      </trkpt>
      <trkpt lat="42.998532" lon="-2.327803">
        <ele>538.8</ele>
      </trkpt>
      <trkpt lat="42.998585" lon="-2.327771">
        <ele>537.1</ele>
      </trkpt>
      <trkpt lat="42.998640" lon="-2.327737">
        <ele>537.3</ele>
      </trkpt>
      <trkpt lat="42.998696" lon="-2.327701">
        <ele>538.0</ele>
      </trkpt>
      <trkpt lat="42.998748" lon="-2.327666">
        <ele>538.2</ele>
      </trkpt>
      <trkpt lat="42.998796" lon="-2.327634">
        <ele>537.9</ele>
      </trkpt>
      <trkpt lat="42.998842" lon="-2.327606">
        <ele>537.3</ele>
      </trkpt>
      <trkpt lat="42.998884" lon="-2.327577">
        <ele>536.4</ele>
      </trkpt>
      <trkpt lat="42.998926" lon="-2.327550">
        <ele>536.2</ele>
      </trkpt>
      <trkpt lat="42.998983" lon="-2.327517">
        <ele>535.3</ele>
      </trkpt>
      <trkpt lat="42.999026" lon="-2.327486">
        <ele>534.9</ele>
      </trkpt>
      <trkpt lat="42.999074" lon="-2.327451">
        <ele>534.9</ele>
      </trkpt>
      <trkpt lat="42.999127" lon="-2.327420">
        <ele>534.5</ele>
      </trkpt>
      <trkpt lat="42.999179" lon="-2.327387">
        <ele>534.3</ele>
      </trkpt>
      <trkpt lat="42.999224" lon="-2.327348">
        <ele>534.5</ele>
      </trkpt>
      <trkpt lat="42.999268" lon="-2.327326">
        <ele>534.5</ele>
      </trkpt>
      <trkpt lat="42.999313" lon="-2.327284">
        <ele>533.9</ele>
      </trkpt>
      <trkpt lat="42.999352" lon="-2.327247">
        <ele>533.1</ele>
      </trkpt>
      <trkpt lat="42.999397" lon="-2.327235">
        <ele>532.2</ele>
      </trkpt>
      <trkpt lat="42.999447" lon="-2.327196">
        <ele>531.3</ele>
      </trkpt>
      <trkpt lat="42.999430" lon="-2.327132">
        <ele>532.0</ele>
      </trkpt>
      <trkpt lat="42.999576" lon="-2.327031">
        <ele>531.8</ele>
      </trkpt>
      <trkpt lat="42.999696" lon="-2.326941">
        <ele>530.4</ele>
      </trkpt>
      <trkpt lat="42.999830" lon="-2.326846">
        <ele>531.2</ele>
      </trkpt>
      <trkpt lat="42.999928" lon="-2.326785">
        <ele>530.5</ele>
      </trkpt>
      <trkpt lat="43.000005" lon="-2.326749">
        <ele>529.4</ele>
      </trkpt>
      <trkpt lat="43.000064" lon="-2.326726">
        <ele>529.9</ele>
      </trkpt>
      <trkpt lat="43.000112" lon="-2.326713">
        <ele>530.4</ele>
      </trkpt>
      <trkpt lat="43.000190" lon="-2.326710">
        <ele>531.1</ele>
      </trkpt>
      <trkpt lat="43.000253" lon="-2.326734">
        <ele>531.4</ele>
      </trkpt>
      <trkpt lat="43.000314" lon="-2.326786">
        <ele>531.5</ele>
      </trkpt>
      <trkpt lat="43.000357" lon="-2.326854">
        <ele>531.2</ele>
      </trkpt>
      <trkpt lat="43.000383" lon="-2.326938">
        <ele>530.2</ele>
      </trkpt>
      <trkpt lat="43.000395" lon="-2.327054">
        <ele>529.3</ele>
      </trkpt>
      <trkpt lat="43.000403" lon="-2.327145">
        <ele>528.6</ele>
      </trkpt>
      <trkpt lat="43.000413" lon="-2.327226">
        <ele>527.9</ele>
      </trkpt>
      <trkpt lat="43.000421" lon="-2.327293">
        <ele>527.4</ele>
      </trkpt>
      <trkpt lat="43.000450" lon="-2.327354">
        <ele>527.0</ele>
      </trkpt>
      <trkpt lat="43.000569" lon="-2.327386">
        <ele>526.9</ele>
      </trkpt>
      <trkpt lat="43.000626" lon="-2.327376">
        <ele>526.5</ele>
      </trkpt>
      <trkpt lat="43.000703" lon="-2.327308">
        <ele>526.7</ele>
      </trkpt>
      <trkpt lat="43.000874" lon="-2.327269">
        <ele>525.4</ele>
      </trkpt>
      <trkpt lat="43.000980" lon="-2.327270">
        <ele>525.0</ele>
      </trkpt>
      <trkpt lat="43.001241" lon="-2.327246">
        <ele>527.5</ele>
      </trkpt>
      <trkpt lat="43.001292" lon="-2.327199">
        <ele>528.0</ele>
      </trkpt>
      <trkpt lat="43.001363" lon="-2.327131">
        <ele>528.0</ele>
      </trkpt>
      <trkpt lat="43.001418" lon="-2.327087">
        <ele>527.5</ele>
      </trkpt>
      <trkpt lat="43.001499" lon="-2.327067">
        <ele>528.2</ele>
      </trkpt>
      <trkpt lat="43.001575" lon="-2.327034">
        <ele>528.5</ele>
      </trkpt>
      <trkpt lat="43.001689" lon="-2.327018">
        <ele>529.4</ele>
      </trkpt>
      <trkpt lat="43.001738" lon="-2.327012">
        <ele>528.5</ele>
      </trkpt>
      <trkpt lat="43.001784" lon="-2.327025">
        <ele>528.1</ele>
      </trkpt>
      <trkpt lat="43.001826" lon="-2.327050">
        <ele>528.1</ele>
      </trkpt>
      <trkpt lat="43.001880" lon="-2.327090">
        <ele>528.5</ele>
      </trkpt>
      <trkpt lat="43.001926" lon="-2.327123">
        <ele>529.0</ele>
      </trkpt>
      <trkpt lat="43.002011" lon="-2.327172">
        <ele>528.7</ele>
      </trkpt>
      <trkpt lat="43.002083" lon="-2.327199">
        <ele>527.9</ele>
      </trkpt>
      <trkpt lat="43.002137" lon="-2.327235">
        <ele>527.5</ele>
      </trkpt>
      <trkpt lat="43.002212" lon="-2.327241">
        <ele>525.9</ele>
      </trkpt>
      <trkpt lat="43.002878" lon="-2.327686">
        <ele>522.4</ele>
      </trkpt>
      <trkpt lat="43.002918" lon="-2.327765">
        <ele>522.8</ele>
      </trkpt>
      <trkpt lat="43.002971" lon="-2.327815">
        <ele>522.1</ele>
      </trkpt>
      <trkpt lat="43.003049" lon="-2.327793">
        <ele>520.2</ele>
      </trkpt>
      <trkpt lat="43.003137" lon="-2.327855">
        <ele>518.4</ele>
      </trkpt>
      <trkpt lat="43.003265" lon="-2.327874">
        <ele>515.1</ele>
      </trkpt>
      <trkpt lat="43.003304" lon="-2.327906">
        <ele>514.0</ele>
      </trkpt>
      <trkpt lat="43.003353" lon="-2.327948">
        <ele>512.8</ele>
      </trkpt>
      <trkpt lat="43.003396" lon="-2.327886">
        <ele>512.8</ele>
      </trkpt>
      <trkpt lat="43.003447" lon="-2.327871">
        <ele>512.4</ele>
      </trkpt>
      <trkpt lat="43.003533" lon="-2.327858">
        <ele>511.7</ele>
      </trkpt>
      <trkpt lat="43.003603" lon="-2.327825">
        <ele>510.6</ele>
      </trkpt>
      <trkpt lat="43.003666" lon="-2.327824">
        <ele>511.0</ele>
      </trkpt>
      <trkpt lat="43.003744" lon="-2.327790">
        <ele>511.2</ele>
      </trkpt>
      <trkpt lat="43.003788" lon="-2.327771">
        <ele>511.3</ele>
      </trkpt>
      <trkpt lat="43.003852" lon="-2.327749">
        <ele>511.3</ele>
      </trkpt>
      <trkpt lat="43.003912" lon="-2.327723">
        <ele>510.9</ele>
      </trkpt>
      <trkpt lat="43.003999" lon="-2.327692">
        <ele>510.1</ele>
      </trkpt>
      <trkpt lat="43.004089" lon="-2.327649">
        <ele>509.3</ele>
      </trkpt>
      <trkpt lat="43.004151" lon="-2.327635">
        <ele>508.9</ele>
      </trkpt>
      <trkpt lat="43.004226" lon="-2.327637">
        <ele>508.3</ele>
      </trkpt>
      <trkpt lat="43.004282" lon="-2.327633">
        <ele>507.4</ele>
      </trkpt>
      <trkpt lat="43.004329" lon="-2.327650">
        <ele>507.3</ele>
      </trkpt>
      <trkpt lat="43.004371" lon="-2.327695">
        <ele>507.9</ele>
      </trkpt>
      <trkpt lat="43.004469" lon="-2.327770">
        <ele>508.3</ele>
      </trkpt>
      <trkpt lat="43.004525" lon="-2.327810">
        <ele>507.7</ele>
      </trkpt>
      <trkpt lat="43.004622" lon="-2.327867">
        <ele>506.1</ele>
      </trkpt>
      <trkpt lat="43.004670" lon="-2.327932">
        <ele>505.5</ele>
      </trkpt>
      <trkpt lat="43.004727" lon="-2.327993">
        <ele>504.7</ele>
      </trkpt>
      <trkpt lat="43.004816" lon="-2.328030">
        <ele>505.1</ele>
      </trkpt>
      <trkpt lat="43.004877" lon="-2.328077">
        <ele>505.0</ele>
      </trkpt>
      <trkpt lat="43.004941" lon="-2.328134">
        <ele>504.2</ele>
      </trkpt>
      <trkpt lat="43.005006" lon="-2.328164">
        <ele>503.6</ele>
      </trkpt>
      <trkpt lat="43.005056" lon="-2.328226">
        <ele>503.6</ele>
      </trkpt>
      <trkpt lat="43.005127" lon="-2.328257">
        <ele>504.4</ele>
      </trkpt>
      <trkpt lat="43.005191" lon="-2.328302">
        <ele>504.5</ele>
      </trkpt>
      <trkpt lat="43.005260" lon="-2.328335">
        <ele>504.7</ele>
      </trkpt>
      <trkpt lat="43.005313" lon="-2.328358">
        <ele>504.9</ele>
      </trkpt>
      <trkpt lat="43.005386" lon="-2.328407">
        <ele>504.6</ele>
      </trkpt>
      <trkpt lat="43.005497" lon="-2.328444">
        <ele>504.8</ele>
      </trkpt>
      <trkpt lat="43.005566" lon="-2.328460">
        <ele>505.2</ele>
      </trkpt>
      <trkpt lat="43.005608" lon="-2.328504">
        <ele>505.3</ele>
      </trkpt>
      <trkpt lat="43.005675" lon="-2.328550">
        <ele>506.0</ele>
      </trkpt>
      <trkpt lat="43.005736" lon="-2.328586">
        <ele>506.9</ele>
      </trkpt>
      <trkpt lat="43.005836" lon="-2.328658">
        <ele>507.6</ele>
      </trkpt>
      <trkpt lat="43.005902" lon="-2.328710">
        <ele>508.1</ele>
      </trkpt>
      <trkpt lat="43.005946" lon="-2.328751">
        <ele>513.3</ele>
      </trkpt>
      <trkpt lat="43.005994" lon="-2.328836">
        <ele>511.3</ele>
      </trkpt>
      <trkpt lat="43.006019" lon="-2.328881">
        <ele>510.4</ele>
      </trkpt>
      <trkpt lat="43.006057" lon="-2.328934">
        <ele>509.2</ele>
      </trkpt>
      <trkpt lat="43.006124" lon="-2.328990">
        <ele>507.6</ele>
      </trkpt>
      <trkpt lat="43.006192" lon="-2.329071">
        <ele>505.7</ele>
      </trkpt>
      <trkpt lat="43.006274" lon="-2.329122">
        <ele>504.3</ele>
      </trkpt>
      <trkpt lat="43.006330" lon="-2.329143">
        <ele>503.5</ele>
      </trkpt>
      <trkpt lat="43.006372" lon="-2.329150">
        <ele>503.4</ele>
      </trkpt>
      <trkpt lat="43.006415" lon="-2.329159">
        <ele>502.9</ele>
      </trkpt>
      <trkpt lat="43.006485" lon="-2.329175">
        <ele>502.7</ele>
      </trkpt>
      <trkpt lat="43.006551" lon="-2.329189">
        <ele>502.4</ele>
      </trkpt>
      <trkpt lat="43.006608" lon="-2.329187">
        <ele>502.2</ele>
      </trkpt>
      <trkpt lat="43.006683" lon="-2.329201">
        <ele>502.0</ele>
      </trkpt>
      <trkpt lat="43.006816" lon="-2.329181">
        <ele>501.0</ele>
      </trkpt>
      <trkpt lat="43.006873" lon="-2.329174">
        <ele>500.2</ele>
      </trkpt>
      <trkpt lat="43.006929" lon="-2.329165">
        <ele>499.5</ele>
      </trkpt>
      <trkpt lat="43.007041" lon="-2.329147">
        <ele>498.7</ele>
      </trkpt>
      <trkpt lat="43.007132" lon="-2.329185">
        <ele>496.3</ele>
      </trkpt>
      <trkpt lat="43.007195" lon="-2.329202">
        <ele>495.3</ele>
      </trkpt>
      <trkpt lat="43.007242" lon="-2.329232">
        <ele>495.2</ele>
      </trkpt>
      <trkpt lat="43.007306" lon="-2.329279">
        <ele>495.7</ele>
      </trkpt>
      <trkpt lat="43.007370" lon="-2.329319">
        <ele>495.9</ele>
      </trkpt>
      <trkpt lat="43.007445" lon="-2.329370">
        <ele>495.6</ele>
      </trkpt>
      <trkpt lat="43.007528" lon="-2.329416">
        <ele>494.7</ele>
      </trkpt>
      <trkpt lat="43.007587" lon="-2.329464">
        <ele>494.1</ele>
      </trkpt>
      <trkpt lat="43.007669" lon="-2.329495">
        <ele>493.9</ele>
      </trkpt>
      <trkpt lat="43.007747" lon="-2.329544">
        <ele>494.0</ele>
      </trkpt>
      <trkpt lat="43.007851" lon="-2.329574">
        <ele>493.9</ele>
      </trkpt>
      <trkpt lat="43.007930" lon="-2.329617">
        <ele>493.6</ele>
      </trkpt>
      <trkpt lat="43.008007" lon="-2.329636">
        <ele>493.1</ele>
      </trkpt>
      <trkpt lat="43.008071" lon="-2.329657">
        <ele>492.8</ele>
      </trkpt>
      <trkpt lat="43.008144" lon="-2.329699">
        <ele>492.9</ele>
      </trkpt>
      <trkpt lat="43.008197" lon="-2.329757">
        <ele>493.4</ele>
      </trkpt>
      <trkpt lat="43.008262" lon="-2.329803">
        <ele>493.6</ele>
      </trkpt>
      <trkpt lat="43.008329" lon="-2.329845">
        <ele>493.7</ele>
      </trkpt>
      <trkpt lat="43.008407" lon="-2.329900">
        <ele>493.3</ele>
      </trkpt>
      <trkpt lat="43.008492" lon="-2.329961">
        <ele>492.5</ele>
      </trkpt>
      <trkpt lat="43.008577" lon="-2.330026">
        <ele>491.5</ele>
      </trkpt>
      <trkpt lat="43.008646" lon="-2.330078">
        <ele>491.8</ele>
      </trkpt>
      <trkpt lat="43.008717" lon="-2.330126">
        <ele>492.2</ele>
      </trkpt>
      <trkpt lat="43.008804" lon="-2.330202">
        <ele>491.7</ele>
      </trkpt>
      <trkpt lat="43.008892" lon="-2.330263">
        <ele>490.4</ele>
      </trkpt>
      <trkpt lat="43.008983" lon="-2.330333">
        <ele>490.5</ele>
      </trkpt>
      <trkpt lat="43.009089" lon="-2.330404">
        <ele>491.0</ele>
      </trkpt>
      <trkpt lat="43.009170" lon="-2.330479">
        <ele>491.4</ele>
      </trkpt>
      <trkpt lat="43.009276" lon="-2.330574">
        <ele>490.6</ele>
      </trkpt>
      <trkpt lat="43.009397" lon="-2.330654">
        <ele>490.3</ele>
      </trkpt>
      <trkpt lat="43.009502" lon="-2.330728">
        <ele>490.5</ele>
      </trkpt>
      <trkpt lat="43.009644" lon="-2.330777">
        <ele>490.0</ele>
      </trkpt>
      <trkpt lat="43.009754" lon="-2.330856">
        <ele>488.9</ele>
      </trkpt>
      <trkpt lat="43.009871" lon="-2.330946">
        <ele>488.3</ele>
      </trkpt>
      <trkpt lat="43.009980" lon="-2.331025">
        <ele>488.0</ele>
      </trkpt>
      <trkpt lat="43.010086" lon="-2.331096">
        <ele>487.5</ele>
      </trkpt>
      <trkpt lat="43.010182" lon="-2.331162">
        <ele>487.4</ele>
      </trkpt>
      <trkpt lat="43.010288" lon="-2.331252">
        <ele>486.6</ele>
      </trkpt>
      <trkpt lat="43.010396" lon="-2.331325">
        <ele>487.3</ele>
      </trkpt>
      <trkpt lat="43.010498" lon="-2.331394">
        <ele>487.4</ele>
      </trkpt>
      <trkpt lat="43.010596" lon="-2.331492">
        <ele>487.3</ele>
      </trkpt>
      <trkpt lat="43.010692" lon="-2.331581">
        <ele>487.2</ele>
      </trkpt>
      <trkpt lat="43.010792" lon="-2.331655">
        <ele>487.0</ele>
      </trkpt>
      <trkpt lat="43.010889" lon="-2.331741">
        <ele>486.4</ele>
      </trkpt>
      <trkpt lat="43.010983" lon="-2.331826">
        <ele>485.6</ele>
      </trkpt>
      <trkpt lat="43.011072" lon="-2.331898">
        <ele>485.2</ele>
      </trkpt>
      <trkpt lat="43.011143" lon="-2.331940">
        <ele>485.3</ele>
      </trkpt>
      <trkpt lat="43.011157" lon="-2.331933">
        <ele>503.3</ele>
      </trkpt>
      <trkpt lat="43.011170" lon="-2.331913">
        <ele>504.3</ele>
      </trkpt>
      <trkpt lat="43.011190" lon="-2.331846">
        <ele>506.6</ele>
      </trkpt>
      <trkpt lat="43.011199" lon="-2.331801">
        <ele>508.0</ele>
      </trkpt>
      <trkpt lat="43.011199" lon="-2.331780">
        <ele>508.9</ele>
      </trkpt>
      <trkpt lat="43.011191" lon="-2.331733">
        <ele>510.3</ele>
      </trkpt>
      <trkpt lat="43.011155" lon="-2.331672">
        <ele>511.2</ele>
      </trkpt>
      <trkpt lat="43.011102" lon="-2.331575">
        <ele>513.6</ele>
      </trkpt>
      <trkpt lat="43.011022" lon="-2.331496">
        <ele>514.4</ele>
      </trkpt>
      <trkpt lat="43.011020" lon="-2.331368">
        <ele>518.7</ele>
      </trkpt>
      <trkpt lat="43.011113" lon="-2.331349">
        <ele>521.2</ele>
      </trkpt>
      <trkpt lat="43.011194" lon="-2.331409">
        <ele>520.9</ele>
      </trkpt>
      <trkpt lat="43.011282" lon="-2.331445">
        <ele>521.9</ele>
      </trkpt>
      <trkpt lat="43.011380" lon="-2.331516">
        <ele>521.3</ele>
      </trkpt>
      <trkpt lat="43.011472" lon="-2.331510">
        <ele>523.8</ele>
      </trkpt>
      <trkpt lat="43.011568" lon="-2.331527">
        <ele>524.9</ele>
      </trkpt>
      <trkpt lat="43.011655" lon="-2.331560">
        <ele>525.8</ele>
      </trkpt>
      <trkpt lat="43.011724" lon="-2.331649">
        <ele>522.9</ele>
      </trkpt>
      <trkpt lat="43.011806" lon="-2.331716">
        <ele>521.1</ele>
      </trkpt>
      <trkpt lat="43.011887" lon="-2.331813">
        <ele>517.7</ele>
      </trkpt>
      <trkpt lat="43.011958" lon="-2.331892">
        <ele>515.3</ele>
      </trkpt>
      <trkpt lat="43.012034" lon="-2.331958">
        <ele>513.3</ele>
      </trkpt>
      <trkpt lat="43.012123" lon="-2.332038">
        <ele>511.0</ele>
      </trkpt>
      <trkpt lat="43.012199" lon="-2.332122">
        <ele>508.5</ele>
      </trkpt>
      <trkpt lat="43.012270" lon="-2.332210">
        <ele>505.5</ele>
      </trkpt>
      <trkpt lat="43.012347" lon="-2.332295">
        <ele>502.5</ele>
      </trkpt>
      <trkpt lat="43.012422" lon="-2.332367">
        <ele>500.5</ele>
      </trkpt>
      <trkpt lat="43.012510" lon="-2.332405">
        <ele>499.5</ele>
      </trkpt>
      <trkpt lat="43.012601" lon="-2.332469">
        <ele>497.1</ele>
      </trkpt>
      <trkpt lat="43.012690" lon="-2.332533">
        <ele>495.4</ele>
      </trkpt>
      <trkpt lat="43.012776" lon="-2.332566">
        <ele>494.9</ele>
      </trkpt>
      <trkpt lat="43.012862" lon="-2.332608">
        <ele>493.8</ele>
      </trkpt>
      <trkpt lat="43.012902" lon="-2.332615">
        <ele>495.1</ele>
      </trkpt>
      <trkpt lat="43.012940" lon="-2.332631">
        <ele>493.6</ele>
      </trkpt>
      <trkpt lat="43.013016" lon="-2.332687">
        <ele>492.3</ele>
      </trkpt>
      <trkpt lat="43.013034" lon="-2.332703">
        <ele>492.6</ele>
      </trkpt>
      <trkpt lat="43.013031" lon="-2.332677">
        <ele>493.6</ele>
      </trkpt>
      <trkpt lat="43.013072" lon="-2.332687">
        <ele>492.3</ele>
      </trkpt>
      <trkpt lat="43.013164" lon="-2.332713">
        <ele>491.8</ele>
      </trkpt>
      <trkpt lat="43.013251" lon="-2.332753">
        <ele>491.0</ele>
      </trkpt>
      <trkpt lat="43.013337" lon="-2.332809">
        <ele>489.9</ele>
      </trkpt>
      <trkpt lat="43.013359" lon="-2.332807">
        <ele>490.1</ele>
      </trkpt>
      <trkpt lat="43.013401" lon="-2.332792">
        <ele>490.7</ele>
      </trkpt>
      <trkpt lat="43.013424" lon="-2.332787">
        <ele>491.2</ele>
      </trkpt>
      <trkpt lat="43.013492" lon="-2.332861">
        <ele>489.7</ele>
      </trkpt>
      <trkpt lat="43.013582" lon="-2.332902">
        <ele>489.3</ele>
      </trkpt>
      <trkpt lat="43.013611" lon="-2.332879">
        <ele>490.2</ele>
      </trkpt>
      <trkpt lat="43.013664" lon="-2.332920">
        <ele>489.1</ele>
      </trkpt>
      <trkpt lat="43.013750" lon="-2.332976">
        <ele>488.2</ele>
      </trkpt>
      <trkpt lat="43.013753" lon="-2.332979">
        <ele>488.2</ele>
      </trkpt>
      <trkpt lat="43.013832" lon="-2.333038">
        <ele>486.8</ele>
      </trkpt>
      <trkpt lat="43.013921" lon="-2.333009">
        <ele>488.3</ele>
      </trkpt>
      <trkpt lat="43.014014" lon="-2.332997">
        <ele>488.8</ele>
      </trkpt>
      <trkpt lat="43.014100" lon="-2.332974">
        <ele>490.0</ele>
      </trkpt>
      <trkpt lat="43.014182" lon="-2.333041">
        <ele>488.5</ele>
      </trkpt>
      <trkpt lat="43.014239" lon="-2.333076">
        <ele>487.8</ele>
      </trkpt>
      <trkpt lat="43.014261" lon="-2.333082">
        <ele>484.4</ele>
      </trkpt>
      <trkpt lat="43.014317" lon="-2.333098">
        <ele>488.1</ele>
      </trkpt>
      <trkpt lat="43.014405" lon="-2.333131">
        <ele>487.7</ele>
      </trkpt>
      <trkpt lat="43.014505" lon="-2.333119">
        <ele>489.1</ele>
      </trkpt>
      <trkpt lat="43.014599" lon="-2.333120">
        <ele>490.0</ele>
      </trkpt>
      <trkpt lat="43.014675" lon="-2.333063">
        <ele>493.0</ele>
      </trkpt>
      <trkpt lat="43.014765" lon="-2.333022">
        <ele>496.2</ele>
      </trkpt>
      <trkpt lat="43.014857" lon="-2.332979">
        <ele>499.1</ele>
      </trkpt>
      <trkpt lat="43.014940" lon="-2.332909">
        <ele>503.2</ele>
      </trkpt>
      <trkpt lat="43.015029" lon="-2.332906">
        <ele>505.1</ele>
      </trkpt>
      <trkpt lat="43.015108" lon="-2.332854">
        <ele>508.3</ele>
      </trkpt>
      <trkpt lat="43.015190" lon="-2.332819">
        <ele>511.5</ele>
      </trkpt>
      <trkpt lat="43.015272" lon="-2.332872">
        <ele>510.4</ele>
      </trkpt>
      <trkpt lat="43.015364" lon="-2.332915">
        <ele>510.1</ele>
      </trkpt>
      <trkpt lat="43.015447" lon="-2.332878">
        <ele>513.3</ele>
      </trkpt>
      <trkpt lat="43.015538" lon="-2.332866">
        <ele>515.4</ele>
      </trkpt>
      <trkpt lat="43.015628" lon="-2.332846">
        <ele>517.4</ele>
      </trkpt>
      <trkpt lat="43.015721" lon="-2.332871">
        <ele>517.9</ele>
      </trkpt>
      <trkpt lat="43.015807" lon="-2.332905">
        <ele>518.1</ele>
      </trkpt>
      <trkpt lat="43.015897" lon="-2.332932">
        <ele>517.7</ele>
      </trkpt>
      <trkpt lat="43.015991" lon="-2.332977">
        <ele>517.2</ele>
      </trkpt>
      <trkpt lat="43.016050" lon="-2.333069">
        <ele>513.9</ele>
      </trkpt>
      <trkpt lat="43.016144" lon="-2.333059">
        <ele>515.7</ele>
      </trkpt>
      <trkpt lat="43.016251" lon="-2.333054">
        <ele>517.0</ele>
      </trkpt>
      <trkpt lat="43.016339" lon="-2.333067">
        <ele>517.5</ele>
      </trkpt>
      <trkpt lat="43.016404" lon="-2.333157">
        <ele>514.1</ele>
      </trkpt>
      <trkpt lat="43.016474" lon="-2.333234">
        <ele>511.2</ele>
      </trkpt>
      <trkpt lat="43.016521" lon="-2.333263">
        <ele>510.5</ele>
      </trkpt>
      <trkpt lat="43.016574" lon="-2.333229">
        <ele>513.0</ele>
      </trkpt>
      <trkpt lat="43.016661" lon="-2.333273">
        <ele>511.5</ele>
      </trkpt>
      <trkpt lat="43.016748" lon="-2.333321">
        <ele>510.1</ele>
      </trkpt>
      <trkpt lat="43.016832" lon="-2.333376">
        <ele>507.9</ele>
      </trkpt>
      <trkpt lat="43.016920" lon="-2.333352">
        <ele>500.9</ele>
      </trkpt>
      <trkpt lat="43.017017" lon="-2.333325">
        <ele>511.1</ele>
      </trkpt>
      <trkpt lat="43.017118" lon="-2.333313">
        <ele>512.3</ele>
      </trkpt>
      <trkpt lat="43.017223" lon="-2.333287">
        <ele>514.2</ele>
      </trkpt>
      <trkpt lat="43.017316" lon="-2.333280">
        <ele>515.4</ele>
      </trkpt>
      <trkpt lat="43.017408" lon="-2.333280">
        <ele>515.9</ele>
      </trkpt>
      <trkpt lat="43.017503" lon="-2.333311">
        <ele>514.6</ele>
      </trkpt>
      <trkpt lat="43.017593" lon="-2.333298">
        <ele>514.6</ele>
      </trkpt>
      <trkpt lat="43.017664" lon="-2.333362">
        <ele>511.4</ele>
      </trkpt>
      <trkpt lat="43.017753" lon="-2.333343">
        <ele>512.0</ele>
      </trkpt>
      <trkpt lat="43.017849" lon="-2.333373">
        <ele>510.4</ele>
      </trkpt>
      <trkpt lat="43.017943" lon="-2.333418">
        <ele>507.9</ele>
      </trkpt>
      <trkpt lat="43.018024" lon="-2.333480">
        <ele>505.0</ele>
      </trkpt>
      <trkpt lat="43.018103" lon="-2.333545">
        <ele>502.2</ele>
      </trkpt>
      <trkpt lat="43.018176" lon="-2.333611">
        <ele>499.6</ele>
      </trkpt>
      <trkpt lat="43.018235" lon="-2.333707">
        <ele>496.1</ele>
      </trkpt>
      <trkpt lat="43.018287" lon="-2.333722">
        <ele>495.5</ele>
      </trkpt>
      <trkpt lat="43.018352" lon="-2.333767">
        <ele>493.5</ele>
      </trkpt>
      <trkpt lat="43.018386" lon="-2.333798">
        <ele>492.4</ele>
      </trkpt>
      <trkpt lat="43.018412" lon="-2.333808">
        <ele>491.8</ele>
      </trkpt>
      <trkpt lat="43.018509" lon="-2.333814">
        <ele>491.2</ele>
      </trkpt>
      <trkpt lat="43.018539" lon="-2.333814">
        <ele>491.0</ele>
      </trkpt>
      <trkpt lat="43.018628" lon="-2.333830">
        <ele>490.1</ele>
      </trkpt>
      <trkpt lat="43.018709" lon="-2.333881">
        <ele>488.0</ele>
      </trkpt>
      <trkpt lat="43.018727" lon="-2.333891">
        <ele>493.5</ele>
      </trkpt>
      <trkpt lat="43.018776" lon="-2.333995">
        <ele>484.1</ele>
      </trkpt>
      <trkpt lat="43.018798" lon="-2.334012">
        <ele>489.5</ele>
      </trkpt>
      <trkpt lat="43.018818" lon="-2.334029">
        <ele>482.7</ele>
      </trkpt>
      <trkpt lat="43.018844" lon="-2.334030">
        <ele>489.0</ele>
      </trkpt>
      <trkpt lat="43.018867" lon="-2.334039">
        <ele>482.2</ele>
      </trkpt>
      <trkpt lat="43.018884" lon="-2.334048">
        <ele>482.1</ele>
      </trkpt>
      <trkpt lat="43.018954" lon="-2.334007">
        <ele>483.0</ele>
      </trkpt>
      <trkpt lat="43.019038" lon="-2.333953">
        <ele>484.1</ele>
      </trkpt>
      <trkpt lat="43.019129" lon="-2.333933">
        <ele>484.4</ele>
      </trkpt>
      <trkpt lat="43.019219" lon="-2.333942">
        <ele>484.0</ele>
      </trkpt>
      <trkpt lat="43.019309" lon="-2.333927">
        <ele>484.5</ele>
      </trkpt>
      <trkpt lat="43.019394" lon="-2.333887">
        <ele>487.6</ele>
      </trkpt>
      <trkpt lat="43.019484" lon="-2.333873">
        <ele>486.9</ele>
      </trkpt>
      <trkpt lat="43.019555" lon="-2.333844">
        <ele>487.0</ele>
      </trkpt>
      <trkpt lat="43.019676" lon="-2.333850">
        <ele>487.2</ele>
      </trkpt>
      <trkpt lat="43.019795" lon="-2.333867">
        <ele>487.1</ele>
      </trkpt>
      <trkpt lat="43.019903" lon="-2.333891">
        <ele>486.7</ele>
      </trkpt>
      <trkpt lat="43.019991" lon="-2.333905">
        <ele>486.5</ele>
      </trkpt>
      <trkpt lat="43.020027" lon="-2.333909">
        <ele>486.4</ele>
      </trkpt>
      <trkpt lat="43.020033" lon="-2.333907">
        <ele>478.8</ele>
      </trkpt>
      <trkpt lat="43.020121" lon="-2.333937">
        <ele>478.3</ele>
      </trkpt>
      <trkpt lat="43.020202" lon="-2.333874">
        <ele>480.2</ele>
      </trkpt>
      <trkpt lat="43.020298" lon="-2.333896">
        <ele>480.3</ele>
      </trkpt>
      <trkpt lat="43.020390" lon="-2.333895">
        <ele>482.0</ele>
      </trkpt>
      <trkpt lat="43.020487" lon="-2.333912">
        <ele>483.1</ele>
      </trkpt>
      <trkpt lat="43.020580" lon="-2.333967">
        <ele>483.1</ele>
      </trkpt>
      <trkpt lat="43.020635" lon="-2.333938">
        <ele>484.5</ele>
      </trkpt>
      <trkpt lat="43.020648" lon="-2.333903">
        <ele>485.6</ele>
      </trkpt>
      <trkpt lat="43.020670" lon="-2.333910">
        <ele>485.7</ele>
      </trkpt>
      <trkpt lat="43.020688" lon="-2.333925">
        <ele>485.6</ele>
      </trkpt>
      <trkpt lat="43.020734" lon="-2.333945">
        <ele>485.5</ele>
      </trkpt>
      <trkpt lat="43.020748" lon="-2.333961">
        <ele>485.3</ele>
      </trkpt>
      <trkpt lat="43.020762" lon="-2.333991">
        <ele>484.6</ele>
      </trkpt>
      <trkpt lat="43.020826" lon="-2.334026">
        <ele>484.5</ele>
      </trkpt>
      <trkpt lat="43.020857" lon="-2.334018">
        <ele>484.8</ele>
      </trkpt>
      <trkpt lat="43.020874" lon="-2.334030">
        <ele>484.5</ele>
      </trkpt>
      <trkpt lat="43.020894" lon="-2.334030">
        <ele>484.4</ele>
      </trkpt>
      <trkpt lat="43.020906" lon="-2.334009">
        <ele>484.8</ele>
      </trkpt>
      <trkpt lat="43.020908" lon="-2.333982">
        <ele>485.5</ele>
      </trkpt>
      <trkpt lat="43.020891" lon="-2.333955">
        <ele>486.2</ele>
      </trkpt>
      <trkpt lat="43.020909" lon="-2.333944">
        <ele>486.5</ele>
      </trkpt>
      <trkpt lat="43.020942" lon="-2.333942">
        <ele>486.4</ele>
      </trkpt>
      <trkpt lat="43.021028" lon="-2.333979">
        <ele>485.4</ele>
      </trkpt>
      <trkpt lat="43.021079" lon="-2.334028">
        <ele>484.1</ele>
      </trkpt>
      <trkpt lat="43.021156" lon="-2.334106">
        <ele>482.5</ele>
      </trkpt>
      <trkpt lat="43.021250" lon="-2.334137">
        <ele>482.2</ele>
      </trkpt>
      <trkpt lat="43.021333" lon="-2.334206">
        <ele>480.5</ele>
      </trkpt>
      <trkpt lat="43.021422" lon="-2.334240">
        <ele>479.5</ele>
      </trkpt>
      <trkpt lat="43.021443" lon="-2.334235">
        <ele>479.6</ele>
      </trkpt>
      <trkpt lat="43.021542" lon="-2.334254">
        <ele>478.4</ele>
      </trkpt>
      <trkpt lat="43.021589" lon="-2.334235">
        <ele>478.9</ele>
      </trkpt>
      <trkpt lat="43.021680" lon="-2.334260">
        <ele>477.6</ele>
      </trkpt>
      <trkpt lat="43.021733" lon="-2.334246">
        <ele>478.0</ele>
      </trkpt>
      <trkpt lat="43.021795" lon="-2.334243">
        <ele>478.0</ele>
      </trkpt>
      <trkpt lat="43.021886" lon="-2.334252">
        <ele>477.4</ele>
      </trkpt>
      <trkpt lat="43.021980" lon="-2.334241">
        <ele>477.5</ele>
      </trkpt>
      <trkpt lat="43.022070" lon="-2.334253">
        <ele>476.9</ele>
      </trkpt>
      <trkpt lat="43.022170" lon="-2.334251">
        <ele>476.8</ele>
      </trkpt>
      <trkpt lat="43.022204" lon="-2.334252">
        <ele>476.7</ele>
      </trkpt>
      <trkpt lat="43.022225" lon="-2.334246">
        <ele>476.9</ele>
      </trkpt>
      <trkpt lat="43.022252" lon="-2.334245">
        <ele>476.7</ele>
      </trkpt>
      <trkpt lat="43.022269" lon="-2.334265">
        <ele>475.8</ele>
      </trkpt>
      <trkpt lat="43.022302" lon="-2.334238">
        <ele>476.4</ele>
      </trkpt>
      <trkpt lat="43.022325" lon="-2.334224">
        <ele>476.7</ele>
      </trkpt>
      <trkpt lat="43.022348" lon="-2.334216">
        <ele>476.9</ele>
      </trkpt>
      <trkpt lat="43.022422" lon="-2.334147">
        <ele>478.8</ele>
      </trkpt>
      <trkpt lat="43.022443" lon="-2.334126">
        <ele>479.4</ele>
      </trkpt>
      <trkpt lat="43.022457" lon="-2.334105">
        <ele>480.2</ele>
      </trkpt>
      <trkpt lat="43.022471" lon="-2.334090">
        <ele>480.9</ele>
      </trkpt>
      <trkpt lat="43.022491" lon="-2.334072">
        <ele>481.6</ele>
      </trkpt>
      <trkpt lat="43.022518" lon="-2.334059">
        <ele>481.9</ele>
      </trkpt>
      <trkpt lat="43.022536" lon="-2.334049">
        <ele>482.4</ele>
      </trkpt>
      <trkpt lat="43.022560" lon="-2.334045">
        <ele>482.5</ele>
      </trkpt>
      <trkpt lat="43.022587" lon="-2.334057">
        <ele>481.7</ele>
      </trkpt>
      <trkpt lat="43.022621" lon="-2.334062">
        <ele>481.3</ele>
      </trkpt>
      <trkpt lat="43.022640" lon="-2.334074">
        <ele>480.7</ele>
      </trkpt>
      <trkpt lat="43.022661" lon="-2.334077">
        <ele>480.5</ele>
      </trkpt>
      <trkpt lat="43.022682" lon="-2.334083">
        <ele>480.2</ele>
      </trkpt>
      <trkpt lat="43.022740" lon="-2.334095">
        <ele>479.3</ele>
      </trkpt>
      <trkpt lat="43.022758" lon="-2.334100">
        <ele>479.0</ele>
      </trkpt>
      <trkpt lat="43.022776" lon="-2.334108">
        <ele>478.5</ele>
      </trkpt>
      <trkpt lat="43.022835" lon="-2.334063">
        <ele>479.7</ele>
      </trkpt>
      <trkpt lat="43.022848" lon="-2.334046">
        <ele>480.1</ele>
      </trkpt>
      <trkpt lat="43.022871" lon="-2.334032">
        <ele>480.4</ele>
      </trkpt>
      <trkpt lat="43.022892" lon="-2.334030">
        <ele>480.1</ele>
      </trkpt>
      <trkpt lat="43.022912" lon="-2.334024">
        <ele>480.0</ele>
      </trkpt>
      <trkpt lat="43.022939" lon="-2.334023">
        <ele>479.6</ele>
      </trkpt>
      <trkpt lat="43.022957" lon="-2.334020">
        <ele>479.4</ele>
      </trkpt>
      <trkpt lat="43.022976" lon="-2.334015">
        <ele>479.3</ele>
      </trkpt>
      <trkpt lat="43.022993" lon="-2.334007">
        <ele>479.4</ele>
      </trkpt>
      <trkpt lat="43.023015" lon="-2.333992">
        <ele>479.6</ele>
      </trkpt>
      <trkpt lat="43.023045" lon="-2.333998">
        <ele>479.0</ele>
      </trkpt>
      <trkpt lat="43.023075" lon="-2.333990">
        <ele>478.7</ele>
      </trkpt>
      <trkpt lat="43.023098" lon="-2.333991">
        <ele>478.1</ele>
      </trkpt>
      <trkpt lat="43.023128" lon="-2.333990">
        <ele>477.5</ele>
      </trkpt>
      <trkpt lat="43.023151" lon="-2.333984">
        <ele>477.2</ele>
      </trkpt>
      <trkpt lat="43.023174" lon="-2.333981">
        <ele>476.7</ele>
      </trkpt>
      <trkpt lat="43.023191" lon="-2.333969">
        <ele>476.8</ele>
      </trkpt>
      <trkpt lat="43.023207" lon="-2.333948">
        <ele>477.1</ele>
      </trkpt>
      <trkpt lat="43.023222" lon="-2.333929">
        <ele>477.4</ele>
      </trkpt>
      <trkpt lat="43.023239" lon="-2.333908">
        <ele>477.8</ele>
      </trkpt>
      <trkpt lat="43.023263" lon="-2.333907">
        <ele>477.2</ele>
      </trkpt>
      <trkpt lat="43.023283" lon="-2.333918">
        <ele>476.4</ele>
      </trkpt>
      <trkpt lat="43.023302" lon="-2.333935">
        <ele>475.4</ele>
      </trkpt>
      <trkpt lat="43.023330" lon="-2.333936">
        <ele>474.7</ele>
      </trkpt>
      <trkpt lat="43.023359" lon="-2.333916">
        <ele>475.0</ele>
      </trkpt>
      <trkpt lat="43.023379" lon="-2.333903">
        <ele>475.5</ele>
      </trkpt>
      <trkpt lat="43.023395" lon="-2.333884">
        <ele>476.0</ele>
      </trkpt>
      <trkpt lat="43.023416" lon="-2.333866">
        <ele>476.4</ele>
      </trkpt>
      <trkpt lat="43.023420" lon="-2.333819">
        <ele>470.5</ele>
      </trkpt>
      <trkpt lat="43.023426" lon="-2.333790">
        <ele>471.3</ele>
      </trkpt>
      <trkpt lat="43.023435" lon="-2.333767">
        <ele>471.5</ele>
      </trkpt>
      <trkpt lat="43.023444" lon="-2.333733">
        <ele>472.3</ele>
      </trkpt>
      <trkpt lat="43.023484" lon="-2.333691">
        <ele>472.5</ele>
      </trkpt>
      <trkpt lat="43.023525" lon="-2.333661">
        <ele>472.4</ele>
      </trkpt>
      <trkpt lat="43.023569" lon="-2.333634">
        <ele>472.4</ele>
      </trkpt>
      <trkpt lat="43.023622" lon="-2.333613">
        <ele>471.7</ele>
      </trkpt>
      <trkpt lat="43.023662" lon="-2.333583">
        <ele>471.5</ele>
      </trkpt>
      <trkpt lat="43.023715" lon="-2.333566">
        <ele>471.0</ele>
      </trkpt>
      <trkpt lat="43.023782" lon="-2.333533">
        <ele>470.1</ele>
      </trkpt>
    </trkseg>
  </trk>
</gpx>
